# Wetter Temperatur Luftdruck Luftfeuchtigkeit Sichtweite Windgeschwindigkeit Windrichtung Zeit
1 Clear 18 1017 17 10000 3.6 180 11:31 14.08.2022
2 Clear 23 1016 12 10000 3.09 210 10:18 14.08.2022
3 Clear 24 1016 12 10000 2.57 210 08:18 14.08.2022
4 Clear 23 1018 15 10000 3.09 130 06:18 14.08.2022
5 Clear 13 1020 44 10000 0 0 01:48 14.08.2022
6 Clear 1 1019 75 10000 0 0 23:23 13.08.2022
7 Clear 2 1018 75 10000 0.51 330 22:28 13.08.2022
8 Clear 3 1019 70 10000 2.06 300 20:56 13.08.2022
9 Clear 3 1019 65 10000 2.06 320 19:50 13.08.2022
10 Clear 3 1019 65 10000 2.57 290 19:19 13.08.2022
11 Clear 5 1020 56 10000 0 0 17:22 13.08.2022
12 Clear 8 1020 53 10000 2.57 60 15:18 13.08.2022
13 Clear 9 1020 46 10000 1.54 60 14:24 13.08.2022
14 Clear 11 1020 43 10000 3.6 170 13:36 13.08.2022
15 Clear 15 1019 31 10000 3.09 100 11:49 13.08.2022
16 Clear 20 1018 22 10000 1.54 50 09:27 13.08.2022
17 Clear 20 1019 22 10000 1.54 100 07:48 13.08.2022
18 Clear 12 1022 47 10000 0 0 01:56 13.08.2022
19 Clear 1 1021 69 10000 2.57 290 23:36 12.08.2022
20 Clear 3 1021 65 10000 0 0 21:40 12.08.2022
21 Clear 4 1021 60 10000 2.57 330 19:51 12.08.2022
22 Clear 4 1021 60 10000 2.57 340 19:24 12.08.2022
23 Clear 3 1021 60 10000 2.57 280 18:31 12.08.2022
24 Clear 3 1022 56 10000 0 0 16:27 12.08.2022
25 Clear 6 1022 49 10000 2.57 300 15:23 12.08.2022
26 Clear 9 1021 43 10000 2.06 260 13:50 12.08.2022
27 Clear 10 1021 37 10000 3.09 190 12:50 12.08.2022
28 Clear 19 1018 18 10000 5.66 220 09:22 12.08.2022
29 Clear 18 1019 25 10000 3.09 270 07:46 12.08.2022
30 Clear 18 1020 27 10000 5.66 210 06:24 12.08.2022
31 Clear 8 1021 60 10000 3.6 260 00:49 12.08.2022
32 Clear 7 1021 63 10000 3.09 280 23:59 11.08.2022
33 Clear 8 1021 68 10000 3.09 290 23:27 11.08.2022
34 Clear 2 1020 100 10000 3.6 280 21:55 11.08.2022
35 Clear 3 1020 100 10000 3.09 300 21:28 11.08.2022
36 Clear 3 1020 100 10000 2.57 310 20:31 11.08.2022
37 Clouds 3 1021 100 10000 2.57 300 19:34 11.08.2022
38 Clouds 4 1021 100 10000 2.57 310 18:57 11.08.2022
39 Clouds 6 1021 93 10000 2.57 310 17:22 11.08.2022
40 Clouds 8 1021 88 10000 1.34 45 15:51 11.08.2022
41 Clouds 8 1021 93 10000 2.57 290 14:46 11.08.2022
42 Clouds 11 1019 82 10000 1.03 220 11:59 11.08.2022
43 Clouds 16 1017 63 10000 6.17 340 09:22 11.08.2022
44 Clouds 14 1019 77 10000 2.06 320 06:52 11.08.2022
45 Clouds 14 1022 72 10000 0 0 02:49 11.08.2022
46 Clouds 13 1021 71 10000 0 0 00:19 11.08.2022
47 Clouds 14 1020 62 10000 2.57 240 21:56 10.08.2022
48 Clouds 14 1020 62 10000 2.57 250 21:19 10.08.2022
49 Clouds 15 1021 58 10000 4.12 240 20:36 10.08.2022
50 Clouds 16 1021 55 10000 4.63 250 18:53 10.08.2022
51 Clouds 16 1021 51 10000 2.57 280 17:27 10.08.2022
52 Clouds 16 1020 51 10000 2.06 270 14:57 10.08.2022
53 Clouds 16 1020 48 10000 3.09 220 13:34 10.08.2022
54 Clouds 19 1019 42 10000 5.66 220 10:51 10.08.2022
55 Clouds 22 1018 30 10000 4.12 200 08:42 10.08.2022
56 Clouds 22 1018 30 10000 4.63 180 07:35 10.08.2022
57 Clouds 21 1019 28 10000 2.57 200 04:50 10.08.2022
58 Clouds 17 1020 42 10000 3.6 300 01:52 10.08.2022
59 Clouds 16 1019 48 10000 0.89 40 23:32 09.08.2022
60 Clouds 15 1018 47 10000 2.57 250 22:47 09.08.2022
61 Clouds 19 1016 18 10000 4.63 360 21:33 09.08.2022
62 Clouds 18 1017 22 10000 5.66 340 19:33 09.08.2022
63 Clouds 20 1017 21 10000 3.09 10 17:53 09.08.2022
64 Clouds 20 1016 18 10000 5.14 30 17:26 09.08.2022
65 Clouds 20 1018 14 10000 2.57 330 16:30 09.08.2022
66 Clear 20 1017 14 10000 5.66 360 15:26 09.08.2022
67 Clear 20 1016 15 10000 4.12 20 11:49 09.08.2022
68 Clear 26 1014 9 10000 5.14 30 08:53 09.08.2022
69 Clear 26 1015 8 10000 4.63 30 07:59 09.08.2022
70 Clear 25 1016 10 10000 6.17 70 06:55 09.08.2022
71 Clear 13 1021 30 10000 0.51 110 01:57 09.08.2022
72 Clear 6 1020 51 10000 0 0 23:26 08.08.2022
73 Clear 6 1020 50 10000 0.89 45 22:45 08.08.2022
74 Clear 7 1020 50 10000 0 0 21:47 08.08.2022
75 Clear 3 1020 52 10000 0 0 20:43 08.08.2022
76 Clear 6 1020 50 10000 0.51 60 19:41 08.08.2022
77 Clear 7 1020 49 10000 2.57 90 18:19 08.08.2022
78 Clear 7 1021 47 10000 3.09 100 15:55 08.08.2022
79 Clear 8 1021 40 10000 2.57 90 15:37 08.08.2022
80 Clear 14 1020 26 10000 2.57 120 12:31 08.08.2022
81 Clear 20 1019 20 10000 5.66 90 10:37 08.08.2022
82 Clear 22 1019 15 10000 5.14 100 07:59 08.08.2022
83 Clear 20 1022 21 10000 5.66 70 04:31 08.08.2022
84 Clear 2 1023 69 10000 0 0 00:33 08.08.2022
85 Clear 2 1021 64 10000 0 0 21:42 07.08.2022
86 Clear 2 1021 64 10000 0 0 21:19 07.08.2022
87 Clear 3 1021 65 10000 0 0 20:23 07.08.2022
88 Clear 4 1021 60 10000 0 0 19:52 07.08.2022
89 Clear 4 1021 60 10000 0 0 19:22 07.08.2022
90 Clear 5 1022 52 10000 0 0 17:45 07.08.2022
91 Clear 6 1022 56 10000 0 0 16:52 07.08.2022
92 Clear 8 1022 49 10000 0 0 15:39 07.08.2022
93 Clear 9 1022 43 10000 0 0 14:27 07.08.2022
94 Clear 13 1020 35 10000 3.09 130 12:41 07.08.2022
95 Clear 19 1019 24 10000 5.14 110 10:51 07.08.2022
96 Clear 20 1019 22 10000 4.63 100 10:20 07.08.2022
97 Clear 17 1022 29 10000 7.72 90 04:38 07.08.2022
98 Clear 13 1023 38 10000 6.69 80 02:25 07.08.2022
99 Clear 2 1020 64 10000 0 0 22:39 06.08.2022
100 Clear 2 1020 64 10000 0 0 22:18 06.08.2022
101 Clear 3 1020 56 10000 2.06 290 19:46 06.08.2022
102 Clear 4 1020 56 10000 0 0 18:49 06.08.2022
103 Clear 6 1020 52 10000 0 0 17:45 06.08.2022
104 Clear 6 1020 49 10000 2.57 90 16:24 06.08.2022
105 Clear 10 1020 40 10000 2.06 50 13:51 06.08.2022
106 Clear 12 1018 32 10000 4.12 130 12:27 06.08.2022
107 Clear 12 1018 32 10000 4.12 130 12:27 06.08.2022
108 Clear 18 1017 24 10000 3.6 130 10:53 06.08.2022
109 Clear 20 1017 21 10000 2.06 150 09:41 06.08.2022
110 Clear 18 1019 25 10000 5.66 110 04:43 06.08.2022
111 Clear 6 1020 61 10000 2.06 250 00:49 06.08.2022
112 Clear 5 1018 60 10000 2.57 270 22:35 05.08.2022
113 Clear 5 1017 60 10000 3.09 260 20:50 05.08.2022
114 Clear 5 1017 65 10000 2.06 270 18:56 05.08.2022
115 Clear 6 1017 61 10000 2.06 270 18:38 05.08.2022
116 Clear 8 1017 53 10000 2.06 300 16:52 05.08.2022
117 Clear 9 1016 53 10000 0 0 15:24 05.08.2022
118 Clear 10 1016 46 10000 0 0 14:35 05.08.2022
119 Clear 12 1015 37 10000 2.57 170 13:36 05.08.2022
120 Clear 12 1015 37 10000 2.57 170 13:18 05.08.2022
121 Clear 17 1014 29 10000 3.6 170 11:29 05.08.2022
122 Clear 21 1004 32 10000 3.09 180 08:57 05.08.2022
123 Clear 21 1004 32 10000 3.6 210 07:53 05.08.2022
124 Clear 21 1004 32 10000 4.63 210 04:19 05.08.2022
125 Clouds 11 1014 71 10000 2.57 280 23:18 04.08.2022
126 Clouds 12 1012 66 10000 2.06 260 21:28 04.08.2022
127 Clouds 12 1012 66 10000 2.06 270 20:57 04.08.2022
128 Clouds 13 1012 67 10000 3.6 270 20:36 04.08.2022
129 Clear 13 1012 71 10000 4.63 250 18:58 04.08.2022
130 Clear 12 1012 76 10000 4.12 250 18:33 04.08.2022
131 Clouds 16 1011 59 10000 3.09 280 15:53 04.08.2022
132 Clouds 21 1004 32 10000 2.57 270 13:26 04.08.2022
133 Clouds 21 1004 32 10000 2.57 270 13:26 04.08.2022
134 Clouds 21 1004 32 10000 4.63 290 11:39 04.08.2022
135 Clouds 25 1009 33 10000 5.14 290 10:21 04.08.2022
136 Clouds 21 1004 32 10000 4.63 300 07:45 04.08.2022
137 Clouds 21 1004 32 10000 5.66 270 02:48 04.08.2022
138 Clouds 21 1004 32 10000 3.6 310 00:33 04.08.2022
139 Clouds 22 1009 40 10000 3.6 340 23:39 03.08.2022
140 Clouds 22 1008 35 10000 4.63 340 21:27 03.08.2022
141 Clouds 22 1008 35 10000 4.12 320 20:21 03.08.2022
142 Clouds 21 1004 32 10000 7.2 300 19:19 03.08.2022
143 Clear 21 1004 32 10000 10.29 310 16:48 03.08.2022
144 Clear 21 1004 32 10000 9.77 310 16:22 03.08.2022
145 Clear 21 1004 32 10000 8.75 320 13:40 03.08.2022
146 Clear 29 1007 17 10000 6.17 310 10:50 03.08.2022
147 Clouds 31 1008 14 10000 10.29 310 07:23 03.08.2022
148 Clouds 28 1012 20 10000 6.17 310 04:22 03.08.2022
149 Clouds 26 1012 21 10000 7.72 310 03:23 03.08.2022
150 Clouds 21 1004 32 10000 7.2 330 00:49 03.08.2022
151 Clouds 21 1004 32 10000 4.63 320 22:37 02.08.2022
152 Clouds 21 1004 32 10000 4.63 320 21:51 02.08.2022
153 Clouds 23 1011 20 10000 4.63 310 20:29 02.08.2022
154 Clouds 22 1011 21 10000 3.09 290 17:47 02.08.2022
155 Clouds 25 1012 18 10000 5.66 350 14:39 02.08.2022
156 Clouds 27 1010 14 10000 6.69 320 10:50 02.08.2022
157 Clouds 30 1009 13 10000 9.77 340 08:54 02.08.2022
158 Clouds 30 1009 13 10000 9.77 340 08:54 02.08.2022
159 Clouds 28 1010 17 10000 10.29 330 07:52 02.08.2022
160 Clouds 24 1012 23 10000 8.75 360 04:59 02.08.2022
161 Clouds 25 1013 21 10000 12.05 354 03:36 02.08.2022
162 Clouds 19 1014 30 10000 3.6 10 23:32 01.08.2022
163 Clouds 20 1013 30 10000 3.09 20 21:54 01.08.2022
164 Clouds 20 1014 28 10000 4.12 360 20:34 01.08.2022
165 Clouds 19 1014 32 10000 2.06 50 19:22 01.08.2022
166 Clouds 19 1016 30 10000 3.6 40 17:22 01.08.2022
167 Clouds 19 1015 30 10000 3.6 50 16:49 01.08.2022
168 Clouds 17 1016 31 10000 3.09 70 15:46 01.08.2022
169 Clouds 17 1016 31 10000 3.09 70 15:19 01.08.2022
170 Clouds 17 1017 34 10000 2.06 90 13:39 01.08.2022
171 Clouds 21 1015 26 10000 3.6 120 11:18 01.08.2022
172 Clouds 23 1015 21 10000 4.63 130 09:38 01.08.2022
173 Clouds 25 1015 19 10000 2.57 90 08:18 01.08.2022
174 Clouds 19 1018 30 10000 6.17 80 04:43 01.08.2022
175 Clear 14 1020 44 10000 6.69 90 02:24 01.08.2022
176 Clear 6 1018 65 10000 1.03 160 22:54 31.07.2022
177 Clear 6 1017 61 10000 2.57 140 22:35 31.07.2022
178 Clear 7 1018 61 10000 2.57 90 20:44 31.07.2022
179 Clouds 11 1018 46 10000 0 0 18:42 31.07.2022
180 Clear 11 1018 73 10000 2.55 113 17:34 31.07.2022
181 Clear 12 1018 48 10000 3.36 136 14:57 31.07.2022
182 Clouds 14 1017 35 10000 2.57 80 13:19 31.07.2022
183 Clear 18 1016 27 10000 3.09 140 11:44 31.07.2022
184 Clouds 24 1015 20 10000 4.12 170 08:47 31.07.2022
185 Clouds 21 1004 32 10000 3.09 220 05:38 31.07.2022
186 Clouds 17 1017 25 10000 2.57 290 02:31 31.07.2022
187 Clouds 8 1015 46 10000 0 0 22:50 30.07.2022
188 Clouds 8 1015 42 10000 0 0 21:52 30.07.2022
189 Clouds 8 1015 46 10000 0 0 21:33 30.07.2022
190 Clouds 10 1016 37 10000 2.57 330 20:38 30.07.2022
191 Clouds 9 1016 43 10000 1.54 290 19:57 30.07.2022
192 Clouds 8 1016 42 10000 0 0 18:20 30.07.2022
193 Clouds 11 1016 35 10000 2.57 310 16:40 30.07.2022
194 Clouds 12 1016 32 10000 0 0 15:33 30.07.2022
195 Clouds 13 1016 33 10000 0.51 10 14:23 30.07.2022
196 Clouds 16 1016 27 10000 0.51 200 12:32 30.07.2022
197 Clouds 17 1016 25 10000 2.57 200 11:53 30.07.2022
198 Clouds 21 1004 32 10000 0 0 10:20 30.07.2022
199 Clouds 21 1004 32 10000 2.57 360 09:32 30.07.2022
200 Clouds 21 1004 32 10000 4.63 310 07:33 30.07.2022
201 Clouds 15 1020 31 10000 4.12 40 02:33 30.07.2022
202 Clouds 5 1020 52 10000 0 0 00:30 30.07.2022
203 Clouds 5 1019 48 10000 0 0 21:38 29.07.2022
204 Clouds 5 1020 48 10000 3.09 270 20:51 29.07.2022
205 Clouds 6 1020 45 10000 0 0 19:47 29.07.2022
206 Clouds 10 1020 34 10000 2.57 60 17:34 29.07.2022
207 Clear 9 1021 34 10000 0 0 14:50 29.07.2022
208 Clouds 13 1020 26 10000 2.57 90 12:55 29.07.2022
209 Clouds 21 1004 32 10000 5.66 110 09:34 29.07.2022
210 Clouds 21 1004 32 10000 5.14 80 08:41 29.07.2022
211 Clouds 21 1004 32 10000 5.14 80 06:40 29.07.2022
212 Clouds 7 1024 45 10000 0 0 01:19 29.07.2022
213 Clouds 2 1022 51 10000 0 0 21:45 28.07.2022
214 Clouds 3 1022 48 10000 0 0 20:54 28.07.2022
215 Clouds 2 1023 51 10000 0 0 20:21 28.07.2022
216 Clouds 7 1023 37 10000 2.97 102 19:40 28.07.2022
217 Clouds 3 1023 48 10000 2.57 310 18:25 28.07.2022
218 Clouds 4 1023 41 10000 0 0 17:42 28.07.2022
219 Clouds 4 1024 41 10000 0 0 16:41 28.07.2022
220 Clouds 7 1023 33 10000 0 0 14:30 28.07.2022
221 Clear 13 1022 22 10000 3.09 110 12:41 28.07.2022
222 Clear 21 1004 32 10000 5.14 110 09:25 28.07.2022
223 Clear 21 1004 32 10000 4.63 100 05:45 28.07.2022
224 Clear 17 1024 22 10000 6.69 110 05:21 28.07.2022
225 Clouds -2 1025 69 10000 0 0 00:29 28.07.2022
226 Clear -3 1023 74 10000 1.03 220 22:25 27.07.2022
227 Clear -1 1024 64 10000 2.06 270 20:20 27.07.2022
228 Clear -1 1024 59 10000 0 0 19:32 27.07.2022
229 Clear 3 1025 52 10000 0 0 16:34 27.07.2022
230 Clear 4 1025 45 10000 0 0 15:51 27.07.2022
231 Clear 6 1025 42 10000 1.54 110 14:42 27.07.2022
232 Clear 7 1025 39 10000 3.09 150 13:58 27.07.2022
233 Clear 10 1023 29 10000 3.09 120 11:49 27.07.2022
234 Clear 21 1004 32 10000 5.14 120 07:53 27.07.2022
235 Clear 15 1024 29 10000 5.66 110 05:23 27.07.2022
236 Clear -2 1024 93 10000 0 0 23:41 26.07.2022
237 Clear 0 1023 93 10000 0 0 22:20 26.07.2022
238 Clear 1 1023 80 10000 0 0 21:18 26.07.2022
239 Clear 1 1023 75 10000 0 0 19:33 26.07.2022
240 Clear 2 1024 75 10000 0 0 18:41 26.07.2022
241 Clear 2 1024 69 10000 0 0 17:54 26.07.2022
242 Clear 5 1025 70 10000 0 0 15:47 26.07.2022
243 Clear 6 1025 65 10000 2.57 130 14:43 26.07.2022
244 Clear 10 1023 50 10000 3.6 140 12:35 26.07.2022
245 Clear 16 1022 33 10000 5.66 110 10:35 26.07.2022
246 Clear 18 1023 29 10000 6.69 110 08:29 26.07.2022
247 Clear 12 1026 50 10000 8.23 110 02:25 26.07.2022
248 Clear 3 1025 87 10000 0 0 00:22 26.07.2022
249 Clear 4 1023 87 10000 1.03 170 22:41 25.07.2022
250 Clear 4 1023 87 10000 1.03 170 22:21 25.07.2022
251 Clear 4 1023 87 10000 1.54 230 21:31 25.07.2022
252 Clear 5 1023 81 10000 0 0 20:39 25.07.2022
253 Clear 6 1023 81 10000 0 0 19:25 25.07.2022
254 Clear 6 1023 75 10000 0 0 18:18 25.07.2022
255 Clear 9 1023 71 10000 0 0 17:23 25.07.2022
256 Clear 12 1022 62 10000 3.09 170 14:19 25.07.2022
257 Clear 19 1020 42 10000 3.6 150 10:56 25.07.2022
258 Clear 21 1004 32 10000 5.66 150 08:22 25.07.2022
259 Clear 14 1020 62 10000 2.57 250 01:44 25.07.2022
260 Clear 8 1019 81 10000 3.09 260 23:46 24.07.2022
261 Clear 10 1018 71 10000 3.6 270 22:49 24.07.2022
262 Clear 10 1017 71 10000 3.09 270 21:48 24.07.2022
263 Clear 12 1017 62 10000 2.06 280 21:18 24.07.2022
264 Clear 12 1017 58 10000 0 0 20:44 24.07.2022
265 Clear 10 1016 43 10000 5.66 200 19:23 24.07.2022
266 Clear 12 1015 37 10000 2.57 300 18:26 24.07.2022
267 Clear 14 1015 33 10000 2.57 320 15:55 24.07.2022
268 Clear 14 1015 30 10000 2.06 230 14:57 24.07.2022
269 Clear 19 1014 24 10000 2.57 330 13:50 24.07.2022
270 Clear 21 1004 32 10000 3.6 310 12:28 24.07.2022
271 Clear 21 1004 32 10000 3.09 330 11:31 24.07.2022
272 Clear 27 1012 12 10000 4.12 310 09:55 24.07.2022
273 Clear 28 1012 13 10000 5.66 330 08:29 24.07.2022
274 Clear 28 1012 12 10000 4.63 330 07:44 24.07.2022
275 Clear 21 1004 32 10000 5.66 350 03:35 24.07.2022
276 Clear 10 1015 32 10000 3.09 10 23:36 23.07.2022
277 Clear 6 1015 45 10000 0.51 140 20:49 23.07.2022
278 Clear 9 1015 37 10000 3.6 50 19:30 23.07.2022
279 Clear 9 1016 40 10000 0 0 18:40 23.07.2022
280 Clear 13 1016 28 10000 3.6 50 17:28 23.07.2022
281 Clear 12 1016 32 10000 0 0 16:29 23.07.2022
282 Clear 10 1016 37 10000 2.57 60 15:22 23.07.2022
283 Clear 14 1016 28 10000 2.57 70 14:55 23.07.2022
284 Clear 15 1016 26 10000 3.09 60 14:24 23.07.2022
285 Clear 20 1015 21 10000 4.12 90 11:56 23.07.2022
286 Clear 21 1004 32 10000 4.63 100 10:44 23.07.2022
287 Clear 21 1004 32 10000 4.63 80 09:44 23.07.2022
288 Clear 26 1014 14 10000 4.12 130 08:24 23.07.2022
289 Clear 21 1004 32 10000 2.57 20 03:38 23.07.2022
290 Clear 7 1018 53 10000 0 0 00:39 23.07.2022
291 Clear 8 1017 49 10000 0 0 21:38 22.07.2022
292 Clear 8 1017 49 10000 0 0 20:33 22.07.2022
293 Clear 7 1017 53 10000 0 0 18:56 22.07.2022
294 Clear 8 1018 49 10000 1.03 310 17:40 22.07.2022
295 Clear 9 1018 46 10000 0 0 16:26 22.07.2022
296 Clear 14 1017 33 10000 3.6 110 13:24 22.07.2022
297 Clear 24 1015 17 10000 2.57 110 10:23 22.07.2022
298 Clear 24 1015 17 10000 3.09 170 09:24 22.07.2022
299 Clear 25 1015 16 10000 2.06 120 08:26 22.07.2022
300 Clear 20 1019 22 10000 2.06 10 04:24 22.07.2022
301 Haze 1 1019 75 3600 0 0 23:44 21.07.2022
302 Clear 2 1019 75 10000 0 0 21:55 21.07.2022
303 Clear 6 1020 46 10000 2.4 63 20:28 21.07.2022
304 Clear 6 1021 48 10000 2.38 70 18:43 21.07.2022
305 Clear 5 1020 56 10000 1.54 50 17:22 21.07.2022
306 Clear 7 1020 53 10000 3.09 90 16:31 21.07.2022
307 Clear 10 1020 46 10000 2.57 100 14:46 21.07.2022
308 Clear 9 1020 43 10000 2.06 90 13:58 21.07.2022
309 Clear 12 1019 37 10000 3.09 110 12:18 21.07.2022
310 Clear 18 1018 25 10000 3.6 80 10:21 21.07.2022
311 Clear 19 1018 24 10000 3.6 110 08:53 21.07.2022
312 Clear 19 1018 24 10000 3.6 100 08:18 21.07.2022
313 Clear 18 1019 25 10000 4.12 120 06:45 21.07.2022
314 Clouds 11 1023 40 10000 6.69 80 02:59 21.07.2022
315 Clear 1 1021 75 10000 0 0 22:49 20.07.2022
316 Clear 1 1022 75 10000 0 0 22:19 20.07.2022
317 Clear 2 1022 69 10000 0 0 20:46 20.07.2022
318 Clear 1 1021 75 10000 0 0 19:47 20.07.2022
319 Clear 3 1021 65 10000 0 0 18:54 20.07.2022
320 Clear 3 1021 70 10000 0 0 18:31 20.07.2022
321 Clear 5 1022 65 10000 0 0 17:28 20.07.2022
322 Clear 8 1023 53 10000 0 0 15:33 20.07.2022
323 Clear 9 1022 49 10000 1.03 90 14:49 20.07.2022
324 Clear 11 1021 43 10000 3.6 130 13:21 20.07.2022
325 Clear 17 1020 29 10000 4.63 130 10:59 20.07.2022
326 Clear 21 1020 26 10000 4.63 100 06:35 20.07.2022
327 Clouds 13 1021 44 10000 5.66 90 01:47 20.07.2022
328 Clouds 8 1020 57 10000 2.57 90 00:42 20.07.2022
329 Clouds 9 1019 53 10000 2.57 110 22:37 19.07.2022
330 Clouds 9 1019 53 10000 2.57 110 22:18 19.07.2022
331 Clouds 11 1019 46 10000 3.6 90 20:50 19.07.2022
332 Clouds 12 1019 43 10000 2.57 70 19:32 19.07.2022
333 Clouds 13 1019 41 10000 2.06 110 18:42 19.07.2022
334 Clouds 14 1019 38 10000 3.09 100 17:54 19.07.2022
335 Clouds 16 1019 31 10000 6.69 90 15:49 19.07.2022
336 Clouds 16 1018 31 10000 3.6 70 13:46 19.07.2022
337 Clouds 19 1017 26 10000 4.12 120 11:34 19.07.2022
338 Clear 23 1016 18 10000 5.66 110 09:53 19.07.2022
339 Clear 25 1016 16 10000 4.63 110 08:48 19.07.2022
340 Clear 24 1016 17 10000 3.6 130 07:57 19.07.2022
341 Clear 24 1016 19 10000 3.6 20 07:18 19.07.2022
342 Clear 22 1019 21 10000 3.6 70 05:19 19.07.2022
343 Clear 18 1020 32 10000 4.12 70 03:40 19.07.2022
344 Clouds 4 1020 52 10000 0 0 00:18 19.07.2022
345 Clouds 5 1019 48 10000 0.51 110 23:20 18.07.2022
346 Clouds 7 1019 42 10000 2.06 130 22:42 18.07.2022
347 Clouds 7 1019 42 10000 0 0 21:26 18.07.2022
348 Clouds 7 1018 39 10000 0 0 20:45 18.07.2022
349 Clouds 7 1019 36 10000 0 0 18:50 18.07.2022
350 Clouds 7 1020 33 10000 3.09 40 16:45 18.07.2022
351 Clouds 8 1020 31 10000 0 0 15:40 18.07.2022
352 Clouds 13 1019 21 10000 3.6 80 13:40 18.07.2022
353 Clear 14 1019 19 10000 3.6 80 12:21 18.07.2022
354 Clear 22 1018 12 10000 6.69 110 09:56 18.07.2022
355 Clear 23 1018 12 10000 6.17 90 08:20 18.07.2022
356 Clear 22 1019 12 10000 5.66 100 06:39 18.07.2022
357 Clear 1 1020 47 10000 0 0 23:19 17.07.2022
358 Clear 2 1019 41 10000 0 0 22:32 17.07.2022
359 Clear 2 1019 41 10000 0 0 21:40 17.07.2022
360 Clear 3 1019 38 10000 0 0 20:46 17.07.2022
361 Clear 3 1019 38 10000 0 0 20:18 17.07.2022
362 Clear 4 1019 35 10000 0 0 19:25 17.07.2022
363 Clear 4 1020 38 10000 0 0 17:55 17.07.2022
364 Clear 3 1020 38 10000 0 0 17:36 17.07.2022
365 Clear 5 1020 30 10000 2.06 340 16:45 17.07.2022
366 Clear 6 1020 31 10000 2.57 340 16:22 17.07.2022
367 Clear 9 1020 21 10000 2.06 280 13:58 17.07.2022
368 Clear 12 1020 19 10000 1.03 70 12:56 17.07.2022
369 Clear 22 1018 8 10000 3.09 120 10:21 17.07.2022
370 Clear 23 1019 8 10000 2.57 100 07:31 17.07.2022
371 Clear 13 1022 19 10000 0.51 220 02:35 17.07.2022
372 Clear 2 1021 41 9000 2.57 300 00:33 17.07.2022
373 Clear 2 1020 41 10000 3.09 300 22:43 16.07.2022
374 Clear 3 1020 38 10000 2.57 310 20:45 16.07.2022
375 Clear 4 1020 33 10000 2.57 330 18:58 16.07.2022
376 Clear 4 1020 35 10000 2.57 290 17:48 16.07.2022
377 Clear 5 1020 30 10000 2.57 320 16:22 16.07.2022
378 Clear 10 1020 20 10000 0.51 110 13:26 16.07.2022
379 Clear 23 1019 7 10000 0 0 10:29 16.07.2022
380 Clear 23 1019 7 10000 1.54 230 09:26 16.07.2022
381 Clear 23 1019 6 10000 3.09 230 08:41 16.07.2022
382 Clear 23 1020 9 10000 3.09 210 07:23 16.07.2022
383 Clear 17 1023 19 10000 4.12 350 03:35 16.07.2022
384 Clear 2 1022 55 10000 2.06 350 00:45 16.07.2022
385 Clear 6 1021 39 10000 0 0 22:57 15.07.2022
386 Clear 5 1021 42 10000 3.6 10 22:26 15.07.2022
387 Clear 2 1022 55 10000 0 0 20:41 15.07.2022
388 Clear 0 1022 59 10000 0 0 19:34 15.07.2022
389 Clear 1 1022 51 10000 2.06 290 18:23 15.07.2022
390 Clear 1 1022 55 10000 0 0 16:53 15.07.2022
391 Clear 10 1022 29 10000 3.6 100 14:19 15.07.2022
392 Clear 12 1021 26 10000 3.6 70 12:37 15.07.2022
393 Clear 17 1021 17 10000 3.6 90 10:52 15.07.2022
394 Clear 20 1021 14 10000 4.12 120 07:48 15.07.2022
395 Clear 12 1026 32 10000 4.63 90 03:41 15.07.2022
396 Clear -3 1025 80 10000 0 0 00:40 15.07.2022
397 Clear -2 1024 80 10000 1.03 320 22:56 14.07.2022
398 Clear -2 1024 80 10000 0 0 22:24 14.07.2022
399 Clear -1 1024 74 10000 3.09 60 21:39 14.07.2022
400 Clear -1 1024 74 10000 3.09 60 21:19 14.07.2022
401 Clear -1 1024 74 10000 0 0 20:42 14.07.2022
402 Clouds -1 1024 74 10000 0 0 20:18 14.07.2022
403 Clouds 1 1024 69 10000 0 0 17:59 14.07.2022
404 Clear 1 1025 69 10000 0 0 16:19 14.07.2022
405 Clear 4 1025 56 10000 2.06 90 14:55 14.07.2022
406 Clear 9 1025 46 10000 3.09 70 13:51 14.07.2022
407 Clear 9 1024 43 10000 3.09 110 12:34 14.07.2022
408 Clear 13 1023 38 10000 3.6 80 11:26 14.07.2022
409 Clear 14 1023 33 10000 4.63 90 10:51 14.07.2022
410 Clear 17 1023 29 10000 5.66 90 08:45 14.07.2022
411 Clear 14 1026 44 10000 6.17 80 04:18 14.07.2022
412 Clear 3 1026 75 10000 0 0 01:18 14.07.2022
413 Clear 0 1025 80 10000 0 0 00:50 14.07.2022
414 Clear -2 1024 86 10000 2.06 250 22:30 13.07.2022
415 Clear -1 1024 80 10000 1.54 260 21:38 13.07.2022
416 Clear -1 1024 80 10000 0 0 20:38 13.07.2022
417 Clear 1 1024 80 10000 0 0 18:26 13.07.2022
418 Clear 1 1024 75 10000 0 0 17:22 13.07.2022
419 Clear 2 1024 75 10000 0 0 16:18 13.07.2022
420 Clear 5 1025 60 10000 2.57 140 13:57 13.07.2022
421 Clear 11 1023 43 10000 3.6 130 11:33 13.07.2022
422 Clear 14 1023 35 10000 5.66 120 10:44 13.07.2022
423 Clear 15 1022 33 10000 5.14 140 09:30 13.07.2022
424 Clear 16 1022 33 10000 6.17 110 08:24 13.07.2022
425 Clear 14 1025 44 10000 6.69 110 04:50 13.07.2022
426 Clear 2 1024 87 10000 0 0 00:47 13.07.2022
427 Clear 0 1023 93 10000 0 0 22:47 12.07.2022
428 Clear 1 1022 93 10000 0 0 21:49 12.07.2022
429 Clear 1 1022 86 10000 1.03 180 20:53 12.07.2022
430 Clear 3 1022 81 10000 2.57 180 20:21 12.07.2022
431 Clear 2 1023 80 10000 0 0 18:51 12.07.2022
432 Clear 3 1023 75 10000 0 0 17:23 12.07.2022
433 Clear 4 1023 70 10000 2.06 170 15:32 12.07.2022
434 Clear 8 1022 57 10000 3.09 150 13:43 12.07.2022
435 Clear 11 1021 50 10000 3.6 130 11:54 12.07.2022
436 Clear 14 1020 38 10000 4.12 140 10:45 12.07.2022
437 Clear 17 1020 31 10000 6.69 150 08:58 12.07.2022
438 Clear 17 1020 34 10000 4.63 140 07:48 12.07.2022
439 Clear 17 1020 34 10000 4.63 140 07:48 12.07.2022
440 Clear 16 1022 36 10000 5.66 110 05:47 12.07.2022
441 Clear 16 1023 39 10000 5.66 140 05:29 12.07.2022
442 Clear 7 1023 45 10000 3.6 270 01:31 12.07.2022
443 Clear 1 1021 60 10000 2.57 320 22:43 11.07.2022
444 Clear 2 1021 55 10000 3.09 290 21:34 11.07.2022
445 Clear 1 1020 55 10000 2.57 270 20:32 11.07.2022
446 Clear 2 1021 51 10000 0 0 19:18 11.07.2022
447 Clear 3 1021 48 10000 0 0 18:29 11.07.2022
448 Clear 4 1021 45 10000 0 0 16:30 11.07.2022
449 Clear 3 1021 44 10000 0 0 15:28 11.07.2022
450 Clear 8 1021 34 10000 0.51 170 13:19 11.07.2022
451 Clear 12 1020 24 10000 3.6 190 11:23 11.07.2022
452 Clear 18 1019 14 10000 4.12 190 09:55 11.07.2022
453 Clear 21 1004 32 10000 4.12 190 09:27 11.07.2022
454 Clear 21 1004 32 10000 3.09 140 08:32 11.07.2022
455 Clear 3 1023 70 10000 0 0 01:20 11.07.2022
456 Clear -3 1022 80 10000 0 0 23:54 10.07.2022
457 Clear -2 1021 80 10000 3.09 340 22:45 10.07.2022
458 Clear -2 1021 80 10000 2.06 250 20:56 10.07.2022
459 Clear -2 1021 74 10000 2.06 310 20:36 10.07.2022
460 Clear 0 1021 74 10000 0 0 19:30 10.07.2022
461 Clear 0 1021 74 10000 0 0 19:30 10.07.2022
462 Clear -1 1022 74 10000 2.06 240 18:35 10.07.2022
463 Clear 1 1022 69 10000 0 0 17:35 10.07.2022
464 Clear 2 1022 64 10000 0 0 16:24 10.07.2022
465 Clear 3 1022 56 10000 0 0 14:47 10.07.2022
466 Clear 6 1022 49 10000 1.03 130 13:31 10.07.2022
467 Clear 11 1022 35 10000 3.09 90 11:57 10.07.2022
468 Clear 16 1021 25 10000 4.12 70 09:46 10.07.2022
469 Clear 17 1021 23 10000 4.63 70 08:44 10.07.2022
470 Clear 16 1021 27 10000 5.14 80 07:20 10.07.2022
471 Clear -2 1023 93 10000 3.6 100 23:53 09.07.2022
472 Clear 0 1022 86 10000 2.57 180 22:26 09.07.2022
473 Clear -1 1022 93 10000 0 0 21:47 09.07.2022
474 Clear 1 1023 80 10000 2.06 290 19:50 09.07.2022
475 Clear 1 1024 80 10000 0 0 18:32 09.07.2022
476 Clear 2 1024 80 10000 0 0 17:32 09.07.2022
477 Clear 2 1024 75 10000 0 0 16:36 09.07.2022
478 Clear 4 1024 75 10000 0 0 15:39 09.07.2022
479 Clear 5 1024 65 10000 0 0 14:24 09.07.2022
480 Clear 6 1024 61 10000 2.57 150 13:48 09.07.2022
481 Clear 8 1023 57 10000 3.09 140 12:22 09.07.2022
482 Clear 14 1022 38 10000 5.14 110 10:27 09.07.2022
483 Clear 15 1021 33 10000 6.69 120 09:57 09.07.2022
484 Clear 16 1021 33 10000 7.2 100 07:44 09.07.2022
485 Clear 14 1024 44 10000 7.2 110 04:50 09.07.2022
486 Clear -1 1024 93 10000 0 0 00:43 09.07.2022
487 Clear 0 1022 93 10000 0 0 22:41 08.07.2022
488 Clear 0 1022 86 10000 0 0 21:27 08.07.2022
489 Clear 1 1022 80 10000 0 0 20:40 08.07.2022
490 Clear 1 1022 86 10000 0 0 19:48 08.07.2022
491 Clear 2 1023 80 10000 1.54 200 17:57 08.07.2022
492 Clear 3 1023 75 10000 0 0 16:37 08.07.2022
493 Clear 5 1023 70 10000 2.57 150 14:51 08.07.2022
494 Clear 8 1022 57 10000 3.6 140 12:42 08.07.2022
495 Clear 11 1021 43 10000 3.6 150 11:24 08.07.2022
496 Clear 14 1020 35 10000 4.63 130 10:21 08.07.2022
497 Clear 16 1020 29 10000 3.6 140 07:55 08.07.2022
498 Clear 15 1021 31 10000 5.14 130 06:23 08.07.2022
499 Clear -2 1023 80 10000 2.57 270 00:41 08.07.2022
500 Clear -1 1022 69 10000 3.09 290 22:57 07.07.2022
501 Clear -1 1022 64 10000 2.06 270 21:52 07.07.2022
502 Clear -1 1022 64 10000 0 0 19:35 07.07.2022
503 Clear 2 1022 55 10000 0 0 17:50 07.07.2022
504 Clear 0 1023 59 10000 0 0 16:23 07.07.2022
505 Clear 4 1023 45 10000 0 0 14:21 07.07.2022
506 Clear 7 1022 33 10000 2.57 160 12:43 07.07.2022
507 Clear 7 1022 33 10000 2.57 160 12:23 07.07.2022
508 Clear 10 1021 27 10000 3.6 130 11:33 07.07.2022
509 Clear 12 1021 24 10000 3.6 130 10:45 07.07.2022
510 Clear 15 1021 21 10000 4.12 140 10:27 07.07.2022
511 Clear 16 1020 20 10000 4.63 160 09:32 07.07.2022
512 Clear 16 1021 25 10000 5.14 120 06:26 07.07.2022
513 Clear 2 1025 47 10000 2.56 161 00:28 07.07.2022
514 Clear 2 1025 47 10000 2.56 161 23:36 06.07.2022
515 Clear -2 1022 69 10000 3.09 290 23:18 06.07.2022
516 Clear -2 1022 69 10000 3.09 290 22:51 06.07.2022
517 Clear -2 1022 69 10000 2.57 290 22:33 06.07.2022
518 Clear -1 1022 69 10000 2.57 270 20:19 06.07.2022
519 Clear 0 1022 64 10000 2.06 320 18:48 06.07.2022
520 Clear 3 1022 52 10000 2.06 310 16:58 06.07.2022
521 Clear 3 1023 48 10000 0 0 15:44 06.07.2022
522 Clear 7 1022 33 10000 2.57 180 12:44 06.07.2022
523 Clear 9 1021 31 10000 3.6 170 11:52 06.07.2022
524 Clear 13 1021 22 10000 3.09 140 10:48 06.07.2022
525 Clear 18 1020 16 10000 4.63 130 08:46 06.07.2022
526 Clear 17 1020 20 10000 3.09 150 07:41 06.07.2022
527 Clear 16 1021 23 10000 3.6 160 06:40 06.07.2022
528 Clear -2 1022 74 10000 2.57 300 22:50 05.07.2022
529 Clear -2 1022 80 10000 2.57 300 22:28 05.07.2022
530 Clear -1 1022 74 10000 2.57 300 20:42 05.07.2022
531 Clear -1 1022 74 10000 2.06 270 19:44 05.07.2022
532 Clear -1 1022 69 10000 2.57 290 19:26 05.07.2022
533 Clear -1 1022 69 10000 2.57 270 17:48 05.07.2022
534 Clear 1 1022 64 10000 0 0 16:57 05.07.2022
535 Clear 3 1022 56 10000 0 0 15:38 05.07.2022
536 Clear 4 1022 52 10000 0 0 14:33 05.07.2022
537 Clear 6 1021 45 10000 2.57 160 12:48 05.07.2022
538 Clear 7 1021 42 10000 3.09 170 12:19 05.07.2022
539 Clear 11 1020 32 10000 3.09 130 10:44 05.07.2022
540 Clear 15 1020 26 10000 4.63 130 09:28 05.07.2022
541 Clear 16 1020 27 10000 4.63 120 08:18 05.07.2022
542 Clear 13 1021 33 10000 4.12 120 05:45 05.07.2022
543 Clear 11 1023 43 10000 4.63 140 04:25 05.07.2022
544 Clear -3 1023 93 10000 3.09 270 00:37 05.07.2022
545 Clear -1 1023 86 10000 3.09 290 23:34 04.07.2022
546 Clear -2 1022 93 10000 3.09 280 22:47 04.07.2022
547 Clear -2 1022 93 10000 4.12 280 21:46 04.07.2022
548 Clear -1 1023 80 10000 2.57 260 20:53 04.07.2022
549 Clear -1 1023 80 10000 2.57 290 20:34 04.07.2022
550 Clear 0 1023 80 10000 3.09 310 19:55 04.07.2022
551 Clear -1 1023 86 10000 2.57 270 19:35 04.07.2022
552 Clear 0 1023 74 10000 2.06 280 18:18 04.07.2022
553 Clear 0 1024 74 10000 0 0 15:58 04.07.2022
554 Clear 2 1024 69 10000 0 0 15:33 04.07.2022
555 Clear 4 1023 60 10000 3.09 190 13:29 04.07.2022
556 Clear 7 1023 53 10000 2.57 160 12:30 04.07.2022
557 Clear 12 1022 35 10000 4.63 140 10:34 04.07.2022
558 Clear 13 1022 33 10000 5.66 150 09:52 04.07.2022
559 Clear 14 1022 30 10000 5.14 130 07:37 04.07.2022
560 Clear 11 1024 46 10000 5.14 150 04:48 04.07.2022
561 Clear -2 1024 93 10000 3.09 260 00:39 04.07.2022
562 Clear -2 1024 93 10000 3.09 260 22:59 03.07.2022
563 Clear -2 1023 93 10000 2.57 270 20:58 03.07.2022
564 Clear -1 1023 86 10000 3.09 250 20:31 03.07.2022
565 Clear 0 1024 80 10000 2.57 260 19:27 03.07.2022
566 Clear 0 1024 80 10000 2.57 250 18:43 03.07.2022
567 Clear 0 1024 80 10000 2.06 260 17:43 03.07.2022
568 Clear 2 1024 69 10000 0 0 15:51 03.07.2022
569 Clear 4 1024 60 10000 3.09 180 14:59 03.07.2022
570 Clear 3 1024 65 10000 3.09 180 14:18 03.07.2022
571 Clear 3 1024 65 10000 3.6 170 13:48 03.07.2022
572 Clear 7 1023 53 10000 3.6 170 12:33 03.07.2022
573 Clear 9 1022 43 10000 2.57 160 11:28 03.07.2022
574 Clear 12 1022 35 10000 4.63 150 10:38 03.07.2022
575 Clear 14 1022 30 10000 5.66 150 09:31 03.07.2022
576 Clear 13 1022 38 10000 6.69 170 07:35 03.07.2022
577 Clear 8 1026 61 10000 5.66 140 02:49 03.07.2022
578 Clear -2 1026 93 10000 0 0 00:20 03.07.2022
579 Clear -1 1025 93 10000 3.09 190 22:33 02.07.2022
580 Clear -1 1024 93 10000 0 0 20:58 02.07.2022
581 Clear 0 1024 86 10000 2.06 270 19:52 02.07.2022
582 Clear 1 1025 80 10000 0 0 19:20 02.07.2022
583 Clear 2 1025 80 10000 0 0 17:41 02.07.2022
584 Clear 2 1025 80 10000 2.57 170 16:53 02.07.2022
585 Clear 6 1025 61 10000 1.54 180 14:31 02.07.2022
586 Clear 7 1025 57 10000 3.09 140 12:21 02.07.2022
587 Clear 11 1024 46 10000 5.14 130 11:26 02.07.2022
588 Clear 13 1024 38 10000 6.17 130 10:37 02.07.2022
589 Clear 15 1023 36 10000 6.69 140 08:55 02.07.2022
590 Clear 14 1024 38 10000 7.2 140 08:20 02.07.2022
591 Clear 15 1024 38 10000 6.69 140 06:59 02.07.2022
592 Clear 9 1027 71 10000 6.17 120 01:53 02.07.2022
593 Clear 6 1026 81 10000 3.6 130 23:56 01.07.2022
594 Clear 9 1025 66 10000 4.63 130 22:41 01.07.2022
595 Clear 10 1026 62 10000 6.17 120 21:47 01.07.2022
596 Clear 10 1026 62 10000 6.17 130 21:27 01.07.2022
597 Clear 10 1026 62 10000 4.63 130 20:38 01.07.2022
598 Clear 10 1026 62 10000 3.6 130 19:42 01.07.2022
599 Clear 10 1026 62 10000 3.6 140 17:53 01.07.2022
600 Clear 9 1027 66 10000 3.09 170 15:50 01.07.2022
601 Clear 7 1027 70 10000 2.57 170 13:54 01.07.2022
602 Clear 11 1026 50 10000 3.6 140 11:56 01.07.2022
603 Clear 14 1024 38 10000 6.17 120 10:20 01.07.2022
604 Clear 14 1024 38 10000 6.17 120 10:20 01.07.2022
605 Clear 16 1024 36 10000 7.2 150 09:31 01.07.2022
606 Clear 13 1027 58 10000 7.72 130 03:42 01.07.2022
607 Clouds 4 1026 93 10000 2.57 180 00:26 01.07.2022
608 Clouds 5 1025 87 10000 3.09 190 22:58 30.06.2022
609 Clouds 6 1025 81 10000 2.06 190 22:33 30.06.2022
610 Clouds 9 1025 71 10000 3.09 150 21:59 30.06.2022
611 Clouds 9 1025 71 10000 4.63 160 21:41 30.06.2022
612 Clouds 10 1025 71 10000 4.63 160 20:29 30.06.2022
613 Clouds 10 1026 71 10000 4.12 150 19:54 30.06.2022
614 Clouds 10 1025 66 10000 4.12 150 19:19 30.06.2022
615 Clouds 11 1026 62 10000 5.14 150 18:42 30.06.2022
616 Clouds 11 1026 66 10000 4.63 150 17:38 30.06.2022
617 Clouds 10 1026 66 10000 3.6 150 16:48 30.06.2022
618 Clouds 9 1026 71 10000 3.6 170 15:38 30.06.2022
619 Clouds 9 1025 61 10000 3.09 170 13:34 30.06.2022
620 Clouds 11 1024 54 10000 3.6 150 12:35 30.06.2022
621 Clouds 12 1024 47 10000 3.6 130 11:37 30.06.2022
622 Clear 15 1022 31 10000 6.69 140 09:54 30.06.2022
623 Clear 16 1022 31 10000 7.2 150 09:34 30.06.2022
624 Clear 16 1022 29 10000 6.17 150 07:51 30.06.2022
625 Clear 16 1024 23 10000 6.17 160 05:57 30.06.2022
626 Clear 2 1024 80 10000 2.06 240 00:32 30.06.2022
627 Clear 2 1023 80 10000 2.57 260 23:21 29.06.2022
628 Clear 2 1023 75 10000 2.57 210 22:39 29.06.2022
629 Clear 3 1023 70 10000 2.06 250 21:34 29.06.2022
630 Clear 3 1023 70 10000 0 0 20:33 29.06.2022
631 Clouds 4 1023 65 10000 0 0 19:37 29.06.2022
632 Clouds 7 1023 53 10000 3.09 180 17:43 29.06.2022
633 Clouds 9 1023 46 10000 2.57 150 16:37 29.06.2022
634 Clouds 12 1023 37 10000 3.6 130 14:56 29.06.2022
635 Clouds 12 1021 40 10000 4.12 150 12:40 29.06.2022
636 Clouds 15 1020 31 10000 4.12 140 10:56 29.06.2022
637 Clouds 18 1019 27 10000 6.17 130 09:32 29.06.2022
638 Clear 18 1019 29 10000 4.63 130 07:39 29.06.2022
639 Clear 16 1020 28 10000 5.31 120 04:51 29.06.2022
640 Clouds 11 1022 54 10000 3.09 150 00:57 29.06.2022
641 Clouds 11 1022 54 10000 2.57 170 00:35 29.06.2022
642 Clouds 11 1022 54 10000 3.09 200 22:53 28.06.2022
643 Clouds 11 1021 54 10000 2.57 210 22:24 28.06.2022
644 Clouds 11 1020 54 10000 3.6 200 21:54 28.06.2022
645 Clouds 10 1020 57 10000 3.09 170 21:32 28.06.2022
646 Clouds 11 1021 54 10000 2.57 160 20:34 28.06.2022
647 Clouds 11 1021 58 10000 0 0 19:33 28.06.2022
648 Clouds 11 1021 58 10000 1.03 150 18:45 28.06.2022
649 Clouds 11 1021 58 10000 1.03 150 18:45 28.06.2022
650 Clouds 11 1021 58 10000 4.12 120 17:39 28.06.2022
651 Clouds 10 1022 62 10000 2.57 110 15:57 28.06.2022
652 Clouds 10 1022 57 10000 0 0 15:21 28.06.2022
653 Clouds 11 1023 54 10000 3.09 110 14:20 28.06.2022
654 Clouds 11 1022 54 10000 2.57 120 13:50 28.06.2022
655 Clouds 12 1023 50 10000 3.09 90 12:54 28.06.2022
656 Clouds 13 1023 47 10000 3.09 120 11:18 28.06.2022
657 Clouds 14 1022 41 10000 3.09 100 09:28 28.06.2022
658 Clouds 14 1022 41 10000 3.6 60 08:43 28.06.2022
659 Clouds 15 1022 38 10000 4.63 100 07:42 28.06.2022
660 Clouds 14 1023 44 10000 4.63 110 05:58 28.06.2022
661 Clouds 9 1025 61 10000 2.06 80 00:00 28.06.2022
662 Clouds 10 1025 57 10000 3.09 80 23:36 27.06.2022
663 Clouds 10 1025 57 10000 2.57 120 22:51 27.06.2022
664 Clouds 11 1025 54 10000 4.63 120 21:33 27.06.2022
665 Clouds 11 1025 54 10000 4.12 120 20:48 27.06.2022
666 Clouds 12 1026 50 10000 4.12 130 18:58 27.06.2022
667 Clouds 12 1026 54 10000 4.12 120 18:19 27.06.2022
668 Clouds 13 1026 47 10000 5.14 120 16:19 27.06.2022
669 Clouds 12 1027 54 10000 3.6 130 14:44 27.06.2022
670 Clouds 14 1026 47 10000 3.6 130 13:25 27.06.2022
671 Clouds 14 1026 47 10000 4.12 130 12:52 27.06.2022
672 Clouds 17 1025 39 10000 7.2 110 10:22 27.06.2022
673 Clouds 20 1025 32 10000 8.23 120 08:48 27.06.2022
674 Clouds 18 1025 36 10000 8.23 120 08:19 27.06.2022
675 Clouds 19 1026 34 10000 8.75 90 06:38 27.06.2022
676 Clouds 11 1029 71 10000 2.57 90 02:23 27.06.2022
677 Clouds 6 1028 87 10000 2.57 150 23:49 26.06.2022
678 Clouds 5 1027 87 10000 2.57 110 21:58 26.06.2022
679 Clouds 5 1027 87 10000 2.57 110 20:34 26.06.2022
680 Clouds 5 1027 87 10000 2.06 140 19:23 26.06.2022
681 Clouds 7 1027 81 10000 2.57 170 18:24 26.06.2022
682 Clouds 7 1027 81 10000 3.6 150 15:53 26.06.2022
683 Clouds 8 1027 71 10000 3.6 170 14:34 26.06.2022
684 Clouds 10 1026 62 10000 2.57 150 13:30 26.06.2022
685 Clouds 10 1026 62 10000 3.09 130 12:52 26.06.2022
686 Clouds 15 1025 44 10000 5.66 130 11:21 26.06.2022
687 Clouds 17 1024 36 10000 8.23 120 10:23 26.06.2022
688 Clear 18 1023 32 10000 8.23 140 08:46 26.06.2022
689 Clouds 19 1024 26 10000 8.23 120 07:23 26.06.2022
690 Clear 5 1026 81 10000 2.57 270 00:48 26.06.2022
691 Clear 4 1025 81 10000 2.57 280 00:20 26.06.2022
692 Clear 2 1024 87 10000 2.57 270 23:33 25.06.2022
693 Clear 4 1024 81 10000 2.57 250 22:51 25.06.2022
694 Clear 3 1024 87 10000 2.57 270 22:26 25.06.2022
695 Clear 3 1023 81 10000 2.06 250 21:23 25.06.2022
696 Clear 4 1023 81 10000 0 0 20:59 25.06.2022
697 Clouds 5 1023 75 10000 0 0 20:25 25.06.2022
698 Clouds 5 1023 75 10000 0 0 18:42 25.06.2022
699 Clouds 7 1023 65 10000 0.51 330 17:28 25.06.2022
700 Clouds 7 1023 61 10000 0.51 290 16:31 25.06.2022
701 Clouds 8 1023 57 10000 0 0 14:47 25.06.2022
702 Clouds 12 1022 43 10000 3.09 160 12:51 25.06.2022
703 Clouds 12 1022 43 10000 3.6 150 12:32 25.06.2022
704 Clouds 12 1022 43 10000 3.6 150 12:32 25.06.2022
705 Clouds 21 1020 23 10000 6.69 130 09:35 25.06.2022
706 Clouds 21 1020 23 10000 6.69 140 08:55 25.06.2022
707 Clouds 21 1019 23 10000 5.66 130 08:25 25.06.2022
708 Clouds 21 1020 26 10000 6.17 100 06:36 25.06.2022
709 Clouds 10 1022 66 10000 0 0 01:31 25.06.2022
710 Clouds 4 1021 81 10000 2.57 300 23:58 24.06.2022
711 Clouds 4 1021 81 10000 0 0 22:29 24.06.2022
712 Clouds 6 1020 75 10000 2.57 330 21:28 24.06.2022
713 Clouds 5 1020 75 10000 2.06 290 20:24 24.06.2022
714 Clouds 5 1020 75 10000 2.57 300 19:39 24.06.2022
715 Clouds 5 1020 75 10000 2.57 300 19:18 24.06.2022
716 Clouds 5 1020 75 10000 1.54 290 18:44 24.06.2022
717 Clouds 6 1020 70 10000 1.54 290 18:24 24.06.2022
718 Clear 7 1021 65 10000 0 0 16:47 24.06.2022
719 Clear 9 1021 57 10000 0 0 14:50 24.06.2022
720 Clear 9 1021 57 10000 1.54 120 14:23 24.06.2022
721 Clear 12 1021 47 10000 0 0 13:41 24.06.2022
722 Clear 16 1019 33 10000 3.6 140 11:41 24.06.2022
723 Clear 21 1019 23 10000 2.57 130 10:36 24.06.2022
724 Clear 23 1018 20 10000 3.09 130 09:42 24.06.2022
725 Clear 23 1018 20 10000 3.6 150 08:54 24.06.2022
726 Clear 23 1018 18 10000 2.06 110 07:57 24.06.2022
727 Clear 23 1019 20 10000 3.6 150 06:43 24.06.2022
728 Clear 23 1020 21 10000 3.6 170 06:20 24.06.2022
729 Clear 21 1022 26 10000 0 0 04:41 24.06.2022
730 Clear 3 1021 87 10000 0 0 23:24 23.06.2022
731 Clear 4 1021 87 10000 1.54 320 22:42 23.06.2022
732 Clear 5 1022 81 10000 2.06 330 20:59 23.06.2022
733 Clear 5 1022 87 10000 0 0 20:36 23.06.2022
734 Clear 6 1022 81 10000 0 0 19:40 23.06.2022
735 Clear 5 1023 81 10000 0 0 17:53 23.06.2022
736 Clear 7 1023 76 10000 2.06 330 17:33 23.06.2022
737 Clear 8 1023 71 10000 2.06 280 16:23 23.06.2022
738 Clear 9 1023 66 10000 1.54 120 15:25 23.06.2022
739 Clear 11 1022 58 10000 0 0 13:46 23.06.2022
740 Clear 17 1021 39 10000 3.09 130 11:27 23.06.2022
741 Clear 21 1004 32 10000 3.09 130 10:40 23.06.2022
742 Clear 21 1004 32 10000 3.6 130 09:18 23.06.2022
743 Clear 17 1026 45 10000 5.66 70 03:40 23.06.2022
744 Clear 2 1026 93 10000 0 0 00:27 23.06.2022
745 Clear 3 1026 93 10000 2.06 280 23:41 22.06.2022
746 Clear 4 1026 93 10000 2.57 270 22:48 22.06.2022
747 Clear 4 1026 93 10000 2.57 270 22:48 22.06.2022
748 Clear 4 1026 87 10000 3.09 310 21:22 22.06.2022
749 Clear 4 1026 87 10000 2.06 270 20:45 22.06.2022
750 Clear 5 1026 87 10000 2.57 300 19:58 22.06.2022
751 Clear 5 1026 87 10000 0 0 18:49 22.06.2022
752 Clear 6 1026 75 10000 0 0 17:28 22.06.2022
753 Clear 7 1026 81 10000 0 0 16:33 22.06.2022
754 Clear 10 1026 66 10000 0 0 15:27 22.06.2022
755 Clear 10 1026 66 10000 2.06 130 14:21 22.06.2022
756 Clear 10 1026 66 10000 2.57 140 13:41 22.06.2022
757 Clear 10 1026 66 10000 2.57 140 13:23 22.06.2022
758 Clear 13 1025 54 10000 2.57 140 11:50 22.06.2022
759 Clear 16 1025 44 10000 3.6 140 10:57 22.06.2022
760 Clear 21 1004 32 10000 4.63 130 10:19 22.06.2022
761 Clear 21 1004 32 10000 5.66 100 08:28 22.06.2022
762 Clear 21 1004 32 10000 5.66 130 05:38 22.06.2022
763 Clear 8 1027 87 10000 0 0 01:39 22.06.2022
764 Clear 4 1026 93 10000 0 0 00:29 22.06.2022
765 Clear 5 1025 87 10000 0.51 250 22:37 21.06.2022
766 Clear 7 1025 81 10000 2.57 310 19:57 21.06.2022
767 Clear 7 1025 81 10000 0 0 18:36 21.06.2022
768 Clear 7 1025 81 10000 0 0 17:39 21.06.2022
769 Clear 11 1025 62 10000 0 0 14:22 21.06.2022
770 Clear 15 1023 47 10000 3.09 140 11:49 21.06.2022
771 Clear 21 1004 32 10000 4.63 120 10:18 21.06.2022
772 Clear 21 1004 32 10000 6.69 120 08:48 21.06.2022
773 Clear 21 1004 32 10000 5.66 140 07:23 21.06.2022
774 Clear 13 1023 58 10000 2.06 250 01:43 21.06.2022
775 Clear 5 1021 87 10000 2.06 240 23:26 20.06.2022
776 Clear 7 1020 81 10000 1.54 320 21:55 20.06.2022
777 Clear 7 1020 81 10000 2.06 320 21:30 20.06.2022
778 Clear 8 1020 76 10000 2.57 220 19:44 20.06.2022
779 Clear 8 1020 76 10000 0 0 18:48 20.06.2022
780 Clear 9 1020 76 10000 0.51 140 18:23 20.06.2022
781 Clear 9 1020 76 10000 0 0 17:36 20.06.2022
782 Clear 10 1020 71 10000 0 0 15:58 20.06.2022
783 Clear 14 1019 54 10000 2.06 100 13:34 20.06.2022
784 Clear 21 1004 32 10000 3.6 120 11:25 20.06.2022
785 Clear 21 1004 32 10000 4.12 130 09:47 20.06.2022
786 Clear 25 1016 22 10000 5.14 110 08:45 20.06.2022
787 Clear 25 1017 22 10000 2.06 110 06:49 20.06.2022
788 Clear 21 1004 32 10000 0 0 03:20 20.06.2022
789 Clouds 6 1018 87 10000 0 0 00:37 20.06.2022
790 Clouds 7 1018 81 10000 0 0 23:24 19.06.2022
791 Clouds 8 1017 76 10000 2.06 320 22:18 19.06.2022
792 Clouds 8 1017 81 10000 2.06 330 21:41 19.06.2022
793 Clouds 8 1018 76 10000 1.54 340 20:46 19.06.2022
794 Clouds 8 1018 81 10000 0 0 19:48 19.06.2022
795 Clouds 8 1018 81 10000 0 0 19:23 19.06.2022
796 Clouds 10 1018 71 10000 0 0 18:31 19.06.2022
797 Clouds 11 1018 66 10000 2.57 330 17:34 19.06.2022
798 Clouds 11 1019 66 10000 1.54 310 16:38 19.06.2022
799 Clouds 10 1019 71 10000 1.54 220 15:44 19.06.2022
800 Clouds 11 1019 66 10000 0 0 15:26 19.06.2022
801 Clouds 12 1018 62 10000 0 0 14:30 19.06.2022
802 Clouds 13 1018 54 10000 0 0 13:43 19.06.2022
803 Clouds 17 1017 39 10000 0 0 11:53 19.06.2022
804 Clouds 21 1004 32 10000 2.57 80 10:51 19.06.2022
805 Clouds 21 1004 32 10000 3.6 160 08:55 19.06.2022
806 Clouds 21 1004 32 10000 3.6 180 08:30 19.06.2022
807 Clouds 21 1004 32 10000 1.54 230 06:41 19.06.2022
808 Clouds 19 1020 32 10000 2.06 20 03:19 19.06.2022
809 Clouds 9 1019 71 10000 0 0 00:27 19.06.2022
810 Clouds 10 1019 66 10000 1.54 100 23:37 18.06.2022
811 Clouds 10 1019 66 10000 1.54 100 23:19 18.06.2022
812 Clouds 13 1018 50 10000 0 0 21:54 18.06.2022
813 Clouds 12 1019 54 10000 2.57 50 20:50 18.06.2022
814 Clouds 10 1019 71 10000 3.09 40 19:50 18.06.2022
815 Clouds 10 1020 71 10000 0 0 18:54 18.06.2022
816 Clouds 10 1020 71 10000 0 0 18:30 18.06.2022
817 Clouds 10 1020 66 10000 0 0 17:28 18.06.2022
818 Clouds 12 1020 58 10000 2.57 60 15:39 18.06.2022
819 Clouds 13 1020 54 10000 1.54 80 14:50 18.06.2022
820 Clouds 13 1020 54 10000 0 0 13:54 18.06.2022
821 Clouds 16 1019 41 10000 3.09 110 12:25 18.06.2022
822 Clouds 17 1018 36 10000 3.6 100 10:59 18.06.2022
823 Clouds 21 1004 32 10000 5.14 100 09:29 18.06.2022
824 Clouds 21 1004 32 10000 5.14 110 08:37 18.06.2022
825 Clouds 21 1004 32 10000 3.6 120 07:33 18.06.2022
826 Clear 19 1021 37 10000 6.69 70 04:43 18.06.2022
827 Clear 9 1022 81 10000 0.51 30 01:27 18.06.2022
828 Clear 6 1022 93 10000 0 0 00:55 18.06.2022
829 Clear 4 1022 93 10000 0 0 00:23 18.06.2022
830 Clear 5 1021 87 10000 0 0 23:33 17.06.2022
831 Clear 5 1020 93 10000 0 0 21:57 17.06.2022
832 Clouds 6 1021 87 10000 0 0 20:29 17.06.2022
833 Clouds 6 1022 87 10000 0 0 19:20 17.06.2022
834 Clouds 7 1021 81 10000 0 0 17:47 17.06.2022
835 Clouds 7 1021 81 10000 0 0 16:44 17.06.2022
836 Clouds 8 1022 81 10000 0 0 16:21 17.06.2022
837 Clouds 9 1022 71 10000 0 0 15:37 17.06.2022
838 Clouds 11 1022 66 10000 0 0 14:23 17.06.2022
839 Clouds 11 1022 62 10000 0 0 13:57 17.06.2022
840 Clouds 12 1021 58 10000 0 0 13:37 17.06.2022
841 Clear 13 1021 54 10000 3.09 130 12:20 17.06.2022
842 Clear 15 1020 47 10000 2.57 110 11:49 17.06.2022
843 Clear 16 1020 44 10000 3.6 120 11:30 17.06.2022
844 Clear 21 1004 32 10000 4.63 110 08:45 17.06.2022
845 Clear 21 1004 32 10000 5.66 100 08:24 17.06.2022
846 Clear 21 1004 32 10000 5.66 110 06:35 17.06.2022
847 Clear 18 1023 39 10000 3.09 90 03:42 17.06.2022
848 Clear 11 1023 71 10000 0 0 01:55 17.06.2022
849 Clear 6 1021 87 10000 0 0 23:34 16.06.2022
850 Clear 5 1021 93 10000 0 0 22:40 16.06.2022
851 Clouds 6 1020 87 10000 0 0 21:21 16.06.2022
852 Clouds 7 1021 81 10000 0 0 20:50 16.06.2022
853 Clouds 7 1021 87 10000 0 0 20:21 16.06.2022
854 Clouds 8 1021 81 10000 0 0 18:51 16.06.2022
855 Clouds 9 1021 76 10000 0 0 17:50 16.06.2022
856 Clouds 9 1021 76 10000 0 0 17:27 16.06.2022
857 Clouds 9 1022 76 10000 0 0 16:20 16.06.2022
858 Clouds 10 1022 71 10000 0 0 15:21 16.06.2022
859 Clouds 12 1022 62 10000 0 0 14:27 16.06.2022
860 Clear 14 1022 51 10000 3.09 120 12:53 16.06.2022
861 Clear 15 1021 51 10000 3.6 120 12:34 16.06.2022
862 Clear 16 1021 44 10000 3.6 130 11:48 16.06.2022
863 Clear 21 1004 32 10000 4.63 120 10:41 16.06.2022
864 Clear 21 1004 32 10000 3.6 150 09:43 16.06.2022
865 Clear 21 1004 32 10000 4.63 160 08:57 16.06.2022
866 Clear 21 1004 32 10000 5.14 100 07:41 16.06.2022
867 Clear 21 1004 32 10000 4.63 120 05:51 16.06.2022
868 Clear 21 1004 32 10000 5.14 80 03:56 16.06.2022
869 Clouds 13 1024 67 10000 0 0 01:52 16.06.2022
870 Clouds 10 1023 76 10000 0 0 01:22 16.06.2022
871 Clouds 6 1022 87 10000 2.06 300 00:22 16.06.2022
872 Clouds 5 1022 87 10000 2.06 330 22:53 15.06.2022
873 Clouds 6 1022 81 10000 0 0 21:37 15.06.2022
874 Clear 6 1022 87 10000 0 0 20:59 15.06.2022
875 Clear 6 1022 87 10000 0 0 20:36 15.06.2022
876 Clear 7 1022 81 10000 0 0 19:57 15.06.2022
877 Clear 8 1022 76 10000 0.51 350 18:37 15.06.2022
878 Clear 10 1022 66 10000 2.57 350 17:46 15.06.2022
879 Clear 10 1022 66 10000 0 0 16:27 15.06.2022
880 Clear 11 1022 62 10000 0 0 15:19 15.06.2022
881 Clouds 13 1022 54 10000 0 0 13:29 15.06.2022
882 Clouds 12 1021 54 10000 2.57 160 12:47 15.06.2022
883 Clouds 21 1004 32 10000 3.09 150 11:25 15.06.2022
884 Clouds 21 1004 32 10000 3.6 140 10:22 15.06.2022
885 Clear 21 1004 32 10000 5.66 160 08:59 15.06.2022
886 Clear 21 1004 32 10000 5.14 170 07:36 15.06.2022
887 Clear 21 1004 32 10000 1.54 180 05:36 15.06.2022
888 Clear 21 1004 32 10000 1.03 280 02:47 15.06.2022
889 Clear 11 1022 66 10000 0 0 01:36 15.06.2022
890 Clear 5 1021 81 10000 0 0 00:19 15.06.2022
891 Clear 5 1021 81 10000 0 0 23:38 14.06.2022
892 Clear 5 1021 81 10000 0 0 22:46 14.06.2022
893 Clear 6 1020 81 10000 3.6 280 21:43 14.06.2022
894 Clear 6 1020 81 10000 0 0 20:58 14.06.2022
895 Clear 6 1021 81 10000 0 0 20:38 14.06.2022
896 Clear 8 1021 71 10000 0 0 19:47 14.06.2022
897 Clear 8 1021 71 10000 2.06 280 18:39 14.06.2022
898 Clear 7 1021 76 10000 0 0 16:53 14.06.2022
899 Clear 8 1021 71 10000 0 0 16:34 14.06.2022
900 Clear 10 1021 62 10000 0 0 15:41 14.06.2022
901 Clear 11 1021 58 10000 3.09 10 14:53 14.06.2022
902 Clear 11 1021 62 10000 0.51 310 13:59 14.06.2022
903 Clear 13 1020 50 10000 0 0 12:59 14.06.2022
904 Clear 17 1020 34 10000 3.09 130 11:56 14.06.2022
905 Clear 21 1004 32 10000 2.57 140 10:51 14.06.2022
906 Clear 21 1004 32 10000 3.09 170 10:28 14.06.2022
907 Clear 21 1004 32 10000 2.57 180 09:18 14.06.2022
908 Clear 21 1004 32 10000 2.57 130 08:24 14.06.2022
909 Clear 21 1004 32 10000 2.06 210 06:20 14.06.2022
910 Clear 20 1021 30 10000 0 0 03:45 14.06.2022
911 Clear 8 1021 76 10000 0 0 01:37 14.06.2022
912 Clear 4 1021 87 10000 0 0 00:21 14.06.2022
913 Clear 3 1020 87 10000 0 0 22:39 13.06.2022
914 Clear 3 1020 87 10000 0 0 22:19 13.06.2022
915 Clear 3 1020 87 10000 0 0 21:24 13.06.2022
916 Clear 4 1020 81 10000 0 0 19:48 13.06.2022
917 Clear 5 1021 75 10000 0 0 18:52 13.06.2022
918 Clear 5 1021 81 10000 0 0 17:52 13.06.2022
919 Clear 6 1020 75 10000 0 0 17:21 13.06.2022
920 Clouds 8 1021 66 10000 0 0 16:22 13.06.2022
921 Clouds 8 1020 66 10000 3.09 50 14:48 13.06.2022
922 Clouds 9 1021 57 10000 2.57 40 14:18 13.06.2022
923 Clouds 12 1020 37 10000 2.57 100 13:23 13.06.2022
924 Clouds 14 1020 33 10000 2.57 100 11:50 13.06.2022
925 Clouds 21 1004 32 10000 3.09 130 10:36 13.06.2022
926 Clear 21 1004 32 10000 3.09 120 09:42 13.06.2022
927 Clear 21 1004 32 10000 2.57 130 08:30 13.06.2022
928 Clear 21 1004 32 10000 3.09 90 06:34 13.06.2022
929 Clear 17 1022 42 10000 4.63 70 04:23 13.06.2022
930 Clear 9 1023 81 10000 0 0 01:44 13.06.2022
931 Clear 6 1023 87 10000 0 0 01:18 13.06.2022
932 Clear 2 1022 100 10000 0 0 23:37 12.06.2022
933 Clear 2 1021 93 10000 0 0 22:29 12.06.2022
934 Clear 2 1021 93 10000 0 0 21:41 12.06.2022
935 Clear 3 1021 93 10000 0 0 20:43 12.06.2022
936 Clear 4 1022 87 10000 1.54 270 19:42 12.06.2022
937 Clear 4 1022 87 10000 0 0 18:46 12.06.2022
938 Clear 5 1022 81 10000 0 0 16:57 12.06.2022
939 Clear 6 1022 81 10000 0 0 15:33 12.06.2022
940 Clear 7 1022 70 10000 0 0 14:41 12.06.2022
941 Clear 7 1022 70 10000 0 0 14:18 12.06.2022
942 Clear 8 1022 66 10000 0 0 13:43 12.06.2022
943 Clear 11 1021 54 10000 3.09 130 11:58 12.06.2022
944 Clear 14 1020 41 10000 3.09 80 10:46 12.06.2022
945 Clear 21 1004 32 10000 4.63 100 09:36 12.06.2022
946 Clear 21 1004 32 10000 4.12 120 08:49 12.06.2022
947 Clear 21 1004 32 10000 4.63 90 07:47 12.06.2022
948 Clear 17 1022 36 10000 5.14 110 05:51 12.06.2022
949 Clear 14 1024 51 10000 5.66 110 03:38 12.06.2022
950 Clear 14 1024 51 10000 5.66 110 03:38 12.06.2022
951 Clouds 11 1024 62 10000 4.12 110 01:44 12.06.2022
952 Clouds 6 1023 93 10000 2.57 190 00:59 12.06.2022
953 Clouds 5 1023 93 10000 0.51 200 00:28 12.06.2022
954 Clouds 5 1023 93 10000 0 0 23:56 11.06.2022
955 Clouds 7 1022 81 10000 2.06 170 22:49 11.06.2022
956 Clouds 8 1022 81 10000 2.57 170 22:29 11.06.2022
957 Clouds 9 1023 76 10000 2.06 180 20:55 11.06.2022
958 Clouds 9 1023 76 10000 0 0 20:24 11.06.2022
959 Clouds 10 1022 66 10000 2.57 150 19:32 11.06.2022
960 Clouds 10 1022 66 10000 2.57 100 18:36 11.06.2022
961 Clouds 10 1022 66 10000 3.09 130 17:52 11.06.2022
962 Clouds 10 1022 66 10000 3.6 120 17:29 11.06.2022
963 Clouds 9 1023 71 10000 3.09 130 16:59 11.06.2022
964 Clouds 10 1023 66 10000 2.06 150 16:38 11.06.2022
965 Clouds 10 1023 66 10000 3.09 120 15:45 11.06.2022
966 Clouds 10 1023 66 10000 3.09 120 15:45 11.06.2022
967 Clouds 10 1024 62 10000 3.09 120 13:54 11.06.2022
968 Clouds 10 1024 62 10000 3.09 160 13:25 11.06.2022
969 Clouds 12 1023 50 10000 3.6 120 10:58 11.06.2022
970 Clouds 12 1022 50 10000 4.12 110 10:22 11.06.2022
971 Rain 12 1022 47 10000 4.63 130 09:38 11.06.2022
972 Clouds 13 1022 47 10000 3.6 100 07:52 11.06.2022
973 Clouds 13 1022 47 10000 4.12 100 06:31 11.06.2022
974 Clouds 12 1023 50 10000 6.69 90 05:21 11.06.2022
975 Clouds 6 1025 87 10000 2.06 90 01:53 11.06.2022
976 Clouds 5 1024 87 10000 0 0 01:33 11.06.2022
977 Clouds 3 1024 93 10000 0 0 00:22 11.06.2022
978 Clouds 2 1023 93 10000 0 0 22:33 10.06.2022
979 Clouds 2 1022 93 10000 0 0 21:53 10.06.2022
980 Clouds 3 1023 93 10000 0 0 20:43 10.06.2022
981 Clouds 3 1023 93 10000 0 0 20:22 10.06.2022
982 Clouds 3 1023 93 10000 0 0 19:48 10.06.2022
983 Clouds 3 1023 87 10000 0 0 19:18 10.06.2022
984 Clouds 4 1023 87 10000 0 0 18:19 10.06.2022
985 Clouds 4 1024 81 10000 0 0 17:36 10.06.2022
986 Clouds 5 1024 81 10000 0 0 16:55 10.06.2022
987 Clouds 5 1024 81 10000 0 0 15:47 10.06.2022
988 Clouds 7 1024 70 10000 2.06 90 14:57 10.06.2022
989 Clouds 7 1024 70 10000 2.57 120 13:44 10.06.2022
990 Clouds 8 1023 66 10000 3.09 120 12:28 10.06.2022
991 Clouds 11 1022 50 10000 3.6 120 11:40 10.06.2022
992 Clouds 13 1022 41 10000 5.14 120 10:37 10.06.2022
993 Clouds 14 1022 41 10000 4.63 130 09:40 10.06.2022
994 Clouds 15 1022 38 10000 5.66 120 08:23 10.06.2022
995 Clouds 15 1022 41 10000 5.66 130 06:51 10.06.2022
996 Clouds 14 1023 41 10000 5.66 140 06:32 10.06.2022
997 Clouds 14 1024 44 10000 5.66 100 05:35 10.06.2022
998 Clouds 9 1026 76 10000 3.6 100 02:54 10.06.2022
999 Clouds 4 1026 93 10000 0 0 01:37 10.06.2022
1000 Clouds 0 1024 93 10000 0 0 23:58 09.06.2022
1001 Clouds 1 1024 93 10000 0 0 22:56 09.06.2022
1002 Clouds 1 1024 93 10000 0 0 21:46 09.06.2022
1003 Clouds 1 1024 100 10000 0 0 21:28 09.06.2022
1004 Clouds 1 1023 93 10000 0 0 20:40 09.06.2022
1005 Clouds 2 1023 93 10000 0 0 19:51 09.06.2022
1006 Clouds 3 1024 93 10000 2.57 310 18:43 09.06.2022
1007 Clouds 3 1024 87 10000 0.51 290 17:56 09.06.2022
1008 Clouds 4 1024 87 10000 0 0 16:38 09.06.2022
1009 Clouds 4 1024 87 10000 2.06 170 15:42 09.06.2022
1010 Clouds 5 1024 81 10000 3.09 150 14:34 09.06.2022
1011 Clear 6 1024 75 10000 3.09 110 13:46 09.06.2022
1012 Clear 7 1024 76 10000 2.57 120 13:25 09.06.2022
1013 Clear 10 1023 62 10000 3.6 130 11:52 09.06.2022
1014 Clear 13 1022 47 10000 3.6 130 10:36 09.06.2022
1015 Clear 15 1022 44 10000 5.66 150 09:40 09.06.2022
1016 Clear 15 1022 44 10000 5.66 150 09:21 09.06.2022
1017 Clear 14 1022 47 10000 5.14 130 07:29 09.06.2022
1018 Clouds 13 1025 54 10000 6.69 90 04:47 09.06.2022
1019 Clouds 2 1025 100 10000 0 0 00:36 09.06.2022
1020 Clouds 1 1024 93 10000 0 0 23:23 08.06.2022
1021 Clear 2 1024 93 10000 0 0 22:44 08.06.2022
1022 Clear 2 1023 93 10000 0 0 22:24 08.06.2022
1023 Clear 2 1023 100 10000 0 0 21:40 08.06.2022
1024 Clouds 3 1023 93 10000 0 0 20:25 08.06.2022
1025 Clear 3 1023 100 10000 0 0 19:46 08.06.2022
1026 Clear 3 1023 93 10000 0 0 18:48 08.06.2022
1027 Clear 4 1023 87 10000 0 0 17:48 08.06.2022
1028 Clear 5 1024 87 10000 0 0 16:18 08.06.2022
1029 Clouds 6 1024 81 10000 2.57 140 14:46 08.06.2022
1030 Clear 8 1024 71 10000 2.06 130 12:55 08.06.2022
1031 Clear 10 1023 57 10000 3.6 130 11:44 08.06.2022
1032 Clear 11 1022 54 10000 3.6 130 11:19 08.06.2022
1033 Clear 15 1022 38 10000 6.17 130 09:45 08.06.2022
1034 Clear 15 1022 41 10000 6.17 120 09:18 08.06.2022
1035 Clear 15 1022 41 10000 6.17 100 07:22 08.06.2022
1036 Clear 14 1024 44 10000 6.69 120 04:51 08.06.2022
1037 Clear 10 1025 71 10000 0.51 70 02:19 08.06.2022
1038 Clear 2 1024 93 10000 0 0 23:41 07.06.2022
1039 Clear 2 1024 93 10000 0 0 23:22 07.06.2022
1040 Clear 3 1023 93 10000 0.51 310 22:38 07.06.2022
1041 Clear 2 1023 93 10000 0 0 21:41 07.06.2022
1042 Clear 2 1023 93 10000 0 0 21:23 07.06.2022
1043 Clear 3 1023 93 10000 1.54 290 20:42 07.06.2022
1044 Clear 4 1023 93 10000 1.54 330 19:58 07.06.2022
1045 Clear 4 1023 93 10000 0 0 18:38 07.06.2022
1046 Clear 4 1024 93 10000 1.54 130 17:36 07.06.2022
1047 Clear 4 1023 93 10000 0 0 16:47 07.06.2022
1048 Clear 5 1024 93 10000 0 0 16:28 07.06.2022
1049 Clear 6 1024 87 10000 1.03 130 15:37 07.06.2022
1050 Clear 6 1024 87 10000 1.03 130 15:18 07.06.2022
1051 Clear 6 1024 87 10000 2.57 150 14:43 07.06.2022
1052 Clear 9 1023 71 10000 2.57 120 13:38 07.06.2022
1053 Clear 9 1023 71 10000 2.57 120 13:20 07.06.2022
1054 Clear 10 1022 66 10000 3.09 130 11:55 07.06.2022
1055 Clear 13 1021 54 10000 3.6 130 10:53 07.06.2022
1056 Clear 16 1020 41 10000 5.14 110 08:58 07.06.2022
1057 Clear 16 1020 41 10000 5.66 150 08:22 07.06.2022
1058 Clear 15 1021 44 10000 5.66 130 06:42 07.06.2022
1059 Clear 14 1022 51 10000 6.69 110 04:47 07.06.2022
1060 Clouds 8 1023 93 10000 2.06 160 01:28 07.06.2022
1061 Clouds 5 1022 100 10000 0 0 23:58 06.06.2022
1062 Clouds 6 1021 100 10000 0 0 22:56 06.06.2022
1063 Clouds 6 1021 93 10000 2.57 170 22:30 06.06.2022
1064 Clouds 7 1021 93 10000 2.06 170 21:18 06.06.2022
1065 Clouds 6 1021 100 10000 0 0 19:29 06.06.2022
1066 Clouds 7 1021 93 10000 0 0 18:53 06.06.2022
1067 Clouds 7 1021 93 10000 0 0 18:26 06.06.2022
1068 Clouds 8 1021 87 10000 0.51 140 17:26 06.06.2022
1069 Clouds 8 1021 87 10000 1.54 160 16:18 06.06.2022
1070 Clear 9 1021 87 10000 2.06 70 15:33 06.06.2022
1071 Clear 10 1021 81 10000 3.09 160 14:32 06.06.2022
1072 Clouds 11 1021 76 10000 2.57 140 13:25 06.06.2022
1073 Clouds 13 1020 67 10000 3.09 140 12:36 06.06.2022
1074 Clouds 14 1019 62 10000 3.6 140 11:53 06.06.2022
1075 Clouds 15 1019 58 10000 3.6 130 10:40 06.06.2022
1076 Clouds 16 1018 55 10000 4.63 130 09:33 06.06.2022
1077 Clouds 21 1004 32 10000 4.63 110 08:32 06.06.2022
1078 Clouds 21 1004 32 10000 5.14 140 07:28 06.06.2022
1079 Clouds 16 1020 55 10000 4.12 130 05:27 06.06.2022
1080 Clouds 12 1021 71 10000 5.66 120 02:55 06.06.2022
1081 Clouds 9 1021 87 10000 0 0 01:18 06.06.2022
1082 Clear 7 1019 87 10000 0 0 00:37 06.06.2022
1083 Clouds 6 1019 93 10000 3.09 240 23:33 05.06.2022
1084 Clear 6 1019 93 10000 2.57 240 22:45 05.06.2022
1085 Clear 6 1019 93 10000 2.57 240 22:45 05.06.2022
1086 Clouds 7 1018 93 10000 0 0 20:46 05.06.2022
1087 Clouds 8 1018 87 10000 2.06 210 19:38 05.06.2022
1088 Clear 10 1018 81 10000 0.51 190 18:29 05.06.2022
1089 Clear 10 1018 87 10000 0 0 17:51 05.06.2022
1090 Clear 10 1018 87 10000 0 0 17:24 05.06.2022
1091 Clear 9 1018 93 10000 0 0 16:49 05.06.2022
1092 Clear 11 1018 82 10000 2.06 310 15:50 05.06.2022
1093 Clear 11 1018 87 10000 2.57 220 14:24 05.06.2022
1094 Clear 14 1017 72 10000 2.06 140 12:49 05.06.2022
1095 Clear 21 1004 32 10000 3.09 150 11:43 05.06.2022
1096 Clouds 21 1004 32 10000 4.12 160 10:25 05.06.2022
1097 Clouds 21 1004 32 10000 4.12 170 09:58 05.06.2022
1098 Clouds 21 1004 32 10000 4.12 200 08:28 05.06.2022
1099 Clouds 21 1004 32 10000 4.63 190 06:54 05.06.2022
1100 Clouds 21 1004 32 10000 5.14 190 05:20 05.06.2022
1101 Clouds 18 1016 59 10000 4.12 230 03:43 05.06.2022
1102 Clouds 13 1016 82 10000 2.57 210 01:32 05.06.2022
1103 Clouds 12 1015 94 10000 0 0 23:58 04.06.2022
1104 Clouds 8 1014 100 10000 0 0 21:58 04.06.2022
1105 Clouds 9 1015 93 10000 0 0 20:21 04.06.2022
1106 Clouds 9 1016 93 10000 0 0 18:18 04.06.2022
1107 Clouds 10 1016 93 10000 0 0 16:42 04.06.2022
1108 Clouds 10 1016 93 10000 0 0 16:18 04.06.2022
1109 Clouds 10 1016 93 10000 0 0 16:18 04.06.2022
1110 Clear 11 1016 87 10000 1.54 130 14:37 04.06.2022
1111 Clear 14 1016 72 10000 2.57 100 11:51 04.06.2022
1112 Clear 16 1015 59 10000 2.57 130 10:57 04.06.2022
1113 Clear 21 1004 32 10000 3.09 120 10:22 04.06.2022
1114 Clear 21 1004 32 10000 3.09 140 09:41 04.06.2022
1115 Clear 21 1004 32 10000 2.57 110 08:40 04.06.2022
1116 Clear 21 1004 32 10000 2.57 130 07:40 04.06.2022
1117 Clear 16 1019 59 10000 5.14 70 04:38 04.06.2022
1118 Clear 6 1020 100 10000 0 0 00:56 04.06.2022
1119 Clear 4 1020 100 10000 0 0 23:53 03.06.2022
1120 Clear 5 1019 100 10000 0 0 22:30 03.06.2022
1121 Clear 5 1019 100 10000 0 0 21:21 03.06.2022
1122 Clear 6 1019 100 10000 0 0 20:33 03.06.2022
1123 Clear 7 1019 100 10000 0 0 17:58 03.06.2022
1124 Clear 7 1020 100 10000 0 0 16:47 03.06.2022
1125 Clear 9 1020 93 10000 0 0 15:18 03.06.2022
1126 Clear 11 1020 87 10000 3.09 160 13:20 03.06.2022
1127 Clear 15 1018 67 10000 3.09 170 11:19 03.06.2022
1128 Clear 18 1017 52 10000 3.6 180 09:38 03.06.2022
1129 Clear 18 1017 52 10000 4.63 190 08:45 03.06.2022
1130 Clouds 17 1017 55 10000 4.12 190 07:26 03.06.2022
1131 Clouds 17 1017 63 10000 4.12 190 06:34 03.06.2022
1132 Clouds 16 1018 67 10000 4.63 190 05:35 03.06.2022
1133 Clouds 14 1017 94 10000 6.17 210 00:28 03.06.2022
1134 Clouds 15 1015 94 10000 4.12 210 22:41 02.06.2022
1135 Clouds 15 1014 100 10000 3.6 210 21:40 02.06.2022
1136 Clouds 16 1014 94 10000 2.57 220 20:22 02.06.2022
1137 Clouds 16 1014 94 10000 0 0 19:46 02.06.2022
1138 Clouds 16 1014 94 10000 2.06 230 19:28 02.06.2022
1139 Clouds 16 1014 94 10000 2.57 210 17:32 02.06.2022
1140 Clouds 16 1014 94 10000 3.6 210 16:27 02.06.2022
1141 Clouds 18 1014 82 10000 0 0 14:19 02.06.2022
1142 Clouds 18 1014 82 10000 0 0 13:29 02.06.2022
1143 Clouds 19 1013 72 10000 0 0 11:24 02.06.2022
1144 Clouds 21 1004 32 10000 3.09 330 10:20 02.06.2022
1145 Clouds 21 1004 32 10000 0 0 09:27 02.06.2022
1146 Clouds 21 1004 32 10000 4.12 300 08:26 02.06.2022
1147 Clouds 20 1012 68 10000 3.6 320 07:21 02.06.2022
1148 Clouds 19 1014 77 10000 2.57 330 04:49 02.06.2022
1149 Clouds 16 1015 88 10000 6.17 330 02:38 02.06.2022
1150 Clouds 14 1015 94 10000 3.09 350 23:47 01.06.2022
1151 Clouds 13 1015 100 10000 3.09 40 22:31 01.06.2022
1152 Clouds 13 1015 100 10000 3.6 60 21:35 01.06.2022
1153 Clouds 12 1015 100 10000 2.57 70 20:40 01.06.2022
1154 Clouds 13 1015 94 10000 2.57 80 19:59 01.06.2022
1155 Clouds 13 1015 94 10000 3.09 80 19:19 01.06.2022
1156 Clouds 12 1016 100 10000 3.6 80 17:44 01.06.2022
1157 Clouds 11 1016 100 10000 3.6 80 16:34 01.06.2022
1158 Clouds 10 1017 100 10000 4.12 70 14:54 01.06.2022
1159 Clouds 10 1017 100 8000 5.14 70 13:51 01.06.2022
1160 Clouds 10 1017 100 10000 6.69 90 12:26 01.06.2022
1161 Clouds 10 1015 100 9000 4.63 80 09:41 01.06.2022
1162 Clouds 10 1015 100 3200 5.66 90 08:40 01.06.2022
1163 Mist 10 1015 100 4200 5.66 90 07:22 01.06.2022
1164 Clouds 10 1016 100 6000 6.69 90 05:23 01.06.2022
1165 Rain 9 1018 100 10000 2.57 70 00:22 01.06.2022
1166 Rain 9 1016 100 10000 6.17 50 23:28 31.05.2022
1167 Clouds 9 1018 100 10000 3.09 40 22:36 31.05.2022
1168 Rain 9 1018 100 10000 2.57 70 21:45 31.05.2022
1169 Rain 10 1018 87 10000 2.57 130 20:45 31.05.2022
1170 Rain 10 1017 87 10000 3.09 110 20:18 31.05.2022
1171 Rain 12 1018 66 10000 0 0 18:52 31.05.2022
1172 Rain 13 1017 50 10000 3.09 70 17:50 31.05.2022
1173 Clouds 13 1017 50 10000 3.6 80 16:56 31.05.2022
1174 Clouds 13 1018 47 10000 2.57 80 15:40 31.05.2022
1175 Clouds 13 1017 47 10000 2.57 110 13:52 31.05.2022
1176 Clouds 14 1017 44 10000 2.57 70 12:20 31.05.2022
1177 Clouds 14 1016 44 10000 0 0 10:53 31.05.2022
1178 Clouds 14 1016 41 10000 3.09 100 08:49 31.05.2022
1179 Clouds 14 1016 44 10000 3.09 90 07:21 31.05.2022
1180 Clouds 14 1019 44 10000 4.63 150 04:53 31.05.2022
1181 Clouds 10 1018 50 10000 0 0 00:26 31.05.2022
1182 Clouds 9 1017 49 10000 2.57 280 23:26 30.05.2022
1183 Clouds 9 1017 49 10000 2.06 250 22:48 30.05.2022
1184 Clouds 8 1016 53 10000 2.57 300 21:51 30.05.2022
1185 Clouds 9 1016 49 10000 2.57 230 21:32 30.05.2022
1186 Clouds 9 1016 49 10000 2.57 220 19:51 30.05.2022
1187 Clouds 11 1016 43 10000 0 0 18:34 30.05.2022
1188 Clouds 12 1016 40 10000 2.57 260 17:24 30.05.2022
1189 Clouds 12 1016 37 10000 0 0 16:39 30.05.2022
1190 Clouds 13 1016 35 10000 2.57 170 13:44 30.05.2022
1191 Clouds 14 1015 30 10000 3.09 190 12:19 30.05.2022
1192 Clouds 16 1014 27 10000 3.6 210 10:26 30.05.2022
1193 Clouds 16 1014 25 10000 3.09 170 09:19 30.05.2022
1194 Clouds 16 1014 25 10000 3.09 170 09:19 30.05.2022
1195 Clouds 17 1014 25 10000 5.66 200 06:30 30.05.2022
1196 Clouds 17 1014 25 10000 6.69 220 05:47 30.05.2022
1197 Clouds 14 1014 35 10000 5.66 200 01:32 30.05.2022
1198 Clouds 18 1010 55 10000 6.69 230 22:50 29.05.2022
1199 Clouds 18 1010 59 10000 7.2 210 22:31 29.05.2022
1200 Clouds 21 1009 52 10000 7.2 240 20:51 29.05.2022
1201 Clouds 22 1008 46 10000 5.66 270 19:30 29.05.2022
1202 Clouds 21 1004 32 10000 8.75 270 18:35 29.05.2022
1203 Clouds 21 1004 32 10000 5.66 260 16:51 29.05.2022
1204 Clouds 21 1004 32 10000 6.69 280 15:47 29.05.2022
1205 Clouds 21 1004 32 10000 7.72 290 14:56 29.05.2022
1206 Clouds 21 1004 32 10000 8.75 300 13:46 29.05.2022
1207 Clouds 21 1004 32 10000 7.72 300 11:31 29.05.2022
1208 Clouds 27 1007 22 10000 7.72 300 10:37 29.05.2022
1209 Clouds 27 1007 24 10000 10.29 310 08:39 29.05.2022
1210 Clouds 25 1010 27 10000 10.29 300 05:22 29.05.2022
1211 Clouds 24 1012 31 10000 5.66 310 04:41 29.05.2022
1212 Clouds 21 1004 32 10000 3.6 290 02:24 29.05.2022
1213 Clouds 19 1012 42 10000 4.63 350 23:48 28.05.2022
1214 Clouds 19 1012 42 10000 3.09 360 23:25 28.05.2022
1215 Clouds 19 1012 42 10000 4.63 330 22:21 28.05.2022
1216 Clouds 20 1012 40 10000 3.6 330 21:19 28.05.2022
1217 Clouds 20 1012 40 10000 3.6 330 21:19 28.05.2022
1218 Clouds 14 1013 54 10000 0.51 360 19:21 28.05.2022
1219 Clouds 21 1004 32 10000 2.57 40 18:40 28.05.2022
1220 Clouds 21 1004 32 10000 1.54 80 17:34 28.05.2022
1221 Clouds 21 1004 32 10000 0 0 16:22 28.05.2022
1222 Clouds 21 1004 32 10000 3.09 80 15:38 28.05.2022
1223 Clouds 21 1004 32 10000 3.6 100 13:42 28.05.2022
1224 Clouds 21 1004 32 10000 3.6 90 12:43 28.05.2022
1225 Clouds 21 1004 32 10000 4.12 70 11:50 28.05.2022
1226 Clouds 24 1013 31 10000 5.14 90 10:41 28.05.2022
1227 Clouds 25 1012 29 10000 5.14 90 09:55 28.05.2022
1228 Clouds 27 1012 26 10000 1.54 110 08:33 28.05.2022
1229 Clouds 26 1013 27 10000 3.09 80 06:53 28.05.2022
1230 Clouds 24 1016 31 10000 1.03 60 05:24 28.05.2022
1231 Clouds 21 1004 32 10000 4.12 80 02:27 28.05.2022
1232 Clouds 12 1017 66 10000 4.12 80 23:58 27.05.2022
1233 Clouds 11 1017 71 10000 2.06 100 22:48 27.05.2022
1234 Clouds 13 1017 62 10000 2.57 100 21:29 27.05.2022
1235 Clouds 13 1017 62 10000 3.09 80 20:45 27.05.2022
1236 Clouds 13 1017 62 10000 3.09 100 20:19 27.05.2022
1237 Clouds 13 1017 62 10000 0 0 19:38 27.05.2022
1238 Clouds 13 1017 62 10000 0 0 19:19 27.05.2022
1239 Clouds 14 1018 58 10000 3.09 70 17:24 27.05.2022
1240 Clouds 15 1018 58 10000 3.6 80 15:57 27.05.2022
1241 Clouds 15 1019 58 10000 3.6 70 14:57 27.05.2022
1242 Clouds 21 1004 32 10000 3.09 110 13:40 27.05.2022
1243 Clouds 21 1004 32 10000 3.09 110 12:20 27.05.2022
1244 Clouds 21 1004 32 10000 3.09 130 11:30 27.05.2022
1245 Clouds 21 1004 32 10000 5.14 100 10:41 27.05.2022
1246 Clouds 21 1004 32 10000 5.66 110 09:59 27.05.2022
1247 Clouds 23 1016 35 10000 5.14 120 09:29 27.05.2022
1248 Clear 23 1016 35 10000 5.66 110 07:30 27.05.2022
1249 Clear 21 1004 32 10000 6.69 80 03:38 27.05.2022
1250 Clear 14 1020 67 10000 0 0 01:19 27.05.2022
1251 Clear 8 1019 87 10000 0 0 23:23 26.05.2022
1252 Clear 8 1019 87 10000 0 0 23:23 26.05.2022
1253 Clear 9 1018 81 10000 0 0 21:53 26.05.2022
1254 Clear 9 1018 81 10000 0 0 21:27 26.05.2022
1255 Clouds 11 1018 71 10000 2.06 100 19:34 26.05.2022
1256 Clouds 13 1018 67 10000 2.06 90 18:31 26.05.2022
1257 Clouds 12 1019 66 10000 0 0 17:36 26.05.2022
1258 Clouds 13 1019 67 10000 0 0 16:18 26.05.2022
1259 Clouds 15 1019 58 10000 0 0 15:19 26.05.2022
1260 Clouds 17 1019 55 10000 2.57 100 13:56 26.05.2022
1261 Clouds 21 1004 32 10000 4.63 120 11:49 26.05.2022
1262 Clear 21 1004 32 10000 4.63 140 10:39 26.05.2022
1263 Clear 25 1016 31 10000 2.57 190 09:38 26.05.2022
1264 Clear 26 1016 29 10000 3.6 90 08:38 26.05.2022
1265 Clear 21 1004 32 10000 3.09 90 05:26 26.05.2022
1266 Clear 21 1004 32 10000 4.63 110 02:19 26.05.2022
1267 Clear 9 1018 81 10000 2.06 310 23:50 25.05.2022
1268 Clouds 10 1018 81 10000 2.57 270 22:51 25.05.2022
1269 Clear 11 1017 71 10000 3.09 340 21:41 25.05.2022
1270 Clear 10 1017 76 10000 2.57 190 20:47 25.05.2022
1271 Clouds 12 1016 66 10000 0 0 19:32 25.05.2022
1272 Clouds 13 1017 67 10000 2.57 300 18:36 25.05.2022
1273 Clouds 13 1017 67 10000 0 0 16:53 25.05.2022
1274 Clouds 21 1004 32 10000 0 0 16:25 25.05.2022
1275 Clouds 21 1004 32 10000 1.54 340 15:36 25.05.2022
1276 Clouds 21 1004 32 10000 0.51 110 14:42 25.05.2022
1277 Clouds 21 1004 32 10000 0.51 110 14:24 25.05.2022
1278 Clouds 21 1004 32 10000 0 0 13:21 25.05.2022
1279 Clouds 21 1004 32 10000 2.09 147 11:32 25.05.2022
1280 Clouds 24 1015 31 10000 2.57 100 10:23 25.05.2022
1281 Clouds 27 1013 25 10000 3.57 268 08:53 25.05.2022
1282 Clouds 27 1014 27 10000 2.66 290 07:23 25.05.2022
1283 Clouds 27 1017 28 10000 2.57 310 05:27 25.05.2022
1284 Clouds 12 1018 71 10000 0 0 00:38 25.05.2022
1285 Clouds 12 1018 76 10000 0 0 23:48 24.05.2022
1286 Clouds 12 1018 71 10000 0 0 22:53 24.05.2022
1287 Clouds 13 1018 67 10000 0 0 21:46 24.05.2022
1288 Clouds 12 1017 76 10000 0 0 21:22 24.05.2022
1289 Clouds 12 1018 71 10000 0 0 20:44 24.05.2022
1290 Clouds 14 1018 67 10000 0 0 18:59 24.05.2022
1291 Clouds 16 1019 59 10000 2.57 90 17:19 24.05.2022
1292 Clouds 21 1004 32 10000 0 0 16:29 24.05.2022
1293 Clouds 21 1004 32 10000 0 0 15:27 24.05.2022
1294 Clouds 21 1004 32 10000 2.57 140 14:36 24.05.2022
1295 Clouds 21 1004 32 10000 3.09 140 13:34 24.05.2022
1296 Clouds 21 1004 32 10000 3.09 120 12:18 24.05.2022
1297 Clouds 25 1016 33 10000 3.6 90 09:50 24.05.2022
1298 Clouds 26 1016 29 10000 2.57 160 08:51 24.05.2022
1299 Clouds 25 1017 31 10000 5.66 180 07:32 24.05.2022
1300 Clouds 26 1018 31 10000 3.09 230 06:27 24.05.2022
1301 Clouds 21 1004 32 10000 3.09 40 02:58 24.05.2022
1302 Clouds 21 1004 32 10000 0 0 01:44 24.05.2022
1303 Clouds 10 1020 76 10000 0 0 23:59 23.05.2022
1304 Clouds 10 1018 76 10000 0 0 22:22 23.05.2022
1305 Clouds 13 1018 71 10000 3.6 90 21:42 23.05.2022
1306 Clouds 12 1018 66 10000 2.06 120 20:45 23.05.2022
1307 Clouds 11 1019 66 10000 1.54 110 19:44 23.05.2022
1308 Clouds 11 1018 66 10000 0 0 19:18 23.05.2022
1309 Clouds 11 1019 66 10000 0 0 18:37 23.05.2022
1310 Clouds 12 1019 62 10000 0 0 17:56 23.05.2022
1311 Clouds 15 1020 55 10000 0 0 15:54 23.05.2022
1312 Clouds 17 1020 48 10000 0 0 13:44 23.05.2022
1313 Clouds 21 1004 32 10000 3.09 120 11:40 23.05.2022
1314 Clouds 21 1004 32 10000 2.57 130 10:44 23.05.2022
1315 Clouds 24 1017 29 10000 3.6 100 09:47 23.05.2022
1316 Clouds 25 1017 25 10000 4.63 110 08:46 23.05.2022
1317 Clouds 21 1004 32 10000 3.6 60 06:49 23.05.2022
1318 Clouds 21 1004 32 10000 3.09 130 06:31 23.05.2022
1319 Clouds 19 1021 52 10000 3.6 80 02:55 23.05.2022
1320 Clouds 15 1021 58 10000 0 0 01:50 23.05.2022
1321 Clouds 10 1021 71 10000 2.06 270 01:23 23.05.2022
1322 Clouds 7 1019 76 10000 0 0 22:48 22.05.2022
1323 Clouds 6 1019 75 10000 0 0 22:21 22.05.2022
1324 Clouds 7 1019 70 10000 0 0 21:50 22.05.2022
1325 Clouds 8 1019 71 10000 0 0 20:42 22.05.2022
1326 Clouds 8 1019 71 10000 0 0 20:20 22.05.2022
1327 Clouds 9 1019 66 10000 0 0 18:58 22.05.2022
1328 Clouds 9 1019 66 10000 2.06 290 18:37 22.05.2022
1329 Clear 9 1019 66 10000 2.06 290 18:18 22.05.2022
1330 Clear 9 1020 66 10000 0 0 16:51 22.05.2022
1331 Clear 11 1020 58 10000 0 0 15:24 22.05.2022
1332 Clear 12 1019 50 10000 0 0 14:36 22.05.2022
1333 Clear 16 1018 44 10000 3.09 110 12:54 22.05.2022
1334 Clear 16 1018 41 10000 3.6 130 12:24 22.05.2022
1335 Clear 21 1004 32 10000 3.09 110 10:45 22.05.2022
1336 Clear 21 1004 32 10000 2.06 140 09:29 22.05.2022
1337 Clear 21 1004 32 10000 1.54 50 07:44 22.05.2022
1338 Clear 21 1004 32 10000 2.57 120 06:41 22.05.2022
1339 Clear 18 1021 36 10000 3.09 100 03:53 22.05.2022
1340 Clear 7 1021 65 10000 2.06 300 00:49 22.05.2022
1341 Clear 4 1020 75 10000 0 0 23:56 21.05.2022
1342 Clear 4 1020 75 10000 2.06 260 23:29 21.05.2022
1343 Clear 6 1020 65 10000 2.06 310 21:59 21.05.2022
1344 Clear 5 1020 65 10000 0 0 21:37 21.05.2022
1345 Clear 7 1020 61 10000 2.06 260 20:41 21.05.2022
1346 Clouds 7 1020 65 10000 2.06 290 19:53 21.05.2022
1347 Clouds 8 1021 61 10000 2.06 290 18:54 21.05.2022
1348 Clouds 9 1021 53 10000 0 0 16:58 21.05.2022
1349 Clear 11 1022 50 10000 2.06 110 14:51 21.05.2022
1350 Clouds 13 1022 44 10000 2.57 110 13:55 21.05.2022
1351 Clouds 13 1022 44 10000 3.6 130 13:25 21.05.2022
1352 Clouds 14 1021 38 10000 4.12 140 12:39 21.05.2022
1353 Clouds 16 1020 31 10000 3.6 140 11:38 21.05.2022
1354 Clouds 21 1004 32 10000 4.63 140 10:21 21.05.2022
1355 Clear 21 1004 32 10000 5.14 140 08:59 21.05.2022
1356 Clear 21 1004 32 10000 4.12 140 08:38 21.05.2022
1357 Clouds 21 1004 32 10000 6.45 129 06:20 21.05.2022
1358 Clouds 11 1024 76 10000 0 0 01:42 21.05.2022
1359 Clear 5 1023 93 10000 0 0 23:35 20.05.2022
1360 Clear 6 1022 87 10000 0 0 22:30 20.05.2022
1361 Clear 6 1022 93 10000 0 0 21:56 20.05.2022
1362 Clear 6 1022 87 10000 0 0 21:19 20.05.2022
1363 Clear 6 1022 93 10000 0 0 20:47 20.05.2022
1364 Clear 7 1022 87 10000 0 0 19:45 20.05.2022
1365 Clear 8 1023 81 10000 0 0 18:53 20.05.2022
1366 Clear 9 1023 81 10000 2.06 130 17:53 20.05.2022
1367 Clear 10 1023 81 10000 0 0 16:23 20.05.2022
1368 Clear 11 1023 76 10000 1.03 90 15:54 20.05.2022
1369 Clear 13 1023 71 10000 2.06 110 14:32 20.05.2022
1370 Clear 14 1023 67 10000 2.57 130 13:59 20.05.2022
1371 Clear 17 1022 55 10000 3.6 150 11:51 20.05.2022
1372 Clear 21 1004 32 10000 4.63 130 10:34 20.05.2022
1373 Clear 21 1004 32 10000 4.63 130 08:59 20.05.2022
1374 Clear 21 1004 32 10000 5.14 110 07:42 20.05.2022
1375 Clear 21 1004 32 10000 3.6 90 06:39 20.05.2022
1376 Clear 21 1004 32 10000 4.12 80 05:39 20.05.2022
1377 Clear 12 1024 82 10000 0 0 01:29 20.05.2022
1378 Clear 6 1022 100 10000 0 0 23:31 19.05.2022
1379 Clear 6 1022 93 10000 0 0 22:34 19.05.2022
1380 Clear 6 1022 100 10000 0 0 21:49 19.05.2022
1381 Clear 6 1022 100 10000 0 0 21:49 19.05.2022
1382 Clear 6 1022 93 10000 0 0 21:23 19.05.2022
1383 Clear 8 1022 93 10000 0 0 20:43 19.05.2022
1384 Clear 9 1022 93 10000 2.06 110 19:54 19.05.2022
1385 Clear 8 1023 93 10000 0 0 18:58 19.05.2022
1386 Clear 11 1023 82 10000 2.06 110 17:35 19.05.2022
1387 Clear 13 1023 71 10000 4.12 130 15:33 19.05.2022
1388 Clouds 14 1023 58 10000 4.12 120 14:30 19.05.2022
1389 Clouds 14 1022 62 10000 2.57 110 13:53 19.05.2022
1390 Clouds 16 1021 55 10000 3.6 120 11:46 19.05.2022
1391 Clouds 21 1004 32 10000 4.63 90 10:25 19.05.2022
1392 Clouds 21 1004 32 10000 5.14 120 08:31 19.05.2022
1393 Clouds 21 1004 32 10000 3.6 100 06:39 19.05.2022
1394 Clouds 21 1004 32 10000 4.63 100 02:57 19.05.2022
1395 Clouds 17 1022 48 10000 4.63 80 00:47 19.05.2022
1396 Clouds 17 1021 45 10000 4.63 90 22:53 18.05.2022
1397 Clouds 17 1020 45 10000 4.63 90 22:35 18.05.2022
1398 Clouds 17 1020 42 10000 3.6 100 21:31 18.05.2022
1399 Clouds 18 1020 42 10000 4.63 90 20:55 18.05.2022
1400 Clouds 18 1020 39 10000 4.63 80 20:19 18.05.2022
1401 Clouds 17 1021 45 10000 1.54 90 18:43 18.05.2022
1402 Clouds 18 1022 34 10000 2.57 140 17:41 18.05.2022
1403 Clouds 18 1022 34 10000 2.57 140 17:23 18.05.2022
1404 Clouds 18 1022 34 10000 0 0 16:35 18.05.2022
1405 Clouds 17 1022 34 10000 0 0 15:42 18.05.2022
1406 Clouds 18 1022 32 10000 0 0 14:54 18.05.2022
1407 Clouds 19 1022 30 10000 2.57 140 13:47 18.05.2022
1408 Clouds 21 1004 32 10000 3.09 140 12:51 18.05.2022
1409 Clouds 21 1004 32 10000 3.6 130 11:37 18.05.2022
1410 Clouds 21 1004 32 10000 3.6 130 11:19 18.05.2022
1411 Clouds 21 1004 32 10000 4.63 130 09:56 18.05.2022
1412 Clouds 21 1004 32 10000 5.14 100 07:54 18.05.2022
1413 Clouds 21 1004 32 10000 5.14 100 06:48 18.05.2022
1414 Clouds 21 1004 32 10000 3.6 100 02:23 18.05.2022
1415 Clouds 14 1021 44 10000 1.03 90 00:23 18.05.2022
1416 Clouds 13 1020 47 10000 3.6 80 22:18 17.05.2022
1417 Clouds 14 1020 44 10000 3.09 100 21:20 17.05.2022
1418 Clouds 15 1020 41 10000 4.63 90 20:22 17.05.2022
1419 Clouds 15 1020 47 10000 0 0 19:28 17.05.2022
1420 Clouds 16 1020 44 10000 3.09 100 17:52 17.05.2022
1421 Clouds 16 1021 44 10000 3.6 90 17:18 17.05.2022
1422 Clouds 17 1021 42 10000 3.6 90 16:31 17.05.2022
1423 Clouds 18 1021 39 10000 3.6 90 15:32 17.05.2022
1424 Clouds 17 1021 42 10000 2.06 60 14:30 17.05.2022
1425 Clouds 17 1020 42 10000 1.54 100 13:37 17.05.2022
1426 Clouds 21 1004 32 10000 3.6 100 11:58 17.05.2022
1427 Clouds 25 1018 25 10000 6.17 100 09:38 17.05.2022
1428 Clear 26 1018 24 10000 5.66 100 08:36 17.05.2022
1429 Clear 25 1019 23 10000 5.66 100 06:50 17.05.2022
1430 Clouds 21 1004 32 10000 7.2 90 03:45 17.05.2022
1431 Clouds 14 1022 51 10000 3.6 90 00:45 17.05.2022
1432 Clouds 13 1020 54 10000 3.6 100 22:44 16.05.2022
1433 Clouds 14 1020 54 10000 2.57 60 21:45 16.05.2022
1434 Clouds 13 1019 62 10000 1.54 80 20:48 16.05.2022
1435 Clouds 11 1020 66 10000 0 0 19:49 16.05.2022
1436 Clouds 11 1020 66 10000 0 0 18:21 16.05.2022
1437 Clear 14 1021 58 10000 0 0 15:53 16.05.2022
1438 Clear 17 1020 48 10000 2.57 100 14:26 16.05.2022
1439 Clouds 19 1020 42 10000 3.09 110 13:23 16.05.2022
1440 Clouds 21 1004 32 10000 4.12 120 11:31 16.05.2022
1441 Clouds 21 1004 32 10000 6.69 110 09:47 16.05.2022
1442 Clouds 25 1018 33 10000 5.14 120 06:58 16.05.2022
1443 Clouds 21 1004 32 10000 7.2 90 03:58 16.05.2022
1444 Clouds 14 1019 67 10000 3.09 150 23:38 15.05.2022
1445 Clouds 15 1018 63 10000 2.06 170 22:32 15.05.2022
1446 Clouds 14 1018 67 10000 2.57 140 21:47 15.05.2022
1447 Clouds 15 1018 63 10000 2.06 150 20:57 15.05.2022
1448 Clouds 15 1017 63 10000 2.57 170 19:52 15.05.2022
1449 Clouds 17 1018 59 10000 0 0 17:52 15.05.2022
1450 Clouds 18 1018 55 10000 0 0 16:29 15.05.2022
1451 Clouds 21 1004 32 10000 3.09 130 13:58 15.05.2022
1452 Clouds 21 1004 32 10000 2.57 130 12:50 15.05.2022
1453 Clouds 21 1004 32 10000 3.09 140 11:40 15.05.2022
1454 Clouds 25 1016 36 10000 4.12 140 10:27 15.05.2022
1455 Clouds 25 1016 36 10000 3.09 140 08:46 15.05.2022
1456 Clouds 26 1016 34 10000 5.14 140 06:58 15.05.2022
1457 Clear 24 1017 43 10000 4.12 110 05:52 15.05.2022
1458 Clouds 15 1019 72 10000 0 0 00:49 15.05.2022
1459 Clouds 13 1018 71 10000 2.57 190 23:39 14.05.2022
1460 Clouds 13 1018 71 10000 3.09 200 22:59 14.05.2022
1461 Clouds 14 1017 67 10000 2.57 190 21:29 14.05.2022
1462 Clouds 14 1017 67 10000 2.57 210 20:53 14.05.2022
1463 Clear 15 1017 58 10000 2.57 210 19:38 14.05.2022
1464 Clear 15 1017 58 10000 2.57 210 19:19 14.05.2022
1465 Clear 16 1016 55 10000 3.09 230 18:44 14.05.2022
1466 Clear 21 1004 32 10000 0 0 16:46 14.05.2022
1467 Clear 21 1004 32 10000 2.57 130 15:30 14.05.2022
1468 Clear 21 1004 32 10000 0 0 14:34 14.05.2022
1469 Clouds 21 1004 32 10000 0 0 12:24 14.05.2022
1470 Clouds 28 1013 24 10000 2.57 170 10:59 14.05.2022
1471 Clouds 31 1012 20 10000 2.57 160 10:21 14.05.2022
1472 Clouds 32 1012 19 10000 3.6 190 09:53 14.05.2022
1473 Clouds 32 1012 19 10000 2.57 210 08:49 14.05.2022
1474 Clouds 32 1012 20 10000 3.6 210 06:41 14.05.2022
1475 Clouds 26 1015 25 10000 0 0 02:39 14.05.2022
1476 Clouds 13 1014 50 10000 0 0 23:36 13.05.2022
1477 Clouds 14 1014 44 10000 4.12 320 22:58 13.05.2022
1478 Clouds 17 1013 39 10000 2.57 340 22:25 13.05.2022
1479 Clouds 12 1013 54 10000 0 0 21:39 13.05.2022
1480 Clouds 12 1013 54 10000 0 0 20:44 13.05.2022
1481 Clouds 16 1013 41 10000 2.06 320 20:24 13.05.2022
1482 Clouds 12 1013 54 10000 1.54 250 19:25 13.05.2022
1483 Clouds 13 1014 47 10000 0 0 17:50 13.05.2022
1484 Clouds 13 1014 47 10000 0 0 17:50 13.05.2022
1485 Clouds 21 1004 32 10000 0 0 17:27 13.05.2022
1486 Clouds 21 1004 32 10000 2.06 90 16:18 13.05.2022
1487 Clear 21 1004 32 10000 1.03 310 15:20 13.05.2022
1488 Clouds 21 1004 32 10000 2.57 350 13:29 13.05.2022
1489 Clear 21 1004 32 10000 2.06 340 12:25 13.05.2022
1490 Clear 21 1004 32 10000 0 0 10:46 13.05.2022
1491 Clear 28 1012 18 10000 3.09 270 09:31 13.05.2022
1492 Clear 29 1012 18 10000 3.09 290 08:23 13.05.2022
1493 Clear 28 1012 20 10000 3.09 310 07:42 13.05.2022
1494 Clear 26 1013 22 10000 3.09 310 05:59 13.05.2022
1495 Clear 21 1004 32 10000 1.54 20 02:43 13.05.2022
1496 Clouds 6 1016 75 10000 0 0 23:44 12.05.2022
1497 Clouds 7 1015 76 10000 0 0 22:44 12.05.2022
1498 Clouds 6 1014 75 10000 0 0 21:46 12.05.2022
1499 Clouds 7 1014 70 10000 0 0 20:23 12.05.2022
1500 Clouds 9 1015 66 10000 1.03 280 18:31 12.05.2022
1501 Clouds 9 1016 61 10000 0 0 16:57 12.05.2022
1502 Clouds 11 1016 58 10000 2.57 70 15:49 12.05.2022
1503 Clouds 14 1016 47 10000 3.09 90 13:59 12.05.2022
1504 Clouds 15 1015 41 10000 3.6 80 13:21 12.05.2022
1505 Clouds 22 1014 26 10000 3.09 150 10:35 12.05.2022
1506 Clouds 21 1004 32 10000 1.03 170 08:58 12.05.2022
1507 Clouds 21 1004 32 10000 1.03 10 08:39 12.05.2022
1508 Clouds 21 1004 32 10000 2.06 180 07:37 12.05.2022
1509 Clouds 21 1004 32 10000 1.54 150 05:30 12.05.2022
1510 Clouds 15 1018 72 10000 0 0 02:21 12.05.2022
1511 Clouds 4 1017 81 10000 2.57 280 23:55 11.05.2022
1512 Clouds 4 1016 81 10000 2.06 310 22:29 11.05.2022
1513 Clouds 6 1016 70 10000 0 0 21:29 11.05.2022
1514 Clouds 6 1016 75 10000 1.03 250 20:48 11.05.2022
1515 Clouds 7 1016 65 10000 1.03 100 17:56 11.05.2022
1516 Clouds 8 1017 61 10000 0 0 16:49 11.05.2022
1517 Clouds 10 1018 62 10000 0.51 190 14:50 11.05.2022
1518 Clouds 11 1017 54 10000 2.06 160 14:26 11.05.2022
1519 Clouds 13 1017 50 10000 2.57 150 13:44 11.05.2022
1520 Clouds 16 1016 41 10000 3.09 150 11:50 11.05.2022
1521 Clouds 21 1004 32 10000 4.63 110 09:39 11.05.2022
1522 Clouds 21 1004 32 10000 3.6 150 07:52 11.05.2022
1523 Clear 21 1004 32 10000 4.12 100 03:38 11.05.2022
1524 Clear 6 1018 70 10000 2.57 270 23:45 10.05.2022
1525 Clear 6 1018 75 10000 0 0 22:30 10.05.2022
1526 Clear 6 1018 70 10000 0.51 260 21:43 10.05.2022
1527 Clear 7 1018 70 10000 2.06 260 20:48 10.05.2022
1528 Clear 7 1018 70 10000 0 0 19:18 10.05.2022
1529 Clear 8 1019 71 10000 0 0 17:44 10.05.2022
1530 Clear 10 1020 66 10000 3.09 170 16:39 10.05.2022
1531 Clear 13 1019 58 10000 2.57 160 13:54 10.05.2022
1532 Clear 15 1018 51 10000 3.09 140 12:30 10.05.2022
1533 Clear 18 1018 45 10000 3.6 130 11:42 10.05.2022
1534 Clear 18 1018 45 10000 3.6 130 11:18 10.05.2022
1535 Clear 21 1004 32 10000 5.66 140 09:52 10.05.2022
1536 Clear 21 1004 32 10000 5.66 140 08:29 10.05.2022
1537 Clear 21 1004 32 10000 5.66 120 06:21 10.05.2022
1538 Clear 15 1020 44 10000 5.14 110 02:31 10.05.2022
1539 Clouds 8 1019 66 10000 2.57 200 23:55 09.05.2022
1540 Clear 10 1019 57 10000 3.09 150 22:42 09.05.2022
1541 Clouds 12 1019 50 10000 3.6 140 21:48 09.05.2022
1542 Clouds 14 1019 44 10000 3.6 120 20:22 09.05.2022
1543 Clouds 11 1020 50 10000 3.09 130 18:29 09.05.2022
1544 Clouds 13 1020 44 10000 3.09 170 17:27 09.05.2022
1545 Clouds 11 1021 50 10000 3.09 160 16:21 09.05.2022
1546 Clouds 12 1021 47 10000 2.57 180 15:47 09.05.2022
1547 Clouds 14 1021 38 10000 2.57 180 14:41 09.05.2022
1548 Clouds 15 1021 36 10000 2.57 180 13:59 09.05.2022
1549 Clouds 15 1021 36 10000 3.09 190 13:23 09.05.2022
1550 Clouds 16 1020 31 10000 3.6 160 11:53 09.05.2022
1551 Clouds 15 1019 41 10000 2.57 170 10:48 09.05.2022
1552 Clouds 16 1019 36 10000 3.6 160 10:26 09.05.2022
1553 Clouds 21 1004 32 10000 4.63 120 07:57 09.05.2022
1554 Clouds 21 1004 32 10000 3.6 160 05:59 09.05.2022
1555 Clouds 10 1021 46 10000 3.09 270 01:59 09.05.2022
1556 Clouds 7 1020 53 10000 0 0 23:29 08.05.2022
1557 Clouds 7 1020 53 10000 2.57 250 22:32 08.05.2022
1558 Clouds 6 1019 56 10000 2.06 320 21:24 08.05.2022
1559 Clouds 5 1019 60 10000 1.54 240 20:25 08.05.2022
1560 Clouds 5 1019 56 10000 2.06 280 19:33 08.05.2022
1561 Clouds 5 1020 56 10000 0 0 18:40 08.05.2022
1562 Clouds 6 1020 49 10000 0 0 17:40 08.05.2022
1563 Clouds 7 1020 49 10000 0 0 16:22 08.05.2022
1564 Clouds 8 1021 46 10000 0 0 15:22 08.05.2022
1565 Clouds 12 1020 32 10000 3.09 130 12:49 08.05.2022
1566 Clouds 15 1020 29 10000 3.09 130 11:45 08.05.2022
1567 Clouds 21 1004 32 10000 4.63 120 10:25 08.05.2022
1568 Clouds 21 1004 32 10000 4.63 140 09:53 08.05.2022
1569 Clear 21 1004 32 10000 6.17 110 07:44 08.05.2022
1570 Clear 21 1004 32 10000 6.69 110 05:57 08.05.2022
1571 Clear 15 1023 38 10000 7.2 100 03:22 08.05.2022
1572 Clear 6 1023 65 10000 0 0 00:48 08.05.2022
1573 Clear 2 1022 80 10000 2.57 270 23:56 07.05.2022
1574 Clear 1 1022 80 10000 2.57 270 23:28 07.05.2022
1575 Clear 2 1022 75 10000 0 0 22:35 07.05.2022
1576 Clear 3 1022 70 10000 0 0 21:55 07.05.2022
1577 Clear 2 1022 69 10000 0 0 21:20 07.05.2022
1578 Clear 3 1022 70 10000 0 0 20:23 07.05.2022
1579 Clear 5 1023 60 10000 0 0 18:41 07.05.2022
1580 Clear 6 1023 56 10000 1.54 170 16:24 07.05.2022
1581 Clear 8 1024 53 10000 2.57 170 14:51 07.05.2022
1582 Clear 15 1022 33 10000 3.6 120 11:21 07.05.2022
1583 Clear 21 1004 32 10000 7.2 120 09:39 07.05.2022
1584 Clear 21 1004 32 10000 7.2 110 08:28 07.05.2022
1585 Clear 21 1004 32 10000 5.66 130 06:44 07.05.2022
1586 Clear 21 1004 32 10000 5.66 130 06:24 07.05.2022
1587 Clear 15 1024 38 10000 7.2 120 03:54 07.05.2022
1588 Clouds 2 1023 75 10000 0 0 23:41 06.05.2022
1589 Clouds 3 1023 75 10000 0 0 22:34 06.05.2022
1590 Clouds 4 1023 70 10000 1.54 130 21:47 06.05.2022
1591 Clouds 5 1022 65 10000 0 0 20:39 06.05.2022
1592 Clouds 6 1023 61 10000 0 0 19:43 06.05.2022
1593 Clouds 6 1023 61 10000 0 0 19:19 06.05.2022
1594 Clouds 8 1023 53 10000 3.6 160 18:25 06.05.2022
1595 Clouds 9 1023 49 10000 3.6 160 17:27 06.05.2022
1596 Clouds 10 1024 46 10000 2.57 160 15:49 06.05.2022
1597 Clouds 11 1023 43 10000 2.57 130 14:58 06.05.2022
1598 Clouds 13 1023 38 10000 3.6 130 13:31 06.05.2022
1599 Clouds 13 1022 38 10000 3.6 140 12:41 06.05.2022
1600 Clouds 13 1022 38 10000 3.6 140 11:49 06.05.2022
1601 Clouds 16 1021 29 10000 5.66 130 10:34 06.05.2022
1602 Clouds 17 1021 27 10000 5.14 140 09:46 06.05.2022
1603 Clouds 21 1004 32 10000 5.14 150 08:43 06.05.2022
1604 Clouds 17 1021 29 10000 4.63 100 06:50 06.05.2022
1605 Clouds 16 1022 31 10000 6.17 110 05:37 06.05.2022
1606 Clouds 14 1025 41 10000 7.2 120 02:50 06.05.2022
1607 Clear 5 1024 65 10000 0 0 00:26 06.05.2022
1608 Clear 3 1023 70 10000 0 0 22:32 05.05.2022
1609 Clear 4 1022 65 10000 3.09 170 21:22 05.05.2022
1610 Clear 5 1022 60 10000 3.09 170 19:55 05.05.2022
1611 Clear 6 1022 61 10000 3.6 160 18:34 05.05.2022
1612 Clear 8 1023 57 10000 2.57 140 16:33 05.05.2022
1613 Clear 10 1023 53 10000 3.09 130 14:50 05.05.2022
1614 Clear 12 1023 54 10000 3.6 130 13:22 05.05.2022
1615 Clear 13 1023 50 10000 3.6 140 12:49 05.05.2022
1616 Clear 17 1021 39 10000 5.14 130 10:48 05.05.2022
1617 Clear 21 1004 32 10000 5.66 120 09:40 05.05.2022
1618 Clouds 21 1004 32 10000 6.17 160 07:35 05.05.2022
1619 Clouds 21 1004 32 10000 6.69 130 05:19 05.05.2022
1620 Clouds 14 1024 62 10000 7.72 120 01:56 05.05.2022
1621 Clouds 14 1024 62 10000 7.72 140 01:27 05.05.2022
1622 Clouds 15 1022 55 10000 6.69 130 23:50 04.05.2022
1623 Clouds 16 1022 55 10000 6.17 140 22:42 04.05.2022
1624 Clouds 16 1022 55 10000 5.66 130 21:50 04.05.2022
1625 Clouds 16 1021 55 10000 6.69 140 21:26 04.05.2022
1626 Clouds 16 1021 59 10000 4.63 140 20:24 04.05.2022
1627 Clouds 16 1021 59 10000 5.66 150 19:53 04.05.2022
1628 Clouds 17 1022 59 10000 4.63 150 18:56 04.05.2022
1629 Clouds 17 1021 59 10000 6.17 140 18:22 04.05.2022
1630 Clouds 18 1021 55 10000 6.69 150 17:38 04.05.2022
1631 Clouds 19 1022 42 10000 4.12 140 15:40 04.05.2022
1632 Clouds 19 1021 37 10000 3.6 140 15:22 04.05.2022
1633 Clouds 18 1021 36 10000 2.57 140 14:21 04.05.2022
1634 Clouds 20 1020 32 10000 3.09 130 13:26 04.05.2022
1635 Clouds 21 1020 30 10000 4.12 120 12:29 04.05.2022
1636 Clouds 23 1018 27 10000 3.6 130 10:40 04.05.2022
1637 Clouds 23 1018 28 10000 4.63 110 09:43 04.05.2022
1638 Clouds 24 1018 29 10000 4.63 150 08:41 04.05.2022
1639 Clouds 25 1017 27 10000 5.66 150 06:41 04.05.2022
1640 Clouds 22 1020 33 10000 4.12 90 02:58 04.05.2022
1641 Clouds 14 1018 67 10000 0 0 00:33 04.05.2022
1642 Clouds 14 1017 67 10000 0 0 22:34 03.05.2022
1643 Clouds 15 1017 67 10000 0 0 21:43 03.05.2022
1644 Clouds 15 1017 63 10000 0.51 180 20:53 03.05.2022
1645 Clouds 18 1017 52 10000 0 0 19:57 03.05.2022
1646 Clouds 18 1017 52 10000 2.06 140 18:52 03.05.2022
1647 Clouds 19 1017 48 10000 2.57 130 18:20 03.05.2022
1648 Clouds 19 1018 52 10000 2.06 80 16:37 03.05.2022
1649 Clouds 20 1018 49 10000 2.57 110 15:35 03.05.2022
1650 Clouds 23 1018 43 10000 2.57 120 12:47 03.05.2022
1651 Clouds 23 1017 46 10000 2.57 140 12:27 03.05.2022
1652 Clouds 24 1016 43 10000 2.57 160 10:57 03.05.2022
1653 Clouds 25 1016 41 10000 3.6 180 09:29 03.05.2022
1654 Clouds 24 1017 38 10000 2.57 220 06:46 03.05.2022
1655 Clouds 23 1017 40 10000 2.57 230 05:58 03.05.2022
1656 Clouds 16 1018 55 10000 0 0 00:32 03.05.2022
1657 Clouds 15 1018 58 10000 0 0 22:36 02.05.2022
1658 Clouds 15 1017 58 10000 0 0 21:52 02.05.2022
1659 Clouds 18 1017 48 10000 2.57 110 20:51 02.05.2022
1660 Clouds 20 1017 42 10000 3.6 70 18:37 02.05.2022
1661 Clouds 20 1018 45 10000 3.6 80 17:57 02.05.2022
1662 Clouds 20 1018 45 10000 3.09 70 17:34 02.05.2022
1663 Clouds 21 1018 43 10000 3.6 100 16:21 02.05.2022
1664 Clouds 21 1018 40 10000 5.14 110 15:30 02.05.2022
1665 Clouds 21 1018 40 10000 5.14 110 15:30 02.05.2022
1666 Clouds 22 1019 37 10000 3.09 130 13:50 02.05.2022
1667 Clouds 22 1018 37 10000 3.09 130 12:19 02.05.2022
1668 Clouds 23 1017 35 10000 4.12 140 10:38 02.05.2022
1669 Clouds 25 1017 33 10000 3.09 100 08:49 02.05.2022
1670 Clouds 25 1017 33 10000 3.6 120 07:39 02.05.2022
1671 Clouds 25 1017 33 10000 3.6 120 07:39 02.05.2022
1672 Clouds 21 1021 40 10000 4.63 100 03:48 02.05.2022
1673 Clouds 14 1021 72 10000 0 0 00:24 02.05.2022
1674 Clouds 13 1021 71 10000 2.06 90 23:47 01.05.2022
1675 Clouds 14 1021 72 10000 0.51 150 22:20 01.05.2022
1676 Clouds 13 1020 76 10000 0 0 21:18 01.05.2022
1677 Clouds 13 1020 71 10000 0 0 19:50 01.05.2022
1678 Clouds 14 1021 67 10000 2.06 150 18:55 01.05.2022
1679 Clouds 14 1021 67 10000 0 0 18:22 01.05.2022
1680 Clouds 15 1021 67 10000 3.09 140 17:18 01.05.2022
1681 Clouds 16 1021 63 10000 1.03 60 16:23 01.05.2022
1682 Clouds 15 1022 63 10000 2.06 120 15:24 01.05.2022
1683 Clouds 18 1021 55 10000 3.09 140 13:42 01.05.2022
1684 Clouds 20 1020 52 10000 4.12 140 10:53 01.05.2022
1685 Clouds 21 1020 52 10000 5.14 130 08:53 01.05.2022
1686 Clouds 21 1020 52 10000 5.14 130 08:53 01.05.2022
1687 Clouds 21 1020 52 10000 4.63 120 07:53 01.05.2022
1688 Clouds 18 1023 63 10000 5.66 120 03:26 01.05.2022
1689 Clouds 14 1023 72 10000 2.57 150 23:49 30.04.2022
1690 Clouds 14 1022 72 10000 3.6 140 21:44 30.04.2022
1691 Clouds 14 1022 77 10000 3.09 130 20:36 30.04.2022
1692 Clouds 14 1022 72 10000 2.57 140 19:41 30.04.2022
1693 Clear 17 1023 63 10000 4.63 130 17:44 30.04.2022
1694 Clear 18 1024 59 10000 4.63 130 16:37 30.04.2022
1695 Clouds 21 1004 32 10000 6.17 130 15:24 30.04.2022
1696 Clouds 21 1004 32 10000 6.69 120 14:34 30.04.2022
1697 Clouds 21 1004 32 10000 5.14 110 12:40 30.04.2022
1698 Clouds 21 1004 32 10000 5.66 130 11:33 30.04.2022
1699 Clouds 21 1004 32 10000 7.2 120 10:40 30.04.2022
1700 Clouds 25 1020 44 10000 6.69 130 08:54 30.04.2022
1701 Clouds 23 1021 53 10000 5.66 120 05:51 30.04.2022
1702 Clouds 21 1004 32 10000 6.17 150 01:51 30.04.2022
1703 Clouds 17 1022 82 10000 4.63 150 23:37 29.04.2022
1704 Clouds 16 1021 82 10000 4.12 150 22:31 29.04.2022
1705 Clear 16 1021 82 10000 4.12 150 21:27 29.04.2022
1706 Clear 16 1021 82 10000 3.6 150 20:39 29.04.2022
1707 Clouds 17 1021 77 10000 4.12 150 19:38 29.04.2022
1708 Clouds 21 1004 32 10000 3.6 150 17:50 29.04.2022
1709 Clouds 21 1004 32 10000 4.12 150 16:56 29.04.2022
1710 Clouds 21 1004 32 10000 5.14 160 14:57 29.04.2022
1711 Clouds 21 1004 32 10000 6.17 160 14:20 29.04.2022
1712 Clouds 21 1004 32 10000 7.72 180 12:43 29.04.2022
1713 Clouds 28 1016 32 10000 7.72 170 10:59 29.04.2022
1714 Clouds 34 1013 18 10000 3.09 190 08:33 29.04.2022
1715 Clouds 35 1013 16 10000 0.51 330 07:27 29.04.2022
1716 Clear 35 1014 16 10000 2.06 300 06:37 29.04.2022
1717 Clear 32 1017 19 10000 4.63 340 03:34 29.04.2022
1718 Clouds 21 1004 32 10000 2.57 180 00:18 29.04.2022
1719 Clouds 21 1004 32 10000 2.06 80 23:26 28.04.2022
1720 Clouds 21 1004 32 10000 2.57 50 22:40 28.04.2022
1721 Clouds 21 1004 32 10000 0 0 21:46 28.04.2022
1722 Clouds 21 1004 32 10000 0 0 20:51 28.04.2022
1723 Clouds 21 1004 32 10000 3.09 80 19:59 28.04.2022
1724 Clouds 21 1004 32 10000 3.6 60 19:40 28.04.2022
1725 Clouds 21 1004 32 10000 3.6 60 19:20 28.04.2022
1726 Clouds 21 1014 46 10000 3.09 50 17:56 28.04.2022
1727 Clouds 20 1015 52 10000 1.03 340 16:59 28.04.2022
1728 Clouds 20 1015 52 10000 0 0 16:21 28.04.2022
1729 Clouds 20 1014 52 10000 0 0 15:57 28.04.2022
1730 Clouds 21 1015 49 10000 1.54 90 15:23 28.04.2022
1731 Clouds 24 1014 41 10000 0 0 13:43 28.04.2022
1732 Clouds 25 1013 38 10000 0 0 12:37 28.04.2022
1733 Clouds 27 1013 32 10000 0 0 11:51 28.04.2022
1734 Clouds 32 1012 23 10000 1.54 250 10:30 28.04.2022
1735 Clouds 33 1011 21 10000 3.6 260 09:51 28.04.2022
1736 Clouds 33 1012 22 10000 2.06 340 07:45 28.04.2022
1737 Clouds 32 1012 23 10000 3.6 350 06:56 28.04.2022
1738 Clouds 32 1013 23 10000 4.63 310 05:54 28.04.2022
1739 Clear 31 1013 23 10000 6.69 350 04:44 28.04.2022
1740 Clear 30 1014 26 10000 6.69 340 03:40 28.04.2022
1741 Clear 22 1013 40 10000 6.69 20 23:52 27.04.2022
1742 Clear 22 1011 37 10000 4.63 10 22:30 27.04.2022
1743 Clear 22 1011 37 10000 3.6 20 21:50 27.04.2022
1744 Clear 22 1011 40 10000 4.12 40 20:56 27.04.2022
1745 Clear 21 1011 43 10000 4.12 30 20:34 27.04.2022
1746 Clear 21 1011 43 10000 4.12 30 20:34 27.04.2022
1747 Clouds 22 1011 40 10000 4.12 20 19:37 27.04.2022
1748 Clouds 21 1012 46 10000 0 0 18:52 27.04.2022
1749 Clouds 21 1012 46 10000 1.03 70 18:21 27.04.2022
1750 Clouds 21 1012 46 10000 3.09 70 16:23 27.04.2022
1751 Clouds 22 1011 40 10000 3.6 120 13:51 27.04.2022
1752 Clouds 27 1010 29 10000 0 0 11:39 27.04.2022
1753 Clouds 27 1010 29 10000 0 0 11:18 27.04.2022
1754 Clouds 32 1009 20 10000 3.09 250 08:53 27.04.2022
1755 Clouds 31 1010 22 10000 4.12 270 06:45 27.04.2022
1756 Clouds 26 1014 34 10000 3.6 340 03:30 27.04.2022
1757 Clouds 21 1004 32 10000 3.09 340 01:27 27.04.2022
1758 Clouds 12 1013 82 10000 2.57 290 00:35 27.04.2022
1759 Clouds 11 1013 76 10000 0 0 23:24 26.04.2022
1760 Clouds 11 1013 82 10000 0 0 22:52 26.04.2022
1761 Clouds 11 1012 76 10000 0 0 22:32 26.04.2022
1762 Clouds 13 1012 76 10000 0 0 21:25 26.04.2022
1763 Clouds 12 1012 76 10000 0 0 20:40 26.04.2022
1764 Clouds 12 1012 76 10000 0 0 20:40 26.04.2022
1765 Clouds 13 1012 71 10000 0 0 19:48 26.04.2022
1766 Clouds 13 1012 71 10000 2.06 100 19:26 26.04.2022
1767 Clouds 14 1012 72 10000 0 0 18:40 26.04.2022
1768 Clouds 13 1012 71 10000 2.06 40 17:42 26.04.2022
1769 Clear 15 1012 67 10000 2.57 100 15:59 26.04.2022
1770 Clouds 19 1012 52 10000 2.57 90 13:58 26.04.2022
1771 Clouds 19 1012 52 10000 3.09 70 13:29 26.04.2022
1772 Clouds 23 1010 38 10000 3.6 110 11:29 26.04.2022
1773 Clouds 26 1010 31 10000 4.12 90 10:31 26.04.2022
1774 Clouds 27 1010 29 10000 2.06 160 08:38 26.04.2022
1775 Clouds 25 1012 44 10000 2.57 70 05:29 26.04.2022
1776 Clouds 23 1013 53 10000 3.09 90 04:23 26.04.2022
1777 Clouds 13 1013 100 10000 0 0 00:52 26.04.2022
1778 Clouds 11 1013 100 10000 0 0 23:51 25.04.2022
1779 Clouds 11 1012 100 10000 0 0 21:57 25.04.2022
1780 Clouds 11 1012 100 10000 0 0 21:33 25.04.2022
1781 Clouds 12 1011 94 10000 0 0 19:58 25.04.2022
1782 Clouds 13 1012 94 10000 0 0 18:48 25.04.2022
1783 Clouds 12 1013 94 10000 0 0 17:40 25.04.2022
1784 Clouds 13 1013 94 10000 0 0 16:44 25.04.2022
1785 Clear 14 1014 88 10000 0 0 15:23 25.04.2022
1786 Clear 16 1014 88 10000 0 0 14:34 25.04.2022
1787 Clouds 17 1013 82 10000 2.57 130 12:49 25.04.2022
1788 Clouds 21 1013 68 10000 4.12 140 10:44 25.04.2022
1789 Clouds 23 1012 56 10000 4.63 140 09:42 25.04.2022
1790 Clouds 22 1012 60 10000 4.12 170 07:49 25.04.2022
1791 Clouds 21 1014 68 10000 3.09 170 05:54 25.04.2022
1792 Clouds 17 1016 94 10000 3.6 140 01:28 25.04.2022
1793 Clouds 16 1016 100 10000 3.09 140 23:54 24.04.2022
1794 Clouds 16 1015 100 3900 2.57 150 23:24 24.04.2022
1795 Clouds 16 1015 100 10000 0 0 22:39 24.04.2022
1796 Clouds 16 1015 100 7000 1.54 170 21:56 24.04.2022
1797 Clouds 16 1015 100 6000 2.06 160 21:22 24.04.2022
1798 Clouds 16 1015 100 10000 2.06 140 20:46 24.04.2022
1799 Clouds 16 1015 100 10000 2.06 110 20:20 24.04.2022
1800 Clouds 17 1016 94 10000 3.6 90 18:38 24.04.2022
1801 Clouds 17 1016 94 10000 3.09 70 17:49 24.04.2022
1802 Clouds 17 1016 94 10000 4.63 90 17:21 24.04.2022
1803 Clouds 17 1017 94 10000 3.6 80 16:51 24.04.2022
1804 Clouds 21 1004 32 10000 6.17 100 16:25 24.04.2022
1805 Clouds 21 1004 32 10000 5.66 120 15:39 24.04.2022
1806 Clouds 21 1004 32 10000 4.63 110 14:33 24.04.2022
1807 Clouds 21 1004 32 10000 4.63 110 14:33 24.04.2022
1808 Clouds 21 1004 32 10000 4.63 100 13:26 24.04.2022
1809 Clouds 21 1004 32 6000 5.66 100 12:55 24.04.2022
1810 Clouds 21 1004 32 10000 8.23 100 11:49 24.04.2022
1811 Clouds 21 1004 32 10000 7.72 120 10:37 24.04.2022
1812 Clouds 21 1004 32 10000 7.72 120 10:37 24.04.2022
1813 Clouds 21 1004 32 10000 7.72 110 09:43 24.04.2022
1814 Clouds 21 1004 32 10000 5.66 140 07:42 24.04.2022
1815 Clouds 21 1004 32 10000 3.6 130 05:38 24.04.2022
1816 Clouds 21 1004 32 10000 4.12 170 01:58 24.04.2022
1817 Clouds 18 1019 48 10000 3.6 170 00:45 24.04.2022
1818 Clouds 14 1019 62 10000 3.6 190 23:46 23.04.2022
1819 Clouds 15 1018 58 10000 3.6 170 23:25 23.04.2022
1820 Clouds 15 1018 63 10000 2.57 180 21:56 23.04.2022
1821 Clouds 16 1018 55 10000 2.57 160 21:36 23.04.2022
1822 Clouds 16 1018 59 10000 2.57 140 20:59 23.04.2022
1823 Clouds 21 1004 32 10000 3.09 130 19:55 23.04.2022
1824 Clouds 21 1004 32 10000 3.09 130 19:20 23.04.2022
1825 Clouds 21 1004 32 10000 4.12 130 18:53 23.04.2022
1826 Clouds 19 1019 48 10000 3.6 150 18:28 23.04.2022
1827 Clouds 20 1019 42 10000 3.6 140 17:43 23.04.2022
1828 Clouds 19 1019 45 10000 2.57 150 16:43 23.04.2022
1829 Clouds 21 1004 32 10000 3.09 130 15:35 23.04.2022
1830 Clouds 21 1004 32 10000 3.6 130 12:54 23.04.2022
1831 Clouds 21 1004 32 10000 4.63 110 10:53 23.04.2022
1832 Clouds 21 1004 32 10000 5.66 130 09:38 23.04.2022
1833 Clouds 24 1018 31 10000 5.66 140 07:38 23.04.2022
1834 Clouds 21 1004 32 10000 6.69 120 03:54 23.04.2022
1835 Clouds 21 1004 32 10000 4.63 130 01:55 23.04.2022
1836 Clouds 12 1021 62 10000 3.09 140 23:33 22.04.2022
1837 Clouds 12 1020 58 10000 0 0 22:28 22.04.2022
1838 Clouds 12 1020 58 10000 3.09 150 21:44 22.04.2022
1839 Clouds 12 1020 54 10000 2.57 140 20:54 22.04.2022
1840 Clouds 12 1020 50 10000 0 0 20:27 22.04.2022
1841 Clouds 12 1020 50 10000 0 0 19:21 22.04.2022
1842 Clouds 13 1020 47 10000 0 0 18:45 22.04.2022
1843 Clouds 13 1020 47 10000 0 0 17:48 22.04.2022
1844 Clouds 13 1020 44 10000 0 0 16:46 22.04.2022
1845 Clouds 14 1020 38 10000 3.09 170 15:45 22.04.2022
1846 Clear 15 1021 36 10000 3.09 150 15:18 22.04.2022
1847 Clear 16 1021 33 10000 2.57 180 13:54 22.04.2022
1848 Clear 17 1020 31 10000 3.09 140 12:58 22.04.2022
1849 Clear 21 1004 32 10000 3.6 150 11:52 22.04.2022
1850 Clear 21 1004 32 10000 4.12 140 11:22 22.04.2022
1851 Clear 21 1004 32 10000 4.63 140 10:50 22.04.2022
1852 Clear 21 1004 32 10000 6.17 140 10:30 22.04.2022
1853 Clear 21 1004 32 10000 6.17 140 09:50 22.04.2022
1854 Clear 25 1019 19 10000 5.66 120 08:50 22.04.2022
1855 Clear 25 1019 19 10000 6.69 120 07:20 22.04.2022
1856 Clear 21 1004 32 10000 6.17 100 03:30 22.04.2022
1857 Clear 13 1022 47 10000 0 0 00:52 22.04.2022
1858 Clear 8 1021 61 10000 0 0 23:25 21.04.2022
1859 Clear 8 1021 57 10000 0 0 22:29 21.04.2022
1860 Clear 10 1020 53 10000 0 0 20:37 21.04.2022
1861 Clear 10 1020 53 10000 0 0 20:18 21.04.2022
1862 Clear 12 1020 43 10000 2.57 130 18:42 21.04.2022
1863 Clear 12 1021 43 10000 3.09 140 17:57 21.04.2022
1864 Clear 13 1021 41 10000 3.09 170 16:35 21.04.2022
1865 Clear 13 1021 41 10000 3.6 160 15:21 21.04.2022
1866 Clear 14 1021 38 10000 3.6 170 14:47 21.04.2022
1867 Clear 16 1021 33 10000 3.6 130 13:23 21.04.2022
1868 Clear 17 1020 29 10000 3.6 130 12:53 21.04.2022
1869 Clouds 21 1004 32 10000 5.66 140 10:47 21.04.2022
1870 Clouds 25 1018 16 10000 6.69 110 08:56 21.04.2022
1871 Clear 24 1019 20 10000 6.17 120 07:24 21.04.2022
1872 Clear 23 1020 27 10000 7.2 100 05:42 21.04.2022
1873 Clear 21 1004 32 10000 5.66 120 03:28 21.04.2022
1874 Clear 21 1004 32 10000 5.14 120 02:47 21.04.2022
1875 Clear 21 1004 32 10000 5.14 120 02:47 21.04.2022
1876 Clouds 11 1022 62 10000 0 0 00:43 21.04.2022
1877 Clouds 9 1022 66 10000 0 0 23:50 20.04.2022
1878 Clouds 9 1022 66 10000 1.54 220 23:22 20.04.2022
1879 Clouds 10 1021 62 10000 0 0 22:46 20.04.2022
1880 Clouds 10 1021 62 10000 0 0 22:26 20.04.2022
1881 Clouds 10 1020 57 10000 0 0 21:27 20.04.2022
1882 Clouds 10 1020 57 10000 2.06 120 20:23 20.04.2022
1883 Clouds 10 1020 57 10000 0 0 19:51 20.04.2022
1884 Clouds 12 1021 50 10000 3.09 130 19:18 20.04.2022
1885 Clouds 12 1021 50 10000 0 0 17:55 20.04.2022
1886 Clear 14 1021 44 10000 2.06 110 16:40 20.04.2022
1887 Clear 14 1021 44 10000 2.06 110 16:18 20.04.2022
1888 Clear 16 1021 39 10000 3.09 130 13:50 20.04.2022
1889 Clear 20 1020 30 10000 4.12 140 11:47 20.04.2022
1890 Clear 21 1004 32 10000 5.66 130 10:56 20.04.2022
1891 Clear 21 1004 32 10000 6.17 160 09:58 20.04.2022
1892 Clear 24 1018 23 10000 5.66 130 09:24 20.04.2022
1893 Clear 24 1018 22 10000 4.12 120 08:20 20.04.2022
1894 Clear 24 1018 22 10000 5.14 110 07:32 20.04.2022
1895 Clear 21 1004 32 10000 4.63 100 03:34 20.04.2022
1896 Clear 10 1022 62 10000 0 0 00:22 20.04.2022
1897 Clear 9 1021 61 10000 0 0 23:37 19.04.2022
1898 Clear 9 1021 61 10000 0 0 22:25 19.04.2022
1899 Clear 9 1021 61 10000 0 0 21:55 19.04.2022
1900 Clouds 10 1020 57 10000 0 0 21:22 19.04.2022
1901 Clouds 10 1020 57 10000 0 0 20:41 19.04.2022
1902 Clear 10 1020 57 10000 0 0 19:56 19.04.2022
1903 Clear 11 1021 50 10000 1.54 130 18:47 19.04.2022
1904 Clear 14 1021 41 10000 3.09 130 17:32 19.04.2022
1905 Clear 15 1021 41 10000 4.12 150 16:43 19.04.2022
1906 Clear 15 1021 41 10000 4.12 150 16:22 19.04.2022
1907 Clear 15 1021 44 10000 3.09 150 14:48 19.04.2022
1908 Clouds 16 1020 44 10000 3.6 150 13:49 19.04.2022
1909 Clouds 18 1020 39 10000 3.09 130 12:50 19.04.2022
1910 Clouds 21 1004 32 10000 3.6 130 11:55 19.04.2022
1911 Clouds 21 1004 32 10000 5.66 130 10:25 19.04.2022
1912 Clouds 23 1018 33 10000 5.66 130 09:18 19.04.2022
1913 Clouds 21 1004 32 10000 6.69 120 04:56 19.04.2022
1914 Clouds 21 1004 32 10000 6.69 120 03:25 19.04.2022
1915 Clouds 18 1021 68 10000 4.63 140 00:54 19.04.2022
1916 Clouds 18 1020 63 10000 5.66 140 23:30 18.04.2022
1917 Clouds 18 1019 59 10000 3.09 150 21:30 18.04.2022
1918 Clouds 18 1019 59 10000 3.09 150 21:30 18.04.2022
1919 Clear 18 1018 55 10000 3.09 140 20:55 18.04.2022
1920 Clear 18 1019 55 10000 3.6 160 20:32 18.04.2022
1921 Clear 18 1018 55 10000 3.09 150 19:49 18.04.2022
1922 Clear 18 1018 48 10000 3.6 150 18:56 18.04.2022
1923 Clouds 20 1018 42 10000 4.12 150 17:57 18.04.2022
1924 Clouds 21 1004 32 10000 5.66 150 17:33 18.04.2022
1925 Clear 21 1004 32 10000 6.17 150 16:55 18.04.2022
1926 Clear 21 1004 32 10000 4.63 150 16:31 18.04.2022
1927 Clear 21 1004 32 10000 7.2 150 14:45 18.04.2022
1928 Clouds 21 1004 32 10000 5.66 150 13:35 18.04.2022
1929 Clear 27 1016 21 10000 6.69 160 12:29 18.04.2022
1930 Clear 28 1015 23 10000 4.63 170 11:34 18.04.2022
1931 Clear 29 1014 23 10000 5.66 160 10:31 18.04.2022
1932 Clear 30 1014 23 10000 5.14 190 09:30 18.04.2022
1933 Clear 30 1014 26 10000 6.17 180 07:42 18.04.2022
1934 Clear 29 1015 28 10000 6.17 170 05:37 18.04.2022
1935 Clouds 21 1004 32 10000 3.09 210 00:27 18.04.2022
1936 Clouds 21 1004 32 10000 2.57 220 22:40 17.04.2022
1937 Clouds 21 1004 32 10000 3.09 190 21:42 17.04.2022
1938 Clouds 21 1004 32 10000 3.09 190 21:22 17.04.2022
1939 Clouds 21 1004 32 10000 3.09 200 20:35 17.04.2022
1940 Clouds 21 1004 32 10000 4.63 210 19:28 17.04.2022
1941 Clouds 28 1013 32 10000 6.69 190 17:45 17.04.2022
1942 Clouds 29 1012 24 10000 3.6 310 15:39 17.04.2022
1943 Clouds 30 1011 21 10000 2.06 310 14:54 17.04.2022
1944 Clouds 29 1011 26 10000 0 0 13:48 17.04.2022
1945 Clouds 30 1011 21 10000 2.57 360 12:58 17.04.2022
1946 Clouds 30 1011 23 10000 2.57 360 12:18 17.04.2022
1947 Clouds 33 1010 18 10000 2.57 320 10:46 17.04.2022
1948 Clouds 34 1010 16 10000 3.09 350 10:28 17.04.2022
1949 Clouds 34 1010 16 10000 3.09 350 10:27 17.04.2022
1950 Clouds 35 1009 15 10000 1.03 340 09:29 17.04.2022
1951 Clouds 36 1010 13 10000 4.12 290 08:42 17.04.2022
1952 Clear 36 1010 13 10000 5.66 290 07:26 17.04.2022
1953 Clouds 33 1013 17 10000 6.69 350 04:29 17.04.2022
1954 Clouds 26 1014 27 10000 2.57 70 00:55 17.04.2022
1955 Clouds 21 1004 32 10000 0 0 23:50 16.04.2022
1956 Clouds 21 1004 32 10000 2.06 250 22:29 16.04.2022
1957 Clouds 21 1004 32 10000 3.09 70 21:31 16.04.2022
1958 Clouds 21 1004 32 10000 3.09 60 20:18 16.04.2022
1959 Clear 21 1004 32 10000 3.09 50 18:59 16.04.2022
1960 Clear 21 1004 32 10000 3.6 50 17:46 16.04.2022
1961 Clear 21 1004 32 10000 3.09 40 16:38 16.04.2022
1962 Clear 21 1004 32 10000 3.6 60 15:43 16.04.2022
1963 Clear 25 1013 27 10000 4.12 60 14:55 16.04.2022
1964 Clouds 26 1013 27 10000 3.6 70 13:58 16.04.2022
1965 Clouds 27 1013 24 10000 3.6 70 13:32 16.04.2022
1966 Clouds 28 1013 23 10000 3.6 90 12:22 16.04.2022
1967 Clouds 32 1012 19 10000 5.14 90 10:49 16.04.2022
1968 Clouds 34 1012 15 10000 4.63 100 09:56 16.04.2022
1969 Clouds 35 1012 14 10000 4.12 130 08:57 16.04.2022
1970 Clouds 35 1012 15 10000 4.12 140 07:35 16.04.2022
1971 Clouds 35 1012 15 10000 4.63 80 06:58 16.04.2022
1972 Clear 30 1016 25 10000 6.17 50 02:33 16.04.2022
1973 Clouds 21 1004 32 10000 0.51 230 00:23 16.04.2022
1974 Clouds 21 1004 32 10000 0 0 22:58 15.04.2022
1975 Clouds 21 1004 32 10000 0 0 22:32 15.04.2022
1976 Clouds 21 1004 32 10000 0 0 21:50 15.04.2022
1977 Clouds 21 1004 32 10000 0 0 20:56 15.04.2022
1978 Clouds 21 1004 32 10000 3.09 100 19:59 15.04.2022
1979 Clouds 21 1004 32 10000 4.63 90 19:39 15.04.2022
1980 Clear 21 1004 32 10000 4.12 90 18:46 15.04.2022
1981 Clear 21 1004 32 10000 4.12 80 18:24 15.04.2022
1982 Clear 24 1015 35 10000 1.54 90 17:32 15.04.2022
1983 Clear 23 1016 38 10000 0 0 16:37 15.04.2022
1984 Clear 23 1016 38 10000 0 0 16:18 15.04.2022
1985 Clouds 24 1016 33 10000 0 0 14:44 15.04.2022
1986 Clear 26 1016 29 10000 2.57 110 13:34 15.04.2022
1987 Clouds 28 1015 26 10000 3.6 130 12:40 15.04.2022
1988 Clouds 30 1014 23 10000 3.09 120 11:55 15.04.2022
1989 Clouds 33 1014 19 10000 4.12 130 10:58 15.04.2022
1990 Clouds 34 1014 17 10000 4.63 120 10:40 15.04.2022
1991 Clear 35 1014 16 10000 4.63 130 09:41 15.04.2022
1992 Clear 35 1014 16 10000 4.63 130 09:19 15.04.2022
1993 Clear 36 1014 15 10000 6.17 70 07:24 15.04.2022
1994 Clear 35 1015 16 10000 2.57 100 05:58 15.04.2022
1995 Clear 30 1017 25 10000 2.06 80 02:34 15.04.2022
1996 Clear 21 1004 32 10000 0 0 23:30 14.04.2022
1997 Clouds 21 1004 32 10000 0 0 22:47 14.04.2022
1998 Clear 21 1004 32 10000 0 0 22:29 14.04.2022
1999 Clear 21 1004 32 10000 1.03 210 21:57 14.04.2022
2000 Clear 21 1004 32 10000 1.03 330 20:35 14.04.2022
2001 Clear 21 1004 32 10000 0 0 19:22 14.04.2022
2002 Clear 21 1004 32 10000 2.57 190 18:18 14.04.2022
2003 Clear 21 1004 32 10000 2.57 70 17:28 14.04.2022
2004 Clouds 21 1004 32 10000 0 0 16:33 14.04.2022
2005 Clouds 24 1016 29 10000 2.57 40 14:27 14.04.2022
2006 Clear 26 1016 25 10000 3.6 120 13:39 14.04.2022
2007 Clear 27 1015 22 10000 3.6 130 12:51 14.04.2022
2008 Clear 28 1015 21 10000 4.12 130 12:30 14.04.2022
2009 Clouds 32 1014 15 10000 5.14 130 11:23 14.04.2022
2010 Clouds 34 1013 13 10000 4.63 130 10:36 14.04.2022
2011 Clear 35 1013 12 10000 5.66 140 09:56 14.04.2022
2012 Clear 36 1012 11 10000 4.63 150 08:40 14.04.2022
2013 Clear 35 1013 14 10000 5.14 110 06:50 14.04.2022
2014 Clear 30 1017 23 10000 3.09 100 02:45 14.04.2022
2015 Clear 21 1004 32 10000 2.57 280 22:52 13.04.2022
2016 Clear 21 1004 32 10000 2.06 310 21:44 13.04.2022
2017 Clear 21 1004 32 10000 2.57 260 20:53 13.04.2022
2018 Clear 21 1004 32 10000 3.6 290 20:22 13.04.2022
2019 Clear 21 1004 32 10000 0.51 200 19:23 13.04.2022
2020 Clear 21 1004 32 10000 0 0 17:55 13.04.2022
2021 Clear 21 1004 32 10000 0 0 17:23 13.04.2022
2022 Clear 21 1004 32 10000 0 0 16:33 13.04.2022
2023 Clear 22 1016 35 10000 2.06 90 15:32 13.04.2022
2024 Clear 24 1016 29 10000 2.06 90 14:50 13.04.2022
2025 Clear 25 1015 29 10000 0.51 60 14:18 13.04.2022
2026 Clear 26 1015 27 10000 3.09 120 13:19 13.04.2022
2027 Clear 28 1014 23 10000 3.09 130 12:20 13.04.2022
2028 Clear 33 1013 17 10000 4.63 130 10:47 13.04.2022
2029 Clouds 36 1013 14 10000 5.14 110 08:57 13.04.2022
2030 Clouds 35 1013 16 10000 2.57 110 08:31 13.04.2022
2031 Clear 35 1013 16 10000 3.6 140 06:51 13.04.2022
2032 Clear 35 1014 17 10000 3.6 80 06:25 13.04.2022
2033 Clear 34 1016 18 10000 5.66 50 04:55 13.04.2022
2034 Clear 21 1004 32 10000 0.51 80 00:20 13.04.2022
2035 Clear 21 1004 32 10000 0 0 23:21 12.04.2022
2036 Clear 21 1004 32 10000 0 0 21:57 12.04.2022
2037 Clear 21 1004 32 10000 2.06 70 20:51 12.04.2022
2038 Clear 23 1014 40 10000 2.57 80 20:33 12.04.2022
2039 Clouds 22 1014 40 10000 2.57 100 19:47 12.04.2022
2040 Clouds 24 1014 35 10000 2.57 90 19:28 12.04.2022
2041 Clouds 25 1015 33 10000 3.09 70 17:59 12.04.2022
2042 Clouds 26 1015 31 10000 3.09 100 16:53 12.04.2022
2043 Clouds 26 1015 31 10000 2.57 90 16:19 12.04.2022
2044 Clouds 28 1015 28 10000 0.51 70 15:26 12.04.2022
2045 Clouds 29 1015 26 10000 3.09 120 14:21 12.04.2022
2046 Clouds 30 1014 23 10000 2.06 90 13:28 12.04.2022
2047 Clouds 31 1013 22 10000 2.57 120 12:44 12.04.2022
2048 Clouds 33 1012 19 10000 3.6 100 11:42 12.04.2022
2049 Clouds 35 1012 17 10000 5.14 100 10:30 12.04.2022
2050 Clouds 36 1011 16 10000 7.72 90 08:54 12.04.2022
2051 Clouds 36 1011 16 10000 7.72 90 08:54 12.04.2022
2052 Clouds 36 1011 16 10000 7.72 90 08:54 12.04.2022
2053 Clouds 36 1012 15 10000 4.12 90 07:50 12.04.2022
2054 Clouds 36 1013 16 10000 6.69 50 05:49 12.04.2022
2055 Clouds 34 1015 17 10000 6.17 50 03:28 12.04.2022
2056 Clouds 24 1014 43 10000 0 0 23:36 11.04.2022
2057 Clouds 25 1014 38 10000 0 0 22:44 11.04.2022
2058 Clouds 25 1014 38 10000 3.09 60 21:36 11.04.2022
2059 Clouds 26 1014 34 10000 3.09 70 20:49 11.04.2022
2060 Clouds 27 1014 32 10000 2.06 90 20:28 11.04.2022
2061 Clouds 26 1014 38 10000 0 0 19:36 11.04.2022
2062 Clouds 26 1014 38 10000 0 0 19:18 11.04.2022
2063 Clouds 26 1014 36 10000 0.51 40 18:37 11.04.2022
2064 Clouds 27 1015 34 10000 2.06 120 17:44 11.04.2022
2065 Clouds 27 1015 32 10000 0 0 16:38 11.04.2022
2066 Clouds 28 1015 30 10000 3.09 110 15:24 11.04.2022
2067 Clouds 28 1015 30 10000 2.57 80 13:51 11.04.2022
2068 Clouds 29 1014 28 10000 3.6 130 12:43 11.04.2022
2069 Clouds 29 1014 28 10000 3.6 130 12:22 11.04.2022
2070 Clouds 33 1013 22 10000 4.12 110 10:56 11.04.2022
2071 Clouds 34 1012 21 10000 3.6 130 09:58 11.04.2022
2072 Clouds 35 1013 20 10000 3.09 140 08:23 11.04.2022
2073 Clouds 33 1015 22 10000 6.17 80 04:57 11.04.2022
2074 Clouds 18 1016 42 10000 1.54 290 00:49 11.04.2022
2075 Clouds 21 1004 32 10000 3.09 290 22:27 10.04.2022
2076 Clouds 21 1004 32 10000 2.57 270 21:54 10.04.2022
2077 Clouds 21 1004 32 10000 2.06 300 21:23 10.04.2022
2078 Clouds 21 1004 32 10000 0 0 20:18 10.04.2022
2079 Clouds 21 1004 32 10000 0 0 19:36 10.04.2022
2080 Clouds 21 1004 32 10000 0 0 18:50 10.04.2022
2081 Clouds 21 1004 32 10000 0 0 18:26 10.04.2022
2082 Clouds 21 1004 32 10000 0 0 17:44 10.04.2022
2083 Clouds 21 1004 32 10000 0 0 16:57 10.04.2022
2084 Clouds 21 1004 32 10000 0 0 15:38 10.04.2022
2085 Clouds 21 1004 32 10000 0 0 14:42 10.04.2022
2086 Clouds 21 1004 32 10000 2.57 140 13:28 10.04.2022
2087 Clear 25 1014 20 10000 2.57 130 12:27 10.04.2022
2088 Clear 27 1014 18 10000 3.09 140 11:38 10.04.2022
2089 Clear 31 1013 13 10000 3.6 150 10:59 10.04.2022
2090 Clear 32 1013 12 10000 3.6 140 10:27 10.04.2022
2091 Clear 33 1013 12 10000 3.09 200 09:41 10.04.2022
2092 Clouds 33 1013 11 10000 2.57 280 08:26 10.04.2022
2093 Clouds 32 1013 12 10000 3.6 130 07:53 10.04.2022
2094 Clouds 32 1013 12 10000 1.54 150 06:48 10.04.2022
2095 Clear 28 1017 21 10000 4.63 100 03:36 10.04.2022
2096 Clear 28 1017 21 10000 4.63 100 03:36 10.04.2022
2097 Haze 21 1004 32 5000 0 0 01:30 10.04.2022
2098 Clear 21 1004 32 10000 3.09 270 23:53 09.04.2022
2099 Clear 12 1015 58 10000 2.57 310 22:52 09.04.2022
2100 Clear 12 1015 54 10000 2.57 280 21:51 09.04.2022
2101 Clear 12 1014 54 10000 2.57 270 20:58 09.04.2022
2102 Clear 12 1014 54 10000 2.57 280 20:26 09.04.2022
2103 Clear 13 1014 50 10000 2.06 260 19:43 09.04.2022
2104 Clear 13 1014 50 10000 2.06 260 19:21 09.04.2022
2105 Clear 14 1014 51 10000 2.06 280 18:22 09.04.2022
2106 Clear 14 1015 44 10000 0 0 17:42 09.04.2022
2107 Clear 16 1015 41 10000 0 0 16:55 09.04.2022
2108 Clear 21 1004 32 10000 0 0 16:24 09.04.2022
2109 Clear 21 1004 32 10000 0 0 15:43 09.04.2022
2110 Clear 21 1004 32 10000 0 0 14:44 09.04.2022
2111 Clear 21 1004 32 10000 0 0 14:44 09.04.2022
2112 Clear 21 1004 32 10000 2.06 110 14:23 09.04.2022
2113 Clear 21 1004 32 10000 3.6 110 13:21 09.04.2022
2114 Clear 21 1004 32 10000 3.6 120 12:51 09.04.2022
2115 Clear 21 1004 32 10000 3.09 120 11:40 09.04.2022
2116 Clear 30 1013 13 10000 3.09 140 10:21 09.04.2022
2117 Clear 31 1013 12 10000 2.06 160 09:47 09.04.2022
2118 Clear 31 1013 11 10000 2.57 20 08:56 09.04.2022
2119 Clear 31 1013 12 10000 2.06 220 07:32 09.04.2022
2120 Clear 25 1017 25 10000 4.12 90 02:58 09.04.2022
2121 Clear 12 1017 62 10000 2.06 290 00:25 09.04.2022
2122 Clear 10 1016 62 10000 2.57 290 22:57 08.04.2022
2123 Clear 12 1015 58 10000 0 0 21:32 08.04.2022
2124 Clear 12 1015 58 10000 2.57 310 20:40 08.04.2022
2125 Clear 12 1015 54 10000 0 0 19:32 08.04.2022
2126 Clear 13 1015 54 10000 0 0 18:31 08.04.2022
2127 Clear 13 1015 54 10000 0 0 17:52 08.04.2022
2128 Clear 14 1015 51 10000 0 0 17:26 08.04.2022
2129 Clear 15 1015 47 10000 0 0 16:51 08.04.2022
2130 Clear 16 1015 41 10000 0 0 15:59 08.04.2022
2131 Clear 17 1016 39 10000 1.54 80 15:27 08.04.2022
2132 Clear 19 1015 34 10000 2.57 80 14:39 08.04.2022
2133 Clear 20 1015 32 10000 3.6 110 13:48 08.04.2022
2134 Clear 21 1015 30 10000 3.09 120 13:29 08.04.2022
2135 Clear 22 1014 28 10000 4.12 130 12:18 08.04.2022
2136 Clear 27 1014 21 10000 4.63 120 10:37 08.04.2022
2137 Clear 28 1013 20 10000 3.6 150 09:38 08.04.2022
2138 Clear 28 1013 20 10000 4.12 170 08:51 08.04.2022
2139 Clear 28 1014 21 10000 4.63 100 06:55 08.04.2022
2140 Clear 26 1016 25 10000 4.12 110 05:23 08.04.2022
2141 Clear 19 1018 39 10000 0 0 01:29 08.04.2022
2142 Clear 13 1017 62 10000 2.06 290 00:25 08.04.2022
2143 Clear 12 1017 62 10000 2.06 320 22:59 07.04.2022
2144 Clear 11 1016 66 10000 2.06 160 22:39 07.04.2022
2145 Clear 11 1016 66 10000 2.06 160 22:21 07.04.2022
2146 Clear 12 1016 58 10000 0 0 21:53 07.04.2022
2147 Clear 13 1016 58 10000 0 0 21:19 07.04.2022
2148 Clear 15 1016 47 10000 0 0 20:37 07.04.2022
2149 Clear 15 1016 51 10000 0.51 50 18:35 07.04.2022
2150 Clear 16 1016 44 10000 2.57 160 17:27 07.04.2022
2151 Clear 17 1016 42 10000 4.12 150 16:44 07.04.2022
2152 Clear 17 1016 42 10000 4.12 150 16:22 07.04.2022
2153 Clear 17 1016 42 10000 4.12 150 16:22 07.04.2022
2154 Clear 21 1004 32 10000 2.57 150 14:50 07.04.2022
2155 Clear 21 1004 32 10000 3.6 150 13:43 07.04.2022
2156 Clear 21 1004 32 10000 3.6 170 12:50 07.04.2022
2157 Clear 26 1015 24 10000 3.6 160 11:34 07.04.2022
2158 Clear 29 1014 18 10000 7.2 170 09:37 07.04.2022
2159 Clear 30 1014 20 10000 5.66 170 08:38 07.04.2022
2160 Clear 28 1015 24 10000 4.63 150 06:42 07.04.2022
2161 Clear 24 1018 31 10000 3.6 120 02:54 07.04.2022
2162 Clear 21 1004 32 10000 4.63 150 02:25 07.04.2022
2163 Clear 21 1004 32 10000 2.06 250 00:27 07.04.2022
2164 Clear 15 1017 58 10000 2.57 290 22:51 06.04.2022
2165 Clear 15 1016 55 10000 2.57 280 22:27 06.04.2022
2166 Clear 16 1016 48 10000 0 0 21:44 06.04.2022
2167 Clear 21 1004 32 10000 2.57 310 20:36 06.04.2022
2168 Clear 21 1004 32 10000 2.06 300 19:53 06.04.2022
2169 Clear 21 1004 32 10000 2.57 280 18:51 06.04.2022
2170 Clear 21 1004 32 10000 2.06 250 18:25 06.04.2022
2171 Clear 21 1004 32 10000 0 0 17:35 06.04.2022
2172 Clear 21 1004 32 10000 0 0 16:38 06.04.2022
2173 Clear 21 1004 32 10000 2.06 140 15:48 06.04.2022
2174 Clear 21 1004 32 10000 2.57 130 14:57 06.04.2022
2175 Clouds 21 1004 32 10000 3.6 130 13:24 06.04.2022
2176 Clouds 25 1015 20 10000 3.6 130 12:26 06.04.2022
2177 Clouds 31 1014 12 10000 5.14 120 10:47 06.04.2022
2178 Clouds 32 1013 12 10000 5.66 120 10:25 06.04.2022
2179 Clouds 32 1013 12 10000 5.66 170 09:40 06.04.2022
2180 Clouds 32 1013 12 10000 3.6 150 08:32 06.04.2022
2181 Clouds 32 1013 12 10000 3.6 150 08:32 06.04.2022
2182 Clear 32 1013 12 10000 3.6 190 07:50 06.04.2022
2183 Clear 28 1017 13 10000 3.09 160 03:54 06.04.2022
2184 Clear 21 1004 32 10000 2.57 270 23:53 05.04.2022
2185 Clouds 13 1014 50 10000 1.03 260 22:57 05.04.2022
2186 Clouds 21 1004 32 10000 0 0 21:23 05.04.2022
2187 Clear 21 1004 32 10000 0 0 20:26 05.04.2022
2188 Clear 21 1004 32 10000 3.6 360 19:42 05.04.2022
2189 Clear 21 1004 32 10000 3.6 190 18:18 05.04.2022
2190 Clear 21 1004 32 10000 0 0 16:54 05.04.2022
2191 Clear 21 1004 32 10000 2.06 70 15:56 05.04.2022
2192 Clear 21 1004 32 10000 1.54 80 15:34 05.04.2022
2193 Clear 21 1004 32 10000 3.09 70 14:35 05.04.2022
2194 Clear 23 1013 25 10000 1.54 120 13:21 05.04.2022
2195 Clear 28 1012 16 10000 2.57 190 11:51 05.04.2022
2196 Clear 30 1012 14 10000 2.06 210 11:32 05.04.2022
2197 Clear 35 1012 10 10000 4.12 190 09:59 05.04.2022
2198 Clear 35 1011 10 10000 3.6 270 08:54 05.04.2022
2199 Clear 35 1013 10 10000 3.6 200 06:58 05.04.2022
2200 Clear 21 1004 32 10000 2.06 320 01:58 05.04.2022
2201 Clear 12 1015 50 10000 0 0 22:44 04.04.2022
2202 Clear 12 1015 50 10000 0 0 22:26 04.04.2022
2203 Clear 13 1015 47 10000 0 0 21:21 04.04.2022
2204 Clear 13 1015 47 10000 0 0 20:49 04.04.2022
2205 Clear 21 1004 32 10000 0 0 19:57 04.04.2022
2206 Clear 21 1004 32 10000 0 0 19:26 04.04.2022
2207 Clear 21 1004 32 10000 0 0 18:33 04.04.2022
2208 Clear 21 1004 32 10000 3.6 80 16:36 04.04.2022
2209 Clear 21 1004 32 10000 2.57 70 15:47 04.04.2022
2210 Clear 21 1004 32 10000 2.57 70 15:29 04.04.2022
2211 Clear 21 1004 32 10000 2.57 90 14:46 04.04.2022
2212 Clear 21 1004 32 10000 3.09 100 13:31 04.04.2022
2213 Clear 26 1013 18 10000 3.6 120 11:56 04.04.2022
2214 Clear 29 1013 14 10000 3.6 130 11:29 04.04.2022
2215 Clear 32 1013 12 10000 2.06 180 09:18 04.04.2022
2216 Clear 29 1016 13 10000 3.6 110 04:45 04.04.2022
2217 Clear 21 1004 32 10000 0 0 01:28 04.04.2022
2218 Clear 11 1016 54 10000 0 0 22:43 03.04.2022
2219 Clear 11 1016 58 10000 0.51 290 21:46 03.04.2022
2220 Clear 11 1016 54 10000 0 0 20:56 03.04.2022
2221 Clear 12 1016 50 10000 0 0 19:50 03.04.2022
2222 Clear 13 1016 47 10000 0 0 18:32 03.04.2022
2223 Clear 13 1016 47 10000 0 0 17:47 03.04.2022
2224 Clear 15 1016 41 10000 0 0 16:57 03.04.2022
2225 Clear 15 1016 41 10000 0 0 16:39 03.04.2022
2226 Clear 21 1004 32 10000 2.57 110 14:52 03.04.2022
2227 Clear 21 1004 32 10000 2.57 120 13:55 03.04.2022
2228 Clear 21 1004 32 10000 3.09 130 12:46 03.04.2022
2229 Clear 26 1014 18 10000 3.6 120 11:29 03.04.2022
2230 Clear 29 1013 15 10000 3.6 150 09:38 03.04.2022
2231 Clear 29 1013 15 10000 3.6 130 08:36 03.04.2022
2232 Clear 27 1015 19 10000 3.09 130 05:38 03.04.2022
2233 Clear 21 1004 32 10000 5.66 100 02:53 03.04.2022
2234 Clouds 12 1016 58 10000 0.51 90 23:21 02.04.2022
2235 Clouds 13 1015 54 10000 2.57 110 22:18 02.04.2022
2236 Clouds 13 1015 54 10000 2.06 80 21:47 02.04.2022
2237 Clouds 15 1015 47 10000 3.09 50 21:18 02.04.2022
2238 Clouds 17 1015 42 10000 2.57 110 19:54 02.04.2022
2239 Clouds 17 1015 48 10000 1.54 140 18:23 02.04.2022
2240 Clouds 18 1015 42 10000 2.57 150 17:53 02.04.2022
2241 Clear 20 1015 34 10000 2.06 120 16:29 02.04.2022
2242 Clear 20 1015 37 10000 0.51 130 15:22 02.04.2022
2243 Clear 19 1015 37 10000 0 0 14:51 02.04.2022
2244 Clouds 21 1004 32 10000 3.09 160 13:51 02.04.2022
2245 Clouds 21 1004 32 10000 3.6 160 13:19 02.04.2022
2246 Clouds 21 1004 32 10000 4.12 140 11:33 02.04.2022
2247 Clouds 28 1013 20 10000 5.66 150 09:30 02.04.2022
2248 Clouds 27 1013 22 10000 5.66 130 06:51 02.04.2022
2249 Clouds 21 1004 32 10000 5.66 140 03:55 02.04.2022
2250 Clouds 12 1017 54 10000 2.57 310 00:19 02.04.2022
2251 Clouds 9 1017 61 10000 3.09 270 23:40 01.04.2022
2252 Clouds 11 1016 50 10000 2.57 310 21:52 01.04.2022
2253 Clouds 11 1016 50 10000 1.03 270 20:52 01.04.2022
2254 Clouds 12 1016 47 10000 0 0 20:30 01.04.2022
2255 Clouds 13 1016 41 10000 3.6 170 19:37 01.04.2022
2256 Clouds 14 1016 38 10000 2.57 190 18:51 01.04.2022
2257 Clouds 14 1017 38 10000 0.51 150 17:54 01.04.2022
2258 Clouds 13 1017 44 10000 2.57 170 17:34 01.04.2022
2259 Clouds 16 1018 31 10000 2.57 170 15:42 01.04.2022
2260 Clouds 17 1017 29 10000 1.03 190 14:26 01.04.2022
2261 Clouds 18 1017 27 10000 3.09 150 13:34 01.04.2022
2262 Clouds 21 1004 32 10000 3.09 140 12:33 01.04.2022
2263 Clouds 21 1004 32 10000 3.6 140 11:44 01.04.2022
2264 Clouds 25 1015 18 10000 5.14 150 10:19 01.04.2022
2265 Clouds 26 1015 15 10000 6.17 140 09:19 01.04.2022
2266 Clear 26 1016 21 10000 5.14 150 06:54 01.04.2022
2267 Clear 23 1018 28 10000 5.66 120 04:51 01.04.2022
2268 Clear 23 1019 28 10000 6.17 120 04:33 01.04.2022
2269 Clouds 21 1004 32 10000 5.14 140 01:57 01.04.2022
2270 Clear 10 1019 71 10000 2.57 190 23:58 31.03.2022
2271 Clear 12 1018 62 10000 2.06 160 21:53 31.03.2022
2272 Clear 12 1018 58 10000 3.09 150 21:32 31.03.2022
2273 Clouds 12 1018 62 10000 3.09 180 20:29 31.03.2022
2274 Clouds 12 1018 62 10000 3.09 180 19:50 31.03.2022
2275 Clouds 13 1018 58 10000 2.57 180 18:46 31.03.2022
2276 Clouds 15 1019 51 10000 2.06 170 17:50 31.03.2022
2277 Clouds 16 1019 48 10000 2.06 170 16:38 31.03.2022
2278 Clouds 16 1019 48 10000 2.57 180 15:45 31.03.2022
2279 Clear 21 1004 32 10000 3.09 170 15:19 31.03.2022
2280 Clear 21 1004 32 10000 3.6 160 14:36 31.03.2022
2281 Clouds 21 1004 32 10000 4.63 140 12:19 31.03.2022
2282 Clouds 25 1016 29 10000 5.14 140 11:22 31.03.2022
2283 Clear 28 1016 28 10000 7.72 150 09:45 31.03.2022
2284 Clear 28 1016 28 10000 7.72 150 09:45 31.03.2022
2285 Clouds 28 1016 30 10000 6.69 150 07:59 31.03.2022
2286 Clouds 27 1018 34 10000 5.66 130 05:42 31.03.2022
2287 Clouds 16 1019 67 10000 3.6 160 23:58 30.03.2022
2288 Clouds 16 1018 63 10000 3.6 180 22:43 30.03.2022
2289 Clear 17 1018 59 10000 2.57 200 21:39 30.03.2022
2290 Clear 17 1018 59 10000 0 0 20:54 30.03.2022
2291 Clear 21 1004 32 10000 0 0 20:20 30.03.2022
2292 Clear 21 1004 32 10000 0 0 20:20 30.03.2022
2293 Clear 21 1004 32 10000 0 0 19:19 30.03.2022
2294 Clear 21 1004 32 10000 2.57 100 18:19 30.03.2022
2295 Clear 21 1004 32 10000 3.09 120 17:45 30.03.2022
2296 Clear 21 1004 32 10000 4.12 120 16:56 30.03.2022
2297 Clear 21 1004 32 10000 6.17 120 16:32 30.03.2022
2298 Clouds 21 1004 32 10000 6.17 130 14:59 30.03.2022
2299 Clouds 21 1004 32 10000 3.09 120 13:35 30.03.2022
2300 Clouds 25 1016 27 10000 3.09 120 12:47 30.03.2022
2301 Clouds 30 1014 19 10000 6.17 130 10:58 30.03.2022
2302 Clouds 32 1014 18 10000 7.2 120 09:59 30.03.2022
2303 Clouds 32 1014 18 10000 7.2 140 09:20 30.03.2022
2304 Clouds 33 1014 16 10000 7.2 140 07:31 30.03.2022
2305 Clouds 32 1016 18 10000 6.17 140 05:40 30.03.2022
2306 Clouds 30 1017 20 10000 4.63 90 03:39 30.03.2022
2307 Clouds 21 1004 32 10000 1.03 300 00:31 30.03.2022
2308 Clouds 21 1004 32 10000 0 0 22:20 29.03.2022
2309 Clouds 21 1004 32 10000 0 0 21:44 29.03.2022
2310 Clouds 21 1004 32 10000 2.06 320 20:49 29.03.2022
2311 Clouds 21 1004 32 10000 2.06 310 19:47 29.03.2022
2312 Clouds 21 1004 32 10000 2.06 340 18:54 29.03.2022
2313 Clouds 21 1004 32 10000 0 0 18:18 29.03.2022
2314 Clouds 21 1004 32 10000 0 0 17:21 29.03.2022
2315 Clouds 21 1004 32 10000 0 0 17:21 29.03.2022
2316 Clouds 21 1004 32 10000 0 0 16:56 29.03.2022
2317 Clouds 21 1004 32 10000 0 0 15:57 29.03.2022
2318 Clouds 21 1004 32 10000 3.09 130 14:48 29.03.2022
2319 Clear 21 1004 32 10000 2.57 120 13:52 29.03.2022
2320 Clear 26 1014 27 10000 3.6 130 12:46 29.03.2022
2321 Clouds 30 1013 21 10000 4.63 150 11:28 29.03.2022
2322 Clouds 31 1013 20 10000 4.63 140 10:23 29.03.2022
2323 Clouds 32 1012 18 10000 5.14 140 09:20 29.03.2022
2324 Clear 32 1013 17 10000 3.09 110 06:54 29.03.2022
2325 Clear 29 1016 20 10000 5.66 120 03:19 29.03.2022
2326 Clear 21 1004 32 10000 0 0 23:46 28.03.2022
2327 Clear 21 1004 32 10000 2.06 300 22:58 28.03.2022
2328 Clear 21 1004 32 10000 2.06 270 22:35 28.03.2022
2329 Clear 21 1004 32 10000 2.57 280 21:48 28.03.2022
2330 Clear 21 1004 32 10000 3.09 290 20:41 28.03.2022
2331 Clear 21 1004 32 10000 0 0 19:59 28.03.2022
2332 Clear 21 1004 32 10000 0 0 19:40 28.03.2022
2333 Clear 21 1004 32 10000 0 0 18:51 28.03.2022
2334 Clear 21 1004 32 10000 0 0 17:41 28.03.2022
2335 Clear 21 1004 32 10000 0 0 16:58 28.03.2022
2336 Clear 21 1004 32 10000 0 0 15:35 28.03.2022
2337 Clear 21 1004 32 10000 0 0 14:24 28.03.2022
2338 Clear 21 1004 32 10000 2.57 110 13:19 28.03.2022
2339 Clear 27 1014 18 10000 3.6 130 11:52 28.03.2022
2340 Clear 32 1013 12 10000 4.63 140 09:58 28.03.2022
2341 Clear 32 1013 12 10000 4.12 140 09:21 28.03.2022
2342 Clear 32 1013 12 10000 5.14 110 08:40 28.03.2022
2343 Clear 32 1013 12 10000 5.14 110 08:20 28.03.2022
2344 Clear 32 1014 12 10000 5.14 140 06:55 28.03.2022
2345 Clear 26 1016 19 10000 0.51 110 02:20 28.03.2022
2346 Clear 12 1014 54 10000 2.57 280 22:36 27.03.2022
2347 Clear 12 1014 54 10000 0 0 21:47 27.03.2022
2348 Clear 21 1004 32 10000 0 0 21:25 27.03.2022
2349 Clear 21 1004 32 10000 0 0 20:24 27.03.2022
2350 Clear 21 1004 32 10000 0 0 19:37 27.03.2022
2351 Clear 21 1004 32 10000 0 0 18:44 27.03.2022
2352 Clear 21 1004 32 10000 0 0 18:23 27.03.2022
2353 Clear 21 1004 32 10000 0 0 17:35 27.03.2022
2354 Clear 21 1004 32 10000 0 0 15:47 27.03.2022
2355 Clear 21 1004 32 10000 1.54 110 13:58 27.03.2022
2356 Clear 21 1004 32 10000 2.57 120 13:20 27.03.2022
2357 Clear 28 1012 13 10000 3.09 130 11:33 27.03.2022
2358 Clear 32 1011 9 10000 3.6 140 09:37 27.03.2022
2359 Clear 31 1012 10 10000 3.6 170 07:31 27.03.2022
2360 Clear 26 1016 17 10000 3.6 120 03:45 27.03.2022
2361 Clear 21 1004 32 10000 0.51 260 00:26 27.03.2022
2362 Clear 21 1004 32 10000 2.57 270 22:49 26.03.2022
2363 Clear 11 1015 62 10000 0 0 21:57 26.03.2022
2364 Clear 12 1014 58 10000 0 0 21:30 26.03.2022
2365 Clear 13 1014 54 10000 0.51 90 19:32 26.03.2022
2366 Clear 13 1014 54 10000 0.51 90 19:32 26.03.2022
2367 Clear 13 1015 54 10000 0 0 18:40 26.03.2022
2368 Clear 15 1015 47 10000 0 0 17:36 26.03.2022
2369 Clear 16 1015 44 10000 0 0 16:34 26.03.2022
2370 Clear 21 1004 32 10000 0 0 15:39 26.03.2022
2371 Clear 21 1004 32 10000 2.57 100 13:56 26.03.2022
2372 Clear 21 1004 32 10000 3.09 110 13:20 26.03.2022
2373 Clear 21 1004 32 10000 4.12 130 11:48 26.03.2022
2374 Clear 21 1004 32 10000 3.6 130 10:48 26.03.2022
2375 Clear 30 1013 19 10000 3.6 150 08:48 26.03.2022
2376 Clear 30 1013 19 10000 4.63 150 06:38 26.03.2022
2377 Clouds 29 1014 21 10000 3.6 90 05:29 26.03.2022
2378 Clouds 23 1018 31 10000 7.72 90 00:54 26.03.2022
2379 Clouds 18 1016 48 10000 3.09 110 22:21 25.03.2022
2380 Clouds 21 1004 32 10000 2.57 100 20:57 25.03.2022
2381 Clouds 21 1004 32 10000 3.09 110 20:26 25.03.2022
2382 Clear 21 1004 32 10000 4.63 110 19:18 25.03.2022
2383 Clouds 21 1004 32 10000 3.6 120 18:22 25.03.2022
2384 Clear 21 1004 32 10000 3.6 120 17:28 25.03.2022
2385 Clear 21 1004 32 10000 3.6 120 16:21 25.03.2022
2386 Clear 21 1004 32 10000 1.54 120 15:26 25.03.2022
2387 Clouds 25 1016 41 10000 4.12 130 13:28 25.03.2022
2388 Clouds 28 1015 34 10000 4.12 130 10:49 25.03.2022
2389 Clouds 29 1013 32 10000 6.69 130 09:28 25.03.2022
2390 Clouds 30 1013 30 10000 6.69 140 08:36 25.03.2022
2391 Clouds 31 1013 30 10000 5.66 110 07:30 25.03.2022
2392 Clouds 30 1014 30 10000 6.17 120 06:29 25.03.2022
2393 Clear 26 1018 44 10000 6.17 100 01:57 25.03.2022
2394 Clouds 21 1004 32 10000 3.09 110 22:56 24.03.2022
2395 Clouds 21 1004 32 10000 4.12 100 21:52 24.03.2022
2396 Clouds 21 1004 32 10000 7.72 90 20:40 24.03.2022
2397 Clouds 21 1004 32 10000 7.2 90 19:48 24.03.2022
2398 Clouds 21 1004 32 10000 6.17 110 17:50 24.03.2022
2399 Clouds 21 1004 32 10000 6.69 110 17:29 24.03.2022
2400 Clouds 21 1004 32 10000 8.23 100 15:52 24.03.2022
2401 Rain 27 1014 39 10000 7.72 110 14:50 24.03.2022
2402 Rain 26 1014 50 10000 4.12 100 14:20 24.03.2022
2403 Rain 27 1014 44 10000 0.51 30 13:24 24.03.2022
2404 Rain 29 1011 37 10000 3.09 10 11:52 24.03.2022
2405 Clouds 33 1010 24 10000 5.14 130 10:18 24.03.2022
2406 Clouds 36 1009 20 10000 6.69 140 08:49 24.03.2022
2407 Clouds 37 1008 18 10000 5.14 170 06:55 24.03.2022
2408 Clear 33 1011 22 10000 3.09 130 03:59 24.03.2022
2409 Clouds 21 1004 32 10000 0 0 23:20 23.03.2022
2410 Clouds 21 1004 32 10000 0.51 310 21:45 23.03.2022
2411 Clouds 21 1004 32 10000 2.57 270 21:20 23.03.2022
2412 Clouds 21 1004 32 10000 2.57 190 19:46 23.03.2022
2413 Clouds 21 1004 32 10000 2.57 260 18:55 23.03.2022
2414 Clear 21 1004 32 10000 1.03 250 17:37 23.03.2022
2415 Clear 21 1004 32 10000 0 0 16:39 23.03.2022
2416 Clear 24 1011 38 10000 0 0 14:51 23.03.2022
2417 Clear 24 1011 35 10000 0.51 50 14:26 23.03.2022
2418 Clouds 27 1010 28 10000 3.09 130 12:55 23.03.2022
2419 Clouds 35 1009 15 10000 3.6 160 09:45 23.03.2022
2420 Clear 36 1009 15 10000 4.12 150 06:48 23.03.2022
2421 Clear 34 1010 17 10000 5.14 100 05:23 23.03.2022
2422 Clouds 25 1013 31 10000 0 0 00:35 23.03.2022
2423 Clouds 20 1012 42 10000 2.57 230 23:39 22.03.2022
2424 Clouds 21 1004 32 10000 2.06 260 21:30 22.03.2022
2425 Clouds 21 1004 32 10000 2.57 310 20:45 22.03.2022
2426 Clouds 21 1004 32 10000 2.57 210 19:43 22.03.2022
2427 Clouds 21 1004 32 10000 2.57 210 19:19 22.03.2022
2428 Clouds 21 1004 32 10000 2.06 360 18:38 22.03.2022
2429 Clouds 21 1004 32 10000 2.57 340 17:37 22.03.2022
2430 Clouds 20 1011 42 10000 2.06 350 16:27 22.03.2022
2431 Clouds 22 1011 30 10000 2.06 300 15:23 22.03.2022
2432 Clouds 23 1011 31 10000 2.06 310 14:47 22.03.2022
2433 Clouds 23 1011 31 10000 2.06 310 14:27 22.03.2022
2434 Clouds 24 1011 29 10000 0 0 13:35 22.03.2022
2435 Clouds 27 1010 22 10000 3.6 170 11:52 22.03.2022
2436 Clouds 33 1009 14 10000 3.09 160 10:40 22.03.2022
2437 Clouds 36 1009 11 10000 4.12 180 08:29 22.03.2022
2438 Clear 36 1010 14 10000 4.63 260 05:25 22.03.2022
2439 Clear 35 1012 14 10000 1.54 260 03:47 22.03.2022
2440 Clear 26 1014 29 10000 1.03 350 00:22 22.03.2022
2441 Clear 21 1004 32 10000 2.57 250 22:29 21.03.2022
2442 Clear 21 1004 32 10000 2.57 270 20:57 21.03.2022
2443 Clear 21 1004 32 10000 0.51 350 20:38 21.03.2022
2444 Clear 21 1004 32 10000 2.57 300 19:58 21.03.2022
2445 Clear 21 1004 32 10000 2.06 290 19:27 21.03.2022
2446 Clear 21 1004 32 10000 2.57 290 18:18 21.03.2022
2447 Clear 21 1004 32 10000 0 0 17:19 21.03.2022
2448 Clear 21 1004 32 10000 2.06 30 16:44 21.03.2022
2449 Clear 21 1004 32 10000 0.51 20 15:52 21.03.2022
2450 Clear 21 1004 32 10000 0 0 15:19 21.03.2022
2451 Clear 23 1014 35 10000 2.57 130 13:58 21.03.2022
2452 Clear 26 1013 27 10000 2.57 120 12:35 21.03.2022
2453 Clear 27 1013 26 10000 3.09 140 11:45 21.03.2022
2454 Clear 32 1012 17 10000 5.14 120 10:40 21.03.2022
2455 Clear 35 1011 16 10000 6.17 150 08:30 21.03.2022
2456 Clear 34 1012 16 10000 4.12 140 06:48 21.03.2022
2457 Clear 33 1016 21 10000 5.66 80 02:51 21.03.2022
2458 Clear 20 1016 52 10000 2.06 280 23:43 20.03.2022
2459 Clear 21 1004 32 10000 2.57 300 22:44 20.03.2022
2460 Clear 21 1004 32 10000 1.54 280 21:52 20.03.2022
2461 Clear 21 1004 32 10000 2.57 330 21:23 20.03.2022
2462 Clear 21 1004 32 10000 2.06 290 20:43 20.03.2022
2463 Clear 21 1004 32 10000 0 0 19:59 20.03.2022
2464 Clear 21 1004 32 10000 0 0 19:28 20.03.2022
2465 Clear 21 1004 32 10000 1.03 360 18:19 20.03.2022
2466 Clear 21 1004 32 10000 0 0 17:33 20.03.2022
2467 Clear 21 1004 32 10000 0 0 17:33 20.03.2022
2468 Clear 21 1004 32 10000 3.09 340 16:57 20.03.2022
2469 Clear 21 1004 32 10000 0 0 15:28 20.03.2022
2470 Clear 21 1004 32 10000 0 0 14:34 20.03.2022
2471 Clear 26 1015 25 10000 3.09 130 12:30 20.03.2022
2472 Clear 28 1014 23 10000 3.09 120 11:22 20.03.2022
2473 Clear 34 1013 15 10000 7.2 130 08:59 20.03.2022
2474 Clear 35 1013 15 10000 7.72 130 07:26 20.03.2022
2475 Clear 34 1015 17 10000 8.75 110 04:23 20.03.2022
2476 Clouds 30 1017 26 10000 3.6 100 01:29 20.03.2022
2477 Clouds 26 1016 38 10000 2.57 220 00:39 20.03.2022
2478 Clouds 20 1015 56 10000 2.57 290 23:19 19.03.2022
2479 Clouds 21 1004 32 10000 0 0 21:27 19.03.2022
2480 Clouds 21 1004 32 10000 0 0 20:39 19.03.2022
2481 Clear 20 1014 60 10000 0 0 18:58 19.03.2022
2482 Clear 20 1014 56 10000 1.54 70 18:23 19.03.2022
2483 Clear 21 1014 52 10000 2.57 80 17:35 19.03.2022
2484 Clear 25 1014 33 10000 2.06 100 15:43 19.03.2022
2485 Clear 25 1014 36 10000 0 0 14:34 19.03.2022
2486 Clouds 28 1014 28 10000 3.6 110 12:59 19.03.2022
2487 Clouds 28 1013 28 10000 3.09 120 12:39 19.03.2022
2488 Clouds 30 1013 23 10000 3.6 120 11:51 19.03.2022
2489 Clouds 32 1012 20 10000 4.12 120 10:45 19.03.2022
2490 Clouds 36 1011 14 10000 2.57 130 06:51 19.03.2022
2491 Clouds 35 1014 20 10000 4.63 80 03:24 19.03.2022
2492 Clouds 34 1014 21 10000 4.12 50 02:29 19.03.2022
2493 Clear 23 1014 56 10000 0 0 23:43 18.03.2022
2494 Clouds 21 1013 68 10000 2.57 220 22:27 18.03.2022
2495 Clear 23 1012 53 10000 2.57 50 21:37 18.03.2022
2496 Clouds 25 1012 50 10000 4.63 140 19:51 18.03.2022
2497 Clouds 29 1011 30 10000 5.14 40 19:21 18.03.2022
2498 Clouds 29 1012 32 10000 1.03 320 17:43 18.03.2022
2499 Clouds 29 1013 30 10000 2.57 40 16:47 18.03.2022
2500 Clouds 25 1013 41 10000 0 0 14:51 18.03.2022
2501 Clouds 26 1012 41 10000 2.06 170 14:21 18.03.2022
2502 Clouds 28 1012 32 10000 2.57 130 12:26 18.03.2022
2503 Clouds 32 1011 22 10000 3.6 140 10:47 18.03.2022
2504 Clouds 36 1010 14 10000 6.69 150 09:28 18.03.2022
2505 Clouds 38 1010 15 10000 5.14 130 07:59 18.03.2022
2506 Clouds 38 1011 16 10000 3.09 60 06:34 18.03.2022
2507 Clouds 33 1014 24 10000 1.54 110 02:51 18.03.2022
2508 Clouds 28 1015 32 10000 2.57 220 00:22 18.03.2022
2509 Clouds 24 1015 43 10000 3.09 240 23:20 17.03.2022
2510 Clouds 21 1004 32 10000 3.09 280 22:23 17.03.2022
2511 Clouds 21 1004 32 10000 1.03 290 21:48 17.03.2022
2512 Clouds 22 1014 46 10000 3.09 240 21:20 17.03.2022
2513 Clouds 23 1013 43 10000 0 0 20:41 17.03.2022
2514 Clear 24 1013 41 10000 2.57 280 19:45 17.03.2022
2515 Clouds 24 1013 41 10000 0 0 18:57 17.03.2022
2516 Clouds 27 1013 29 10000 3.6 140 17:56 17.03.2022
2517 Clouds 24 1013 38 10000 0.51 350 16:43 17.03.2022
2518 Clouds 26 1012 36 10000 2.57 140 15:44 17.03.2022
2519 Clouds 26 1012 36 10000 2.57 140 15:22 17.03.2022
2520 Clouds 27 1012 29 10000 0.51 350 13:50 17.03.2022
2521 Clouds 29 1012 24 10000 2.57 110 12:49 17.03.2022
2522 Clouds 30 1011 21 10000 3.09 110 12:21 17.03.2022
2523 Clouds 32 1011 18 10000 3.6 130 11:25 17.03.2022
2524 Clouds 37 1010 12 10000 5.14 140 09:48 17.03.2022
2525 Clouds 39 1009 13 10000 6.17 120 08:31 17.03.2022
2526 Clouds 39 1009 12 10000 3.6 140 07:32 17.03.2022
2527 Clear 38 1011 13 10000 3.6 100 05:39 17.03.2022
2528 Clear 33 1013 19 10000 4.12 60 00:45 17.03.2022
2529 Clouds 27 1012 32 10000 3.6 70 22:59 16.03.2022
2530 Clouds 27 1012 32 10000 3.6 70 22:40 16.03.2022
2531 Clouds 27 1012 32 10000 3.6 70 22:19 16.03.2022
2532 Clouds 28 1012 30 10000 2.57 330 21:29 16.03.2022
2533 Clouds 27 1011 34 10000 0.51 340 19:26 16.03.2022
2534 Clouds 28 1011 32 10000 1.54 200 18:55 16.03.2022
2535 Clouds 28 1010 30 10000 1.54 360 18:20 16.03.2022
2536 Clouds 29 1011 28 10000 0 0 17:37 16.03.2022
2537 Clouds 29 1011 26 10000 1.03 310 16:50 16.03.2022
2538 Clouds 28 1011 32 10000 3.6 270 15:41 16.03.2022
2539 Clouds 29 1010 26 10000 1.54 60 13:44 16.03.2022
2540 Clouds 28 1010 30 10000 0 0 12:59 16.03.2022
2541 Clouds 33 1009 18 10000 2.57 70 11:44 16.03.2022
2542 Clouds 33 1009 18 10000 2.57 70 11:18 16.03.2022
2543 Clouds 38 1008 13 10000 2.06 170 09:58 16.03.2022
2544 Clouds 39 1008 12 10000 4.63 230 08:37 16.03.2022
2545 Clouds 38 1011 14 10000 4.12 360 03:33 16.03.2022
2546 Clear 23 1011 49 10000 0 0 23:39 15.03.2022
2547 Clear 21 1011 43 10000 2.57 80 22:37 15.03.2022
2548 Clear 19 1010 59 10000 0 0 21:33 15.03.2022
2549 Clear 20 1010 56 10000 0 0 19:47 15.03.2022
2550 Clear 22 1010 46 10000 0 0 18:38 15.03.2022
2551 Clear 22 1010 46 10000 0 0 16:45 15.03.2022
2552 Clear 24 1011 38 10000 0 0 15:44 15.03.2022
2553 Clear 25 1011 36 10000 2.06 100 14:55 15.03.2022
2554 Clear 27 1011 28 10000 2.57 70 14:30 15.03.2022
2555 Clouds 28 1010 28 10000 3.09 80 13:24 15.03.2022
2556 Clouds 31 1009 22 10000 4.12 130 11:34 15.03.2022
2557 Clouds 32 1009 20 10000 3.6 130 10:56 15.03.2022
2558 Clouds 37 1008 13 10000 3.09 100 09:29 15.03.2022
2559 Clouds 38 1008 14 10000 5.14 190 08:32 15.03.2022
2560 Clouds 38 1009 13 10000 3.6 200 07:39 15.03.2022
2561 Clouds 37 1009 12 10000 5.66 280 06:32 15.03.2022
2562 Clear 33 1013 17 10000 3.6 60 01:57 15.03.2022
2563 Clouds 23 1012 38 10000 0 0 23:31 14.03.2022
2564 Clouds 22 1012 40 10000 2.06 360 22:52 14.03.2022
2565 Clouds 23 1012 35 10000 0 0 21:55 14.03.2022
2566 Clouds 22 1011 40 10000 2.57 290 20:59 14.03.2022
2567 Clouds 23 1011 33 10000 3.09 330 20:28 14.03.2022
2568 Clouds 23 1011 33 10000 2.06 340 19:32 14.03.2022
2569 Clouds 22 1012 35 10000 3.09 280 17:58 14.03.2022
2570 Clouds 21 1012 40 10000 2.57 290 17:40 14.03.2022
2571 Clouds 22 1012 37 10000 2.06 240 16:33 14.03.2022
2572 Clouds 24 1013 33 10000 0 0 14:48 14.03.2022
2573 Clouds 28 1012 21 10000 2.06 130 13:29 14.03.2022
2574 Clouds 30 1010 17 10000 3.6 130 11:26 14.03.2022
2575 Clouds 36 1009 12 10000 4.63 120 09:57 14.03.2022
2576 Clouds 37 1009 12 10000 4.63 130 09:34 14.03.2022
2577 Clouds 37 1009 12 10000 4.63 140 08:57 14.03.2022
2578 Clouds 37 1009 12 10000 3.09 150 08:26 14.03.2022
2579 Clear 37 1010 12 10000 5.14 180 06:47 14.03.2022
2580 Clear 34 1014 14 10000 3.09 90 02:59 14.03.2022
2581 Clear 30 1014 19 10000 2.57 100 01:39 14.03.2022
2582 Clear 20 1014 45 10000 0 0 23:41 13.03.2022
2583 Clear 16 1014 63 10000 0 0 21:46 13.03.2022
2584 Clear 17 1014 55 10000 0 0 21:21 13.03.2022
2585 Clear 17 1013 55 10000 0 0 20:46 13.03.2022
2586 Clear 18 1013 52 10000 0 0 20:21 13.03.2022
2587 Clear 18 1013 48 10000 0 0 19:41 13.03.2022
2588 Clear 18 1013 48 10000 0 0 19:22 13.03.2022
2589 Clear 22 1013 28 10000 3.09 40 18:41 13.03.2022
2590 Clear 22 1013 28 10000 3.09 40 18:22 13.03.2022
2591 Clear 20 1014 42 10000 0 0 17:36 13.03.2022
2592 Clear 21 1014 40 10000 0 0 16:44 13.03.2022
2593 Clear 22 1014 33 10000 1.54 80 16:21 13.03.2022
2594 Clear 25 1014 23 10000 3.6 70 15:36 13.03.2022
2595 Clear 25 1014 25 10000 2.57 80 14:36 13.03.2022
2596 Clouds 26 1014 25 10000 3.09 90 13:27 13.03.2022
2597 Clouds 28 1013 23 10000 3.09 90 12:21 13.03.2022
2598 Clouds 31 1013 16 10000 4.63 90 11:36 13.03.2022
2599 Clouds 32 1012 17 10000 4.12 110 10:49 13.03.2022
2600 Clouds 34 1012 15 10000 4.63 140 10:25 13.03.2022
2601 Clouds 36 1011 13 10000 5.14 150 09:41 13.03.2022
2602 Clouds 36 1011 13 10000 4.63 150 08:49 13.03.2022
2603 Clouds 37 1011 13 10000 4.12 130 08:21 13.03.2022
2604 Clear 36 1012 12 10000 2.06 80 06:40 13.03.2022
2605 Clear 34 1015 14 10000 4.63 90 03:56 13.03.2022
2606 Clear 26 1017 22 10000 3.6 100 00:48 13.03.2022
2607 Clear 15 1016 58 10000 0 0 22:48 12.03.2022
2608 Clear 15 1015 55 10000 0 0 20:59 12.03.2022
2609 Clear 16 1014 51 10000 2.06 270 20:18 12.03.2022
2610 Clear 16 1014 55 10000 2.06 280 19:43 12.03.2022
2611 Clear 17 1014 51 10000 0 0 18:34 12.03.2022
2612 Clear 17 1014 48 10000 1.03 100 17:46 12.03.2022
2613 Clear 19 1015 45 10000 0 0 16:25 12.03.2022
2614 Clear 21 1015 32 10000 3.09 80 15:24 12.03.2022
2615 Clear 21 1015 30 10000 2.06 70 14:52 12.03.2022
2616 Clear 21 1015 32 10000 2.57 110 13:53 12.03.2022
2617 Clear 21 1015 32 10000 2.57 110 13:53 12.03.2022
2618 Clear 26 1014 24 10000 3.6 110 12:25 12.03.2022
2619 Clear 26 1013 24 10000 3.6 130 11:51 12.03.2022
2620 Clear 28 1013 20 10000 3.6 130 11:19 12.03.2022
2621 Clear 33 1012 14 10000 3.6 140 09:58 12.03.2022
2622 Clear 33 1012 14 10000 3.6 140 09:58 12.03.2022
2623 Clear 33 1012 14 10000 4.12 170 09:38 12.03.2022
2624 Clear 34 1012 13 10000 3.09 160 07:50 12.03.2022
2625 Clear 33 1014 14 10000 4.63 120 05:20 12.03.2022
2626 Clear 23 1017 28 10000 0 0 00:24 12.03.2022
2627 Clear 16 1016 59 10000 2.57 300 23:28 11.03.2022
2628 Clear 13 1015 67 10000 1.03 290 21:47 11.03.2022
2629 Clear 14 1015 62 10000 0 0 20:57 11.03.2022
2630 Clear 15 1015 58 10000 0 0 20:37 11.03.2022
2631 Clear 15 1014 58 10000 0 0 19:53 11.03.2022
2632 Clear 16 1014 55 10000 0 0 19:26 11.03.2022
2633 Clear 17 1015 51 10000 0 0 17:34 11.03.2022
2634 Clear 18 1015 45 10000 0 0 16:42 11.03.2022
2635 Clear 17 1015 51 10000 0 0 15:57 11.03.2022
2636 Clear 21 1015 32 10000 0 0 14:21 11.03.2022
2637 Clear 23 1014 28 10000 3.6 140 12:52 11.03.2022
2638 Clear 23 1014 31 10000 3.6 140 12:21 11.03.2022
2639 Clear 24 1014 27 10000 4.12 140 11:55 11.03.2022
2640 Clear 30 1013 16 10000 3.6 130 10:18 11.03.2022
2641 Clear 33 1002 13 10000 3.6 120 08:57 11.03.2022
2642 Clear 35 1002 14 10000 4.12 130 08:24 11.03.2022
2643 Clear 34 1002 14 10000 4.12 150 07:45 11.03.2022
2644 Clouds 31 1014 14 10000 5.14 130 05:44 11.03.2022
2645 Clear 30 1015 19 10000 3.6 130 03:48 11.03.2022
2646 Clouds 16 1017 55 10000 0 0 23:38 10.03.2022
2647 Clouds 12 1016 62 10000 0 0 22:30 10.03.2022
2648 Clouds 13 1016 58 10000 0 0 21:40 10.03.2022
2649 Clouds 13 1016 58 10000 0 0 21:18 10.03.2022
2650 Clouds 14 1015 54 10000 0 0 19:43 10.03.2022
2651 Clear 16 1004 41 10000 0 0 18:53 10.03.2022
2652 Clear 19 1005 31 10000 1.03 60 17:28 10.03.2022
2653 Clear 22 1005 30 10000 0.89 150 15:55 10.03.2022
2654 Clouds 23 1005 23 10000 0.89 232 14:44 10.03.2022
2655 Clear 25 1005 21 10000 3.09 130 13:19 10.03.2022
2656 Clear 26 1004 21 10000 3.09 120 11:57 10.03.2022
2657 Clear 27 1004 20 10000 3.6 130 10:53 10.03.2022
2658 Clear 30 1003 13 10000 5.14 110 09:18 10.03.2022
2659 Clear 31 1013 13 10000 4.63 150 07:33 10.03.2022
2660 Clear 29 1016 21 10000 5.14 150 04:19 10.03.2022
2661 Clear 24 1018 33 10000 5.14 120 01:40 10.03.2022
2662 Clear 13 1017 71 10000 0 0 22:46 09.03.2022
2663 Clouds 13 1017 71 10000 0 0 21:49 09.03.2022
2664 Clouds 14 1016 67 10000 0 0 21:27 09.03.2022
2665 Clouds 14 1016 67 10000 2.57 150 19:43 09.03.2022
2666 Clear 16 1016 63 10000 0 0 18:29 09.03.2022
2667 Clear 17 1017 55 10000 0 0 17:26 09.03.2022
2668 Clear 17 1017 55 10000 0 0 17:26 09.03.2022
2669 Clear 17 1017 55 10000 0 0 16:30 09.03.2022
2670 Clear 18 1017 52 10000 0 0 14:56 09.03.2022
2671 Clear 20 1016 42 10000 0 0 13:52 09.03.2022
2672 Clouds 23 1016 33 10000 3.09 130 12:39 09.03.2022
2673 Clouds 24 1015 31 10000 3.09 130 11:52 09.03.2022
2674 Clouds 25 1015 29 10000 3.09 130 11:32 09.03.2022
2675 Clear 29 1014 20 10000 6.17 130 09:45 09.03.2022
2676 Clear 30 1013 17 10000 5.14 140 08:47 09.03.2022
2677 Clear 30 1014 16 10000 6.17 140 06:51 09.03.2022
2678 Clear 24 1018 29 10000 6.17 100 01:54 09.03.2022
2679 Clear 21 1018 43 10000 1.03 110 00:26 09.03.2022
2680 Clear 14 1017 72 10000 0.51 270 22:46 08.03.2022
2681 Clear 14 1016 72 10000 2.57 290 21:52 08.03.2022
2682 Clear 15 1016 67 10000 2.57 280 21:22 08.03.2022
2683 Clear 15 1015 67 10000 3.6 160 20:24 08.03.2022
2684 Clear 16 1015 63 10000 2.57 180 19:24 08.03.2022
2685 Clear 16 1015 63 10000 3.6 160 18:23 08.03.2022
2686 Clear 17 1015 55 10000 3.09 180 16:56 08.03.2022
2687 Clear 18 1016 48 10000 3.6 180 14:58 08.03.2022
2688 Clear 20 1016 40 10000 3.09 170 13:48 08.03.2022
2689 Clear 22 1015 30 10000 3.6 150 12:23 08.03.2022
2690 Clear 25 1014 23 10000 4.12 160 11:42 08.03.2022
2691 Clear 28 1014 20 10000 5.66 160 10:28 08.03.2022
2692 Clear 30 1013 17 10000 6.17 150 08:57 08.03.2022
2693 Clear 30 1013 21 10000 6.17 160 06:30 08.03.2022
2694 Clear 27 1016 1 10000 5.14 120 02:50 08.03.2022
2695 Clear 17 1015 59 10000 2.06 250 22:48 07.03.2022
2696 Clear 17 1014 59 10000 2.57 190 21:45 07.03.2022
2697 Clear 18 1014 55 10000 2.57 150 21:22 07.03.2022
2698 Clear 17 1013 63 10000 2.06 170 20:34 07.03.2022
2699 Clear 18 1013 59 10000 1.54 170 19:50 07.03.2022
2700 Clear 19 1013 55 10000 0.51 170 19:20 07.03.2022
2701 Clear 20 1013 52 10000 0.51 180 18:29 07.03.2022
2702 Clear 21 1013 52 10000 2.57 170 17:31 07.03.2022
2703 Clear 20 1014 64 10000 3.09 160 16:43 07.03.2022
2704 Clear 23 1014 49 10000 2.57 140 14:51 07.03.2022
2705 Clear 26 1013 41 10000 3.09 150 12:34 07.03.2022
2706 Clear 28 1012 34 10000 4.63 160 11:26 07.03.2022
2707 Clouds 31 1012 27 10000 5.66 160 10:30 07.03.2022
2708 Clear 32 1011 27 10000 6.69 150 08:34 07.03.2022
2709 Clear 32 1011 27 10000 6.69 150 08:34 07.03.2022
2710 Clear 28 1015 32 10000 4.12 130 02:25 07.03.2022
2711 Clouds 26 1015 38 10000 4.12 110 00:20 07.03.2022
2712 Clouds 23 1015 46 10000 1.03 130 23:23 06.03.2022
2713 Clouds 19 1014 63 10000 2.57 140 22:27 06.03.2022
2714 Clouds 21 1014 52 10000 3.09 140 21:24 06.03.2022
2715 Clouds 23 1014 43 10000 3.6 140 20:29 06.03.2022
2716 Clouds 25 1014 38 10000 3.6 140 19:39 06.03.2022
2717 Clear 25 1014 41 10000 3.09 150 18:49 06.03.2022
2718 Clear 26 1014 38 10000 3.09 140 17:46 06.03.2022
2719 Clouds 26 1014 38 10000 2.57 130 17:19 06.03.2022
2720 Clouds 26 1014 38 10000 2.57 140 16:28 06.03.2022
2721 Clouds 27 1015 36 10000 3.09 140 15:25 06.03.2022
2722 Clouds 27 1014 36 10000 3.09 140 14:42 06.03.2022
2723 Clouds 27 1015 36 10000 3.09 140 13:48 06.03.2022
2724 Clouds 28 1014 34 10000 3.6 160 12:39 06.03.2022
2725 Clouds 29 1014 30 10000 3.6 150 11:39 06.03.2022
2726 Clear 30 1013 30 10000 4.63 140 10:33 06.03.2022
2727 Clear 32 1013 27 10000 6.69 140 08:51 06.03.2022
2728 Clear 36 1000 43 10000 5.66 160 08:27 06.03.2022
2729 Clouds 36 1000 43 10000 5.66 140 07:23 06.03.2022
2730 Clouds 26 1016 38 10000 6.69 100 01:54 06.03.2022
2731 Clouds 25 1016 41 10000 6.69 110 00:34 06.03.2022
2732 Clouds 25 1016 38 10000 5.66 110 23:57 05.03.2022
2733 Clouds 23 1016 46 10000 4.12 120 23:18 05.03.2022
2734 Clouds 22 1015 53 10000 3.09 120 22:31 05.03.2022
2735 Clouds 22 1015 53 10000 3.09 120 22:31 05.03.2022
2736 Clouds 23 1015 46 10000 3.6 130 21:25 05.03.2022
2737 Clouds 23 1014 46 10000 4.12 130 19:59 05.03.2022
2738 Clouds 24 1014 46 10000 3.6 130 19:18 05.03.2022
2739 Clouds 24 1014 46 10000 3.6 140 18:37 05.03.2022
2740 Clouds 23 1014 49 10000 3.09 140 17:31 05.03.2022
2741 Clear 23 1014 53 10000 3.6 140 16:18 05.03.2022
2742 Clear 25 1014 47 10000 3.6 150 14:53 05.03.2022
2743 Clear 25 1014 47 10000 3.09 140 14:35 05.03.2022
2744 Clear 25 1014 47 10000 3.09 140 14:35 05.03.2022
2745 Clear 26 1014 47 10000 3.09 140 13:37 05.03.2022
2746 Clear 27 1014 41 10000 3.6 140 12:33 05.03.2022
2747 Clear 29 1013 32 10000 4.63 140 11:20 05.03.2022
2748 Clear 30 1012 30 10000 4.63 140 10:48 05.03.2022
2749 Clear 32 1011 27 10000 6.17 130 09:28 05.03.2022
2750 Clear 33 1011 25 10000 7.2 110 07:59 05.03.2022
2751 Clouds 36 1000 43 10000 6.17 130 06:29 05.03.2022
2752 Clouds 36 1000 43 10000 6.17 140 04:54 05.03.2022
2753 Clear 25 1014 50 10000 4.12 130 23:59 04.03.2022
2754 Clear 22 1013 60 10000 3.09 110 22:45 04.03.2022
2755 Clear 22 1013 60 10000 3.09 110 22:23 04.03.2022
2756 Clear 21 1012 64 10000 2.06 200 21:39 04.03.2022
2757 Clear 20 1011 68 10000 0 0 20:32 04.03.2022
2758 Clear 22 1011 56 10000 0 0 19:36 04.03.2022
2759 Clear 23 1011 53 10000 0 0 18:47 04.03.2022
2760 Clear 23 1011 53 10000 0 0 18:22 04.03.2022
2761 Clear 23 1011 53 10000 0 0 17:28 04.03.2022
2762 Clear 25 1011 44 10000 1.03 140 15:48 04.03.2022
2763 Clear 27 1011 34 10000 3.09 70 14:40 04.03.2022
2764 Clear 28 1011 32 10000 3.6 90 13:27 04.03.2022
2765 Clear 36 1000 43 10000 4.12 120 11:57 04.03.2022
2766 Clear 36 1000 43 10000 5.66 120 10:58 04.03.2022
2767 Clear 36 1000 43 10000 5.66 130 10:21 04.03.2022
2768 Clear 36 1000 43 10000 4.63 130 08:48 04.03.2022
2769 Clear 36 1000 43 10000 3.6 150 07:47 04.03.2022
2770 Clear 36 1000 43 10000 4.12 120 05:26 04.03.2022
2771 Clear 29 1012 26 10000 1.03 80 00:41 04.03.2022
2772 Clouds 22 1011 49 10000 2.06 120 22:54 03.03.2022
2773 Clouds 24 1010 41 10000 2.57 80 21:58 03.03.2022
2774 Clouds 24 1010 38 10000 0 0 21:34 03.03.2022
2775 Clouds 25 1009 36 10000 3.6 90 20:21 03.03.2022
2776 Clouds 26 1009 31 10000 3.09 120 18:58 03.03.2022
2777 Clouds 28 1009 28 10000 1.54 80 18:25 03.03.2022
2778 Clouds 31 1009 22 10000 3.6 60 17:31 03.03.2022
2779 Clouds 29 1009 28 10000 4.63 60 16:28 03.03.2022
2780 Clouds 29 1010 30 10000 4.12 60 15:41 03.03.2022
2781 Clouds 36 1000 43 10000 3.09 80 14:44 03.03.2022
2782 Clouds 36 1000 43 10000 3.09 80 14:25 03.03.2022
2783 Clouds 36 1000 43 10000 3.6 90 12:28 03.03.2022
2784 Clouds 36 1000 43 10000 3.09 120 10:56 03.03.2022
2785 Clouds 36 1000 43 10000 3.6 110 09:56 03.03.2022
2786 Clouds 39 1006 14 10000 2.06 170 08:42 03.03.2022
2787 Clear 40 1007 12 10000 2.57 210 06:54 03.03.2022
2788 Clear 36 1000 43 10000 3.09 310 05:20 03.03.2022
2789 Clear 28 1010 30 10000 2.06 40 23:45 02.03.2022
2790 Clear 25 1009 38 10000 2.57 60 22:53 02.03.2022
2791 Clear 22 1009 56 10000 2.06 110 22:31 02.03.2022
2792 Clear 23 1008 49 10000 2.06 80 20:59 02.03.2022
2793 Clear 23 1008 49 10000 3.09 110 20:25 02.03.2022
2794 Clear 25 1008 41 10000 3.09 50 19:37 02.03.2022
2795 Clouds 25 1008 41 10000 2.57 60 18:58 02.03.2022
2796 Clouds 26 1008 38 10000 3.6 40 18:31 02.03.2022
2797 Clouds 27 1009 36 10000 2.57 10 17:41 02.03.2022
2798 Clouds 26 1009 41 10000 2.57 30 16:52 02.03.2022
2799 Clouds 28 1009 36 10000 3.6 60 15:46 02.03.2022
2800 Clouds 29 1009 37 10000 3.09 70 13:52 02.03.2022
2801 Clouds 36 1000 43 10000 3.6 100 12:46 02.03.2022
2802 Clouds 36 1000 43 10000 4.12 110 12:24 02.03.2022
2803 Clouds 36 1000 43 10000 3.6 120 11:26 02.03.2022
2804 Clouds 36 1000 43 10000 4.12 130 10:31 02.03.2022
2805 Clouds 36 1000 43 10000 4.12 130 09:35 02.03.2022
2806 Clouds 38 1006 17 10000 2.57 160 08:28 02.03.2022
2807 Clouds 38 1007 19 10000 5.66 230 07:23 02.03.2022
2808 Clear 36 1000 43 10000 3.6 100 04:46 02.03.2022
2809 Clear 29 1010 37 10000 0 0 00:40 02.03.2022
2810 Clear 29 1010 37 10000 0 0 00:40 02.03.2022
2811 Clear 23 1010 60 10000 1.03 300 23:24 01.03.2022
2812 Clear 20 1010 68 10000 3.09 290 22:37 01.03.2022
2813 Clear 20 1009 68 10000 0 0 21:37 01.03.2022
2814 Clear 22 1009 56 10000 2.57 120 20:38 01.03.2022
2815 Clear 22 1009 56 10000 2.57 120 20:19 01.03.2022
2816 Clouds 23 1009 56 10000 1.54 110 18:52 01.03.2022
2817 Clear 24 1009 50 10000 3.09 110 18:22 01.03.2022
2818 Clear 22 1009 64 10000 0 0 17:39 01.03.2022
2819 Clear 24 1010 57 10000 0 0 16:36 01.03.2022
2820 Clear 24 1010 57 10000 1.03 100 15:47 01.03.2022
2821 Clear 26 1010 44 10000 2.57 60 14:53 01.03.2022
2822 Clear 27 1010 39 10000 2.57 70 14:31 01.03.2022
2823 Clouds 28 1010 39 10000 2.57 70 13:26 01.03.2022
2824 Clouds 31 1009 30 10000 3.09 100 12:36 01.03.2022
2825 Clouds 36 1000 43 10000 3.09 150 10:57 01.03.2022
2826 Clouds 36 1000 43 10000 2.06 160 09:43 01.03.2022
2827 Clouds 36 1000 43 10000 3.09 140 08:20 01.03.2022
2828 Clouds 36 1000 43 10000 2.57 180 06:47 01.03.2022
2829 Clouds 36 1000 43 10000 3.6 80 03:26 01.03.2022
2830 Clouds 30 1011 35 10000 3.6 90 00:48 01.03.2022
2831 Clouds 23 1011 60 10000 0 0 23:39 28.02.2022
2832 Clouds 21 1010 68 10000 0 0 22:38 28.02.2022
2833 Clouds 21 1010 64 10000 2.57 320 21:47 28.02.2022
2834 Clouds 22 1010 64 10000 2.06 290 20:46 28.02.2022
2835 Clouds 21 1010 68 10000 2.06 290 19:51 28.02.2022
2836 Clouds 22 1010 64 10000 0 0 18:50 28.02.2022
2837 Clouds 22 1010 68 10000 0 0 17:43 28.02.2022
2838 Clouds 22 1010 68 10000 0 0 17:21 28.02.2022
2839 Clouds 23 1010 64 10000 0 0 16:21 28.02.2022
2840 Clouds 25 1010 57 10000 0 0 14:32 28.02.2022
2841 Clouds 26 1010 50 10000 0 0 13:53 28.02.2022
2842 Clouds 27 1010 44 10000 0 0 13:24 28.02.2022
2843 Clouds 30 1009 32 10000 3.09 110 12:25 28.02.2022
2844 Clouds 36 1000 43 10000 2.57 110 11:19 28.02.2022
2845 Clouds 36 1000 43 10000 4.12 110 10:23 28.02.2022
2846 Clouds 36 1000 43 10000 3.6 110 09:44 28.02.2022
2847 Clouds 36 1000 43 10000 3.6 90 08:54 28.02.2022
2848 Clouds 36 1000 43 10000 3.6 140 07:59 28.02.2022
2849 Clouds 36 1000 43 10000 3.6 110 06:31 28.02.2022
2850 Clouds 36 1000 43 10000 3.09 150 04:31 28.02.2022
2851 Clouds 31 1012 30 10000 3.09 50 00:53 28.02.2022
2852 Clear 20 1011 73 10000 2.06 290 22:53 27.02.2022
2853 Clear 20 1011 73 10000 2.57 310 22:32 27.02.2022
2854 Clear 20 1010 68 10000 0.51 270 21:42 27.02.2022
2855 Clear 20 1010 73 10000 0.51 280 20:44 27.02.2022
2856 Clear 20 1010 73 10000 0.51 280 20:18 27.02.2022
2857 Clear 20 1010 73 10000 2.06 320 19:49 27.02.2022
2858 Clear 21 1010 68 10000 0 0 19:21 27.02.2022
2859 Clear 23 1010 60 10000 2.06 350 18:33 27.02.2022
2860 Clear 22 1010 64 10000 0 0 17:49 27.02.2022
2861 Clear 23 1011 60 10000 0 0 16:25 27.02.2022
2862 Clear 23 1011 60 10000 0 0 15:24 27.02.2022
2863 Clear 29 1010 34 10000 3.09 120 12:37 27.02.2022
2864 Clear 29 1009 34 10000 3.09 140 11:54 27.02.2022
2865 Clear 36 1000 43 10000 4.12 140 10:37 27.02.2022
2866 Clear 36 1000 43 10000 5.66 120 09:58 27.02.2022
2867 Clear 36 1000 43 10000 5.14 150 09:24 27.02.2022
2868 Clear 36 1000 43 10000 4.63 130 08:48 27.02.2022
2869 Clear 36 1000 43 10000 5.14 130 06:26 27.02.2022
2870 Clear 36 1000 43 10000 5.66 90 03:44 27.02.2022
2871 Clouds 26 1011 53 10000 0.51 300 23:57 26.02.2022
2872 Clouds 20 1011 73 10000 2.06 290 22:43 26.02.2022
2873 Clouds 20 1011 73 10000 0 0 21:29 26.02.2022
2874 Clouds 21 1010 73 10000 2.06 320 20:43 26.02.2022
2875 Clouds 21 1010 73 10000 0 0 19:57 26.02.2022
2876 Clouds 21 1010 73 10000 0 0 19:33 26.02.2022
2877 Clouds 21 1010 73 10000 0 0 19:33 26.02.2022
2878 Clouds 23 1010 64 10000 3.09 350 18:33 26.02.2022
2879 Clouds 23 1011 68 10000 2.57 290 17:37 26.02.2022
2880 Clouds 23 1011 64 10000 0 0 16:39 26.02.2022
2881 Clouds 24 1011 60 10000 0 0 15:38 26.02.2022
2882 Clouds 24 1011 60 10000 0 0 15:19 26.02.2022
2883 Clouds 25 1011 57 10000 0 0 14:42 26.02.2022
2884 Clouds 25 1011 57 10000 0 0 13:53 26.02.2022
2885 Clouds 27 1011 47 10000 2.57 140 12:53 26.02.2022
2886 Clouds 29 1010 39 10000 2.57 130 11:52 26.02.2022
2887 Clouds 30 1009 32 10000 2.57 120 11:25 26.02.2022
2888 Clouds 36 1000 43 10000 5.14 130 09:44 26.02.2022
2889 Clear 36 1000 43 10000 5.14 120 08:35 26.02.2022
2890 Clouds 36 1000 43 10000 5.66 170 06:31 26.02.2022
2891 Clear 27 1012 41 10000 0 0 00:25 26.02.2022
2892 Clear 19 1011 72 10000 0 0 22:43 25.02.2022
2893 Clear 19 1011 72 10000 0 0 21:33 25.02.2022
2894 Clear 20 1010 68 10000 0 0 20:56 25.02.2022
2895 Clear 20 1010 68 10000 2.06 270 20:27 25.02.2022
2896 Clear 22 1011 60 10000 0 0 17:57 25.02.2022
2897 Clear 22 1011 64 10000 0 0 16:59 25.02.2022
2898 Clouds 24 1011 57 10000 2.06 190 15:56 25.02.2022
2899 Clouds 25 1012 47 10000 1.54 170 15:24 25.02.2022
2900 Clouds 26 1012 47 10000 1.54 180 14:56 25.02.2022
2901 Clouds 25 1012 50 10000 1.03 180 14:27 25.02.2022
2902 Clouds 26 1012 53 10000 3.09 190 13:30 25.02.2022
2903 Clouds 27 1011 39 10000 2.57 150 12:21 25.02.2022
2904 Clear 29 1010 34 10000 3.09 140 11:22 25.02.2022
2905 Clear 36 1000 43 10000 4.63 130 10:23 25.02.2022
2906 Clear 36 1000 43 10000 4.63 130 10:23 25.02.2022
2907 Clear 36 1000 43 10000 6.17 130 09:46 25.02.2022
2908 Clear 36 1000 43 10000 6.69 130 08:41 25.02.2022
2909 Clear 36 1000 43 10000 6.17 130 07:31 25.02.2022
2910 Clear 36 1000 43 10000 6.69 140 05:43 25.02.2022
2911 Clear 32 1013 31 10000 6.17 80 02:48 25.02.2022
2912 Clear 18 1013 72 10000 0 0 22:48 24.02.2022
2913 Clear 17 1012 77 10000 0 0 21:51 24.02.2022
2914 Clear 18 1012 72 10000 0 0 21:31 24.02.2022
2915 Clear 18 1012 72 10000 0 0 20:47 24.02.2022
2916 Clear 20 1012 64 10000 0 0 19:32 24.02.2022
2917 Clear 21 1012 60 10000 0 0 18:21 24.02.2022
2918 Clear 20 1012 60 10000 0 0 17:58 24.02.2022
2919 Clear 21 1012 56 10000 0 0 17:21 24.02.2022
2920 Clear 22 1012 49 10000 0 0 16:28 24.02.2022
2921 Clear 22 1012 56 10000 1.54 290 15:44 24.02.2022
2922 Clear 23 1012 53 10000 2.57 170 14:48 24.02.2022
2923 Clear 25 1012 44 10000 3.09 160 13:59 24.02.2022
2924 Clear 24 1012 46 10000 4.12 150 13:38 24.02.2022
2925 Clear 29 1011 30 10000 3.6 140 11:41 24.02.2022
2926 Clear 32 1011 23 10000 5.14 140 10:34 24.02.2022
2927 Clear 36 1000 43 10000 6.69 130 08:44 24.02.2022
2928 Clear 36 1000 43 10000 6.17 110 07:26 24.02.2022
2929 Clear 36 1000 43 10000 7.72 110 05:43 24.02.2022
2930 Clear 24 1014 33 10000 0 0 00:32 24.02.2022
2931 Clear 17 1013 63 10000 2.57 270 22:25 23.02.2022
2932 Clear 17 1012 72 10000 2.57 290 20:48 23.02.2022
2933 Clear 18 1012 63 10000 2.06 310 20:28 23.02.2022
2934 Clear 18 1012 68 10000 0 0 19:35 23.02.2022
2935 Clear 18 1012 68 10000 0 0 18:27 23.02.2022
2936 Clear 20 1013 60 10000 1.54 120 16:33 23.02.2022
2937 Clear 23 1013 43 10000 2.57 90 14:22 23.02.2022
2938 Clear 26 1012 36 10000 3.09 130 12:37 23.02.2022
2939 Clear 29 1011 28 10000 3.6 130 11:23 23.02.2022
2940 Clear 36 1000 43 10000 4.63 130 10:23 23.02.2022
2941 Clear 36 1000 43 10000 5.66 160 08:55 23.02.2022
2942 Clear 36 1000 43 10000 5.14 190 07:55 23.02.2022
2943 Clear 31 1012 23 10000 3.09 90 03:29 23.02.2022
2944 Clear 24 1013 38 10000 2.57 70 00:18 23.02.2022
2945 Clear 20 1013 56 10000 0 0 23:34 22.02.2022
2946 Clear 16 1012 77 10000 0 0 22:28 22.02.2022
2947 Clear 16 1012 77 10000 0 0 22:28 22.02.2022
2948 Clear 16 1012 77 10000 0 0 21:45 22.02.2022
2949 Clear 17 1012 72 10000 0 0 21:21 22.02.2022
2950 Clear 17 1011 72 10000 0 0 20:43 22.02.2022
2951 Clear 17 1011 72 10000 2.06 110 20:25 22.02.2022
2952 Clear 18 1011 68 10000 2.06 80 19:34 22.02.2022
2953 Clear 20 1011 56 10000 3.09 80 18:42 22.02.2022
2954 Clear 21 1011 56 10000 2.57 100 17:35 22.02.2022
2955 Clear 21 1011 52 10000 2.57 100 16:57 22.02.2022
2956 Clear 22 1011 49 10000 3.09 80 16:22 22.02.2022
2957 Clear 22 1012 53 10000 3.09 60 15:31 22.02.2022
2958 Clear 23 1011 46 10000 2.57 70 14:33 22.02.2022
2959 Clear 29 1010 28 10000 4.12 140 11:41 22.02.2022
2960 Clear 36 1000 43 10000 3.6 140 09:48 22.02.2022
2961 Clear 36 1000 43 10000 4.63 150 07:40 22.02.2022
2962 Clear 36 1000 43 10000 4.63 150 07:19 22.02.2022
2963 Clear 28 1013 32 10000 4.63 100 02:51 22.02.2022
2964 Clear 22 1013 46 10000 0 0 23:48 21.02.2022
2965 Clear 15 1013 72 10000 1.54 240 22:37 21.02.2022
2966 Clear 15 1012 72 10000 1.54 240 21:23 21.02.2022
2967 Clear 16 1011 67 10000 1.03 60 18:58 21.02.2022
2968 Clear 18 1011 59 10000 2.57 110 18:39 21.02.2022
2969 Clear 18 1011 59 10000 0 0 16:37 21.02.2022
2970 Clear 21 1011 46 10000 2.57 50 14:24 21.02.2022
2971 Clear 23 1011 40 10000 4.12 150 13:40 21.02.2022
2972 Clear 23 1011 38 10000 3.09 130 12:57 21.02.2022
2973 Clear 25 1010 33 10000 3.6 150 12:21 21.02.2022
2974 Clear 25 1010 33 10000 3.6 150 12:21 21.02.2022
2975 Clear 30 1009 20 10000 3.09 150 10:31 21.02.2022
2976 Clear 32 1009 14 10000 2.57 180 07:51 21.02.2022
2977 Clouds 23 1013 35 10000 3.09 110 00:36 21.02.2022
2978 Clouds 16 1011 67 10000 3.09 200 22:32 20.02.2022
2979 Clouds 16 1011 72 10000 3.09 290 21:44 20.02.2022
2980 Clouds 15 1010 72 10000 2.06 270 21:25 20.02.2022
2981 Clouds 15 1010 72 10000 2.57 270 20:43 20.02.2022
2982 Clouds 17 1010 63 10000 0 0 19:51 20.02.2022
2983 Clouds 17 1009 63 10000 0 0 18:57 20.02.2022
2984 Clouds 17 1010 63 10000 0 0 18:37 20.02.2022
2985 Clouds 17 1010 67 10000 0 0 17:55 20.02.2022
2986 Clouds 18 1010 63 10000 0 0 17:24 20.02.2022
2987 Clouds 19 1010 63 10000 1.03 230 15:27 20.02.2022
2988 Clouds 22 1010 46 10000 0 0 13:59 20.02.2022
2989 Clear 24 1010 35 10000 2.57 150 12:45 20.02.2022
2990 Clear 25 1010 36 10000 3.09 160 11:50 20.02.2022
2991 Clear 30 1009 21 10000 3.6 140 10:21 20.02.2022
2992 Clear 32 1009 18 10000 5.14 160 09:24 20.02.2022
2993 Clear 31 1010 22 10000 4.63 170 06:28 20.02.2022
2994 Clear 22 1014 46 10000 0.51 230 00:32 20.02.2022
2995 Clear 18 1014 68 10000 1.54 260 23:32 19.02.2022
2996 Clear 14 1014 82 10000 0 0 22:24 19.02.2022
2997 Clear 14 1013 82 10000 0 0 21:45 19.02.2022
2998 Clear 15 1012 82 10000 0 0 20:26 19.02.2022
2999 Clear 16 1012 77 10000 0 0 19:34 19.02.2022
3000 Clear 17 1013 72 10000 0 0 18:39 19.02.2022
3001 Clear 17 1013 72 10000 0 0 17:54 19.02.2022
3002 Clear 17 1013 72 10000 0 0 16:47 19.02.2022
3003 Clear 19 1014 63 10000 0 0 15:20 19.02.2022
3004 Clear 19 1014 63 10000 0 0 14:53 19.02.2022
3005 Clear 22 1014 49 10000 2.57 140 13:55 19.02.2022
3006 Clear 26 1013 31 10000 3.6 110 11:42 19.02.2022
3007 Clear 28 1013 28 10000 3.6 120 10:45 19.02.2022
3008 Clear 30 1013 21 10000 4.12 150 08:54 19.02.2022
3009 Clear 30 1013 23 10000 4.12 150 06:45 19.02.2022
3010 Clear 21 1017 49 10000 0.51 160 23:55 18.02.2022
3011 Clear 14 1017 77 10000 0 0 22:24 18.02.2022
3012 Clear 14 1016 77 10000 0 0 21:18 18.02.2022
3013 Clear 15 1016 72 10000 0 0 19:56 18.02.2022
3014 Clear 16 1016 72 10000 2.57 190 18:51 18.02.2022
3015 Clear 16 1016 72 10000 3.09 170 18:25 18.02.2022
3016 Clear 17 1016 63 10000 0 0 17:56 18.02.2022
3017 Clear 19 1017 55 10000 2.06 190 15:35 18.02.2022
3018 Clear 20 1017 52 10000 3.09 150 13:56 18.02.2022
3019 Clear 21 1017 46 10000 2.57 130 13:28 18.02.2022
3020 Clear 23 1016 38 10000 3.6 140 12:42 18.02.2022
3021 Clear 24 1016 35 10000 4.12 140 11:55 18.02.2022
3022 Clear 29 1015 26 10000 6.17 150 10:24 18.02.2022
3023 Clear 31 1015 27 10000 6.69 160 06:58 18.02.2022
3024 Clear 29 1016 32 10000 6.17 120 05:42 18.02.2022
3025 Clear 24 1017 43 10000 4.12 120 23:53 17.02.2022
3026 Clear 20 1016 77 10000 3.09 180 21:50 17.02.2022
3027 Clear 21 1015 73 10000 2.06 170 21:26 17.02.2022
3028 Clear 22 1015 73 10000 3.09 140 20:40 17.02.2022
3029 Clear 21 1015 78 10000 0 0 19:52 17.02.2022
3030 Clear 22 1015 68 10000 0 0 18:54 17.02.2022
3031 Clear 22 1015 68 10000 3.09 140 17:55 17.02.2022
3032 Clear 22 1015 68 10000 3.09 140 16:43 17.02.2022
3033 Clear 24 1015 60 10000 3.09 130 15:38 17.02.2022
3034 Clear 25 1015 53 10000 3.6 130 14:28 17.02.2022
3035 Clear 27 1014 41 10000 3.6 150 12:43 17.02.2022
3036 Clear 30 1013 32 10000 3.6 140 11:27 17.02.2022
3037 Clear 36 1000 43 10000 5.14 130 09:18 17.02.2022
3038 Clear 36 1000 43 10000 6.17 90 04:20 17.02.2022
3039 Clouds 22 1014 60 10000 2.57 310 23:21 16.02.2022
3040 Clouds 18 1013 72 10000 3.09 270 21:44 16.02.2022
3041 Clouds 20 1012 73 10000 3.6 300 19:57 16.02.2022
3042 Clouds 21 1012 60 10000 2.57 330 18:43 16.02.2022
3043 Clouds 20 1012 68 10000 2.06 280 17:53 16.02.2022
3044 Clouds 22 1014 64 10000 0 0 15:40 16.02.2022
3045 Clouds 22 1014 64 10000 0 0 15:19 16.02.2022
3046 Clouds 26 1013 38 10000 3.09 60 13:28 16.02.2022
3047 Clouds 28 1012 30 10000 3.09 90 12:20 16.02.2022
3048 Clouds 30 1012 26 10000 2.57 100 11:28 16.02.2022
3049 Clouds 36 1000 43 10000 4.12 110 10:34 16.02.2022
3050 Clouds 36 1000 43 10000 4.63 130 08:20 16.02.2022
3051 Clouds 36 1000 43 10000 3.6 60 06:29 16.02.2022
3052 Clouds 25 1015 57 10000 0 0 23:45 15.02.2022
3053 Clouds 18 1013 88 10000 0 0 22:30 15.02.2022
3054 Clouds 19 1013 82 10000 0 0 21:47 15.02.2022
3055 Clouds 19 1013 82 10000 0 0 21:27 15.02.2022
3056 Clouds 19 1013 82 10000 0 0 20:56 15.02.2022
3057 Clouds 20 1012 83 10000 0 0 19:57 15.02.2022
3058 Clouds 21 1013 73 10000 0 0 18:56 15.02.2022
3059 Clouds 21 1013 73 10000 0 0 18:22 15.02.2022
3060 Clouds 21 1013 78 10000 2.57 310 17:50 15.02.2022
3061 Clouds 22 1013 78 10000 0 0 16:50 15.02.2022
3062 Clouds 24 1014 64 10000 0 0 15:28 15.02.2022
3063 Clouds 27 1014 47 10000 2.57 80 13:27 15.02.2022
3064 Clouds 28 1014 44 10000 2.57 60 12:37 15.02.2022
3065 Clouds 36 1000 43 10000 2.57 100 11:40 15.02.2022
3066 Clouds 36 1000 43 10000 4.63 110 09:31 15.02.2022
3067 Clouds 36 1000 43 10000 3.6 100 06:58 15.02.2022
3068 Clear 36 1000 43 10000 4.63 110 04:54 15.02.2022
3069 Clouds 25 1017 65 10000 0 0 23:33 14.02.2022
3070 Clouds 21 1015 83 10000 0 0 21:36 14.02.2022
3071 Clouds 22 1015 83 10000 0 0 20:40 14.02.2022
3072 Clouds 23 1015 78 10000 0 0 19:36 14.02.2022
3073 Clouds 23 1015 78 10000 0 0 18:44 14.02.2022
3074 Clouds 24 1015 73 10000 0 0 18:22 14.02.2022
3075 Clouds 25 1015 65 10000 0 0 17:26 14.02.2022
3076 Clouds 26 1016 61 10000 1.54 190 16:24 14.02.2022
3077 Clouds 27 1016 57 10000 1.03 50 14:29 14.02.2022
3078 Clouds 28 1016 47 10000 3.09 100 13:31 14.02.2022
3079 Clear 29 1015 42 10000 4.12 80 12:48 14.02.2022
3080 Clear 30 1014 39 10000 3.09 130 11:54 14.02.2022
3081 Clear 35 1013 23 10000 3.6 130 10:43 14.02.2022
3082 Clear 36 1013 19 10000 4.12 120 08:45 14.02.2022
3083 Clear 36 1014 19 10000 3.6 130 07:31 14.02.2022
3084 Clear 30 1017 23 10000 2.57 90 01:18 14.02.2022
3085 Clear 17 1015 72 10000 2.06 310 22:42 13.02.2022
3086 Clear 17 1015 72 10000 2.06 310 22:24 13.02.2022
3087 Clear 15 1014 77 10000 2.57 270 21:32 13.02.2022
3088 Clear 16 1014 77 10000 0 0 20:35 13.02.2022
3089 Clear 18 1014 68 10000 2.57 300 19:31 13.02.2022
3090 Clear 17 1014 72 10000 2.06 310 18:46 13.02.2022
3091 Clear 17 1014 67 10000 2.57 310 18:26 13.02.2022
3092 Clear 20 1014 56 10000 0 0 15:54 13.02.2022
3093 Clear 20 1015 60 10000 0 0 15:24 13.02.2022
3094 Clear 22 1014 49 10000 0 0 14:22 13.02.2022
3095 Clear 25 1014 36 10000 3.09 140 12:51 13.02.2022
3096 Clear 26 1013 34 10000 3.09 120 11:44 13.02.2022
3097 Clear 32 1012 19 10000 3.6 140 10:33 13.02.2022
3098 Clear 36 1000 43 10000 3.6 140 09:45 13.02.2022
3099 Clear 36 1000 43 10000 2.57 210 07:48 13.02.2022
3100 Clear 23 1014 40 10000 0 0 00:35 13.02.2022
3101 Clear 18 1014 68 10000 2.06 270 23:42 12.02.2022
3102 Clear 15 1013 77 10000 2.06 290 22:33 12.02.2022
3103 Clear 15 1012 77 10000 2.57 300 21:27 12.02.2022
3104 Clear 16 1012 77 10000 2.57 290 20:34 12.02.2022
3105 Clear 16 1012 77 10000 2.06 280 19:27 12.02.2022
3106 Clear 17 1012 67 10000 3.09 310 18:53 12.02.2022
3107 Clear 17 1012 77 10000 1.54 280 18:35 12.02.2022
3108 Clear 18 1012 63 10000 2.06 280 16:58 12.02.2022
3109 Clear 18 1012 68 10000 0 0 16:25 12.02.2022
3110 Clear 18 1012 72 10000 0 0 15:51 12.02.2022
3111 Clear 21 1012 56 10000 0 0 14:31 12.02.2022
3112 Clear 24 1012 46 10000 2.06 70 13:19 12.02.2022
3113 Clear 31 1011 19 10000 4.12 130 10:41 12.02.2022
3114 Clear 32 1011 17 10000 4.12 120 09:49 12.02.2022
3115 Clear 32 1010 15 10000 4.12 120 09:26 12.02.2022
3116 Clear 32 1010 18 10000 4.12 120 08:18 12.02.2022
3117 Clear 30 1012 17 10000 4.12 130 05:33 12.02.2022
3118 Clear 31 1013 20 10000 4.63 100 04:27 12.02.2022
3119 Clear 28 1014 28 10000 7.2 130 02:18 12.02.2022
3120 Clear 16 1014 82 10000 0 0 22:29 11.02.2022
3121 Clear 16 1014 82 10000 0 0 21:55 11.02.2022
3122 Clear 17 1013 82 10000 0 0 20:41 11.02.2022
3123 Clear 17 1013 82 10000 0 0 19:46 11.02.2022
3124 Clear 18 1013 77 10000 0 0 19:27 11.02.2022
3125 Clear 19 1013 72 10000 2.06 100 17:55 11.02.2022
3126 Clear 21 1013 60 10000 0 0 17:25 11.02.2022
3127 Clear 21 1014 64 10000 0 0 16:22 11.02.2022
3128 Clear 22 1014 60 10000 3.09 170 14:43 11.02.2022
3129 Clear 22 1014 60 10000 3.09 170 14:21 11.02.2022
3130 Clear 22 1014 56 10000 3.09 150 13:57 11.02.2022
3131 Clear 23 1014 49 10000 2.57 120 13:39 11.02.2022
3132 Clear 27 1013 34 10000 3.6 140 11:41 11.02.2022
3133 Clear 31 1013 20 10000 5.14 140 09:57 11.02.2022
3134 Clear 32 1013 18 10000 6.17 150 08:42 11.02.2022
3135 Clear 32 1013 18 10000 6.17 150 08:42 11.02.2022
3136 Clear 32 1013 18 10000 6.17 150 08:22 11.02.2022
3137 Clear 36 1000 43 10000 6.17 120 06:33 11.02.2022
3138 Clear 28 1018 24 10000 6.69 140 02:26 11.02.2022
3139 Clear 25 1018 41 10000 4.12 110 00:51 11.02.2022
3140 Clear 17 1017 82 10000 2.57 280 22:49 10.02.2022
3141 Clear 16 1016 82 10000 2.57 280 21:45 10.02.2022
3142 Clear 16 1016 82 10000 2.06 290 20:57 10.02.2022
3143 Clear 17 1015 82 10000 0 0 20:30 10.02.2022
3144 Clear 18 1015 77 10000 0 0 19:25 10.02.2022
3145 Clear 18 1015 82 10000 0 0 18:44 10.02.2022
3146 Clear 20 1015 73 10000 0 0 17:26 10.02.2022
3147 Clear 20 1015 73 10000 1.54 110 16:50 10.02.2022
3148 Clear 23 1016 56 10000 2.06 70 15:47 10.02.2022
3149 Clear 23 1016 56 10000 2.57 90 15:28 10.02.2022
3150 Clear 24 1016 53 10000 1.03 80 14:46 10.02.2022
3151 Clear 24 1016 57 10000 3.09 120 14:23 10.02.2022
3152 Clear 26 1015 47 10000 4.12 140 13:22 10.02.2022
3153 Clear 26 1015 50 10000 3.09 130 12:23 10.02.2022
3154 Clear 29 1014 37 10000 3.6 120 11:33 10.02.2022
3155 Clear 31 1014 30 10000 4.63 120 10:43 10.02.2022
3156 Clear 32 1013 29 10000 5.14 120 09:50 10.02.2022
3157 Clear 36 1000 43 10000 4.63 130 09:18 10.02.2022
3158 Clouds 33 1014 27 10000 4.63 120 06:50 10.02.2022
3159 Clear 32 1015 29 10000 4.12 140 03:55 10.02.2022
3160 Clear 29 1016 32 10000 5.66 90 01:43 10.02.2022
3161 Clouds 26 1016 41 10000 4.12 100 00:42 10.02.2022
3162 Clouds 26 1016 41 10000 4.12 100 00:24 10.02.2022
3163 Clouds 23 1015 68 10000 2.06 130 22:58 09.02.2022
3164 Clouds 22 1015 73 10000 2.57 140 22:33 09.02.2022
3165 Clouds 22 1014 78 10000 1.03 100 21:49 09.02.2022
3166 Clouds 22 1014 73 10000 0 0 21:28 09.02.2022
3167 Clouds 22 1013 73 10000 2.06 140 20:45 09.02.2022
3168 Clouds 22 1013 73 10000 2.06 140 20:23 09.02.2022
3169 Clouds 23 1013 68 10000 2.57 120 19:43 09.02.2022
3170 Clouds 24 1013 73 10000 1.03 160 18:55 09.02.2022
3171 Clouds 22 1013 83 10000 2.06 120 17:24 09.02.2022
3172 Clouds 24 1013 69 10000 2.06 120 16:25 09.02.2022
3173 Clouds 24 1013 69 10000 0 0 15:32 09.02.2022
3174 Clouds 27 1013 54 10000 3.09 110 13:32 09.02.2022
3175 Clouds 28 1012 51 10000 3.09 130 11:52 09.02.2022
3176 Clouds 33 1011 33 10000 4.12 130 10:37 09.02.2022
3177 Clouds 33 1010 33 10000 4.12 130 09:56 09.02.2022
3178 Clouds 36 1000 43 10000 4.63 130 09:22 09.02.2022
3179 Clouds 36 1000 43 10000 3.6 130 08:51 09.02.2022
3180 Clouds 36 1000 43 10000 3.09 110 06:56 09.02.2022
3181 Clouds 32 1012 48 10000 3.6 90 04:36 09.02.2022
3182 Clouds 30 1012 48 10000 3.6 110 03:49 09.02.2022
3183 Clouds 25 1012 78 10000 0 0 23:45 08.02.2022
3184 Clouds 24 1012 83 10000 0 0 23:19 08.02.2022
3185 Clouds 23 1011 88 10000 0 0 22:38 08.02.2022
3186 Clouds 23 1011 88 10000 0 0 22:38 08.02.2022
3187 Clouds 23 1011 88 10000 0 0 22:20 08.02.2022
3188 Clouds 24 1010 88 10000 0 0 21:22 08.02.2022
3189 Clouds 23 1010 88 10000 0 0 20:58 08.02.2022
3190 Clouds 23 1009 83 10000 0 0 20:38 08.02.2022
3191 Clouds 23 1009 83 10000 2.57 280 19:28 08.02.2022
3192 Clouds 23 1010 83 10000 2.06 260 18:24 08.02.2022
3193 Clouds 25 1010 69 10000 2.57 240 17:30 08.02.2022
3194 Clouds 26 1010 61 10000 4.12 230 15:47 08.02.2022
3195 Clouds 26 1010 61 10000 3.6 200 15:27 08.02.2022
3196 Clouds 27 1009 54 10000 2.06 330 13:50 08.02.2022
3197 Clouds 28 1009 57 10000 2.06 160 12:24 08.02.2022
3198 Clouds 36 1000 43 10000 2.06 290 10:52 08.02.2022
3199 Clouds 36 1000 43 10000 2.57 280 09:49 08.02.2022
3200 Clouds 36 1000 43 10000 3.6 300 08:39 08.02.2022
3201 Clouds 36 1000 43 10000 0.45 37 06:49 08.02.2022
3202 Clouds 36 1000 43 10000 5.14 320 04:40 08.02.2022
3203 Clouds 36 1000 43 10000 5.14 320 04:22 08.02.2022
3204 Clouds 36 1000 43 10000 7.72 330 03:36 08.02.2022
3205 Clouds 36 1000 43 10000 7.72 330 03:18 08.02.2022
3206 Clouds 33 1010 22 10000 7.72 330 02:59 08.02.2022
3207 Clouds 33 1010 22 10000 8.23 330 02:36 08.02.2022
3208 Clouds 33 1010 22 10000 8.23 330 02:18 08.02.2022
3209 Clouds 31 1011 22 10000 6.69 340 01:44 08.02.2022
3210 Clouds 31 1011 22 10000 6.69 340 01:25 08.02.2022
3211 Clouds 31 1011 22 10000 6.69 340 01:25 08.02.2022
3212 Clear 30 1010 25 10000 5.66 330 00:55 08.02.2022
3213 Clouds 29 1010 26 10000 1.54 240 00:21 08.02.2022
3214 Clouds 25 1010 36 10000 3.6 330 23:44 07.02.2022
3215 Clouds 25 1010 36 10000 3.6 330 23:18 07.02.2022
3216 Clouds 23 1010 43 10000 2.57 360 22:59 07.02.2022
3217 Clouds 23 1010 40 10000 3.09 360 22:19 07.02.2022
3218 Clouds 21 1010 52 10000 3.09 320 21:50 07.02.2022
3219 Clouds 20 1009 64 10000 1.03 350 21:27 07.02.2022
3220 Clouds 20 1009 60 10000 4.12 340 20:43 07.02.2022
3221 Clouds 20 1009 64 10000 0 0 20:24 07.02.2022
3222 Clouds 19 1009 77 10000 0 0 19:47 07.02.2022
3223 Clouds 20 1009 77 10000 0 0 18:34 07.02.2022
3224 Clear 21 1010 73 10000 1.54 40 17:18 07.02.2022
3225 Clear 21 1010 73 10000 0.51 30 16:46 07.02.2022
3226 Clear 22 1010 68 10000 0 0 15:48 07.02.2022
3227 Clear 23 1010 56 10000 3.09 60 13:51 07.02.2022
3228 Clear 24 1009 53 10000 3.09 100 13:26 07.02.2022
3229 Clear 28 1009 36 10000 0 0 11:58 07.02.2022
3230 Clear 29 1008 30 10000 0 0 11:38 07.02.2022
3231 Clear 31 1008 23 10000 0 0 10:54 07.02.2022
3232 Clear 32 1008 25 10000 2.06 130 10:36 07.02.2022
3233 Clear 33 1008 18 10000 1.54 100 09:53 07.02.2022
3234 Clear 36 1000 43 10000 0.45 37 09:18 07.02.2022
3235 Clear 36 1000 43 10000 0.45 37 08:44 07.02.2022
3236 Clouds 33 1009 21 10000 3.09 220 07:34 07.02.2022
3237 Clear 33 1009 19 10000 4.63 310 06:34 07.02.2022
3238 Clear 31 1011 23 10000 2.57 320 04:18 07.02.2022
3239 Clear 27 1013 32 10000 3.09 100 01:29 07.02.2022
3240 Clear 21 1013 68 10000 0 0 23:50 06.02.2022
3241 Clear 19 1013 77 10000 0 0 23:19 06.02.2022
3242 Clear 15 1012 94 10000 0 0 22:37 06.02.2022
3243 Clear 15 1012 94 10000 0 0 21:37 06.02.2022
3244 Clear 16 1011 88 10000 2.06 280 20:58 06.02.2022
3245 Clear 15 1011 94 10000 3.09 270 20:37 06.02.2022
3246 Clear 16 1011 94 10000 2.06 250 19:50 06.02.2022
3247 Clear 17 1011 88 10000 2.57 270 18:52 06.02.2022
3248 Clear 17 1011 88 10000 1.03 180 18:26 06.02.2022
3249 Clear 18 1012 88 10000 0 0 17:29 06.02.2022
3250 Clear 18 1012 82 10000 0 0 16:50 06.02.2022
3251 Clear 19 1012 77 10000 0 0 15:50 06.02.2022
3252 Clear 19 1012 77 10000 0.51 160 15:28 06.02.2022
3253 Clear 20 1012 73 10000 2.06 10 14:52 06.02.2022
3254 Clear 23 1012 49 10000 3.09 110 13:53 06.02.2022
3255 Clear 23 1012 46 10000 2.06 90 13:20 06.02.2022
3256 Clear 25 1011 38 10000 2.57 90 11:44 06.02.2022
3257 Clear 29 1010 26 10000 3.6 140 10:31 06.02.2022
3258 Clear 30 1010 26 10000 3.09 150 09:26 06.02.2022
3259 Clear 30 1010 25 10000 2.57 70 08:41 06.02.2022
3260 Clear 29 1011 20 10000 3.09 80 06:19 06.02.2022
3261 Clear 27 1013 29 10000 3.6 90 03:31 06.02.2022
3262 Clear 27 1014 34 10000 3.6 90 02:24 06.02.2022
3263 Clear 21 1014 60 10000 0 0 00:30 06.02.2022
3264 Clear 17 1013 82 10000 0 0 23:18 05.02.2022
3265 Clear 14 1012 94 10000 2.06 280 21:33 05.02.2022
3266 Clear 15 1012 88 10000 2.06 290 20:25 05.02.2022
3267 Clear 15 1012 94 10000 2.57 300 19:49 05.02.2022
3268 Clear 16 1012 82 10000 2.57 320 19:27 05.02.2022
3269 Clear 15 1012 94 10000 0 0 18:23 05.02.2022
3270 Clear 16 1012 88 10000 0 0 17:31 05.02.2022
3271 Clear 18 1013 72 10000 0 0 15:42 05.02.2022
3272 Clear 18 1013 72 10000 0 0 15:24 05.02.2022
3273 Clear 21 1011 56 10000 3.09 120 12:54 05.02.2022
3274 Clear 23 1011 40 10000 3.09 100 12:33 05.02.2022
3275 Clear 26 1011 31 10000 3.6 120 10:53 05.02.2022
3276 Clear 28 1011 24 10000 4.63 120 10:25 05.02.2022
3277 Clear 28 1011 26 10000 4.12 120 09:46 05.02.2022
3278 Clear 28 1011 24 10000 5.14 90 08:20 05.02.2022
3279 Clear 28 1011 26 10000 4.63 120 06:57 05.02.2022
3280 Clear 26 1013 31 10000 5.14 130 04:30 05.02.2022
3281 Clear 23 1014 46 10000 5.66 90 01:19 05.02.2022
3282 Clear 21 1014 52 10000 1.03 120 00:53 05.02.2022
3283 Clear 18 1014 72 10000 0 0 23:58 04.02.2022
3284 Clear 16 1014 88 10000 0 0 23:30 04.02.2022
3285 Clear 14 1013 88 10000 1.03 310 21:59 04.02.2022
3286 Clear 14 1013 88 10000 3.09 330 21:36 04.02.2022
3287 Clear 14 1013 88 10000 3.09 330 21:18 04.02.2022
3288 Clear 13 1013 94 10000 0 0 20:20 04.02.2022
3289 Clear 15 1013 88 10000 0 0 17:43 04.02.2022
3290 Clear 16 1014 88 10000 0 0 15:55 04.02.2022
3291 Clear 16 1014 88 10000 0 0 15:55 04.02.2022
3292 Clear 17 1014 82 10000 0 0 14:55 04.02.2022
3293 Clear 19 1013 63 10000 0.51 110 13:39 04.02.2022
3294 Clouds 20 1012 64 10000 2.57 130 12:43 04.02.2022
3295 Clouds 22 1012 43 10000 3.6 130 11:42 04.02.2022
3296 Clouds 22 1012 43 10000 3.6 130 11:42 04.02.2022
3297 Clouds 26 1011 27 10000 6.17 120 10:36 04.02.2022
3298 Clouds 27 1011 29 10000 6.69 120 08:42 04.02.2022
3299 Clouds 26 1011 29 10000 5.66 130 06:57 04.02.2022
3300 Clouds 24 1014 35 10000 7.72 120 02:46 04.02.2022
3301 Clouds 22 1014 40 10000 8.75 110 01:52 04.02.2022
3302 Clouds 17 1014 72 10000 2.06 100 23:29 03.02.2022
3303 Clouds 14 1014 88 10000 3.09 130 22:40 03.02.2022
3304 Clouds 14 1013 88 10000 3.09 150 21:49 03.02.2022
3305 Clouds 14 1012 88 10000 2.57 150 20:39 03.02.2022
3306 Clouds 14 1012 88 10000 2.57 150 20:18 03.02.2022
3307 Clouds 15 1012 82 10000 3.09 140 19:30 03.02.2022
3308 Clouds 17 1012 72 10000 2.57 140 18:38 03.02.2022
3309 Clouds 18 1013 68 10000 3.09 140 17:32 03.02.2022
3310 Clouds 17 1013 72 10000 4.12 150 16:26 03.02.2022
3311 Clouds 18 1014 72 10000 3.6 160 14:45 03.02.2022
3312 Clouds 20 1012 73 10000 2.06 180 12:52 03.02.2022
3313 Clouds 23 1011 43 10000 4.12 130 11:22 03.02.2022
3314 Clouds 25 1010 47 10000 6.69 140 08:37 03.02.2022
3315 Clouds 25 1012 57 10000 7.2 140 05:26 03.02.2022
3316 Clouds 20 1012 77 10000 6.17 140 00:32 03.02.2022
3317 Clouds 19 1012 88 10000 5.14 150 23:39 02.02.2022
3318 Clouds 18 1011 94 10000 3.6 150 21:55 02.02.2022
3319 Clouds 19 1011 88 10000 3.6 150 21:31 02.02.2022
3320 Clouds 19 1011 88 10000 3.6 160 20:40 02.02.2022
3321 Clouds 19 1011 88 10000 3.6 150 19:58 02.02.2022
3322 Clouds 19 1011 88 10000 3.09 150 19:27 02.02.2022
3323 Clouds 19 1011 94 10000 4.12 150 18:39 02.02.2022
3324 Clouds 19 1011 94 10000 3.6 160 17:44 02.02.2022
3325 Clouds 19 1011 94 10000 3.6 150 17:19 02.02.2022
3326 Drizzle 19 1011 94 10000 3.09 150 16:31 02.02.2022
3327 Clouds 18 1011 100 6000 6.17 150 12:55 02.02.2022
3328 Clouds 19 1011 94 6000 6.17 140 12:18 02.02.2022
3329 Drizzle 19 1010 100 3200 5.14 150 11:32 02.02.2022
3330 Clouds 20 1008 100 5000 6.17 150 09:46 02.02.2022
3331 Clouds 22 1007 94 3700 5.66 170 07:32 02.02.2022
3332 Rain 22 1005 100 5000 3.09 210 22:46 01.02.2022
3333 Rain 23 1004 100 6000 4.63 150 21:36 01.02.2022
3334 Rain 23 1003 100 6000 4.12 250 19:58 01.02.2022
3335 Rain 23 1003 100 2500 2.57 300 17:41 01.02.2022
3336 Rain 24 1004 100 5000 3.6 210 16:36 01.02.2022
3337 Thunderstorm 24 1004 100 6000 3.6 150 13:32 01.02.2022
3338 Clouds 25 1003 100 10000 3.09 170 12:30 01.02.2022
3339 Clouds 24 1002 100 10000 3.09 150 10:44 01.02.2022
3340 Clouds 27 1003 78 10000 6.69 340 02:30 01.02.2022
3341 Rain 25 1002 83 10000 7.2 350 23:40 31.01.2022
3342 Clouds 25 1002 88 10000 6.69 350 22:43 31.01.2022
3343 Clouds 25 1001 83 10000 7.2 340 21:38 31.01.2022
3344 Clouds 24 1001 94 10000 8.75 350 20:44 31.01.2022
3345 Clouds 25 1001 83 10000 7.72 350 20:24 31.01.2022
3346 Clouds 25 1001 88 10000 6.17 350 18:54 31.01.2022
3347 Clouds 25 1001 88 10000 4.63 360 18:20 31.01.2022
3348 Clouds 25 1002 88 10000 5.66 360 17:25 31.01.2022
3349 Clouds 24 1003 94 10000 3.09 80 16:25 31.01.2022
3350 Clouds 23 1003 100 10000 2.57 50 14:54 31.01.2022
3351 Clouds 24 1002 100 10000 3.6 100 13:43 31.01.2022
3352 Clouds 24 1002 100 10000 3.6 100 12:38 31.01.2022
3353 Clouds 25 1001 94 10000 3.09 90 11:31 31.01.2022
3354 Clouds 25 1001 94 10000 3.6 100 10:48 31.01.2022
3355 Rain 25 1000 94 10000 2.57 70 09:38 31.01.2022
3356 Rain 25 1000 94 10000 3.09 90 08:56 31.01.2022
3357 Rain 25 1001 94 10000 2.57 90 08:20 31.01.2022
3358 Rain 25 1001 94 10000 0.51 70 07:43 31.01.2022
3359 Rain 25 1003 94 10000 3.09 340 05:33 31.01.2022
3360 Clouds 24 1004 94 10000 4.12 80 00:36 31.01.2022
3361 Clouds 23 1004 100 10000 4.63 90 22:33 30.01.2022
3362 Clouds 23 1003 100 10000 4.12 80 21:46 30.01.2022
3363 Clouds 23 1003 100 10000 3.6 70 21:26 30.01.2022
3364 Clouds 23 1003 100 10000 3.6 60 20:54 30.01.2022
3365 Clouds 23 1002 100 6000 3.6 80 20:31 30.01.2022
3366 Clouds 23 1003 100 6000 3.6 100 19:56 30.01.2022
3367 Rain 22 1003 100 10000 4.63 100 18:52 30.01.2022
3368 Rain 22 1003 100 10000 4.63 100 18:22 30.01.2022
3369 Rain 23 1004 100 5000 5.66 90 17:31 30.01.2022
3370 Rain 23 1004 100 5000 5.66 90 17:31 30.01.2022
3371 Rain 23 1004 100 5000 5.66 90 17:31 30.01.2022
3372 Clouds 23 1005 94 6000 5.14 70 16:44 30.01.2022
3373 Rain 23 1005 94 6000 6.17 60 16:23 30.01.2022
3374 Rain 23 1005 94 6000 6.69 70 15:55 30.01.2022
3375 Rain 23 1005 100 10000 5.66 80 15:33 30.01.2022
3376 Rain 23 1006 100 6000 9.77 90 14:48 30.01.2022
3377 Clouds 23 1005 100 10000 5.66 90 13:49 30.01.2022
3378 Rain 24 1005 94 6000 6.69 60 12:46 30.01.2022
3379 Rain 24 1004 94 10000 3.09 360 11:49 30.01.2022
3380 Rain 25 1003 88 10000 5.14 60 10:26 30.01.2022
3381 Rain 29 1002 70 10000 6.17 100 09:26 30.01.2022
3382 Clouds 28 1002 78 10000 5.66 90 08:32 30.01.2022
3383 Clouds 26 1006 83 10000 8.75 70 02:55 30.01.2022
3384 Drizzle 25 1007 94 6000 7.72 90 01:54 30.01.2022
3385 Clouds 25 1007 94 10000 5.66 120 23:49 29.01.2022
3386 Clouds 24 1006 100 10000 4.12 120 22:58 29.01.2022
3387 Clouds 24 1006 94 10000 3.6 120 21:35 29.01.2022
3388 Clouds 24 1005 94 10000 4.63 100 21:00 29.01.2022
3389 Clouds 23 1005 100 10000 5.14 100 20:20 29.01.2022
3390 Clouds 23 1005 100 10000 4.63 90 19:33 29.01.2022
3391 Rain 24 1005 94 10000 5.66 100 18:44 29.01.2022
3392 Rain 24 1005 100 10000 3.6 110 17:55 29.01.2022
3393 Rain 24 1006 94 10000 6.17 120 16:59 29.01.2022
3394 Rain 24 1007 94 10000 4.63 120 15:27 29.01.2022
3395 Rain 24 1007 100 10000 5.14 130 13:48 29.01.2022
3396 Rain 24 1006 94 10000 4.63 140 13:28 29.01.2022
3397 Rain 24 1006 100 10000 4.63 140 12:58 29.01.2022
3398 Rain 24 1005 100 10000 4.12 150 11:39 29.01.2022
3399 Rain 24 1005 100 10000 0 0 10:33 29.01.2022
3400 Rain 23 1005 100 10000 5.66 120 08:19 29.01.2022
3401 Clouds 27 1008 83 10000 6.17 140 02:26 29.01.2022
3402 Clouds 24 1008 100 10000 4.12 150 00:32 29.01.2022
3403 Clouds 24 1008 94 6000 4.12 120 23:29 28.01.2022
3404 Clouds 23 1007 100 10000 4.63 130 22:46 28.01.2022
3405 Clouds 23 1007 100 10000 5.14 140 22:19 28.01.2022
3406 Clouds 23 1007 100 10000 4.63 140 20:41 28.01.2022
3407 Clouds 23 1007 100 6000 5.66 150 19:57 28.01.2022
3408 Clouds 24 1006 94 10000 5.14 150 18:52 28.01.2022
3409 Clouds 24 1007 94 10000 5.14 140 17:53 28.01.2022
3410 Clouds 25 1009 88 10000 2.57 130 15:52 28.01.2022
3411 Clouds 25 1009 83 10000 6.69 150 14:50 28.01.2022
3412 Clouds 27 1007 78 10000 5.14 120 12:41 28.01.2022
3413 Clouds 28 1005 69 10000 8.23 100 11:43 28.01.2022
3414 Clouds 29 1005 65 10000 8.75 90 10:26 28.01.2022
3415 Clouds 29 1005 65 10000 8.23 80 09:46 28.01.2022
3416 Clouds 36 1004 36 10000 7.72 120 07:41 28.01.2022
3417 Clouds 34 1005 43 10000 8.75 110 05:31 28.01.2022
3418 Clouds 33 1007 46 10000 7.72 140 03:50 28.01.2022
3419 Clouds 32 1008 55 10000 7.72 150 02:24 28.01.2022
3420 Clouds 30 1008 58 10000 7.72 110 01:35 28.01.2022
3421 Clouds 29 1007 58 10000 4.63 150 00:33 28.01.2022
3422 Clouds 25 1006 78 10000 2.06 230 21:58 27.01.2022
3423 Clouds 25 1006 78 10000 0 0 21:34 27.01.2022
3424 Clouds 25 1006 78 10000 0 0 21:34 27.01.2022
3425 Clouds 25 1005 78 10000 0 0 20:58 27.01.2022
3426 Rain 26 1005 73 10000 0 0 19:35 27.01.2022
3427 Clouds 26 1005 73 10000 5.66 50 17:58 27.01.2022
3428 Clouds 29 1005 58 10000 3.09 40 15:43 27.01.2022
3429 Clouds 30 1005 54 10000 3.09 30 13:39 27.01.2022
3430 Clouds 31 1004 51 10000 2.06 120 12:46 27.01.2022
3431 Clouds 34 1003 38 10000 3.09 140 10:59 27.01.2022
3432 Clouds 35 1002 38 10000 5.66 120 09:27 27.01.2022
3433 Clouds 35 1002 38 10000 4.12 100 08:39 27.01.2022
3434 Clouds 35 1003 36 10000 3.6 130 07:23 27.01.2022
3435 Clear 32 1006 48 10000 3.6 110 02:59 27.01.2022
3436 Clouds 28 1007 69 10000 2.57 110 23:52 26.01.2022
3437 Clouds 25 1005 83 10000 0 0 22:27 26.01.2022
3438 Clouds 25 1005 83 10000 0 0 21:41 26.01.2022
3439 Clouds 25 1004 78 10000 2.06 180 20:41 26.01.2022
3440 Clouds 25 1004 78 10000 2.06 180 20:23 26.01.2022
3441 Clouds 26 1003 73 10000 4.63 20 19:28 26.01.2022
3442 Clouds 25 1004 78 10000 4.63 30 18:46 26.01.2022
3443 Clouds 24 1004 88 10000 5.14 30 17:51 26.01.2022
3444 Clouds 24 1005 88 10000 4.12 40 17:24 26.01.2022
3445 Clouds 24 1006 88 10000 5.14 130 16:35 26.01.2022
3446 Clouds 25 1007 78 10000 6.69 110 15:49 26.01.2022
3447 Rain 28 1006 65 10000 5.66 230 14:21 26.01.2022
3448 Clouds 30 1004 54 10000 2.57 40 11:54 26.01.2022
3449 Clouds 32 1003 45 10000 3.6 50 10:43 26.01.2022
3450 Clouds 34 1002 38 10000 6.17 70 09:48 26.01.2022
3451 Clouds 36 1000 43 10000 0.45 37 08:27 26.01.2022
3452 Thunderstorm 36 1000 43 10000 0.45 37 05:42 26.01.2022
3453 Clouds 28 1006 69 10000 3.09 360 23:58 25.01.2022
3454 Clouds 28 1006 69 10000 2.57 20 23:20 25.01.2022
3455 Clouds 25 1005 83 10000 0 0 22:26 25.01.2022
3456 Clouds 25 1005 83 10000 0 0 21:59 25.01.2022
3457 Clouds 26 1004 73 10000 2.57 340 20:59 25.01.2022
3458 Clouds 26 1004 73 10000 3.6 350 20:40 25.01.2022
3459 Clouds 26 1004 73 10000 3.09 10 19:53 25.01.2022
3460 Clouds 27 1004 69 10000 2.06 360 18:38 25.01.2022
3461 Clouds 27 1004 69 10000 2.57 10 17:45 25.01.2022
3462 Clouds 28 1004 65 10000 2.57 40 16:45 25.01.2022
3463 Clouds 28 1005 65 10000 4.12 360 16:21 25.01.2022
3464 Clouds 28 1005 65 10000 3.09 290 15:38 25.01.2022
3465 Clouds 29 1004 58 10000 3.09 350 14:57 25.01.2022
3466 Clouds 30 1004 54 10000 4.63 10 13:42 25.01.2022
3467 Clouds 32 1003 48 10000 7.2 20 10:51 25.01.2022
3468 Clouds 36 1000 43 10000 0.45 37 08:37 25.01.2022
3469 Clouds 36 1000 43 10000 0.45 37 07:29 25.01.2022
3470 Clouds 36 1000 43 10000 0.45 37 06:49 25.01.2022
3471 Clouds 36 1000 43 10000 0.45 37 05:22 25.01.2022
3472 Clouds 27 1005 65 10000 3.09 300 23:37 24.01.2022
3473 Clouds 27 1005 65 10000 3.09 300 23:18 24.01.2022
3474 Clouds 26 1004 73 10000 3.6 330 22:59 24.01.2022
3475 Clouds 25 1004 78 10000 3.09 330 22:41 24.01.2022
3476 Clouds 25 1003 73 10000 2.06 350 21:53 24.01.2022
3477 Clouds 25 1003 73 10000 3.09 360 21:29 24.01.2022
3478 Clouds 26 1003 69 10000 3.6 340 20:30 24.01.2022
3479 Clouds 26 1002 69 10000 4.12 350 19:50 24.01.2022
3480 Clouds 26 1002 73 10000 3.6 360 19:24 24.01.2022
3481 Clouds 27 1003 69 10000 5.14 350 18:18 24.01.2022
3482 Clouds 28 1003 65 10000 5.14 30 17:24 24.01.2022
3483 Clouds 28 1004 57 10000 5.14 40 16:52 24.01.2022
3484 Clouds 30 1004 51 10000 4.12 60 16:19 24.01.2022
3485 Clouds 32 1003 40 10000 2.06 150 14:38 24.01.2022
3486 Clouds 31 1002 58 10000 2.57 240 12:58 24.01.2022
3487 Clouds 32 1002 55 10000 4.12 270 12:23 24.01.2022
3488 Clouds 36 1000 43 10000 0.45 37 10:30 24.01.2022
3489 Clouds 36 1000 43 10000 0.45 37 10:30 24.01.2022
3490 Clouds 36 1000 43 10000 0.45 37 09:48 24.01.2022
3491 Clouds 36 1000 43 10000 0.45 37 08:34 24.01.2022
3492 Clouds 36 1000 43 10000 0.45 37 06:40 24.01.2022
3493 Clouds 30 1005 62 10000 2.06 270 01:30 24.01.2022
3494 Clouds 28 1006 74 10000 2.57 320 00:36 24.01.2022
3495 Clouds 27 1006 78 10000 1.54 280 23:52 23.01.2022
3496 Clouds 25 1005 88 10000 0 0 22:32 23.01.2022
3497 Clouds 24 1005 94 10000 0 0 21:49 23.01.2022
3498 Clouds 24 1004 94 10000 0 0 21:25 23.01.2022
3499 Clouds 24 1004 94 10000 0 0 20:44 23.01.2022
3500 Clouds 25 1004 88 10000 0.51 170 19:44 23.01.2022
3501 Clouds 26 1004 78 10000 2.06 120 18:51 23.01.2022
3502 Clouds 27 1005 74 10000 3.6 110 17:44 23.01.2022
3503 Clouds 27 1005 74 10000 4.12 100 16:47 23.01.2022
3504 Clouds 28 1006 69 10000 3.6 80 14:59 23.01.2022
3505 Clouds 28 1006 69 10000 4.63 80 14:25 23.01.2022
3506 Clouds 30 1005 62 10000 6.17 120 12:59 23.01.2022
3507 Clouds 31 1004 51 10000 7.72 150 12:22 23.01.2022
3508 Clouds 31 1003 48 10000 2.57 190 11:59 23.01.2022
3509 Clouds 32 1003 51 10000 2.06 260 11:19 23.01.2022
3510 Clouds 34 1003 38 10000 2.57 270 10:27 23.01.2022
3511 Clouds 34 1003 36 10000 2.57 250 09:51 23.01.2022
3512 Clouds 36 1000 43 10000 0.45 37 08:54 23.01.2022
3513 Clouds 36 1000 43 10000 0.45 37 05:57 23.01.2022
3514 Clouds 28 1009 65 10000 4.63 310 01:52 23.01.2022
3515 Clouds 28 1009 65 10000 4.63 310 01:27 23.01.2022
3516 Clear 27 1009 74 10000 5.14 310 00:23 23.01.2022
3517 Clouds 26 1009 78 10000 4.63 330 23:56 22.01.2022
3518 Clear 25 1008 83 10000 5.14 360 22:46 22.01.2022
3519 Clear 24 1007 88 10000 3.09 360 21:36 22.01.2022
3520 Clear 25 1007 83 10000 2.57 320 19:51 22.01.2022
3521 Clouds 26 1007 78 10000 4.12 350 18:50 22.01.2022
3522 Clouds 26 1007 78 10000 3.09 360 18:18 22.01.2022
3523 Clouds 27 1007 74 10000 4.63 20 17:40 22.01.2022
3524 Rain 27 1008 74 10000 2.57 40 16:56 22.01.2022
3525 Rain 27 1008 74 10000 2.57 90 15:50 22.01.2022
3526 Clouds 28 1009 74 10000 3.6 50 14:58 22.01.2022
3527 Clouds 28 1008 74 10000 3.6 80 13:46 22.01.2022
3528 Clouds 30 1008 66 10000 4.12 90 12:52 22.01.2022
3529 Clouds 30 1008 62 10000 3.6 110 12:29 22.01.2022
3530 Rain 31 1007 58 10000 3.09 120 11:31 22.01.2022
3531 Clouds 31 1007 58 10000 2.57 130 10:29 22.01.2022
3532 Clouds 32 1006 48 10000 3.09 160 09:59 22.01.2022
3533 Clouds 32 1006 51 10000 4.12 130 08:52 22.01.2022
3534 Clouds 33 1007 43 10000 3.6 200 07:38 22.01.2022
3535 Clouds 36 1000 43 10000 0.45 37 04:53 22.01.2022
3536 Clouds 30 1001 59 10000 0.89 114 01:35 22.01.2022
3537 Clouds 25 1011 83 10000 0 0 23:38 21.01.2022
3538 Clouds 25 1011 83 10000 0 0 23:38 21.01.2022
3539 Clouds 23 1000 95 10000 0.45 226 22:28 21.01.2022
3540 Clouds 23 999 94 10000 1.34 183 20:22 21.01.2022
3541 Clouds 23 1000 99 10000 0.89 219 18:40 21.01.2022
3542 Clouds 22 1000 98 10000 1.34 234 17:31 21.01.2022
3543 Rain 22 1002 99 10000 0 0 15:42 21.01.2022
3544 Rain 23 1003 98 10000 1.34 231 13:37 21.01.2022
3545 Rain 26 1010 64 10000 1.08 179 12:38 21.01.2022
3546 Rain 25 1001 87 10000 1.34 263 11:27 21.01.2022
3547 Clouds 28 999 64 10000 4.92 288 10:19 21.01.2022
3548 Clouds 35 1007 38 10000 3.6 10 08:24 21.01.2022
3549 Clouds 35 1008 38 10000 3.6 190 06:57 21.01.2022
3550 Clouds 27 1000 61 10000 2.24 12 23:36 20.01.2022
3551 Clouds 26 1000 62 10000 0.89 2 22:24 20.01.2022
3552 Clouds 26 1000 61 10000 0.45 30 21:43 20.01.2022
3553 Clouds 27 999 60 10000 1.34 66 20:53 20.01.2022
3554 Clouds 27 999 68 10000 0.89 45 19:20 20.01.2022
3555 Clouds 27 999 65 10000 0.45 49 18:50 20.01.2022
3556 Clouds 26 1000 83 10000 0 0 17:29 20.01.2022
3557 Rain 27 1000 73 10000 0 0 15:43 20.01.2022
3558 Rain 28 1000 64 10000 0 0 15:22 20.01.2022
3559 Clouds 27 1001 72 10000 0 0 13:41 20.01.2022
3560 Clouds 30 999 53 10000 0 0 12:35 20.01.2022
3561 Clouds 30 999 50 10000 2.57 80 11:57 20.01.2022
3562 Clouds 32 999 43 10000 1.34 201 10:40 20.01.2022
3563 Clouds 33 998 36 10000 1.34 203 09:40 20.01.2022
3564 Clouds 35 998 31 10000 1.34 263 08:32 20.01.2022
3565 Clouds 33 1011 43 10000 4.63 70 05:32 20.01.2022
3566 Clouds 27 1002 61 10000 2.24 229 23:28 19.01.2022
3567 Clouds 25 1001 64 10000 2.24 247 22:32 19.01.2022
3568 Clouds 25 1000 68 10000 0.45 247 21:24 19.01.2022
3569 Clouds 25 1000 70 10000 0.89 216 20:50 19.01.2022
3570 Clouds 26 999 68 10000 1.79 252 19:54 19.01.2022
3571 Clouds 26 999 71 10000 1.79 251 18:40 19.01.2022
3572 Clouds 25 999 82 10000 0.51 180 17:45 19.01.2022
3573 Clouds 25 1000 91 10000 1.03 230 16:57 19.01.2022
3574 Clouds 27 1011 83 10000 1.54 40 14:42 19.01.2022
3575 Rain 29 1011 61 10000 2.57 150 12:43 19.01.2022
3576 Rain 29 999 54 10000 1.34 263 11:42 19.01.2022
3577 Clouds 30 999 52 10000 2.68 259 10:35 19.01.2022
3578 Clouds 31 998 51 10000 1.34 274 09:34 19.01.2022
3579 Clouds 32 999 48 10000 2.24 283 06:56 19.01.2022
3580 Clouds 26 1001 65 10000 2.24 272 02:41 19.01.2022
3581 Clouds 22 1001 83 10000 2.68 297 23:20 18.01.2022
3582 Clouds 22 1000 87 10000 1.79 235 22:34 18.01.2022
3583 Clouds 22 1000 88 10000 1.34 257 21:01 18.01.2022
3584 Clouds 22 999 88 10000 2.68 270 19:55 18.01.2022
3585 Clouds 22 999 88 10000 2.68 270 19:36 18.01.2022
3586 Clouds 23 999 83 10000 4.02 250 18:51 18.01.2022
3587 Clouds 23 998 91 10000 2.68 251 17:58 18.01.2022
3588 Clouds 23 999 94 10000 2.24 251 16:58 18.01.2022
3589 Clouds 23 999 99 10000 0.45 199 15:47 18.01.2022
3590 Clouds 24 1010 94 10000 2.57 160 15:21 18.01.2022
3591 Clouds 24 1009 88 10000 5.14 40 12:47 18.01.2022
3592 Clouds 32 983 48 10000 2.68 273 10:47 18.01.2022
3593 Clouds 34 1005 33 10000 4.63 250 08:59 18.01.2022
3594 Clouds 37 982 31 10000 2.68 20 07:51 18.01.2022
3595 Clouds 34 985 48 10000 0.89 46 02:34 18.01.2022
3596 Clouds 27 985 77 10000 0.89 45 23:38 17.01.2022
3597 Clouds 25 985 86 10000 4.12 310 22:26 17.01.2022
3598 Clouds 23 984 91 10000 0.45 45 21:34 17.01.2022
3599 Clouds 23 983 92 10000 0.45 45 20:24 17.01.2022
3600 Clouds 24 1006 94 10000 4.12 330 18:30 17.01.2022
3601 Clouds 24 983 92 10000 3.6 340 17:25 17.01.2022
3602 Clouds 24 1007 94 10000 2.57 320 16:35 17.01.2022
3603 Clouds 25 1007 88 10000 4.63 330 15:19 17.01.2022
3604 Clouds 24 1007 94 10000 3.6 350 14:43 17.01.2022
3605 Clouds 24 1006 94 10000 3.09 360 13:22 17.01.2022
3606 Rain 24 1006 94 10000 2.57 340 12:55 17.01.2022
3607 Rain 25 1006 83 10000 5.14 310 11:48 17.01.2022
3608 Rain 24 1005 94 10000 5.14 310 10:21 17.01.2022
3609 Thunderstorm 24 1005 88 5000 10.8 330 09:34 17.01.2022
3610 Clouds 29 1005 65 10000 6.17 350 07:23 17.01.2022
3611 Clouds 28 1007 61 10000 6.69 360 02:55 17.01.2022
3612 Clouds 24 1008 83 10000 5.66 60 00:55 17.01.2022
3613 Rain 23 1008 83 10000 7.2 40 22:18 16.01.2022
3614 Clouds 22 1008 94 10000 5.66 60 20:35 16.01.2022
3615 Clouds 21 1008 100 10000 6.69 90 18:51 16.01.2022
3616 Rain 21 1009 100 10000 6.69 90 17:59 16.01.2022
3617 Rain 21 1011 100 3300 5.14 10 16:59 16.01.2022
3618 Rain 22 1011 94 6000 5.14 60 16:29 16.01.2022
3619 -273 0 0 0 0 0 14:31 16.01.2022
3620 Rain 23 1010 88 10000 9.77 330 14:30 16.01.2022
3621 Rain 29 1007 48 10000 4.12 80 13:33 16.01.2022
3622 Clouds 30 1007 42 10000 4.12 120 12:22 16.01.2022
3623 Clouds 30 1006 42 10000 5.66 120 11:38 16.01.2022
3624 Clouds 32 1006 37 10000 6.17 100 10:43 16.01.2022
3625 Clouds 32 1006 40 10000 5.66 120 09:58 16.01.2022
3626 Clouds 32 1005 40 10000 5.66 100 09:38 16.01.2022
3627 Clouds 32 1005 40 10000 5.66 100 09:19 16.01.2022
3628 Clouds 32 1007 40 10000 4.63 100 07:19 16.01.2022
3629 Clouds 26 1010 65 10000 2.57 260 00:35 16.01.2022
3630 Clouds 25 1009 73 10000 0 0 22:53 15.01.2022
3631 Clouds 24 1010 83 10000 3.09 40 21:22 15.01.2022
3632 Clouds 24 1009 78 10000 1.54 20 20:44 15.01.2022
3633 Clouds 24 1009 78 10000 1.54 20 20:21 15.01.2022
3634 Clouds 25 1008 69 10000 3.09 130 19:26 15.01.2022
3635 Clouds 26 1007 61 10000 3.6 160 18:18 15.01.2022
3636 Clouds 25 1009 69 10000 3.6 290 16:49 15.01.2022
3637 Clouds 27 1010 61 10000 2.06 160 14:36 15.01.2022
3638 Clouds 28 1009 54 10000 5.66 160 12:39 15.01.2022
3639 Clouds 28 1009 54 10000 7.2 70 11:21 15.01.2022
3640 Clouds 26 1007 65 10000 7.72 300 09:46 15.01.2022
3641 Clouds 35 1009 29 10000 9.77 310 01:27 15.01.2022
3642 Clouds 32 1008 33 10000 4.63 300 23:20 14.01.2022
3643 Clouds 31 1006 30 10000 3.6 310 20:57 14.01.2022
3644 Clouds 31 1006 30 10000 3.09 340 20:24 14.01.2022
3645 Clouds 31 1006 30 10000 3.6 350 19:49 14.01.2022
3646 Clouds 31 1006 30 10000 3.09 330 18:33 14.01.2022
3647 Clouds 31 1007 29 10000 3.09 350 16:57 14.01.2022
3648 Clouds 32 1007 25 10000 4.63 350 16:38 14.01.2022
3649 Clouds 30 1007 21 10000 2.06 90 14:50 14.01.2022
3650 Clouds 30 1007 19 10000 2.06 70 14:20 14.01.2022
3651 Clouds 34 1006 15 10000 0 0 12:37 14.01.2022
3652 Clouds 37 1006 12 10000 3.6 30 11:34 14.01.2022
3653 Clouds 40 1006 9 10000 3.09 90 10:22 14.01.2022
3654 Clouds 41 1005 11 10000 1.54 200 08:52 14.01.2022
3655 Clouds 41 1006 11 10000 3.09 50 07:27 14.01.2022
3656 Clouds 33 1011 29 10000 4.12 290 01:43 14.01.2022
3657 Clouds 29 1011 42 10000 3.09 340 23:39 13.01.2022
3658 Clouds 26 1010 50 10000 0.51 20 21:45 13.01.2022
3659 Clouds 26 1010 50 10000 2.57 360 21:27 13.01.2022
3660 Clouds 29 1010 39 10000 3.09 60 19:44 13.01.2022
3661 Clouds 29 1010 39 10000 3.09 60 19:22 13.01.2022
3662 Clouds 30 1008 37 10000 4.63 340 17:56 13.01.2022
3663 Clouds 31 1009 35 10000 0 0 16:22 13.01.2022
3664 Clouds 32 1010 31 10000 3.09 360 15:38 13.01.2022
3665 Clouds 32 1010 29 10000 1.54 310 14:49 13.01.2022
3666 Clouds 35 1009 26 10000 5.66 350 12:54 13.01.2022
3667 Clouds 41 1007 10 10000 4.12 150 10:25 13.01.2022
3668 Clouds 41 1007 11 10000 4.63 140 09:20 13.01.2022
3669 Clouds 42 1007 12 10000 5.14 90 08:27 13.01.2022
3670 Clear 41 1008 11 10000 5.14 100 07:24 13.01.2022
3671 Clear 41 1009 12 10000 2.57 240 06:38 13.01.2022
3672 Clear 40 1010 12 10000 4.12 50 05:20 13.01.2022
3673 Clear 37 1013 12 10000 3.6 100 02:33 13.01.2022
3674 Clear 34 1013 12 10000 5.14 120 00:56 13.01.2022
3675 Clear 33 1013 11 10000 6.17 110 23:49 12.01.2022
3676 Clear 32 1013 12 10000 4.63 130 23:24 12.01.2022
3677 Clear 30 1012 13 10000 4.12 140 21:57 12.01.2022
3678 Clear 31 1011 12 10000 5.14 140 21:23 12.01.2022
3679 Clear 31 1011 13 10000 4.63 140 20:57 12.01.2022
3680 Clear 31 1011 14 10000 4.63 140 19:55 12.01.2022
3681 Clouds 32 1011 25 10000 5.66 170 18:43 12.01.2022
3682 Clouds 29 1011 30 10000 0 0 17:38 12.01.2022
3683 Clouds 32 1011 25 10000 1.54 10 16:33 12.01.2022
3684 Clouds 34 1012 18 10000 3.6 110 14:48 12.01.2022
3685 Clouds 35 1011 14 10000 3.6 130 13:24 12.01.2022
3686 Clouds 38 1010 12 10000 5.66 140 11:59 12.01.2022
3687 Clouds 41 1009 10 10000 8.75 130 08:43 12.01.2022
3688 Clouds 41 1009 9 10000 5.66 110 07:50 12.01.2022
3689 Clouds 41 1010 10 10000 7.72 110 07:31 12.01.2022
3690 Clear 33 1014 17 10000 3.6 150 23:53 11.01.2022
3691 Clear 30 1014 19 10000 2.06 80 22:56 11.01.2022
3692 Clear 28 1014 21 10000 2.57 120 22:23 11.01.2022
3693 Clear 28 1012 20 10000 3.09 120 20:56 11.01.2022
3694 Clear 28 1012 20 10000 2.06 70 20:20 11.01.2022
3695 Clouds 27 1012 22 10000 3.6 140 18:32 11.01.2022
3696 Clouds 30 1012 16 10000 0 0 17:26 11.01.2022
3697 Clouds 32 1012 14 10000 4.12 160 16:38 11.01.2022
3698 Clouds 32 1012 14 10000 4.63 160 15:47 11.01.2022
3699 Clouds 32 1012 18 10000 3.6 160 14:42 11.01.2022
3700 Clear 32 1012 18 10000 3.6 150 13:56 11.01.2022
3701 Clear 34 1012 15 10000 3.6 140 13:36 11.01.2022
3702 Clear 36 1012 13 10000 4.12 140 12:48 11.01.2022
3703 Clear 37 1011 12 10000 4.63 140 11:45 11.01.2022
3704 Clear 41 1009 9 10000 7.72 130 09:39 11.01.2022
3705 Clear 41 1010 8 10000 7.72 130 07:18 11.01.2022
3706 Clear 33 1015 11 10000 3.6 90 00:33 11.01.2022
3707 Clear 27 1014 17 10000 0 0 23:44 10.01.2022
3708 Clear 27 1014 17 10000 0 0 23:24 10.01.2022
3709 Clear 21 1013 28 10000 0 0 22:19 10.01.2022
3710 Clear 21 1013 28 10000 0 0 22:19 10.01.2022
3711 Clear 21 1013 28 10000 1.54 250 21:54 10.01.2022
3712 Clear 22 1012 23 10000 0 0 21:21 10.01.2022
3713 Clear 22 1011 24 10000 1.03 200 20:57 10.01.2022
3714 Clear 24 1011 22 10000 1.03 100 20:28 10.01.2022
3715 Clear 27 1011 14 10000 2.57 90 19:44 10.01.2022
3716 Clear 27 1011 14 10000 2.57 90 19:21 10.01.2022
3717 Clear 25 1011 22 10000 2.06 100 18:49 10.01.2022
3718 Clear 25 1011 22 10000 2.06 90 17:56 10.01.2022
3719 Clear 27 1011 18 10000 3.09 80 16:42 10.01.2022
3720 Clear 29 1011 14 10000 3.6 70 15:49 10.01.2022
3721 Clear 31 1011 12 10000 3.09 100 14:34 10.01.2022
3722 Clear 36 1010 11 10000 4.12 120 12:18 10.01.2022
3723 Clear 39 1009 8 10000 4.63 120 11:25 10.01.2022
3724 Clear 41 1009 8 10000 4.12 170 09:52 10.01.2022
3725 Clear 42 1008 8 10000 5.14 200 08:22 10.01.2022
3726 Clear 42 1009 9 10000 4.63 160 05:49 10.01.2022
3727 Clear 36 1012 11 10000 5.66 10 01:33 10.01.2022
3728 Clear 34 1012 13 10000 3.6 50 00:29 10.01.2022
3729 Clear 30 1012 16 10000 2.57 70 23:43 09.01.2022
3730 Clear 26 1011 21 10000 2.57 60 22:40 09.01.2022
3731 Clear 25 1011 22 10000 2.57 50 21:47 09.01.2022
3732 Clear 24 1011 23 10000 2.57 60 21:24 09.01.2022
3733 Clear 24 1011 23 10000 2.57 60 21:24 09.01.2022
3734 Clear 24 1010 22 10000 0 0 20:53 09.01.2022
3735 Clear 23 1010 25 10000 0 0 20:34 09.01.2022
3736 Clear 23 1010 25 10000 0 0 19:45 09.01.2022
3737 Clear 24 1010 23 10000 2.06 90 19:23 09.01.2022
3738 Clear 24 1010 25 10000 2.57 100 18:56 09.01.2022
3739 Clear 25 1010 20 10000 3.09 60 18:35 09.01.2022
3740 Clear 26 1010 19 10000 3.6 80 17:45 09.01.2022
3741 Clear 26 1010 19 10000 2.57 70 17:21 09.01.2022
3742 Clear 27 1010 18 10000 3.09 50 15:59 09.01.2022
3743 Clear 27 1010 18 10000 3.6 60 15:36 09.01.2022
3744 Clear 30 1010 14 10000 3.6 90 14:41 09.01.2022
3745 Clear 31 1010 13 10000 3.6 110 13:51 09.01.2022
3746 Clear 33 1009 13 10000 5.66 90 13:25 09.01.2022
3747 Clear 35 1008 12 10000 6.17 120 11:55 09.01.2022
3748 Clear 38 1007 10 10000 3.6 140 10:53 09.01.2022
3749 Clear 39 1007 10 10000 1.54 190 09:50 09.01.2022
3750 Clear 39 1007 10 10000 3.6 220 08:52 09.01.2022
3751 Clear 38 1009 10 10000 3.6 100 05:38 09.01.2022
3752 Clear 32 1013 14 10000 5.66 70 01:24 09.01.2022
3753 Clear 27 1013 22 10000 1.03 100 23:47 08.01.2022
3754 Clear 27 1013 22 10000 1.54 90 23:26 08.01.2022
3755 Clear 18 1013 42 10000 1.54 170 22:30 08.01.2022
3756 Clear 19 1012 32 10000 2.57 100 21:26 08.01.2022
3757 Clear 21 1011 28 10000 3.6 90 20:42 08.01.2022
3758 Clear 21 1011 28 10000 3.6 90 20:21 08.01.2022
3759 Clear 22 1011 26 10000 2.57 90 18:45 08.01.2022
3760 Clear 23 1011 27 10000 3.09 90 17:23 08.01.2022
3761 Clear 24 1012 25 10000 2.57 80 15:58 08.01.2022
3762 Clear 26 1012 24 10000 3.6 100 14:46 08.01.2022
3763 Clear 29 1012 20 10000 3.6 120 13:29 08.01.2022
3764 Clear 32 1010 14 10000 5.14 130 11:28 08.01.2022
3765 Clear 34 1010 14 10000 5.14 140 10:30 08.01.2022
3766 Clear 34 1010 13 10000 5.66 140 09:48 08.01.2022
3767 Clear 35 1010 12 10000 3.6 130 09:28 08.01.2022
3768 Clear 32 1013 17 10000 3.6 80 03:45 08.01.2022
3769 Clear 27 1014 24 10000 7.72 90 00:57 08.01.2022
3770 Clear 21 1014 30 10000 0 0 22:54 07.01.2022
3771 Clear 17 1013 39 10000 2.57 140 21:21 07.01.2022
3772 Clear 18 1012 36 10000 2.06 70 20:23 07.01.2022
3773 Clear 19 1012 32 10000 2.06 80 19:26 07.01.2022
3774 Clear 21 1012 28 10000 2.06 100 18:45 07.01.2022
3775 Clear 24 1013 23 10000 3.6 120 17:28 07.01.2022
3776 Clear 23 1013 25 10000 3.09 100 16:41 07.01.2022
3777 Clear 25 1013 22 10000 3.09 130 14:37 07.01.2022
3778 Clear 27 1013 19 10000 3.6 130 13:41 07.01.2022
3779 Clear 27 1013 18 10000 3.09 130 12:50 07.01.2022
3780 Clear 33 1011 13 10000 4.63 150 09:48 07.01.2022
3781 Clear 30 1014 15 6000 4.12 90 02:58 07.01.2022
3782 Clear 29 1014 17 10000 4.63 110 02:19 07.01.2022
3783 Clear 28 1014 18 10000 4.63 110 01:41 07.01.2022
3784 Clear 28 1014 18 10000 4.63 110 01:20 07.01.2022
3785 Clouds 26 1014 21 10000 5.66 110 00:28 07.01.2022
3786 Clouds 17 1013 42 10000 0 0 21:40 06.01.2022
3787 Clouds 18 1013 39 10000 0 0 20:36 06.01.2022
3788 Clouds 19 1012 37 10000 1.54 320 19:54 06.01.2022
3789 Clear 20 1012 32 10000 0 0 19:28 06.01.2022
3790 Clear 23 1011 27 10000 3.6 130 17:42 06.01.2022
3791 Clear 23 1011 27 10000 3.6 130 17:19 06.01.2022
3792 Clear 25 1011 23 10000 3.6 130 16:21 06.01.2022
3793 Clear 26 1011 22 10000 4.63 120 15:39 06.01.2022
3794 Clear 27 1011 22 10000 6.69 120 15:19 06.01.2022
3795 Clear 27 1011 22 10000 3.6 120 14:19 06.01.2022
3796 Clear 28 1011 21 10000 3.09 130 12:58 06.01.2022
3797 Clear 31 1010 16 10000 3.6 130 11:50 06.01.2022
3798 Clear 32 1010 14 10000 4.12 140 11:28 06.01.2022
3799 Clear 35 1009 13 10000 6.69 190 08:59 06.01.2022
3800 Clear 28 1012 20 10000 3.6 130 01:51 06.01.2022
3801 Clear 25 1013 23 10000 6.17 120 23:40 05.01.2022
3802 Clear 23 1012 28 10000 4.63 130 22:59 05.01.2022
3803 Clear 22 1012 33 10000 2.57 140 22:33 05.01.2022
3804 Clear 21 1012 35 10000 3.6 130 21:54 05.01.2022
3805 Clear 20 1012 37 10000 3.09 110 21:21 05.01.2022
3806 Clear 23 1011 31 10000 3.6 120 20:19 05.01.2022
3807 Clear 23 1011 33 10000 3.6 120 18:54 05.01.2022
3808 Clear 23 1011 33 10000 2.06 110 17:45 05.01.2022
3809 Clear 25 1011 29 10000 3.09 120 16:51 05.01.2022
3810 Clear 26 1011 27 10000 3.09 80 15:46 05.01.2022
3811 Clear 29 1011 23 10000 4.12 120 14:28 05.01.2022
3812 Clear 29 1010 23 10000 3.6 120 13:32 05.01.2022
3813 Clear 32 1010 18 10000 4.63 140 11:45 05.01.2022
3814 Clear 37 1008 12 10000 6.69 150 08:20 05.01.2022
3815 Clear 36 1009 11 10000 4.63 160 06:25 05.01.2022
3816 Clear 30 1014 12 10000 5.14 110 00:59 05.01.2022
3817 Clear 27 1013 14 10000 3.09 130 23:29 04.01.2022
3818 Clear 26 1013 19 10000 2.57 160 22:58 04.01.2022
3819 Clear 23 1012 21 10000 0 0 21:31 04.01.2022
3820 Clear 23 1012 21 10000 0 0 21:31 04.01.2022
3821 Clear 25 1012 16 10000 2.06 100 19:22 04.01.2022
3822 Clear 26 1012 15 10000 0 0 17:54 04.01.2022
3823 Clear 29 1012 13 10000 4.12 130 16:53 04.01.2022
3824 Clear 31 1012 11 10000 6.17 140 16:25 04.01.2022
3825 Clear 32 1012 12 10000 5.14 140 14:54 04.01.2022
3826 Clear 33 1011 12 10000 6.69 140 14:35 04.01.2022
3827 Clouds 34 1011 15 10000 5.66 140 13:29 04.01.2022
3828 Clouds 38 1009 13 10000 6.17 180 10:41 04.01.2022
3829 Clouds 39 1008 11 10000 6.17 120 09:47 04.01.2022
3830 Clouds 39 1008 13 10000 3.6 180 08:34 04.01.2022
3831 Clear 37 1012 18 10000 6.69 130 02:52 04.01.2022
3832 Clear 33 1013 22 10000 6.69 110 00:41 04.01.2022
3833 Clear 29 1012 21 10000 2.06 170 23:34 03.01.2022
3834 Clear 24 1011 25 10000 1.54 160 21:52 03.01.2022
3835 Clear 22 1011 30 10000 0 0 21:33 03.01.2022
3836 Clear 23 1010 28 10000 2.06 110 20:22 03.01.2022
3837 Clouds 24 1009 29 10000 0 0 18:54 03.01.2022
3838 Clouds 24 1009 27 10000 0 0 18:28 03.01.2022
3839 Clouds 25 1009 25 10000 0 0 16:58 03.01.2022
3840 Clear 27 1009 22 10000 0 0 15:39 03.01.2022
3841 Clear 28 1009 20 10000 2.06 140 14:30 03.01.2022
3842 Clear 32 1008 13 10000 3.09 140 12:46 03.01.2022
3843 Clear 37 1008 11 10000 5.66 130 11:38 03.01.2022
3844 Clear 39 1007 10 10000 5.14 140 10:36 03.01.2022
3845 Clear 41 1007 9 10000 7.72 130 08:47 03.01.2022
3846 Clear 40 1008 10 10000 5.66 110 07:36 03.01.2022
3847 Clear 33 1010 18 10000 5.66 110 23:56 02.01.2022
3848 Clear 31 1010 20 10000 3.09 130 23:22 02.01.2022
3849 Clear 27 1010 29 10000 0 0 22:53 02.01.2022
3850 Clear 23 1009 35 10000 0 0 21:42 02.01.2022
3851 Clear 24 1008 33 10000 0 0 20:33 02.01.2022
3852 Clear 24 1008 33 10000 0 0 19:55 02.01.2022
3853 Clear 25 1008 31 10000 0 0 19:30 02.01.2022
3854 Clear 25 1008 33 10000 0 0 18:44 02.01.2022
3855 Clear 27 1008 28 10000 1.03 90 17:44 02.01.2022
3856 Clear 27 1008 28 10000 1.03 90 17:22 02.01.2022
3857 Clear 28 1008 24 10000 2.57 90 16:59 02.01.2022
3858 Clear 29 1008 23 10000 2.57 40 16:24 02.01.2022
3859 Clear 31 1008 20 10000 3.09 130 14:22 02.01.2022
3860 Clear 34 1007 16 10000 4.12 160 12:49 02.01.2022
3861 Clouds 36 1006 14 10000 3.6 160 11:57 02.01.2022
3862 Clouds 37 1006 12 10000 4.12 170 11:23 02.01.2022
3863 Clouds 39 1006 11 10000 6.17 190 10:44 02.01.2022
3864 Clouds 42 1005 9 10000 4.12 170 08:42 02.01.2022
3865 Clear 39 1008 13 10000 2.06 170 03:25 02.01.2022
3866 Clear 34 1008 18 10000 2.57 270 00:58 02.01.2022
3867 Clear 29 1008 24 10000 3.09 270 23:39 01.01.2022
3868 Clear 27 1008 28 10000 3.09 280 22:55 01.01.2022
3869 Clear 25 1007 31 10000 2.57 270 22:21 01.01.2022
3870 Clear 23 1007 38 10000 2.57 280 21:43 01.01.2022
3871 Clear 23 1006 40 10000 3.6 280 20:53 01.01.2022
3872 Clear 25 1006 36 10000 3.6 290 19:55 01.01.2022
3873 Clouds 24 1006 41 10000 3.6 290 18:58 01.01.2022
3874 Clouds 26 1006 38 10000 3.09 330 17:57 01.01.2022
3875 Clouds 28 1006 34 10000 2.57 300 16:35 01.01.2022
3876 Clouds 29 1006 32 10000 1.54 320 15:57 01.01.2022
3877 Clouds 30 1007 32 10000 0 0 14:57 01.01.2022
3878 Clouds 31 1006 29 10000 0 0 13:42 01.01.2022
3879 Clouds 33 1006 25 10000 0 0 12:49 01.01.2022
3880 Clouds 35 1005 21 10000 0 0 11:47 01.01.2022
3881 Clouds 36 1005 20 10000 2.57 230 11:20 01.01.2022
3882 Clouds 38 1004 17 10000 6.69 240 09:49 01.01.2022
3883 Clouds 39 1004 16 10000 7.2 230 09:21 01.01.2022
3884 Clouds 40 1004 13 10000 7.2 270 08:24 01.01.2022
3885 Clouds 39 1004 15 10000 6.69 280 07:41 01.01.2022
3886 Clouds 40 1004 15 10000 5.66 270 06:45 01.01.2022
3887 Clouds 39 1006 16 10000 7.72 270 05:26 01.01.2022
3888 Clear 39 1006 17 10000 7.72 300 04:37 01.01.2022
3889 Clouds 34 1007 27 10000 7.72 330 00:41 01.01.2022
3890 Clouds 30 1007 32 10000 3.6 350 22:59 31.12.2021
3891 Clouds 24 1007 57 10000 1.03 310 21:52 31.12.2021
3892 Clear 25 1006 57 10000 0 0 20:32 31.12.2021
3893 Clouds 25 1006 57 10000 0.51 250 19:29 31.12.2021
3894 Clouds 25 1006 53 10000 2.06 230 18:30 31.12.2021
3895 Clouds 24 1006 57 10000 0 0 17:37 31.12.2021
3896 Clouds 24 1006 57 10000 0 0 17:18 31.12.2021
3897 Clouds 25 1007 53 10000 1.54 60 16:19 31.12.2021
3898 Clouds 26 1007 50 10000 2.06 80 15:53 31.12.2021
3899 Clouds 26 1007 50 10000 0 0 15:28 31.12.2021
3900 Clouds 28 1007 42 10000 3.09 70 14:41 31.12.2021
3901 Clouds 28 1007 42 10000 2.57 60 13:58 31.12.2021
3902 Clouds 29 1007 39 10000 3.6 70 13:35 31.12.2021
3903 Clouds 30 1007 35 10000 4.12 80 12:44 31.12.2021
3904 Clouds 31 1006 30 10000 4.63 110 11:43 31.12.2021
3905 Clouds 31 1006 30 10000 4.63 110 11:19 31.12.2021
3906 Clouds 32 1007 31 10000 1.03 350 10:30 31.12.2021
3907 Clouds 33 1006 25 10000 3.09 110 09:35 31.12.2021
3908 Clouds 33 1006 27 10000 4.12 210 08:56 31.12.2021
3909 Clouds 34 1005 24 10000 4.63 70 08:25 31.12.2021
3910 Clouds 37 1005 19 10000 3.6 110 06:39 31.12.2021
3911 Clouds 30 1008 25 10000 4.12 40 23:23 30.12.2021
3912 Clouds 26 1008 31 10000 1.54 120 22:32 30.12.2021
3913 Clouds 26 1007 31 10000 4.63 50 21:41 30.12.2021
3914 Clouds 26 1007 31 10000 4.63 50 21:22 30.12.2021
3915 Clouds 25 1007 33 10000 3.09 50 20:43 30.12.2021
3916 Clouds 25 1007 33 10000 3.09 50 20:23 30.12.2021
3917 Clouds 23 1007 35 10000 3.09 70 19:36 30.12.2021
3918 Clouds 23 1007 40 10000 3.09 110 18:29 30.12.2021
3919 Clouds 24 1008 41 10000 0 0 17:38 30.12.2021
3920 Clouds 28 1008 26 10000 2.57 90 15:55 30.12.2021
3921 Clouds 28 1008 26 10000 2.57 80 15:36 30.12.2021
3922 Clouds 29 1008 24 10000 2.57 40 14:36 30.12.2021
3923 Clouds 31 1008 22 10000 3.6 110 13:31 30.12.2021
3924 Clouds 33 1008 18 10000 5.14 130 11:59 30.12.2021
3925 Clouds 35 1007 14 10000 7.2 140 10:44 30.12.2021
3926 Clouds 35 1007 13 10000 7.72 140 09:50 30.12.2021
3927 Clouds 38 1007 13 10000 4.63 70 07:42 30.12.2021
3928 Clouds 37 1007 12 10000 2.57 40 06:38 30.12.2021
3929 Clouds 36 1009 13 10000 5.66 100 03:41 30.12.2021
3930 Clouds 34 1010 15 10000 4.12 90 02:35 30.12.2021
3931 Clouds 26 1009 18 10000 2.57 280 23:40 29.12.2021
3932 Clouds 23 1009 23 10000 2.57 270 22:59 29.12.2021
3933 Clouds 20 1009 30 10000 3.09 260 22:18 29.12.2021
3934 Clouds 18 1008 34 10000 0.51 240 21:19 29.12.2021
3935 Clouds 21 1008 28 10000 0 0 20:30 29.12.2021
3936 Clouds 21 1008 28 10000 0 0 20:30 29.12.2021
3937 Clouds 21 1008 26 10000 0 0 19:43 29.12.2021
3938 Clouds 21 1008 28 10000 0 0 18:44 29.12.2021
3939 Clouds 20 1008 26 10000 0 0 17:52 29.12.2021
3940 Clouds 21 1009 23 10000 0 0 17:27 29.12.2021
3941 Clear 22 1009 21 10000 0 0 16:22 29.12.2021
3942 Clear 23 1010 18 10000 0 0 15:26 29.12.2021
3943 Clear 26 1010 13 10000 2.57 170 13:42 29.12.2021
3944 Clear 29 1009 10 10000 3.6 150 12:35 29.12.2021
3945 Clear 31 1008 10 10000 3.6 140 11:25 29.12.2021
3946 Clear 35 1007 8 10000 6.69 130 09:46 29.12.2021
3947 Clear 36 1007 9 10000 4.63 180 07:47 29.12.2021
3948 Clear 35 1007 9 10000 3.6 150 06:37 29.12.2021
3949 Clear 35 1008 8 10000 4.12 110 05:57 29.12.2021
3950 Clear 35 1008 8 10000 5.66 90 05:30 29.12.2021
3951 Clear 32 1009 10 10000 7.72 90 01:45 29.12.2021
3952 Clouds 26 1010 14 10000 3.09 90 00:00 29.12.2021
3953 Clouds 24 1010 17 10000 0 0 23:18 28.12.2021
3954 Clouds 16 1010 36 10000 0 0 22:26 28.12.2021
3955 Clouds 15 1010 38 10000 0 0 21:56 28.12.2021
3956 Clouds 15 1009 38 10000 2.06 340 21:35 28.12.2021
3957 Clear 17 1009 27 10000 1.54 280 20:32 28.12.2021
3958 Clear 17 1009 31 10000 2.57 280 18:56 28.12.2021
3959 Clear 17 1009 31 10000 2.06 270 18:28 28.12.2021
3960 Clear 19 1009 26 10000 0 0 17:42 28.12.2021
3961 Clear 20 1009 24 10000 0 0 16:25 28.12.2021
3962 Clear 21 1010 21 10000 0 0 15:41 28.12.2021
3963 Clear 23 1010 16 10000 2.06 130 14:57 28.12.2021
3964 Clear 23 1010 16 10000 2.06 130 14:57 28.12.2021
3965 Clear 24 1010 15 10000 2.57 140 14:38 28.12.2021
3966 Clear 24 1010 15 10000 2.57 140 14:20 28.12.2021
3967 Clear 25 1009 13 10000 3.6 130 13:38 28.12.2021
3968 Clear 26 1009 12 10000 3.6 140 12:56 28.12.2021
3969 Clear 27 1009 12 10000 3.6 140 12:38 28.12.2021
3970 Clear 33 1008 9 10000 6.17 140 10:52 28.12.2021
3971 Clear 34 1007 11 10000 5.66 100 07:39 28.12.2021
3972 Clear 35 1008 11 10000 6.17 110 06:40 28.12.2021
3973 Clear 26 1011 19 10000 4.63 110 23:42 27.12.2021
3974 Clear 22 1011 24 10000 3.6 110 22:31 27.12.2021
3975 Clear 24 1010 20 10000 5.66 110 21:32 27.12.2021
3976 Clear 25 1010 19 10000 4.63 110 20:45 27.12.2021
3977 Clear 24 1010 23 10000 1.54 110 19:56 27.12.2021
3978 Clear 23 1010 27 10000 2.57 120 19:38 27.12.2021
3979 Clear 26 1010 24 10000 5.14 130 17:55 27.12.2021
3980 Clear 25 1010 29 10000 4.12 130 17:29 27.12.2021
3981 Clear 26 1010 27 10000 3.09 50 16:32 27.12.2021
3982 Clear 25 1010 29 10000 1.03 100 15:50 27.12.2021
3983 Clear 27 1010 26 10000 2.57 130 14:29 27.12.2021
3984 Clear 28 1010 23 10000 3.09 130 13:32 27.12.2021
3985 Clear 32 1009 15 10000 4.63 130 11:34 27.12.2021
3986 Clear 34 1008 14 10000 6.69 130 10:27 27.12.2021
3987 Clear 35 1008 14 10000 8.23 130 09:38 27.12.2021
3988 Clear 35 1008 14 10000 7.2 110 07:35 27.12.2021
3989 Clear 35 1009 16 10000 7.2 110 06:30 27.12.2021
3990 Clear 35 1009 16 10000 7.2 110 06:30 27.12.2021
3991 Clear 31 1012 25 10000 7.72 120 01:59 27.12.2021
3992 Clear 27 1013 28 10000 3.6 150 23:52 26.12.2021
3993 Clear 25 1012 29 10000 0 0 23:34 26.12.2021
3994 Clear 20 1012 37 10000 1.54 230 21:48 26.12.2021
3995 Clear 21 1011 35 10000 3.09 180 20:31 26.12.2021
3996 Clear 21 1011 30 10000 3.6 160 19:27 26.12.2021
3997 Clear 22 1011 30 10000 3.09 180 18:23 26.12.2021
3998 Clear 28 1012 18 10000 3.6 150 15:55 26.12.2021
3999 Clear 29 1011 23 10000 3.6 150 13:52 26.12.2021
4000 Clear 31 1011 20 10000 5.14 150 13:32 26.12.2021
4001 Clear 32 1011 18 10000 4.12 140 12:37 26.12.2021
4002 Clear 33 1011 17 10000 4.63 140 11:57 26.12.2021
4003 Clear 37 1009 12 10000 7.2 150 09:44 26.12.2021
4004 Clear 37 1009 12 10000 8.23 160 08:59 26.12.2021
4005 Clear 37 1009 13 10000 5.66 150 08:38 26.12.2021
4006 Clear 37 1009 13 10000 7.72 140 06:47 26.12.2021
4007 Clear 30 1014 21 10000 6.17 120 00:58 26.12.2021
4008 Clear 29 1014 24 10000 5.14 120 23:50 25.12.2021
4009 Clear 28 1014 26 10000 4.63 110 23:26 25.12.2021
4010 Clear 24 1013 33 10000 2.06 120 22:22 25.12.2021
4011 Clear 21 1012 43 10000 2.06 190 20:48 25.12.2021
4012 Clouds 23 1011 33 10000 2.57 350 19:21 25.12.2021
4013 Clouds 22 1011 40 10000 0 0 18:54 25.12.2021
4014 Clouds 25 1011 31 10000 1.54 40 16:58 25.12.2021
4015 Clouds 27 1011 26 10000 2.06 30 15:54 25.12.2021
4016 Clouds 26 1011 36 10000 2.06 160 14:25 25.12.2021
4017 Clouds 31 1010 23 10000 2.06 100 12:43 25.12.2021
4018 Clouds 33 1010 21 10000 0 0 11:27 25.12.2021
4019 Clouds 35 1009 17 10000 4.63 100 09:49 25.12.2021
4020 Clouds 36 1009 16 10000 5.14 140 07:51 25.12.2021
4021 Clouds 32 1013 25 10000 2.57 130 01:45 25.12.2021
4022 Clouds 31 1014 30 10000 3.09 190 00:30 25.12.2021
4023 Clouds 25 1012 50 10000 2.06 340 22:40 24.12.2021
4024 Clouds 26 1011 47 10000 3.6 270 19:38 24.12.2021
4025 Clouds 26 1011 47 10000 3.6 270 19:19 24.12.2021
4026 Clouds 26 1012 50 10000 0 0 16:50 24.12.2021
4027 Clouds 28 1012 42 10000 2.57 360 15:54 24.12.2021
4028 Clouds 28 1012 36 10000 2.57 350 15:34 24.12.2021
4029 Clouds 28 1012 32 10000 2.57 50 14:40 24.12.2021
4030 Clouds 28 1012 32 10000 2.57 50 14:19 24.12.2021
4031 Clouds 29 1012 30 10000 3.6 50 13:34 24.12.2021
4032 Rain 30 1012 28 10000 4.12 60 12:47 24.12.2021
4033 Clouds 31 1011 29 10000 3.6 70 11:52 24.12.2021
4034 Clouds 31 1011 30 10000 3.6 70 11:26 24.12.2021
4035 Clouds 32 1011 27 10000 4.63 50 10:46 24.12.2021
4036 Clouds 32 1010 25 10000 3.6 30 09:33 24.12.2021
4037 Clouds 33 1010 22 10000 5.14 30 08:23 24.12.2021
4038 Clouds 33 1010 21 10000 4.12 30 07:47 24.12.2021
4039 Clouds 30 1013 32 10000 4.63 360 02:33 24.12.2021
4040 Clouds 26 1013 53 10000 7.2 360 23:56 23.12.2021
4041 Clouds 25 1012 57 10000 5.66 320 22:58 23.12.2021
4042 Clouds 24 1011 60 10000 7.2 340 22:37 23.12.2021
4043 Clouds 24 1011 60 10000 7.2 340 22:18 23.12.2021
4044 Clouds 25 1011 53 10000 9.77 350 20:56 23.12.2021
4045 Clouds 25 1011 50 10000 7.2 10 19:47 23.12.2021
4046 Clouds 25 1011 53 10000 8.75 10 18:35 23.12.2021
4047 Clouds 25 1011 53 10000 8.75 20 17:56 23.12.2021
4048 Clouds 25 1012 53 10000 6.69 360 16:43 23.12.2021
4049 Clouds 25 1012 53 10000 6.69 360 16:23 23.12.2021
4050 Clouds 25 1012 69 10000 6.17 10 15:31 23.12.2021
4051 Clouds 25 1013 69 10000 5.14 360 14:49 23.12.2021
4052 Clouds 24 1013 73 10000 4.63 360 14:30 23.12.2021
4053 Clouds 24 1012 73 10000 5.66 330 12:53 23.12.2021
4054 Rain 28 1010 51 10000 5.14 50 10:44 23.12.2021
4055 Rain 33 1007 25 10000 10.29 70 09:35 23.12.2021
4056 Rain 34 1007 26 10000 7.72 70 08:59 23.12.2021
4057 Clouds 38 1007 17 10000 4.63 260 06:51 23.12.2021
4058 Clouds 35 1009 24 10000 4.12 340 04:30 23.12.2021
4059 Clouds 27 1010 41 10000 0 0 22:57 22.12.2021
4060 Clouds 26 1009 41 10000 2.06 50 22:39 22.12.2021
4061 Clouds 26 1009 41 10000 2.57 60 21:54 22.12.2021
4062 Clouds 25 1009 47 10000 3.09 60 21:29 22.12.2021
4063 Clouds 27 1008 41 10000 2.06 30 20:44 22.12.2021
4064 Clouds 27 1008 41 10000 2.06 30 20:25 22.12.2021
4065 Clouds 27 1008 41 10000 2.06 310 19:19 22.12.2021
4066 Clouds 29 1009 37 10000 3.6 270 17:39 22.12.2021
4067 Clouds 30 1009 30 10000 3.6 260 16:38 22.12.2021
4068 Clouds 31 1010 27 10000 6.17 250 15:39 22.12.2021
4069 Clouds 32 1008 17 10000 3.6 110 13:32 22.12.2021
4070 Clouds 33 1007 19 10000 4.12 120 12:31 22.12.2021
4071 Clouds 38 1006 14 10000 3.6 170 09:53 22.12.2021
4072 Clouds 39 1006 13 10000 2.57 180 09:33 22.12.2021
4073 Clouds 38 1007 13 10000 3.09 210 07:22 22.12.2021
4074 Clouds 39 1009 13 10000 3.09 340 05:41 22.12.2021
4075 Clouds 39 1009 13 10000 3.09 340 05:22 22.12.2021
4076 Clouds 38 1009 13 10000 3.09 80 04:45 22.12.2021
4077 Clouds 38 1010 13 10000 4.12 10 04:19 22.12.2021
4078 Clouds 36 1011 11 10000 5.66 120 03:32 22.12.2021
4079 Clouds 31 1012 15 10000 3.6 90 23:58 21.12.2021
4080 Clouds 26 1012 25 10000 2.06 130 22:51 21.12.2021
4081 Clouds 24 1012 31 10000 2.06 100 22:27 21.12.2021
4082 Clouds 23 1011 33 10000 0 0 21:43 21.12.2021
4083 Clouds 23 1011 27 10000 3.09 70 20:53 21.12.2021
4084 Clouds 25 1010 23 10000 3.09 80 20:20 21.12.2021
4085 Clouds 26 1010 22 10000 3.09 90 19:41 21.12.2021
4086 Clouds 27 1011 22 10000 4.12 90 18:38 21.12.2021
4087 Clouds 28 1011 21 10000 3.09 90 17:59 21.12.2021
4088 Clouds 29 1011 21 10000 4.63 90 17:40 21.12.2021
4089 Clouds 29 1011 30 10000 2.57 70 15:46 21.12.2021
4090 Clouds 29 1011 26 10000 2.57 80 14:59 21.12.2021
4091 Clouds 30 1011 26 10000 2.57 70 13:44 21.12.2021
4092 Clouds 31 1010 25 10000 2.57 100 12:58 21.12.2021
4093 Clouds 35 1009 18 10000 3.09 170 10:53 21.12.2021
4094 Clouds 37 1009 15 10000 3.09 200 09:57 21.12.2021
4095 Clouds 37 1009 16 10000 4.12 230 09:18 21.12.2021
4096 Clouds 36 1010 15 10000 3.6 150 07:45 21.12.2021
4097 Clouds 37 1010 14 10000 3.6 100 07:24 21.12.2021
4098 Clouds 36 1013 13 10000 3.6 150 04:37 21.12.2021
4099 Clouds 33 1015 15 10000 4.63 70 02:31 21.12.2021
4100 Clouds 27 1015 24 10000 2.06 120 23:55 20.12.2021
4101 Clouds 23 1015 40 10000 0 0 22:44 20.12.2021
4102 Clouds 20 1015 52 10000 0 0 22:25 20.12.2021
4103 Clouds 19 1014 55 10000 0 0 21:27 20.12.2021
4104 Clear 19 1014 52 10000 0 0 20:55 20.12.2021
4105 Clear 19 1013 55 10000 0 0 20:24 20.12.2021
4106 Clear 22 1013 40 10000 3.09 110 19:38 20.12.2021
4107 Clear 22 1013 40 10000 3.09 110 19:20 20.12.2021
4108 Clear 21 1013 46 10000 0 0 18:33 20.12.2021
4109 Clear 21 1013 43 10000 2.06 70 17:51 20.12.2021
4110 Clear 24 1014 33 10000 2.06 90 16:47 20.12.2021
4111 Clear 23 1014 35 10000 1.54 50 16:18 20.12.2021
4112 Clear 24 1015 33 10000 2.06 60 15:40 20.12.2021
4113 Clear 26 1015 29 10000 3.6 130 13:49 20.12.2021
4114 Clear 29 1014 24 10000 3.6 140 12:30 20.12.2021
4115 Clear 33 1013 18 10000 4.63 130 10:46 20.12.2021
4116 Clear 34 1013 17 10000 5.66 120 09:40 20.12.2021
4117 Clear 34 1013 17 10000 6.17 110 08:50 20.12.2021
4118 Clear 35 1013 16 10000 6.17 110 08:31 20.12.2021
4119 Clear 35 1013 17 10000 5.66 130 07:35 20.12.2021
4120 Clear 34 1014 17 10000 5.66 130 06:39 20.12.2021
4121 Clear 28 1017 24 10000 7.2 130 00:20 20.12.2021
4122 Clear 27 1016 26 10000 4.12 130 22:56 19.12.2021
4123 Clear 25 1016 31 10000 2.57 110 22:32 19.12.2021
4124 Clear 23 1015 31 10000 3.6 130 21:32 19.12.2021
4125 Clear 25 1014 25 10000 3.6 120 20:42 19.12.2021
4126 Clear 25 1014 25 10000 3.6 120 20:23 19.12.2021
4127 Clear 27 1014 22 10000 4.12 140 19:41 19.12.2021
4128 Clear 27 1014 24 10000 3.6 130 18:37 19.12.2021
4129 Clear 29 1013 20 10000 4.12 120 17:53 19.12.2021
4130 Clear 29 1014 21 10000 4.63 120 17:30 19.12.2021
4131 Clear 30 1014 20 10000 4.63 120 16:27 19.12.2021
4132 Clear 32 1014 18 10000 6.69 120 15:52 19.12.2021
4133 Clear 32 1014 18 10000 6.69 120 15:24 19.12.2021
4134 Clear 32 1014 18 10000 4.63 130 14:45 19.12.2021
4135 Clouds 34 1012 17 10000 7.2 140 13:27 19.12.2021
4136 Clouds 35 1011 15 10000 7.72 140 12:52 19.12.2021
4137 Clouds 36 1010 14 10000 8.23 130 12:28 19.12.2021
4138 Clouds 37 1009 13 10000 5.66 170 11:33 19.12.2021
4139 Clouds 39 1008 12 10000 6.69 180 10:48 19.12.2021
4140 Clouds 40 1008 12 10000 7.2 190 10:21 19.12.2021
4141 Clouds 42 1007 11 10000 6.69 150 08:46 19.12.2021
4142 Clear 41 1009 13 10000 3.6 200 05:37 19.12.2021
4143 Clouds 38 1011 18 10000 6.17 180 01:45 19.12.2021
4144 Clouds 36 1011 19 10000 0.51 130 00:54 19.12.2021
4145 Clouds 32 1009 31 10000 2.06 210 22:51 18.12.2021
4146 Clouds 32 1008 27 10000 2.06 140 22:24 18.12.2021
4147 Clouds 32 1007 25 10000 1.03 260 21:41 18.12.2021
4148 Clouds 32 1007 25 10000 1.03 260 21:22 18.12.2021
4149 Clouds 33 1007 22 10000 2.57 220 20:25 18.12.2021
4150 Clouds 35 1007 18 10000 4.63 280 19:27 18.12.2021
4151 Clouds 34 1006 17 10000 4.12 360 18:23 18.12.2021
4152 Clouds 37 1007 13 10000 5.66 360 17:49 18.12.2021
4153 Clouds 36 1008 16 10000 3.09 350 16:26 18.12.2021
4154 Clouds 38 1007 13 10000 3.6 60 15:48 18.12.2021
4155 Clouds 34 1009 21 10000 7.2 250 14:51 18.12.2021
4156 Clouds 35 1008 18 10000 2.57 260 13:29 18.12.2021
4157 Clouds 35 1008 18 10000 2.57 260 13:29 18.12.2021
4158 Clouds 36 1007 16 10000 3.09 80 11:47 18.12.2021
4159 Clouds 41 1006 11 10000 3.6 110 09:52 18.12.2021
4160 Clouds 42 1005 11 10000 3.09 120 08:48 18.12.2021
4161 Clear 43 1006 10 10000 4.63 120 08:27 18.12.2021
4162 Clouds 42 1007 9 10000 5.66 250 05:56 18.12.2021
4163 Clouds 35 1010 18 10000 1.54 190 00:34 18.12.2021
4164 Clouds 32 1010 20 10000 0 0 23:46 17.12.2021
4165 Clouds 24 1008 38 10000 1.54 250 21:58 17.12.2021
4166 Clouds 23 1008 43 10000 1.03 260 21:23 17.12.2021
4167 Clouds 25 1007 36 10000 2.06 70 20:42 17.12.2021
4168 Clouds 26 1007 29 10000 2.57 40 19:45 17.12.2021
4169 Clear 28 1007 24 10000 3.09 50 18:39 17.12.2021
4170 Clear 30 1007 21 10000 3.6 30 17:40 17.12.2021
4171 Clear 29 1008 24 10000 3.6 40 16:50 17.12.2021
4172 Clear 29 1008 24 10000 3.6 40 16:25 17.12.2021
4173 Clear 29 1009 24 10000 3.6 60 15:25 17.12.2021
4174 Clear 30 1008 25 10000 3.6 70 14:41 17.12.2021
4175 Clear 31 1008 23 10000 4.12 70 13:21 17.12.2021
4176 Clear 33 1007 22 10000 2.57 100 12:21 17.12.2021
4177 Clear 39 1006 13 10000 3.6 150 10:38 17.12.2021
4178 Clear 40 1006 12 10000 2.57 70 09:34 17.12.2021
4179 Clear 40 1006 12 10000 2.57 70 09:34 17.12.2021
4180 Clear 40 1006 11 10000 2.06 270 08:30 17.12.2021
4181 Clear 40 1007 11 10000 5.14 200 06:47 17.12.2021
4182 Clear 38 1009 13 10000 2.57 120 04:39 17.12.2021
4183 Clear 30 1011 20 10000 3.6 70 23:47 16.12.2021
4184 Clear 22 1011 56 10000 0 0 22:24 16.12.2021
4185 Clear 20 1010 60 10000 0 0 21:51 16.12.2021
4186 Clear 19 1010 68 10000 0 0 21:30 16.12.2021
4187 Clear 20 1010 60 10000 0 0 20:31 16.12.2021
4188 Clear 21 1010 52 10000 0 0 19:44 16.12.2021
4189 Clear 21 1010 56 10000 2.06 100 18:39 16.12.2021
4190 Clear 22 1010 56 10000 2.06 120 17:56 16.12.2021
4191 Clear 22 1010 56 10000 2.57 120 17:30 16.12.2021
4192 Clear 24 1010 43 10000 0 0 16:21 16.12.2021
4193 Clear 26 1011 31 10000 2.57 50 14:50 16.12.2021
4194 Clear 28 1011 30 10000 2.57 130 13:29 16.12.2021
4195 Clear 31 1010 23 10000 3.09 130 11:20 16.12.2021
4196 Clear 34 1010 18 10000 2.57 160 10:59 16.12.2021
4197 Clear 35 1009 15 10000 3.09 160 10:20 16.12.2021
4198 Clear 36 1009 16 10000 5.14 140 07:48 16.12.2021
4199 Clear 35 1010 17 10000 5.14 130 06:21 16.12.2021
4200 Clear 30 1014 30 10000 6.69 100 00:54 16.12.2021
4201 Clear 27 1014 36 10000 3.6 110 23:25 15.12.2021
4202 Clear 21 1013 60 10000 0 0 22:43 15.12.2021
4203 Clear 19 1013 68 10000 0.51 70 21:55 15.12.2021
4204 Clear 19 1012 63 10000 0 0 21:26 15.12.2021
4205 Clear 20 1012 64 10000 1.54 100 20:18 15.12.2021
4206 Clear 20 1011 64 10000 0 0 19:45 15.12.2021
4207 Clouds 22 1011 56 10000 2.57 120 18:37 15.12.2021
4208 Clouds 22 1011 53 10000 0 0 17:51 15.12.2021
4209 Clouds 22 1011 53 10000 0 0 17:51 15.12.2021
4210 Clouds 22 1011 53 10000 0 0 17:32 15.12.2021
4211 Clouds 24 1012 43 10000 2.57 120 16:27 15.12.2021
4212 Clouds 25 1012 41 10000 3.09 120 15:46 15.12.2021
4213 Clouds 25 1012 41 10000 3.09 130 15:27 15.12.2021
4214 Clouds 27 1012 34 10000 3.6 130 14:18 15.12.2021
4215 Clouds 30 1011 28 10000 3.6 150 12:32 15.12.2021
4216 Clouds 33 1011 22 10000 3.6 150 10:25 15.12.2021
4217 Clouds 34 1010 22 10000 7.72 150 08:54 15.12.2021
4218 Clear 34 1011 21 10000 6.17 140 06:54 15.12.2021
4219 Clear 32 1014 23 10000 8.75 160 01:20 15.12.2021
4220 Clear 29 1013 30 10000 5.14 200 23:42 14.12.2021
4221 Clear 28 1012 30 10000 5.14 200 22:48 14.12.2021
4222 Clear 27 1011 29 10000 5.66 220 22:18 14.12.2021
4223 Clear 24 1008 57 10000 2.06 280 20:27 14.12.2021
4224 Clear 25 1008 53 10000 0 0 19:40 14.12.2021
4225 Clouds 26 1008 50 10000 0 0 18:44 14.12.2021
4226 Clouds 27 1008 39 10000 0 0 17:58 14.12.2021
4227 Clouds 27 1008 39 10000 0 0 17:58 14.12.2021
4228 Clouds 27 1008 44 10000 0 0 17:28 14.12.2021
4229 Clouds 27 1009 47 10000 0 0 16:38 14.12.2021
4230 Clouds 27 1009 36 10000 0 0 15:26 14.12.2021
4231 Clouds 31 1009 22 10000 2.57 100 13:31 14.12.2021
4232 Clouds 33 1008 21 10000 2.57 150 11:58 14.12.2021
4233 Clouds 34 1008 17 10000 3.09 130 11:23 14.12.2021
4234 Clouds 37 1007 12 10000 2.57 140 09:57 14.12.2021
4235 Clouds 38 1007 12 10000 4.63 160 09:35 14.12.2021
4236 Clear 38 1007 11 10000 3.6 170 08:23 14.12.2021
4237 Clear 39 1007 11 10000 4.12 150 07:43 14.12.2021
4238 Clear 33 1011 17 10000 5.14 80 02:25 14.12.2021
4239 Clear 23 1012 43 10000 0 0 22:50 13.12.2021
4240 Clear 19 1011 55 10000 1.54 250 21:52 13.12.2021
4241 Clear 18 1011 63 10000 0 0 20:59 13.12.2021
4242 Clear 19 1010 52 10000 0 0 20:31 13.12.2021
4243 Clear 19 1010 52 10000 0 0 19:52 13.12.2021
4244 Clear 22 1010 35 10000 2.06 90 17:56 13.12.2021
4245 Clear 22 1010 37 10000 2.06 100 17:23 13.12.2021
4246 Clear 23 1011 31 10000 0.51 10 15:49 13.12.2021
4247 Clear 25 1011 29 10000 2.57 80 15:19 13.12.2021
4248 Clouds 27 1010 22 10000 4.12 160 13:38 13.12.2021
4249 Clouds 29 1009 20 10000 3.6 120 12:42 13.12.2021
4250 Clouds 30 1009 19 10000 3.6 120 11:54 13.12.2021
4251 Clouds 32 1009 14 10000 3.6 130 11:35 13.12.2021
4252 Clouds 35 1008 12 10000 3.6 140 10:43 13.12.2021
4253 Clouds 37 1008 12 10000 2.57 170 08:52 13.12.2021
4254 Clouds 36 1008 11 10000 2.57 190 07:37 13.12.2021
4255 Clouds 36 1009 12 10000 3.09 200 05:23 13.12.2021
4256 Clouds 27 1013 36 10000 4.12 250 00:42 13.12.2021
4257 Clouds 20 1011 34 10000 1.54 270 21:59 12.12.2021
4258 Clouds 21 1011 32 10000 3.09 250 21:33 12.12.2021
4259 Clouds 19 1009 45 10000 2.57 180 19:38 12.12.2021
4260 Clear 20 1008 42 10000 2.06 260 18:28 12.12.2021
4261 Clear 23 1009 23 10000 3.09 70 16:54 12.12.2021
4262 Clear 24 1009 20 10000 3.6 90 16:26 12.12.2021
4263 Clear 25 1009 20 10000 3.09 80 15:28 12.12.2021
4264 Clear 25 1009 22 10000 3.09 70 14:54 12.12.2021
4265 Clear 25 1009 23 10000 3.09 80 14:22 12.12.2021
4266 Clear 27 1009 24 10000 4.12 80 12:51 12.12.2021
4267 Clear 29 1008 21 10000 3.6 100 12:23 12.12.2021
4268 Clear 29 1008 21 10000 3.6 100 12:23 12.12.2021
4269 Clear 31 1008 19 10000 3.6 100 11:43 12.12.2021
4270 Clear 33 1008 16 10000 3.09 100 10:44 12.12.2021
4271 Clear 33 1008 16 10000 3.09 100 10:44 12.12.2021
4272 Clear 35 1007 14 10000 3.6 130 10:21 12.12.2021
4273 Clear 36 1008 12 10000 3.09 160 08:48 12.12.2021
4274 Clear 36 1008 13 10000 1.54 230 07:28 12.12.2021
4275 Clear 35 1009 13 10000 1.54 260 05:56 12.12.2021
4276 Clear 35 1010 14 10000 2.57 220 04:53 12.12.2021
4277 Clear 31 1013 13 10000 3.6 20 01:26 12.12.2021
4278 Clear 26 1013 22 10000 3.09 60 23:26 11.12.2021
4279 Clear 20 1012 42 10000 2.57 90 22:21 11.12.2021
4280 Clear 16 1012 55 10000 0 0 21:35 11.12.2021
4281 Clear 16 1011 63 10000 2.57 70 20:19 11.12.2021
4282 Clear 18 1011 55 10000 0 0 19:21 11.12.2021
4283 Clear 17 1011 55 10000 0 0 18:48 11.12.2021
4284 Clear 19 1010 45 10000 2.06 30 17:54 11.12.2021
4285 Clear 21 1011 30 10000 2.06 50 16:37 11.12.2021
4286 Clear 22 1011 30 10000 3.6 70 15:41 11.12.2021
4287 Clear 23 1012 28 10000 2.57 80 14:36 11.12.2021
4288 Clear 27 1011 22 10000 4.12 120 12:31 11.12.2021
4289 Clear 31 1010 16 10000 4.63 110 10:50 11.12.2021
4290 Clear 33 1010 16 10000 2.06 140 09:43 11.12.2021
4291 Clear 31 1013 12 10000 3.09 110 03:58 11.12.2021
4292 Clear 26 1015 15 10000 4.12 60 00:48 11.12.2021
4293 Clear 24 1015 19 10000 5.14 70 23:44 10.12.2021
4294 Clear 21 1015 32 10000 3.09 60 22:47 10.12.2021
4295 Clear 15 1014 51 10000 0 0 21:41 10.12.2021
4296 Clear 16 1013 48 10000 0 0 20:28 10.12.2021
4297 Clear 18 1013 32 10000 3.09 90 19:19 10.12.2021
4298 Clear 18 1013 36 10000 1.03 80 17:46 10.12.2021
4299 Clear 19 1013 32 10000 2.57 90 16:37 10.12.2021
4300 Clear 20 1013 30 10000 3.09 90 15:45 10.12.2021
4301 Clear 20 1014 32 10000 3.09 70 15:26 10.12.2021
4302 Clear 22 1014 24 10000 4.12 100 14:35 10.12.2021
4303 Clear 21 1014 30 10000 3.09 90 13:49 10.12.2021
4304 Clear 23 1013 27 10000 3.6 130 12:56 10.12.2021
4305 Clear 26 1012 22 10000 3.6 120 11:43 10.12.2021
4306 Clear 28 1012 17 10000 4.63 120 10:57 10.12.2021
4307 Clear 30 1011 16 10000 4.63 120 09:46 10.12.2021
4308 Clear 31 1012 16 10000 4.63 110 07:49 10.12.2021
4309 Clear 30 1013 17 10000 5.14 120 04:57 10.12.2021
4310 Clear 27 1016 21 10000 5.14 100 02:42 10.12.2021
4311 Clear 20 1016 30 10000 4.12 100 23:42 09.12.2021
4312 Clear 17 1016 63 10000 0.51 110 22:43 09.12.2021
4313 Clear 17 1016 63 10000 0.51 110 22:22 09.12.2021
4314 Clear 15 1016 67 10000 3.09 120 21:40 09.12.2021
4315 Clear 14 1015 82 10000 0 0 20:36 09.12.2021
4316 Clear 14 1015 82 10000 0.51 200 19:43 09.12.2021
4317 Clear 15 1015 82 10000 2.57 140 19:20 09.12.2021
4318 Clear 16 1015 77 10000 2.57 120 18:19 09.12.2021
4319 Clear 16 1015 82 10000 0 0 17:48 09.12.2021
4320 Clear 16 1015 77 10000 0 0 17:24 09.12.2021
4321 Clear 17 1015 72 10000 0 0 16:36 09.12.2021
4322 Clear 17 1016 67 10000 0 0 15:18 09.12.2021
4323 Clear 19 1016 55 10000 1.03 30 14:36 09.12.2021
4324 Clear 22 1015 43 10000 3.09 110 12:48 09.12.2021
4325 Clear 22 1014 53 10000 2.57 100 11:51 09.12.2021
4326 Clouds 26 1014 29 10000 1.03 90 10:28 09.12.2021
4327 Clouds 24 1014 35 10000 4.63 90 07:34 09.12.2021
4328 Clouds 21 1018 40 10000 4.63 110 03:56 09.12.2021
4329 Clouds 19 1018 55 10000 4.63 130 00:26 09.12.2021
4330 Clouds 18 1017 68 10000 6.17 110 23:37 08.12.2021
4331 Clouds 18 1017 68 10000 2.57 170 22:57 08.12.2021
4332 Clouds 18 1016 63 10000 5.66 70 22:36 08.12.2021
4333 Clouds 19 1016 55 10000 5.14 80 21:38 08.12.2021
4334 Clouds 19 1015 55 10000 5.66 100 20:50 08.12.2021
4335 Clouds 19 1015 59 10000 6.69 100 19:57 08.12.2021
4336 Rain 19 1016 63 10000 3.6 110 19:20 08.12.2021
4337 Clouds 23 1016 35 10000 6.17 140 18:22 08.12.2021
4338 Clouds 24 1015 33 10000 7.72 120 16:53 08.12.2021
4339 Clouds 25 1015 36 10000 4.63 120 15:42 08.12.2021
4340 Clouds 25 1015 36 10000 4.63 120 15:22 08.12.2021
4341 Clouds 27 1015 29 10000 5.66 130 13:26 08.12.2021
4342 Clouds 30 1013 26 10000 5.14 140 10:44 08.12.2021
4343 Clouds 32 1012 25 10000 4.63 110 09:32 08.12.2021
4344 Clouds 32 1012 25 10000 4.12 130 08:34 08.12.2021
4345 Clear 32 1013 27 10000 4.12 60 06:22 08.12.2021
4346 Clouds 26 1016 34 10000 7.72 100 00:41 08.12.2021
4347 Clouds 25 1016 38 10000 5.66 120 23:22 07.12.2021
4348 Clouds 21 1015 60 10000 3.09 120 21:25 07.12.2021
4349 Clouds 22 1014 56 10000 3.6 130 20:25 07.12.2021
4350 Clouds 23 1014 60 10000 3.6 120 18:59 07.12.2021
4351 Clouds 23 1013 68 10000 2.57 120 18:21 07.12.2021
4352 Clouds 23 1013 78 10000 0 0 17:24 07.12.2021
4353 Clouds 23 1014 78 10000 3.09 80 16:42 07.12.2021
4354 Clouds 24 1014 73 10000 2.06 110 15:59 07.12.2021
4355 Clouds 25 1014 61 10000 0 0 14:37 07.12.2021
4356 Clouds 26 1014 57 10000 4.63 330 13:38 07.12.2021
4357 Clouds 27 1013 54 10000 2.06 340 12:22 07.12.2021
4358 Clouds 30 1012 35 10000 3.6 140 10:56 07.12.2021
4359 Clouds 31 1010 33 10000 3.6 130 09:20 07.12.2021
4360 Clouds 32 1011 31 10000 2.57 190 06:50 07.12.2021
4361 Clouds 31 1012 33 10000 3.6 160 05:50 07.12.2021
4362 Clouds 29 1014 45 10000 5.66 80 02:35 07.12.2021
4363 Clouds 22 1014 83 10000 2.06 340 23:21 06.12.2021
4364 Clouds 21 1014 88 10000 1.03 350 22:40 06.12.2021
4365 Clouds 21 1014 88 10000 0 0 21:59 06.12.2021
4366 Clouds 21 1013 88 10000 3.6 170 21:27 06.12.2021
4367 Clouds 20 1012 94 10000 2.06 230 20:32 06.12.2021
4368 Clouds 21 1012 88 10000 0 0 19:24 06.12.2021
4369 Rain 21 1011 83 10000 7.72 70 18:34 06.12.2021
4370 Clouds 21 1012 83 10000 3.6 110 17:53 06.12.2021
4371 Rain 22 1012 78 10000 5.14 70 17:33 06.12.2021
4372 Clouds 22 1012 83 10000 2.57 90 15:51 06.12.2021
4373 Clouds 22 1012 78 10000 2.06 110 14:35 06.12.2021
4374 Clouds 23 1010 68 10000 4.63 100 12:40 06.12.2021
4375 Clouds 21 1011 83 10000 7.72 130 11:55 06.12.2021
4376 Clouds 32 1008 29 10000 7.2 140 09:44 06.12.2021
4377 Clouds 34 1008 26 10000 3.09 150 07:38 06.12.2021
4378 Clear 30 1012 32 10000 4.63 60 02:20 06.12.2021
4379 Clear 21 1013 64 10000 3.6 150 22:20 05.12.2021
4380 Clear 19 1012 63 10000 3.09 70 21:25 05.12.2021
4381 Clear 21 1011 56 10000 3.09 130 20:20 05.12.2021
4382 Clear 20 1012 60 10000 1.54 130 19:58 05.12.2021
4383 Clouds 20 1011 60 10000 0 0 19:23 05.12.2021
4384 Clouds 20 1011 60 10000 2.57 130 18:26 05.12.2021
4385 Clouds 20 1011 60 10000 2.06 70 17:49 05.12.2021
4386 Clouds 22 1012 49 10000 5.14 80 16:58 05.12.2021
4387 Clouds 23 1012 46 10000 5.14 90 16:28 05.12.2021
4388 Clouds 24 1012 41 10000 7.2 90 15:58 05.12.2021
4389 Clouds 24 1013 41 10000 4.63 90 14:47 05.12.2021
4390 Clouds 25 1012 36 10000 6.17 80 14:29 05.12.2021
4391 Clouds 25 1012 31 10000 7.2 70 13:31 05.12.2021
4392 Clouds 25 1012 29 10000 8.23 70 12:41 05.12.2021
4393 Clouds 25 1012 29 10000 8.23 70 12:23 05.12.2021
4394 Clouds 26 1011 27 10000 7.72 90 11:37 05.12.2021
4395 Clouds 26 1011 27 10000 9.26 110 10:21 05.12.2021
4396 Clouds 27 1011 28 10000 8.75 120 09:26 05.12.2021
4397 Clear 31 1014 19 10000 7.72 150 04:56 05.12.2021
4398 Clouds 28 1015 24 10000 8.23 150 01:23 05.12.2021
4399 Clouds 24 1013 27 10000 3.6 120 22:42 04.12.2021
4400 Clouds 23 1012 31 10000 4.12 110 21:37 04.12.2021
4401 Clouds 25 1012 27 10000 4.63 110 20:40 04.12.2021
4402 Clouds 26 1012 27 10000 4.63 120 19:33 04.12.2021
4403 Clouds 25 1012 31 10000 3.6 130 18:43 04.12.2021
4404 Clouds 27 1012 26 10000 3.09 130 17:47 04.12.2021
4405 Clouds 27 1012 26 10000 5.66 90 17:20 04.12.2021
4406 Clouds 28 1013 24 10000 5.14 120 16:46 04.12.2021
4407 Clouds 29 1013 21 10000 6.69 120 16:27 04.12.2021
4408 Clouds 33 1013 22 10000 5.66 140 12:44 04.12.2021
4409 Clouds 33 1011 19 10000 3.09 100 11:34 04.12.2021
4410 Clouds 36 1011 14 10000 5.66 100 10:57 04.12.2021
4411 Clouds 38 1010 13 10000 4.12 130 09:40 04.12.2021
4412 Clear 38 1010 13 10000 6.69 110 08:28 04.12.2021
4413 Clouds 37 1013 16 10000 8.75 40 04:43 04.12.2021
4414 Clear 33 1016 22 10000 6.69 80 00:49 04.12.2021
4415 Clear 29 1015 28 10000 0 0 23:33 03.12.2021
4416 Clear 27 1015 32 10000 0 0 22:51 03.12.2021
4417 Clear 21 1015 56 10000 0.51 340 21:54 03.12.2021
4418 Clear 22 1014 49 10000 2.06 110 21:22 03.12.2021
4419 Clear 21 1014 52 10000 2.06 330 20:42 03.12.2021
4420 Clouds 21 1014 56 10000 0 0 19:21 03.12.2021
4421 Clouds 22 1014 53 10000 2.06 230 18:22 03.12.2021
4422 Clouds 22 1014 49 10000 2.06 260 17:30 03.12.2021
4423 Clouds 28 1015 26 10000 2.57 70 13:35 03.12.2021
4424 Clouds 31 1014 18 10000 3.6 110 12:30 03.12.2021
4425 Clouds 33 1013 15 10000 4.12 110 11:19 03.12.2021
4426 Clouds 38 1012 11 10000 4.63 90 09:21 03.12.2021
4427 Clouds 38 1012 11 10000 7.2 80 07:44 03.12.2021
4428 Clear 38 1013 10 10000 5.66 70 06:41 03.12.2021
4429 Clear 34 1016 17 10000 5.66 50 00:49 03.12.2021
4430 Clear 31 1016 23 10000 4.12 60 23:48 02.12.2021
4431 Clear 24 1016 46 10000 0 0 22:54 02.12.2021
4432 Clear 18 1015 63 10000 0 0 21:41 02.12.2021
4433 Clear 18 1014 63 10000 0 0 20:46 02.12.2021
4434 Clear 19 1014 63 10000 0.51 270 20:22 02.12.2021
4435 Clear 20 1014 52 10000 0 0 18:50 02.12.2021
4436 Clear 21 1014 52 10000 0 0 16:53 02.12.2021
4437 Clear 23 1014 40 10000 0 0 15:41 02.12.2021
4438 Clear 24 1015 38 10000 0 0 14:53 02.12.2021
4439 Clear 26 1014 31 10000 0 0 13:39 02.12.2021
4440 Clear 27 1014 29 10000 0 0 12:46 02.12.2021
4441 Clear 31 1013 15 10000 2.57 100 11:45 02.12.2021
4442 Clear 37 1011 9 10000 7.2 110 09:27 02.12.2021
4443 Clear 38 1012 11 10000 4.63 130 07:20 02.12.2021
4444 Clear 34 1015 14 10000 4.12 70 01:28 02.12.2021
4445 Clear 31 1015 18 10000 2.57 60 00:35 02.12.2021
4446 Clear 19 1014 68 10000 0 0 22:32 01.12.2021
4447 Clear 18 1014 59 10000 2.57 330 21:44 01.12.2021
4448 Clear 18 1012 68 10000 0 0 20:24 01.12.2021
4449 Clear 18 1012 63 10000 0 0 19:46 01.12.2021
4450 Clear 19 1012 55 10000 0 0 18:55 01.12.2021
4451 Clear 20 1012 52 10000 0 0 17:31 01.12.2021
4452 Clear 21 1012 52 10000 0 0 16:34 01.12.2021
4453 Clear 26 1013 25 10000 3.6 80 14:35 01.12.2021
4454 Clear 26 1012 31 10000 2.57 70 13:37 01.12.2021
4455 Clear 33 1011 15 10000 4.12 120 10:45 01.12.2021
4456 Clear 35 1010 12 10000 3.6 120 10:27 01.12.2021
4457 Clear 37 1010 9 10000 2.57 150 08:52 01.12.2021
4458 Clear 37 1009 12 10000 4.63 130 07:59 01.12.2021
4459 Clear 37 1010 12 10000 2.06 340 07:31 01.12.2021
4460 Clear 35 1012 13 10000 3.09 340 03:57 01.12.2021
4461 Clear 35 1013 13 10000 4.63 330 03:27 01.12.2021
4462 Clear 30 1014 19 10000 1.03 280 00:34 01.12.2021
4463 Clear 28 1013 26 10000 0 0 23:29 30.11.2021
4464 Clear 21 1012 46 10000 3.09 40 22:32 30.11.2021
4465 Clear 19 1011 52 10000 3.09 20 20:47 30.11.2021
4466 Clear 16 1011 77 10000 0 0 20:25 30.11.2021
4467 Clear 17 1010 67 10000 2.57 350 19:39 30.11.2021
4468 Clear 17 1010 67 10000 1.54 320 18:53 30.11.2021
4469 Clear 18 1010 63 10000 1.03 190 17:45 30.11.2021
4470 Clear 21 1011 46 10000 2.06 60 16:19 30.11.2021
4471 Clear 24 1011 33 10000 2.57 50 14:34 30.11.2021
4472 Clear 25 1011 31 10000 2.57 70 13:41 30.11.2021
4473 Clear 25 1011 33 10000 3.09 80 12:54 30.11.2021
4474 Clear 27 1010 26 10000 3.6 120 11:59 30.11.2021
4475 Clear 29 1010 21 10000 3.09 130 11:25 30.11.2021
4476 Clear 33 1009 16 10000 2.06 180 10:36 30.11.2021
4477 Clear 35 1008 12 10000 2.06 140 08:57 30.11.2021
4478 Clear 35 1008 11 10000 1.03 310 08:32 30.11.2021
4479 Clear 34 1009 13 10000 2.57 180 07:56 30.11.2021
4480 Clear 35 1009 12 10000 2.57 190 06:37 30.11.2021
4481 Clear 30 1013 19 10000 3.09 80 01:49 30.11.2021
4482 Clear 30 1013 19 10000 3.09 80 01:27 30.11.2021
4483 Clear 24 1014 38 10000 0 0 23:36 29.11.2021
4484 Clear 24 1014 38 10000 0 0 23:18 29.11.2021
4485 Clear 24 1014 38 10000 0 0 23:18 29.11.2021
4486 Clear 17 1013 72 10000 2.06 280 22:38 29.11.2021
4487 Clear 15 1013 77 10000 0 0 21:54 29.11.2021
4488 Clear 15 1012 77 10000 0 0 21:20 29.11.2021
4489 Clear 15 1012 77 10000 0 0 20:46 29.11.2021
4490 Clear 16 1012 77 10000 0 0 19:58 29.11.2021
4491 Clear 16 1012 67 10000 0 0 19:40 29.11.2021
4492 Clear 17 1012 72 10000 0 0 18:59 29.11.2021
4493 Clear 22 1010 28 10000 2.82 68 18:40 29.11.2021
4494 Clear 23 1011 26 10000 2.88 89 17:21 29.11.2021
4495 Clear 23 1011 26 10000 2.88 89 16:44 29.11.2021
4496 Clear 24 1012 25 10000 3.32 104 16:22 29.11.2021
4497 Clear 24 1012 24 10000 3.78 114 14:45 29.11.2021
4498 Clear 25 1013 23 10000 4.48 122 13:52 29.11.2021
4499 Clear 26 1012 21 10000 5.05 134 12:57 29.11.2021
4500 Clear 27 1011 20 10000 5.29 145 11:54 29.11.2021
4501 Clear 28 1010 18 10000 5.26 157 11:22 29.11.2021
4502 Clear 30 1011 17 10000 2.57 170 09:58 29.11.2021
4503 Clear 31 1011 18 10000 2.57 180 07:21 29.11.2021
4504 Clear 30 1012 17 10000 2.57 180 05:48 29.11.2021
4505 Clear 25 1016 31 10000 6.69 100 00:46 29.11.2021
4506 Clear 23 1016 35 10000 3.6 80 23:47 28.11.2021
4507 Clear 21 1016 46 10000 0 0 23:29 28.11.2021
4508 Clear 14 1015 77 10000 0 0 21:57 28.11.2021
4509 Clear 14 1014 77 10000 0 0 21:38 28.11.2021
4510 Clear 14 1014 77 10000 0 0 20:36 28.11.2021
4511 Clear 14 1014 77 10000 0 0 19:37 28.11.2021
4512 Clear 15 1014 72 10000 2.06 340 18:40 28.11.2021
4513 Clear 16 1014 63 10000 2.57 310 17:57 28.11.2021
4514 Clear 16 1014 72 10000 0 0 17:32 28.11.2021
4515 Clear 17 1015 59 10000 0 0 16:45 28.11.2021
4516 Clear 17 1015 63 10000 0 0 16:27 28.11.2021
4517 Clear 18 1015 55 10000 0 0 15:45 28.11.2021
4518 Clear 18 1015 55 10000 0 0 14:51 28.11.2021
4519 Clear 20 1015 40 10000 2.06 170 13:51 28.11.2021
4520 Clear 20 1015 42 10000 2.57 160 12:54 28.11.2021
4521 Clear 23 1014 31 10000 3.09 140 11:21 28.11.2021
4522 Clear 27 1014 21 10000 4.12 150 10:22 28.11.2021
4523 Clear 28 1013 20 10000 3.6 120 09:40 28.11.2021
4524 Clear 28 1013 18 10000 4.12 130 08:21 28.11.2021
4525 Clear 22 1018 30 10000 4.63 100 00:40 28.11.2021
4526 Clear 14 1017 72 10000 1.54 300 21:46 27.11.2021
4527 Clear 13 1016 76 10000 0 0 19:50 27.11.2021
4528 Clear 14 1016 77 10000 2.06 110 18:20 27.11.2021
4529 Clear 18 1017 48 10000 2.57 80 15:59 27.11.2021
4530 Clear 19 1017 45 10000 3.09 100 14:35 27.11.2021
4531 Clear 21 1017 37 10000 4.12 120 13:20 27.11.2021
4532 Clear 25 1015 27 10000 5.14 120 10:57 27.11.2021
4533 Clear 26 1014 27 10000 5.14 140 09:54 27.11.2021
4534 Clear 27 1014 28 10000 3.6 120 08:45 27.11.2021
4535 Clear 26 1015 29 10000 6.69 110 06:35 27.11.2021
4536 Clear 25 1017 31 10000 4.63 120 03:52 27.11.2021
4537 Clear 22 1018 43 10000 6.17 130 00:19 27.11.2021
4538 Clear 16 1017 67 10000 0 0 22:41 26.11.2021
4539 Clear 16 1017 67 10000 0 0 22:19 26.11.2021
4540 Clear 14 1017 82 10000 0 0 21:22 26.11.2021
4541 Clear 14 1016 82 10000 0 0 20:40 26.11.2021
4542 Clear 15 1016 82 10000 0 0 19:55 26.11.2021
4543 Clear 15 1016 82 10000 0 0 18:45 26.11.2021
4544 Clear 17 1016 72 10000 3.09 140 17:26 26.11.2021
4545 Clear 17 1016 72 10000 2.57 130 16:45 26.11.2021
4546 Clear 20 1017 56 10000 3.09 140 14:50 26.11.2021
4547 Clouds 23 1016 46 10000 4.12 140 13:34 26.11.2021
4548 Clouds 25 1015 41 10000 5.14 150 10:44 26.11.2021
4549 Clouds 26 1014 38 10000 5.14 130 09:49 26.11.2021
4550 Clouds 26 1013 38 10000 6.17 140 08:50 26.11.2021
4551 Clouds 26 1014 41 10000 6.17 130 08:19 26.11.2021
4552 Clouds 26 1014 44 10000 6.69 160 06:30 26.11.2021
4553 Clouds 24 1015 53 10000 5.66 140 04:52 26.11.2021
4554 Clouds 22 1016 56 10000 5.14 150 03:39 26.11.2021
4555 Clouds 19 1017 72 10000 5.66 160 23:43 25.11.2021
4556 Clouds 18 1016 77 10000 4.63 170 22:25 25.11.2021
4557 Clouds 19 1015 72 10000 6.17 170 20:43 25.11.2021
4558 Clouds 20 1015 68 10000 4.63 160 19:22 25.11.2021
4559 Clouds 19 1015 77 10000 3.6 180 18:31 25.11.2021
4560 Clouds 19 1015 72 10000 4.63 160 17:28 25.11.2021
4561 Clouds 19 1015 72 10000 4.12 170 16:45 25.11.2021
4562 Clouds 20 1016 68 10000 5.14 160 15:59 25.11.2021
4563 Clouds 21 1016 60 10000 5.66 160 14:30 25.11.2021
4564 Clouds 23 1014 46 10000 5.14 160 12:55 25.11.2021
4565 Clouds 24 1014 43 10000 4.63 170 11:56 25.11.2021
4566 Clouds 25 1013 36 10000 5.14 170 10:43 25.11.2021
4567 Clear 26 1011 34 10000 4.63 190 08:21 25.11.2021
4568 Clouds 23 1014 49 10000 4.63 190 02:58 25.11.2021
4569 Clouds 19 1015 68 10000 6.17 180 00:37 25.11.2021
4570 Clear 16 1014 82 10000 4.12 220 22:29 24.11.2021
4571 Clear 15 1014 88 10000 3.09 240 21:48 24.11.2021
4572 Clear 15 1014 88 10000 3.6 230 21:21 24.11.2021
4573 Clear 15 1013 88 10000 3.09 260 20:26 24.11.2021
4574 Clear 16 1013 82 10000 3.09 220 19:20 24.11.2021
4575 Clear 16 1012 82 10000 3.09 230 18:18 24.11.2021
4576 Clear 17 1013 82 10000 0 0 16:20 24.11.2021
4577 Clear 19 1013 68 10000 2.57 170 14:57 24.11.2021
4578 Clear 19 1013 68 10000 3.09 170 14:21 24.11.2021
4579 Clouds 21 1012 60 10000 5.14 170 12:51 24.11.2021
4580 Clouds 23 1010 49 10000 4.12 200 11:24 24.11.2021
4581 Clear 24 1010 46 10000 4.12 190 10:52 24.11.2021
4582 Clear 24 1010 46 10000 4.12 190 10:52 24.11.2021
4583 Clouds 25 1009 41 10000 6.17 210 10:34 24.11.2021
4584 Clouds 27 1009 39 10000 4.12 210 08:35 24.11.2021
4585 Clouds 26 1009 38 10000 5.66 260 07:31 24.11.2021
4586 Clouds 23 1012 60 10000 5.66 210 03:59 24.11.2021
4587 Clouds 22 1012 73 10000 7.72 210 01:36 24.11.2021
4588 Clouds 21 1011 83 10000 5.66 230 23:33 23.11.2021
4589 Clouds 19 1011 88 10000 3.09 240 22:37 23.11.2021
4590 Rain 19 1010 88 10000 5.14 230 21:45 23.11.2021
4591 Clouds 20 1008 94 10000 5.66 260 20:22 23.11.2021
4592 Clouds 19 1008 100 10000 2.57 320 19:22 23.11.2021
4593 Clouds 19 1008 100 10000 4.63 280 18:33 23.11.2021
4594 Thunderstorm 20 1008 94 10000 5.14 230 17:23 23.11.2021
4595 Clouds 20 1009 94 10000 0.51 50 16:35 23.11.2021
4596 Clouds 20 1009 88 10000 2.57 50 15:25 23.11.2021
4597 Clouds 20 1010 94 10000 3.09 60 14:39 23.11.2021
4598 Clouds 20 1009 88 10000 2.06 60 12:53 23.11.2021
4599 Rain 26 1009 65 10000 4.63 300 10:28 23.11.2021
4600 Clouds 26 1008 65 10000 4.12 330 09:45 23.11.2021
4601 Clouds 27 1007 57 10000 7.2 330 07:51 23.11.2021
4602 Clouds 23 1010 68 10000 6.17 350 04:38 23.11.2021
4603 Clouds 22 1011 73 10000 5.66 10 03:27 23.11.2021
4604 Clouds 19 1013 82 10000 4.12 60 23:26 22.11.2021
4605 Rain 18 1013 88 10000 4.12 60 22:56 22.11.2021
4606 Rain 19 1013 94 10000 3.6 40 22:29 22.11.2021
4607 Rain 20 1013 88 10000 3.09 10 21:44 22.11.2021
4608 Clouds 20 1013 88 10000 3.09 280 20:56 22.11.2021
4609 Rain 20 1013 94 10000 3.09 240 20:21 22.11.2021
4610 Clouds 21 1012 88 10000 5.66 260 19:19 22.11.2021
4611 Rain 24 1012 69 10000 6.69 260 18:40 22.11.2021
4612 Clouds 26 1012 24 10000 3.6 270 17:46 22.11.2021
4613 Clouds 25 1010 23 10000 4.12 90 16:26 22.11.2021
4614 Rain 25 1011 33 10000 4.12 90 14:26 22.11.2021
4615 Clouds 26 1011 36 10000 3.09 100 12:43 22.11.2021
4616 Clouds 29 1009 28 10000 5.14 90 10:43 22.11.2021
4617 Clouds 31 1009 25 10000 6.17 110 09:48 22.11.2021
4618 Clouds 32 1009 23 10000 5.66 110 08:41 22.11.2021
4619 Clouds 32 1010 22 10000 3.6 90 06:43 22.11.2021
4620 Clouds 23 1016 35 10000 7.2 90 23:35 21.11.2021
4621 Clouds 22 1016 37 10000 2.57 100 22:51 21.11.2021
4622 Clear 20 1015 49 10000 1.54 90 22:19 21.11.2021
4623 Clouds 18 1014 55 10000 2.06 80 20:42 21.11.2021
4624 Clouds 18 1014 55 10000 2.06 80 20:21 21.11.2021
4625 Clouds 18 1014 55 10000 3.09 150 18:30 21.11.2021
4626 Clouds 20 1014 45 10000 2.57 100 17:39 21.11.2021
4627 Clouds 20 1015 49 10000 3.09 120 16:46 21.11.2021
4628 Clouds 23 1016 38 10000 3.6 120 14:46 21.11.2021
4629 Clear 24 1015 33 10000 5.14 110 13:49 21.11.2021
4630 Clear 26 1015 34 10000 6.17 110 12:38 21.11.2021
4631 Clear 26 1014 36 10000 5.14 110 11:57 21.11.2021
4632 Clear 26 1014 41 10000 4.63 120 11:35 21.11.2021
4633 Clear 28 1013 34 10000 5.66 100 10:19 21.11.2021
4634 Clear 29 1013 34 10000 5.66 110 08:56 21.11.2021
4635 Clear 29 1013 34 10000 5.14 100 08:26 21.11.2021
4636 Clear 29 1013 37 10000 6.17 150 07:49 21.11.2021
4637 Clouds 28 1013 39 10000 6.17 110 06:18 21.11.2021
4638 Clouds 28 1014 42 10000 7.2 120 05:26 21.11.2021
4639 Clear 26 1016 50 10000 7.2 120 03:19 21.11.2021
4640 Clouds 26 1016 50 10000 7.2 130 02:52 21.11.2021
4641 Clouds 23 1017 64 10000 7.2 120 00:59 21.11.2021
4642 Clouds 22 1017 64 10000 7.2 120 23:59 20.11.2021
4643 Clouds 21 1015 68 10000 6.17 140 21:49 20.11.2021
4644 Clouds 22 1015 60 10000 4.63 150 21:28 20.11.2021
4645 Clouds 23 1014 53 10000 4.63 150 19:22 20.11.2021
4646 Clouds 23 1014 53 10000 4.63 140 18:45 20.11.2021
4647 Clouds 23 1014 53 10000 5.14 140 18:18 20.11.2021
4648 Clouds 24 1014 50 10000 5.66 140 16:59 20.11.2021
4649 Clear 26 1014 44 10000 6.69 150 14:48 20.11.2021
4650 Clear 27 1014 41 10000 5.14 150 14:27 20.11.2021
4651 Clouds 31 1011 27 10000 6.17 140 12:23 20.11.2021
4652 Clouds 33 1009 24 10000 7.72 160 11:18 20.11.2021
4653 Clouds 36 1007 16 10000 3.09 340 09:51 20.11.2021
4654 Clouds 38 1007 11 10000 6.17 300 07:47 20.11.2021
4655 Clear 38 1009 12 10000 8.23 310 05:28 20.11.2021
4656 Clear 38 1009 13 10000 7.72 310 04:50 20.11.2021
4657 Clear 37 1010 12 10000 7.72 340 03:24 20.11.2021
4658 Clear 32 1011 17 10000 6.17 350 00:41 20.11.2021
4659 Clear 27 1010 28 10000 0 0 23:43 19.11.2021
4660 Clear 21 1010 49 10000 0 0 22:39 19.11.2021
4661 Clear 20 1009 49 10000 2.57 290 20:59 19.11.2021
4662 Clear 19 1009 48 10000 1.03 330 20:37 19.11.2021
4663 Clear 19 1009 59 10000 0 0 19:56 19.11.2021
4664 Clear 19 1009 59 10000 3.09 20 18:55 19.11.2021
4665 Clear 20 1009 49 10000 2.57 320 18:24 19.11.2021
4666 Clear 20 1009 56 10000 0 0 17:36 19.11.2021
4667 Clouds 21 1010 52 10000 3.09 290 15:58 19.11.2021
4668 Clear 24 1011 41 10000 0 0 13:56 19.11.2021
4669 Clear 35 1009 10 10000 3.09 350 10:30 19.11.2021
4670 Clear 36 1009 9 10000 3.6 330 09:48 19.11.2021
4671 Clear 37 1009 8 10000 4.63 320 08:26 19.11.2021
4672 Clear 36 1011 7 6000 5.66 330 04:54 19.11.2021
4673 Clear 34 1012 10 10000 6.17 340 02:40 19.11.2021
4674 Clear 29 1013 16 10000 0 0 23:52 18.11.2021
4675 Clear 20 1012 45 10000 2.57 170 22:21 18.11.2021
4676 Clear 17 1011 67 10000 2.57 210 20:50 18.11.2021
4677 Clear 17 1011 67 10000 0 0 20:31 18.11.2021
4678 Clear 21 1011 32 10000 0.51 360 19:55 18.11.2021
4679 Clear 20 1011 42 10000 0 0 19:34 18.11.2021
4680 Clear 21 1011 43 10000 0 0 18:34 18.11.2021
4681 Clear 19 1011 59 10000 0 0 17:51 18.11.2021
4682 Clear 20 1012 60 10000 0 0 16:44 18.11.2021
4683 Clear 21 1012 52 10000 0 0 15:46 18.11.2021
4684 Clear 24 1013 35 10000 3.6 60 13:40 18.11.2021
4685 Clear 26 1012 25 10000 3.09 70 12:34 18.11.2021
4686 Clear 29 1012 18 10000 3.09 110 11:43 18.11.2021
4687 Clear 29 1012 18 10000 3.09 110 11:24 18.11.2021
4688 Clear 34 1011 11 10000 3.09 80 09:44 18.11.2021
4689 Clear 34 1011 10 10000 3.6 50 07:35 18.11.2021
4690 Clear 34 1013 12 10000 4.12 70 05:55 18.11.2021
4691 Clear 34 1013 10 10000 4.12 60 05:36 18.11.2021
4692 Clear 29 1017 14 10000 4.12 40 01:24 18.11.2021
4693 Clear 29 1017 14 10000 4.12 40 01:24 18.11.2021
4694 Clear 22 1017 35 10000 1.54 30 23:18 17.11.2021
4695 Clear 16 1016 72 10000 0.51 330 22:21 17.11.2021
4696 Clear 13 1016 88 10000 0 0 21:39 17.11.2021
4697 Clear 15 1015 72 10000 0 0 20:58 17.11.2021
4698 Clouds 16 1015 72 10000 1.54 220 18:34 17.11.2021
4699 Clouds 17 1016 67 10000 0 0 17:28 17.11.2021
4700 Clouds 20 1017 45 10000 2.57 40 14:52 17.11.2021
4701 Clear 23 1016 28 10000 3.09 70 12:41 17.11.2021
4702 Clear 25 1016 22 10000 3.09 80 11:49 17.11.2021
4703 Clear 29 1015 15 10000 4.63 90 10:32 17.11.2021
4704 Clear 31 1014 13 10000 5.14 120 09:25 17.11.2021
4705 Clear 31 1015 14 10000 4.12 100 07:44 17.11.2021
4706 Clear 29 1017 15 10000 3.09 100 04:47 17.11.2021
4707 Clear 26 1020 18 10000 4.63 80 02:37 17.11.2021
4708 Clear 21 1020 35 10000 0 0 23:27 16.11.2021
4709 Clear 13 1018 76 10000 0 0 21:27 16.11.2021
4710 Clear 14 1018 77 10000 0 0 20:18 16.11.2021
4711 Clear 14 1018 77 10000 0 0 18:54 16.11.2021
4712 Clear 15 1018 72 10000 0 0 18:35 16.11.2021
4713 Clear 15 1018 72 10000 0 0 18:35 16.11.2021
4714 Clear 15 1018 77 10000 0 0 17:43 16.11.2021
4715 Clear 15 1018 77 10000 0 0 16:52 16.11.2021
4716 Clear 17 1018 67 10000 0 0 16:18 16.11.2021
4717 Clear 19 1018 42 10000 2.57 60 15:40 16.11.2021
4718 Clear 22 1018 30 10000 2.57 70 12:34 16.11.2021
4719 Clear 28 1016 16 10000 5.14 120 09:49 16.11.2021
4720 Clear 29 1016 15 10000 5.14 80 08:48 16.11.2021
4721 Clear 29 1016 15 10000 4.63 180 07:34 16.11.2021
4722 Clear 26 1019 21 10000 5.14 70 02:50 16.11.2021
4723 Clear 19 1019 42 10000 0 0 23:23 15.11.2021
4724 Clear 15 1018 72 10000 0 0 22:39 15.11.2021
4725 Clear 13 1018 82 10000 0 0 21:54 15.11.2021
4726 Clear 13 1017 71 10000 0 0 21:29 15.11.2021
4727 Clear 15 1016 58 10000 0.51 80 19:58 15.11.2021
4728 Clear 14 1016 72 10000 0 0 18:48 15.11.2021
4729 Clear 16 1017 59 10000 2.06 80 16:55 15.11.2021
4730 Clear 18 1018 45 10000 3.09 120 15:42 15.11.2021
4731 Clear 18 1018 45 10000 3.09 120 15:24 15.11.2021
4732 Clear 20 1018 40 10000 3.6 120 13:32 15.11.2021
4733 Clear 22 1017 30 10000 3.6 120 11:53 15.11.2021
4734 Clear 26 1015 21 10000 5.14 110 09:28 15.11.2021
4735 Clear 27 1015 21 10000 4.12 130 07:55 15.11.2021
4736 Clouds 26 1017 24 10000 4.12 150 05:23 15.11.2021
4737 Clear 20 1019 37 10000 4.12 90 23:57 14.11.2021
4738 Clear 15 1018 77 10000 0 0 22:37 14.11.2021
4739 Clear 13 1017 82 10000 0 0 19:59 14.11.2021
4740 Clear 13 1017 88 10000 0 0 19:18 14.11.2021
4741 Clear 14 1017 72 10000 0 0 18:54 14.11.2021
4742 Clear 14 1017 72 10000 2.57 20 18:36 14.11.2021
4743 Clear 14 1017 72 10000 2.57 20 18:18 14.11.2021
4744 Clear 15 1017 67 10000 3.09 30 17:57 14.11.2021
4745 Clear 15 1017 72 10000 3.6 150 17:39 14.11.2021
4746 Clear 15 1017 72 10000 3.6 150 17:21 14.11.2021
4747 Clear 15 1017 72 10000 1.54 90 16:49 14.11.2021
4748 Clear 15 1018 67 10000 2.06 60 16:20 14.11.2021
4749 Clear 17 1018 55 10000 2.57 100 15:23 14.11.2021
4750 Clear 17 1019 55 10000 2.06 90 14:49 14.11.2021
4751 Clear 17 1019 51 10000 2.06 90 14:29 14.11.2021
4752 Clear 18 1018 48 10000 2.57 120 13:57 14.11.2021
4753 Clear 18 1018 45 10000 3.09 110 13:39 14.11.2021
4754 Clear 20 1018 34 10000 3.6 150 12:28 14.11.2021
4755 Clear 21 1017 32 10000 3.09 140 11:52 14.11.2021
4756 Clear 24 1016 22 10000 5.14 140 10:42 14.11.2021
4757 Clear 25 1016 19 10000 4.12 160 09:52 14.11.2021
4758 Clear 26 1015 18 10000 4.63 150 08:55 14.11.2021
4759 Clear 27 1016 22 10000 4.12 200 07:23 14.11.2021
4760 Clear 20 1020 42 10000 3.09 110 00:26 14.11.2021
4761 Clear 13 1018 88 10000 0 0 22:26 13.11.2021
4762 Clear 12 1018 87 10000 0 0 21:57 13.11.2021
4763 Clear 11 1018 93 10000 0 0 21:23 13.11.2021
4764 Clear 12 1017 87 10000 1.03 40 19:47 13.11.2021
4765 Clear 12 1016 87 10000 0 0 18:33 13.11.2021
4766 Clear 13 1016 82 10000 0 0 17:55 13.11.2021
4767 Clear 14 1017 72 10000 0 0 16:37 13.11.2021
4768 Clear 15 1018 67 10000 1.54 90 15:34 13.11.2021
4769 Clear 16 1018 59 10000 2.06 110 14:30 13.11.2021
4770 Clear 17 1017 51 10000 3.09 130 13:32 13.11.2021
4771 Clear 18 1017 48 10000 3.09 160 12:24 13.11.2021
4772 Clear 20 1016 37 10000 2.57 150 11:34 13.11.2021
4773 Clear 21 1016 30 10000 3.6 160 10:45 13.11.2021
4774 Clear 22 1016 26 10000 3.09 140 10:20 13.11.2021
4775 Clear 23 1015 21 10000 3.09 190 09:37 13.11.2021
4776 Clear 23 1015 20 10000 4.12 140 08:56 13.11.2021
4777 Clear 23 1015 23 10000 4.12 120 08:23 13.11.2021
4778 Clear 22 1017 24 10000 3.6 180 04:47 13.11.2021
4779 Clear 21 1018 26 10000 3.09 240 04:28 13.11.2021
4780 Clear 18 1020 34 10000 4.63 150 01:30 13.11.2021
4781 Clear 13 1019 76 10000 0 0 22:46 12.11.2021
4782 Clear 10 1018 93 10000 0 0 21:45 12.11.2021
4783 Clear 10 1018 93 10000 0 0 21:45 12.11.2021
4784 Clear 11 1017 82 10000 0 0 19:46 12.11.2021
4785 Clear 11 1017 87 10000 0 0 19:27 12.11.2021
4786 Clear 12 1016 76 10000 2.57 160 18:28 12.11.2021
4787 Clear 13 1017 76 10000 0 0 16:23 12.11.2021
4788 Clear 14 1017 67 10000 2.06 140 15:32 12.11.2021
4789 Clear 17 1016 55 10000 3.6 170 11:33 12.11.2021
4790 Clear 19 1016 39 10000 3.6 190 10:50 12.11.2021
4791 Clear 21 1015 32 10000 4.63 200 09:36 12.11.2021
4792 Clear 21 1014 32 10000 6.17 180 08:38 12.11.2021
4793 Clouds 16 1017 51 10000 5.66 190 02:25 12.11.2021
4794 Clear 13 1016 71 10000 4.63 180 23:39 11.11.2021
4795 Clear 12 1015 82 10000 3.6 190 22:30 11.11.2021
4796 Clear 10 1015 93 10000 2.57 190 21:27 11.11.2021
4797 Clear 11 1014 87 10000 3.09 170 20:38 11.11.2021
4798 Clear 12 1013 82 10000 2.57 180 18:56 11.11.2021
4799 Clear 13 1014 71 10000 4.63 180 17:43 11.11.2021
4800 Clear 14 1014 67 10000 5.14 190 16:40 11.11.2021
4801 Clouds 16 1014 59 10000 5.66 190 14:45 11.11.2021
4802 Clouds 16 1014 63 10000 5.66 170 14:26 11.11.2021
4803 Clouds 17 1013 55 10000 3.6 210 13:37 11.11.2021
4804 Clouds 17 1013 55 10000 3.6 210 13:37 11.11.2021
4805 Clouds 17 1013 55 10000 4.63 200 12:48 11.11.2021
4806 Clear 20 1009 49 10000 7.72 210 10:36 11.11.2021
4807 Clouds 22 1009 46 10000 8.23 220 09:33 11.11.2021
4808 Clear 24 1007 41 10000 7.72 230 07:38 11.11.2021
4809 Clear 21 1008 56 10000 6.69 240 02:36 11.11.2021
4810 Clear 19 1007 68 10000 5.14 270 22:59 10.11.2021
4811 Clear 18 1006 72 10000 4.63 250 22:22 10.11.2021
4812 Clear 18 1006 77 10000 3.09 260 21:18 10.11.2021
4813 Clear 18 1005 82 10000 5.14 220 20:45 10.11.2021
4814 Clouds 20 1004 73 10000 5.66 220 19:46 10.11.2021
4815 Clouds 21 1003 68 10000 4.12 270 17:50 10.11.2021
4816 Clouds 23 1004 64 10000 3.6 270 16:33 10.11.2021
4817 Clouds 23 1004 88 10000 0 0 14:44 10.11.2021
4818 Clouds 23 1004 83 10000 3.6 190 13:40 10.11.2021
4819 Rain 25 1003 69 10000 4.12 280 12:44 10.11.2021
4820 Rain 27 1001 74 10000 7.72 350 10:39 10.11.2021
4821 Rain 28 1000 74 10000 3.09 20 08:45 10.11.2021
4822 Clouds 26 1001 83 10000 6.69 50 07:25 10.11.2021
4823 Clouds 27 1002 74 10000 6.69 60 06:25 10.11.2021
4824 Clouds 27 1003 74 10000 4.63 60 05:44 10.11.2021
4825 Rain 19 1009 100 1700 1.03 60 22:54 09.11.2021
4826 Rain 19 1008 100 5000 0.51 70 21:47 09.11.2021
4827 Clouds 19 1007 100 10000 4.12 40 20:26 09.11.2021
4828 Rain 19 1007 100 9000 4.12 50 19:20 09.11.2021
4829 Rain 19 1009 100 5000 2.57 210 17:30 09.11.2021
4830 Thunderstorm 19 1009 100 5000 6.17 210 15:38 09.11.2021
4831 Rain 24 996 78 10000 0.51 20 13:59 09.11.2021
4832 Clouds 23 996 81 10000 3.6 20 12:50 09.11.2021
4833 Clouds 23 996 84 10000 4.63 70 11:38 09.11.2021
4834 Rain 24 1007 83 10000 3.6 10 10:43 09.11.2021
4835 Rain 24 1007 83 10000 3.6 30 09:24 09.11.2021
4836 Clouds 24 1007 78 10000 0 0 08:18 09.11.2021
4837 Thunderstorm 26 1005 73 10000 4.12 280 05:23 09.11.2021
4838 Clouds 22 1011 78 10000 7.2 350 01:58 09.11.2021
4839 Clouds 22 1011 78 10000 7.2 350 01:39 09.11.2021
4840 Clouds 19 1011 94 10000 5.14 350 23:35 08.11.2021
4841 Clouds 18 1011 100 10000 3.09 60 22:48 08.11.2021
4842 Clouds 17 1011 100 10000 2.57 30 21:46 08.11.2021
4843 Clouds 16 1010 100 10000 0 0 20:38 08.11.2021
4844 Clouds 16 1010 100 10000 0.51 30 19:46 08.11.2021
4845 Clouds 17 1000 99 10000 2.57 80 17:48 08.11.2021
4846 Clear 17 1000 99 10000 2.57 100 15:59 08.11.2021
4847 Clear 18 1011 100 10000 2.06 40 14:57 08.11.2021
4848 Clear 18 1000 99 10000 2.06 60 14:34 08.11.2021
4849 Clouds 19 1010 94 10000 3.09 90 13:22 08.11.2021
4850 Clouds 18 1000 93 10000 2.06 80 11:56 08.11.2021
4851 Clouds 20 1000 85 10000 3.09 80 10:50 08.11.2021
4852 Clouds 22 999 73 10000 0.89 150 09:31 08.11.2021
4853 Clouds 22 999 74 10000 1.34 154 08:52 08.11.2021
4854 Clouds 21 1000 79 10000 1.79 212 07:27 08.11.2021
4855 Rain 32 1006 38 10000 8.37 346 03:38 08.11.2021
4856 Rain 31 1007 41 10000 7.18 358 03:19 08.11.2021
4857 Clouds 22 1001 65 10000 0.89 223 23:33 07.11.2021
4858 Clear 18 1011 94 10000 1.03 110 21:31 07.11.2021
4859 Clouds 18 1011 94 10000 1.54 60 20:36 07.11.2021
4860 Clouds 18 1010 94 10000 2.06 220 19:19 07.11.2021
4861 Clear 19 1011 94 10000 0 0 17:44 07.11.2021
4862 Clear 20 1011 77 10000 0 0 16:42 07.11.2021
4863 Clear 20 1011 83 10000 0 0 15:42 07.11.2021
4864 Clear 21 1012 78 10000 2.57 350 14:28 07.11.2021
4865 Clouds 21 1001 72 10000 3.09 40 12:55 07.11.2021
4866 Clouds 23 1000 61 10000 0.51 70 11:42 07.11.2021
4867 Clouds 24 1010 57 10000 1.54 300 09:21 07.11.2021
4868 Clouds 23 1013 73 10000 4.12 170 03:40 07.11.2021
4869 Clouds 23 1013 78 10000 2.57 190 02:25 07.11.2021
4870 Clouds 21 1012 88 10000 0 0 22:56 06.11.2021
4871 Clouds 21 1011 94 10000 2.57 180 21:59 06.11.2021
4872 Clouds 21 1012 94 10000 2.06 340 21:22 06.11.2021
4873 Rain 21 1011 94 10000 0.51 290 20:29 06.11.2021
4874 Clouds 21 1011 94 8000 2.57 210 17:32 06.11.2021
4875 Clouds 22 1011 94 10000 3.6 200 16:35 06.11.2021
4876 Clouds 22 1011 88 10000 3.09 270 13:45 06.11.2021
4877 Clouds 22 1011 88 10000 5.14 180 12:58 06.11.2021
4878 Rain 22 1010 88 10000 7.72 220 11:24 06.11.2021
4879 Clouds 29 1005 51 10000 7.2 190 08:49 06.11.2021
4880 Clouds 35 1007 24 10000 3.6 320 04:50 06.11.2021
4881 Clouds 31 1010 40 10000 1.03 270 00:36 06.11.2021
4882 Clouds 27 1010 61 10000 2.06 250 23:29 05.11.2021
4883 Clouds 24 1010 73 10000 0 0 22:33 05.11.2021
4884 Clouds 23 1009 78 10000 0 0 20:41 05.11.2021
4885 Clouds 24 1009 69 10000 0 0 19:51 05.11.2021
4886 Clouds 25 1009 65 10000 2.06 290 18:51 05.11.2021
4887 Clouds 24 1009 69 10000 3.09 290 18:29 05.11.2021
4888 Clouds 25 1010 69 10000 3.6 280 16:45 05.11.2021
4889 Clouds 28 1011 51 10000 0 0 14:22 05.11.2021
4890 Clouds 28 1000 45 10000 0 0 12:27 05.11.2021
4891 Clouds 34 1010 24 10000 4.63 270 09:29 05.11.2021
4892 Clouds 35 1010 21 10000 4.63 270 08:28 05.11.2021
4893 Clouds 35 1012 24 10000 3.09 300 05:40 05.11.2021
4894 Clouds 30 1015 30 10000 5.66 80 02:37 05.11.2021
4895 Clouds 30 1015 30 10000 5.66 80 02:18 05.11.2021
4896 Clouds 26 1016 41 10000 3.6 90 23:57 04.11.2021
4897 Clouds 21 1016 78 10000 0 0 22:21 04.11.2021
4898 Clouds 20 1015 83 10000 0 0 21:56 04.11.2021
4899 Clouds 20 1015 73 10000 1.03 70 21:27 04.11.2021
4900 Clouds 21 1014 64 10000 0 0 20:28 04.11.2021
4901 Clouds 21 1014 73 10000 0 0 19:49 04.11.2021
4902 Clouds 21 1015 78 10000 2.06 130 19:25 04.11.2021
4903 Clouds 22 1015 64 10000 3.09 120 18:26 04.11.2021
4904 Clouds 22 1015 78 10000 0 0 17:26 04.11.2021
4905 Clouds 22 1015 78 10000 0 0 17:26 04.11.2021
4906 Clouds 25 1016 57 10000 2.57 120 15:42 04.11.2021
4907 Clouds 25 1016 65 10000 2.06 130 13:45 04.11.2021
4908 Clouds 31 1015 35 10000 3.6 120 10:22 04.11.2021
4909 Clouds 32 1015 35 10000 2.06 140 08:31 04.11.2021
4910 Clouds 32 1016 31 10000 1.03 200 07:36 04.11.2021
4911 Clouds 32 1016 35 10000 4.63 70 06:40 04.11.2021
4912 Clouds 21 1019 88 10000 2.57 230 22:59 03.11.2021
4913 Clouds 19 1019 100 10000 2.57 290 22:19 03.11.2021
4914 Clouds 19 1019 100 10000 0 0 21:36 03.11.2021
4915 Clouds 19 1018 100 10000 0 0 20:39 03.11.2021
4916 Clouds 19 1018 100 10000 0 0 20:21 03.11.2021
4917 Clouds 20 1018 94 10000 2.57 260 19:28 03.11.2021
4918 Clouds 19 1018 100 10000 0 0 18:26 03.11.2021
4919 Clouds 20 1018 94 10000 0.51 330 17:41 03.11.2021
4920 Clouds 20 1019 100 10000 2.57 310 16:42 03.11.2021
4921 Clouds 20 1020 100 10000 3.09 300 15:47 03.11.2021
4922 Clouds 21 1020 94 10000 2.57 250 15:29 03.11.2021
4923 Clouds 21 1019 88 10000 2.06 360 13:18 03.11.2021
4924 Clouds 21 1018 88 10000 1.03 220 11:34 03.11.2021
4925 Clouds 22 1017 83 10000 3.09 320 10:49 03.11.2021
4926 Rain 21 1018 94 10000 4.12 310 09:40 03.11.2021
4927 Rain 21 1018 88 10000 7.72 280 08:41 03.11.2021
4928 Rain 23 1017 83 10000 10.29 330 07:40 03.11.2021
4929 Clouds 30 1017 54 10000 0.51 110 05:45 03.11.2021
4930 Clouds 28 1018 57 10000 2.06 40 04:22 03.11.2021
4931 Clouds 20 1020 94 10000 6.17 10 00:55 03.11.2021
4932 Rain 19 1020 100 10000 3.09 30 22:52 02.11.2021
4933 Rain 19 1020 100 10000 3.09 30 22:52 02.11.2021
4934 Rain 19 1019 100 10000 0 0 21:47 02.11.2021
4935 Rain 20 1019 94 10000 1.54 180 20:35 02.11.2021
4936 Rain 20 1018 94 10000 3.6 260 19:56 02.11.2021
4937 Thunderstorm 20 1016 88 10000 4.12 310 19:20 02.11.2021
4938 Thunderstorm 20 1016 94 10000 4.63 280 18:27 02.11.2021
4939 Thunderstorm 20 1016 94 6000 5.66 290 17:43 02.11.2021
4940 Clouds 22 1015 83 10000 3.09 140 16:34 02.11.2021
4941 Clouds 23 1016 73 10000 3.09 10 15:48 02.11.2021
4942 Clouds 23 1017 73 10000 3.09 330 14:50 02.11.2021
4943 Clouds 23 1017 73 10000 2.06 30 13:29 02.11.2021
4944 Dust 24 1018 64 250 4.63 300 12:46 02.11.2021
4945 Clouds 24 1016 64 10000 2.06 130 11:38 02.11.2021
4946 Rain 24 1016 64 10000 2.57 140 10:54 02.11.2021
4947 Clouds 25 1015 57 10000 4.12 130 10:32 02.11.2021
4948 Clouds 25 1016 61 10000 3.6 140 09:23 02.11.2021
4949 Clouds 25 1016 65 10000 7.2 170 07:45 02.11.2021
4950 Clouds 25 1018 61 10000 5.66 220 04:39 02.11.2021
4951 Clouds 25 1018 61 10000 4.12 190 02:49 02.11.2021
4952 Clouds 22 1017 78 10000 3.09 260 23:32 01.11.2021
4953 Clouds 21 1014 83 10000 0 0 21:28 01.11.2021
4954 Clouds 20 1014 88 10000 0 0 20:40 01.11.2021
4955 Clouds 20 1013 88 10000 1.54 40 19:58 01.11.2021
4956 Clouds 20 1014 94 10000 0 0 19:35 01.11.2021
4957 Clouds 21 1013 83 10000 2.57 40 18:23 01.11.2021
4958 Clouds 21 1014 83 10000 0 0 17:35 01.11.2021
4959 Clouds 21 1014 83 10000 1.54 360 16:50 01.11.2021
4960 Clouds 22 1015 78 10000 2.06 350 15:56 01.11.2021
4961 Clouds 22 1016 78 10000 2.06 310 15:27 01.11.2021
4962 Clouds 22 1016 78 10000 0 0 14:43 01.11.2021
4963 Clouds 23 1016 68 10000 0 0 14:23 01.11.2021
4964 Clouds 23 1016 68 10000 2.57 230 13:49 01.11.2021
4965 Clouds 28 1015 54 10000 5.66 230 12:33 01.11.2021
4966 Clouds 31 1013 35 10000 3.6 350 10:36 01.11.2021
4967 Clouds 32 1013 31 10000 4.63 350 09:35 01.11.2021
4968 Clouds 31 1013 33 10000 3.6 350 07:49 01.11.2021
4969 Clouds 31 1014 33 10000 4.63 320 06:31 01.11.2021
4970 Clouds 27 1017 47 10000 3.09 330 03:44 01.11.2021
4971 Clouds 20 1020 64 10000 2.57 60 00:41 01.11.2021
4972 Clouds 15 1018 94 10000 3.09 60 22:31 31.10.2021
4973 Clouds 15 1018 94 10000 2.06 30 20:50 31.10.2021
4974 Clouds 14 1017 94 10000 2.57 90 18:57 31.10.2021
4975 Clouds 14 1018 94 10000 2.06 80 18:37 31.10.2021
4976 Clouds 14 1018 94 10000 2.57 80 17:23 31.10.2021
4977 Clouds 15 1019 88 10000 3.6 90 15:48 31.10.2021
4978 Clear 16 1020 88 10000 3.09 100 13:56 31.10.2021
4979 Clouds 16 1019 94 10000 3.09 110 12:49 31.10.2021
4980 Clouds 18 1019 72 10000 2.57 60 11:38 31.10.2021
4981 Clouds 19 1018 68 10000 4.12 50 10:41 31.10.2021
4982 Clouds 20 1018 64 10000 4.12 20 09:20 31.10.2021
4983 Rain 18 1018 88 10000 4.63 40 06:59 31.10.2021
4984 Clouds 18 1021 59 10000 0.51 110 00:54 31.10.2021
4985 Clouds 16 1020 77 10000 0 0 22:36 30.10.2021
4986 Clouds 16 1020 67 10000 2.57 90 21:34 30.10.2021
4987 Clouds 20 1018 33 10000 8.49 100 20:21 30.10.2021
4988 Clouds 16 1021 72 10000 3.6 130 18:36 30.10.2021
4989 Rain 18 1023 59 10000 3.6 130 16:42 30.10.2021
4990 Clouds 21 1022 30 10000 6.69 130 14:36 30.10.2021
4991 Clouds 22 1022 28 10000 5.66 160 13:39 30.10.2021
4992 Clouds 22 1022 28 10000 5.66 160 13:20 30.10.2021
4993 Clouds 23 1019 25 10000 7.72 150 11:51 30.10.2021
4994 Rain 24 1018 23 10000 8.23 140 11:31 30.10.2021
4995 Clouds 25 1019 22 10000 6.69 140 10:24 30.10.2021
4996 Clouds 26 1019 21 10000 6.17 160 08:48 30.10.2021
4997 Clouds 27 1019 18 10000 7.72 130 05:50 30.10.2021
4998 Clouds 27 1019 18 10000 7.72 130 05:19 30.10.2021
4999 Clouds 21 1020 26 10000 5.14 110 23:47 29.10.2021
5000 Clouds 18 1018 29 10000 4.12 150 22:36 29.10.2021
5001 Clouds 16 1017 31 10000 2.57 130 21:23 29.10.2021
5002 Clouds 17 1017 34 10000 3.09 50 20:42 29.10.2021
5003 Clouds 18 1016 29 10000 2.06 80 19:44 29.10.2021
5004 Clouds 19 1017 27 10000 3.6 60 18:26 29.10.2021
5005 Clouds 21 1017 26 10000 3.6 110 16:50 29.10.2021
5006 Clouds 25 1016 20 10000 7.2 110 14:29 29.10.2021
5007 Clouds 29 1014 15 10000 3.6 120 10:52 29.10.2021
5008 Clouds 29 1014 15 10000 4.12 120 10:33 29.10.2021
5009 Clouds 29 1014 14 10000 5.66 120 07:23 29.10.2021
5010 Clouds 23 1017 20 10000 6.17 120 00:35 29.10.2021
5011 Clouds 24 1015 22 10000 6.17 140 22:51 28.10.2021
5012 Clouds 24 1013 23 10000 2.06 140 21:32 28.10.2021
5013 Clouds 26 1011 21 10000 5.66 170 20:20 28.10.2021
5014 Clouds 25 1011 25 10000 3.09 190 18:57 28.10.2021
5015 Clouds 25 1011 29 10000 2.57 210 17:57 28.10.2021
5016 Clouds 26 1010 31 10000 0 0 16:54 28.10.2021
5017 Clouds 28 1011 28 10000 0 0 15:20 28.10.2021
5018 Clouds 32 1010 19 10000 3.09 170 13:35 28.10.2021
5019 Clouds 31 1009 22 10000 2.57 190 12:53 28.10.2021
5020 Clouds 33 1009 18 10000 3.09 230 12:33 28.10.2021
5021 Clouds 36 1007 14 10000 5.14 240 10:48 28.10.2021
5022 Clouds 37 1006 13 10000 7.72 300 09:38 28.10.2021
5023 Clouds 38 1006 14 10000 8.75 310 08:37 28.10.2021
5024 Clouds 39 1006 13 10000 7.72 310 07:47 28.10.2021
5025 Clouds 36 1010 20 10000 7.72 310 04:19 28.10.2021
5026 Clouds 29 1010 39 10000 5.14 300 23:26 27.10.2021
5027 Clouds 28 1010 42 10000 6.17 320 22:29 27.10.2021
5028 Clouds 29 1010 37 10000 5.14 310 21:32 27.10.2021
5029 Clear 28 1010 39 10000 4.63 300 20:48 27.10.2021
5030 Clouds 26 1010 41 10000 4.12 290 19:50 27.10.2021
5031 Clouds 26 1010 44 10000 2.06 290 18:56 27.10.2021
5032 Clouds 28 1010 39 10000 3.6 360 18:37 27.10.2021
5033 Clouds 26 1012 41 10000 3.09 10 16:26 27.10.2021
5034 Clouds 27 1013 39 10000 2.57 10 15:29 27.10.2021
5035 Clouds 27 1013 39 10000 2.57 270 14:38 27.10.2021
5036 Clouds 33 1011 27 10000 7.72 300 11:19 27.10.2021
5037 Clouds 34 1010 24 10000 7.72 320 10:57 27.10.2021
5038 Clouds 34 1010 22 10000 8.23 310 09:38 27.10.2021
5039 Clouds 33 1011 27 10000 13.38 310 07:51 27.10.2021
5040 Clouds 37 1010 19 10000 14.92 310 06:36 27.10.2021
5041 Clouds 33 1013 22 10000 10.29 320 01:29 27.10.2021
5042 Clouds 32 1012 23 10000 7.2 330 00:55 27.10.2021
5043 Clouds 30 1012 26 10000 7.2 330 23:56 26.10.2021
5044 Clouds 29 1011 28 10000 5.66 340 22:55 26.10.2021
5045 Clouds 30 1011 26 10000 6.69 340 22:27 26.10.2021
5046 Clouds 29 1011 28 10000 4.63 340 21:51 26.10.2021
5047 Clouds 29 1011 28 10000 3.6 340 20:26 26.10.2021
5048 Clouds 30 1011 28 10000 6.69 340 19:25 26.10.2021
5049 Clouds 30 1011 28 10000 4.63 340 18:30 26.10.2021
5050 Clouds 26 1012 36 10000 0 0 15:53 26.10.2021
5051 Clouds 28 1012 32 10000 2.57 50 14:18 26.10.2021
5052 Clouds 34 1010 22 10000 2.06 190 11:31 26.10.2021
5053 Clouds 37 1009 16 10000 4.63 330 09:28 26.10.2021
5054 Clouds 36 1010 17 10000 5.14 350 07:23 26.10.2021
5055 Clear 26 1015 47 10000 3.6 30 00:31 26.10.2021
5056 Clear 25 1015 36 10000 2.57 70 23:48 25.10.2021
5057 Clouds 22 1014 49 10000 3.09 50 22:36 25.10.2021
5058 Clouds 22 1014 46 10000 3.6 50 21:48 25.10.2021
5059 Clear 23 1014 40 10000 2.57 40 21:23 25.10.2021
5060 Clouds 24 1013 38 10000 2.57 30 19:44 25.10.2021
5061 Clouds 24 1013 31 10000 3.6 40 19:24 25.10.2021
5062 Clouds 24 1013 27 10000 3.6 50 18:42 25.10.2021
5063 Clouds 25 1014 25 10000 4.63 70 17:42 25.10.2021
5064 Clouds 26 1014 24 10000 3.6 90 15:24 25.10.2021
5065 Clouds 29 1013 20 10000 6.17 100 13:29 25.10.2021
5066 Clouds 32 1011 17 10000 6.17 90 11:25 25.10.2021
5067 Clear 34 1011 15 10000 4.63 90 09:22 25.10.2021
5068 Clouds 33 1012 15 10000 6.17 100 07:26 25.10.2021
5069 Clouds 30 1015 19 10000 3.09 20 05:24 25.10.2021
5070 Clouds 21 1019 32 10000 4.63 90 00:52 25.10.2021
5071 Clear 20 1018 37 10000 4.12 110 00:34 25.10.2021
5072 Clear 16 1018 51 10000 2.06 110 23:42 24.10.2021
5073 Clear 16 1017 48 10000 0 0 22:39 24.10.2021
5074 Clear 16 1017 48 10000 0 0 22:20 24.10.2021
5075 Clouds 17 1016 48 10000 2.57 130 21:18 24.10.2021
5076 Clear 18 1016 45 10000 4.12 100 20:36 24.10.2021
5077 Clouds 17 1016 51 10000 3.09 80 19:40 24.10.2021
5078 Clouds 19 1017 52 10000 3.09 100 18:29 24.10.2021
5079 Clouds 19 1018 52 10000 0 0 17:44 24.10.2021
5080 Clouds 20 1018 45 10000 3.6 150 15:56 24.10.2021
5081 Clouds 22 1018 30 10000 4.63 120 14:42 24.10.2021
5082 Clouds 23 1017 28 10000 3.6 130 12:58 24.10.2021
5083 Clouds 24 1016 27 10000 7.72 120 11:45 24.10.2021
5084 Clouds 24 1016 27 10000 8.23 140 11:25 24.10.2021
5085 Clouds 27 1016 24 10000 7.72 120 10:28 24.10.2021
5086 Clouds 27 1016 21 10000 7.72 130 07:59 24.10.2021
5087 Clouds 23 1020 25 10000 8.23 110 01:25 24.10.2021
5088 Clouds 21 1020 30 10000 6.69 120 23:49 23.10.2021
5089 Clouds 20 1019 32 10000 5.14 130 22:29 23.10.2021
5090 Clouds 21 1018 35 10000 6.17 130 20:37 23.10.2021
5091 Clouds 23 1017 31 10000 4.12 120 18:59 23.10.2021
5092 Clouds 24 1017 29 10000 5.66 120 18:30 23.10.2021
5093 Clouds 24 1017 31 10000 4.63 130 17:43 23.10.2021
5094 Clouds 25 1018 27 10000 6.69 130 16:35 23.10.2021
5095 Clouds 26 1017 25 10000 5.66 130 14:35 23.10.2021
5096 Clouds 31 1015 18 10000 7.2 110 09:45 23.10.2021
5097 Clouds 23 1019 33 10000 9.26 130 00:25 23.10.2021
5098 Clouds 25 1017 23 10000 5.14 130 23:22 22.10.2021
5099 Clear 25 1014 23 10000 3.09 110 20:50 22.10.2021
5100 Clouds 28 1014 20 10000 5.14 80 18:45 22.10.2021
5101 Clouds 28 1014 18 10000 5.14 110 17:44 22.10.2021
5102 Clear 28 1014 20 10000 3.6 130 15:50 22.10.2021
5103 Clouds 30 1013 21 10000 3.6 120 14:23 22.10.2021
5104 Clouds 35 1010 15 10000 5.66 130 11:33 22.10.2021
5105 Clouds 36 1010 14 10000 3.6 130 10:48 22.10.2021
5106 Clouds 36 1009 14 10000 3.6 140 09:56 22.10.2021
5107 Clouds 36 1010 14 10000 3.6 110 08:36 22.10.2021
5108 Clear 36 1011 14 10000 3.6 130 07:25 22.10.2021
5109 Clear 33 1014 15 10000 7.2 110 03:32 22.10.2021
5110 Clear 23 1014 27 10000 3.09 100 00:19 22.10.2021
5111 Clear 18 1013 36 10000 0 0 23:39 21.10.2021
5112 Clear 17 1012 39 10000 0 0 22:21 21.10.2021
5113 Clear 18 1012 34 10000 1.03 300 20:42 21.10.2021
5114 Clear 18 1012 34 10000 1.03 300 20:19 21.10.2021
5115 Clear 19 1012 34 10000 0 0 19:29 21.10.2021
5116 Clear 20 1012 32 10000 0 0 18:46 21.10.2021
5117 Clear 20 1012 32 10000 0 0 18:19 21.10.2021
5118 Clear 22 1012 26 10000 2.06 90 17:39 21.10.2021
5119 Clear 25 1012 23 10000 2.57 130 15:54 21.10.2021
5120 Clear 26 1012 22 10000 3.6 130 15:20 21.10.2021
5121 Clear 28 1012 20 10000 3.09 110 14:38 21.10.2021
5122 Clear 28 1011 18 10000 3.6 120 13:19 21.10.2021
5123 Clear 33 1010 14 10000 4.63 130 11:24 21.10.2021
5124 Clear 34 1009 13 10000 3.09 160 08:55 21.10.2021
5125 Clear 33 1010 15 10000 4.12 180 07:29 21.10.2021
5126 Clear 29 1014 21 10000 4.12 110 03:31 21.10.2021
5127 Clear 20 1013 52 10000 3.09 180 23:29 20.10.2021
5128 Clear 21 1012 49 10000 2.57 170 21:52 20.10.2021
5129 Clear 22 1011 46 10000 2.57 180 21:30 20.10.2021
5130 Clear 23 1011 43 10000 4.12 160 20:54 20.10.2021
5131 Clouds 23 1011 43 10000 3.09 160 20:28 20.10.2021
5132 Clouds 24 1011 41 10000 3.6 130 19:51 20.10.2021
5133 Clouds 26 1011 36 10000 3.6 130 18:54 20.10.2021
5134 Clouds 27 1012 34 10000 5.14 130 17:45 20.10.2021
5135 Clouds 31 1012 23 10000 4.63 140 15:26 20.10.2021
5136 Clouds 39 1007 12 10000 4.63 290 10:43 20.10.2021
5137 Clouds 39 1007 12 10000 5.66 280 08:53 20.10.2021
5138 Clear 37 1012 19 10000 8.23 360 03:21 20.10.2021
5139 Clouds 30 1013 28 10000 0 0 00:43 20.10.2021
5140 Clouds 29 1013 30 10000 1.03 150 23:59 19.10.2021
5141 Clouds 28 1012 32 10000 2.57 40 21:43 19.10.2021
5142 Clouds 29 1012 30 10000 2.57 50 20:54 19.10.2021
5143 Clouds 27 1012 34 10000 2.57 60 20:22 19.10.2021
5144 Clouds 28 1013 30 10000 2.57 40 19:41 19.10.2021
5145 Clouds 29 1013 30 10000 3.09 40 18:53 19.10.2021
5146 Clouds 29 1013 30 10000 3.09 40 18:53 19.10.2021
5147 Clouds 27 1013 29 10000 3.09 70 17:58 19.10.2021
5148 Clouds 30 1014 19 10000 3.6 70 15:39 19.10.2021
5149 Clouds 30 1014 19 10000 3.6 70 15:19 19.10.2021
5150 Clouds 31 1014 16 10000 2.06 120 14:26 19.10.2021
5151 Clouds 34 1013 14 10000 5.66 110 13:29 19.10.2021
5152 Clouds 37 1011 12 10000 3.09 190 11:32 19.10.2021
5153 Clouds 37 1011 12 10000 3.09 190 11:32 19.10.2021
5154 Clouds 38 1010 11 10000 4.12 260 10:23 19.10.2021
5155 Clouds 38 1010 11 10000 4.63 290 08:58 19.10.2021
5156 Clouds 39 1012 11 10000 6.17 310 06:34 19.10.2021
5157 Clouds 30 1014 17 10000 0 0 00:24 19.10.2021
5158 Clouds 26 1014 22 10000 2.06 300 23:49 18.10.2021
5159 Clouds 22 1014 28 10000 2.57 300 23:19 18.10.2021
5160 Clouds 20 1014 32 10000 2.06 330 22:51 18.10.2021
5161 Clouds 20 1013 30 10000 0 0 21:19 18.10.2021
5162 Clouds 21 1012 28 10000 1.03 220 20:41 18.10.2021
5163 Clouds 21 1013 26 10000 0 0 19:50 18.10.2021
5164 Clouds 21 1013 26 10000 0 0 19:50 18.10.2021
5165 Clouds 22 1012 26 10000 0 0 19:28 18.10.2021
5166 Clouds 23 1013 25 10000 0 0 18:52 18.10.2021
5167 Clouds 27 1014 18 10000 0 0 15:25 18.10.2021
5168 Clouds 31 1012 14 10000 2.57 150 12:55 18.10.2021
5169 Clouds 37 1010 11 10000 5.66 240 10:36 18.10.2021
5170 Clouds 38 1009 10 10000 5.66 250 09:27 18.10.2021
5171 Clear 32 1013 31 10000 7.2 320 02:28 18.10.2021
5172 Clear 24 1012 41 10000 4.12 340 23:30 17.10.2021
5173 Clear 16 1011 33 10000 0 0 21:52 17.10.2021
5174 Clear 18 1010 32 10000 2.06 260 20:59 17.10.2021
5175 Clear 18 1010 32 10000 1.03 10 20:35 17.10.2021
5176 Clouds 18 1010 32 10000 0.51 290 19:39 17.10.2021
5177 Clouds 23 1009 36 10000 3.73 326 18:57 17.10.2021
5178 Clouds 20 1011 28 10000 0 0 17:32 17.10.2021
5179 Clouds 24 1011 20 10000 3.09 130 14:59 17.10.2021
5180 Clouds 25 1010 22 10000 0.51 250 14:24 17.10.2021
5181 Clouds 29 1010 15 10000 0 0 13:38 17.10.2021
5182 Clouds 32 1009 12 10000 1.54 270 11:55 17.10.2021
5183 Clouds 35 1008 10 10000 5.14 280 10:23 17.10.2021
5184 Clouds 34 1008 12 10000 6.69 330 09:28 17.10.2021
5185 Clouds 33 1010 13 10000 7.2 10 06:58 17.10.2021
5186 Clouds 21 1015 26 10000 5.66 90 00:52 17.10.2021
5187 Clouds 20 1015 28 10000 4.12 90 00:21 17.10.2021
5188 Clear 17 1012 31 10000 3.09 60 21:30 16.10.2021
5189 Clear 18 1012 29 10000 3.6 130 20:31 16.10.2021
5190 Clear 18 1011 27 10000 3.6 120 19:44 16.10.2021
5191 Clear 18 1011 27 10000 3.6 120 19:21 16.10.2021
5192 Clear 18 1011 27 10000 3.09 100 18:53 16.10.2021
5193 Clear 19 1012 26 10000 3.6 90 18:29 16.10.2021
5194 Clear 20 1012 24 10000 4.63 90 17:54 16.10.2021
5195 Clear 21 1013 23 10000 5.14 90 17:22 16.10.2021
5196 Clear 21 1013 21 10000 3.6 80 14:52 16.10.2021
5197 Clear 29 1011 12 10000 3.6 100 11:52 16.10.2021
5198 Clear 31 1011 10 10000 1.54 270 10:36 16.10.2021
5199 Clear 31 1012 11 10000 3.6 230 07:50 16.10.2021
5200 Clear 21 1018 26 10000 6.17 70 01:25 16.10.2021
5201 Clear 13 1017 41 10000 0 0 23:53 15.10.2021
5202 Clear 9 1016 46 10000 0 0 22:38 15.10.2021
5203 Clear 9 1016 46 10000 0 0 22:18 15.10.2021
5204 Clear 10 1016 43 10000 0 0 21:25 15.10.2021
5205 Clear 10 1015 43 10000 0 0 20:45 15.10.2021
5206 Clear 13 1016 38 10000 2.06 80 19:26 15.10.2021
5207 Clear 14 1016 35 10000 3.09 70 18:40 15.10.2021
5208 Clear 15 1017 31 10000 0 0 16:28 15.10.2021
5209 Clear 17 1017 27 10000 2.57 120 15:28 15.10.2021
5210 Clear 22 1015 18 10000 3.6 120 12:41 15.10.2021
5211 Clear 24 1014 15 10000 2.57 120 11:26 15.10.2021
5212 Clear 25 1014 14 10000 0.51 20 10:42 15.10.2021
5213 Clear 25 1014 14 10000 1.54 290 08:58 15.10.2021
5214 Clear 23 1017 21 10000 5.66 130 05:31 15.10.2021
5215 Clear 17 1019 29 10000 5.14 130 00:44 15.10.2021
5216 Clear 12 1018 32 10000 0 0 23:49 14.10.2021
5217 Clear 9 1017 40 10000 2.06 230 22:50 14.10.2021
5218 Clear 10 1016 37 10000 1.54 230 21:43 14.10.2021
5219 Clear 12 1016 32 10000 2.57 200 20:36 14.10.2021
5220 Clear 12 1016 32 10000 2.57 200 20:18 14.10.2021
5221 Clear 12 1015 35 10000 3.09 210 19:26 14.10.2021
5222 Clear 13 1015 35 10000 0 0 17:26 14.10.2021
5223 Clear 14 1015 35 10000 1.54 320 16:48 14.10.2021
5224 Clear 17 1016 27 10000 2.06 170 15:33 14.10.2021
5225 Clear 19 1015 24 10000 3.09 170 14:41 14.10.2021
5226 Clear 21 1015 21 10000 3.6 170 13:35 14.10.2021
5227 Clear 25 1013 14 10000 5.14 180 11:43 14.10.2021
5228 Clear 27 1012 12 10000 3.6 270 09:55 14.10.2021
5229 Clear 27 1010 15 10000 5.56 211 06:47 14.10.2021
5230 Clear 19 1015 25 10000 6.58 184 00:54 14.10.2021
5231 Clear 16 1015 26 10000 4.33 188 00:22 14.10.2021
5232 Clear 11 1013 35 10000 3.09 250 21:45 13.10.2021
5233 Clear 10 1013 37 10000 3.6 270 21:27 13.10.2021
5234 Clear 13 1012 33 10000 2.06 290 19:48 13.10.2021
5235 Clear 14 1012 30 10000 2.57 330 18:49 13.10.2021
5236 Clear 14 1012 30 10000 2.57 330 18:49 13.10.2021
5237 Clear 14 1013 30 10000 2.57 290 17:36 13.10.2021
5238 Clear 16 1013 27 10000 0 0 15:23 13.10.2021
5239 Clear 17 1013 25 10000 0 0 14:44 13.10.2021
5240 Clear 21 1012 21 10000 3.6 120 12:54 13.10.2021
5241 Clear 24 1012 16 10000 3.09 130 11:55 13.10.2021
5242 Clear 27 1011 13 10000 1.54 220 10:21 13.10.2021
5243 Clear 26 1012 17 10000 3.6 210 07:56 13.10.2021
5244 Clear 23 1014 23 10000 4.63 170 05:41 13.10.2021
5245 Clear 20 1016 21 10000 6.17 150 02:24 13.10.2021
5246 Clear 17 1015 34 10000 4.12 200 23:54 12.10.2021
5247 Clear 16 1014 41 10000 2.57 210 23:28 12.10.2021
5248 Clear 18 1012 42 10000 3.09 210 22:42 12.10.2021
5249 Clear 18 1009 48 10000 1.03 340 20:55 12.10.2021
5250 Clear 18 1009 45 10000 3.09 360 20:32 12.10.2021
5251 Clear 19 1009 42 10000 2.57 360 19:51 12.10.2021
5252 Clear 18 1010 45 10000 3.6 10 18:27 12.10.2021
5253 Clear 17 1011 45 10000 0 0 17:35 12.10.2021
5254 Clear 19 1012 37 10000 0 0 16:36 12.10.2021
5255 Clear 20 1012 34 10000 3.09 70 15:43 12.10.2021
5256 Clear 22 1012 28 10000 3.6 90 14:25 12.10.2021
5257 Clouds 24 1011 27 10000 3.6 160 13:41 12.10.2021
5258 Clear 28 1009 23 10000 4.12 170 11:36 12.10.2021
5259 Clear 30 1008 17 10000 5.14 270 09:41 12.10.2021
5260 Clouds 30 1008 20 10000 2.57 220 08:35 12.10.2021
5261 Clear 29 1009 23 10000 3.09 340 06:46 12.10.2021
5262 Clear 26 1011 25 10000 3.09 310 04:52 12.10.2021
5263 Clear 25 1012 27 10000 2.57 340 04:28 12.10.2021
5264 Clear 10 1013 100 10000 0 0 23:59 11.10.2021
5265 Clear 8 1013 100 10000 0 0 23:37 11.10.2021
5266 Clear 8 1013 100 10000 0 0 22:52 11.10.2021
5267 Clear 9 1012 100 10000 0 0 21:32 11.10.2021
5268 Clear 9 1012 100 10000 0 0 20:31 11.10.2021
5269 Clear 10 1012 100 10000 2.06 70 19:36 11.10.2021
5270 Clear 11 1013 93 10000 2.57 10 18:23 11.10.2021
5271 Clear 12 1014 87 10000 3.09 130 16:41 11.10.2021
5272 Clear 12 1014 87 10000 3.09 130 16:21 11.10.2021
5273 Clear 12 1014 87 10000 3.09 130 16:21 11.10.2021
5274 Clear 12 1015 87 10000 2.57 90 15:44 11.10.2021
5275 Clear 13 1015 82 10000 2.57 100 14:54 11.10.2021
5276 Clouds 14 1015 77 10000 2.57 130 14:20 11.10.2021
5277 Clouds 15 1015 77 10000 2.57 140 13:35 11.10.2021
5278 Clouds 18 1014 63 10000 6.69 150 11:24 11.10.2021
5279 Rain 21 1013 49 10000 3.6 140 09:47 11.10.2021
5280 Clouds 20 1013 56 10000 2.57 90 08:31 11.10.2021
5281 Clouds 12 1018 94 10000 4.12 150 01:46 11.10.2021
5282 Rain 12 1017 94 10000 4.12 150 00:58 11.10.2021
5283 Rain 12 1017 94 10000 4.12 150 00:39 11.10.2021
5284 Drizzle 12 1015 100 5000 4.63 170 22:41 10.10.2021
5285 Rain 12 1014 100 3900 4.63 170 21:49 10.10.2021
5286 Drizzle 12 1014 100 3900 5.14 160 21:19 10.10.2021
5287 Clouds 14 1013 94 5000 4.12 140 20:39 10.10.2021
5288 Clouds 14 1013 88 10000 4.63 130 20:19 10.10.2021
5289 Rain 15 1013 77 10000 5.66 130 19:41 10.10.2021
5290 Rain 16 1013 77 10000 4.63 120 18:57 10.10.2021
5291 Clouds 16 1013 77 10000 5.66 110 18:19 10.10.2021
5292 Clouds 16 1015 77 10000 6.17 120 15:48 10.10.2021
5293 Rain 17 1014 72 10000 7.2 130 14:57 10.10.2021
5294 Clouds 17 1014 72 10000 7.2 140 13:40 10.10.2021
5295 Rain 18 1013 77 10000 6.69 130 12:43 10.10.2021
5296 Clouds 19 1013 72 10000 7.72 130 11:30 10.10.2021
5297 Clouds 19 1013 72 10000 7.72 130 11:30 10.10.2021
5298 Clouds 23 1012 53 10000 8.23 130 10:26 10.10.2021
5299 Clouds 23 1011 46 10000 5.66 120 09:18 10.10.2021
5300 Rain 24 1011 43 10000 5.66 80 08:50 10.10.2021
5301 Clouds 23 1013 43 10000 8.75 50 04:31 10.10.2021
5302 Clouds 23 1015 40 10000 8.75 90 02:19 10.10.2021
5303 Clouds 20 1015 49 10000 3.6 120 00:41 10.10.2021
5304 Clouds 20 1015 49 10000 2.57 150 23:26 09.10.2021
5305 Clouds 20 1014 45 10000 3.6 160 21:53 09.10.2021
5306 Clouds 21 1013 46 10000 2.57 150 21:29 09.10.2021
5307 Clouds 23 1011 35 10000 8.23 170 19:52 09.10.2021
5308 Clouds 24 1011 31 10000 7.72 180 19:34 09.10.2021
5309 Clouds 27 1010 26 10000 2.57 120 18:40 09.10.2021
5310 Clouds 27 1010 24 10000 5.66 120 17:51 09.10.2021
5311 Clouds 27 1009 19 10000 2.57 350 16:19 09.10.2021
5312 Clear 28 1009 17 10000 3.09 300 13:48 09.10.2021
5313 Clear 29 1009 15 10000 2.57 270 13:25 09.10.2021
5314 Clear 32 1008 11 10000 3.6 280 11:58 09.10.2021
5315 Clear 36 1007 8 10000 6.69 270 10:43 09.10.2021
5316 Clear 37 1007 7 10000 6.17 290 10:18 09.10.2021
5317 Clouds 38 1007 8 10000 9.26 300 08:33 09.10.2021
5318 Clear 38 1007 9 10000 8.75 300 07:50 09.10.2021
5319 Clear 38 1007 9 10000 8.75 300 07:50 09.10.2021
5320 Clear 38 1008 9 10000 8.23 300 06:22 09.10.2021
5321 Clear 36 1010 9 10000 8.23 310 04:31 09.10.2021
5322 Clear 33 1011 17 10000 5.66 320 02:43 09.10.2021
5323 Clouds 22 1011 49 10000 2.06 260 23:58 08.10.2021
5324 Clouds 21 1011 52 10000 3.6 250 23:31 08.10.2021
5325 Clouds 24 1010 43 10000 5.14 290 22:42 08.10.2021
5326 Clouds 22 1010 53 10000 0 0 21:39 08.10.2021
5327 Clouds 22 1010 56 10000 0 0 19:44 08.10.2021
5328 Clouds 24 1010 43 10000 3.09 120 17:36 08.10.2021
5329 Clouds 25 1011 44 10000 2.57 120 16:53 08.10.2021
5330 Clouds 25 1011 44 10000 2.57 120 16:53 08.10.2021
5331 Clouds 25 1011 38 10000 3.6 70 16:24 08.10.2021
5332 Clouds 29 1011 30 10000 3.09 20 14:18 08.10.2021
5333 Clouds 28 1011 32 10000 3.09 30 13:36 08.10.2021
5334 Clear 33 1010 21 10000 3.6 310 11:41 08.10.2021
5335 Clear 35 1009 16 10000 5.14 300 10:42 08.10.2021
5336 Clear 35 1009 16 10000 5.14 310 09:46 08.10.2021
5337 Clear 20 1015 64 10000 4.63 100 00:35 08.10.2021
5338 Clear 17 1014 77 10000 3.6 120 23:22 07.10.2021
5339 Clear 18 1014 72 10000 0 0 21:46 07.10.2021
5340 Clear 18 1014 72 10000 0 0 21:27 07.10.2021
5341 Clear 17 1013 82 10000 0.51 130 20:28 07.10.2021
5342 Clear 18 1014 77 10000 3.09 140 19:30 07.10.2021
5343 Clear 20 1014 68 10000 1.03 110 18:24 07.10.2021
5344 Clear 20 1014 68 10000 2.57 90 17:27 07.10.2021
5345 Clear 23 1014 56 10000 5.14 110 15:53 07.10.2021
5346 Clouds 24 1014 50 10000 4.63 110 14:21 07.10.2021
5347 Clouds 25 1014 47 10000 4.63 120 13:38 07.10.2021
5348 Clouds 26 1013 44 10000 5.66 140 12:45 07.10.2021
5349 Clouds 29 1012 34 10000 5.66 130 10:56 07.10.2021
5350 Clouds 29 1012 34 10000 5.14 100 10:19 07.10.2021
5351 Clouds 30 1011 35 10000 5.66 120 09:34 07.10.2021
5352 Clouds 30 1011 35 10000 4.12 110 08:51 07.10.2021
5353 Clear 29 1012 37 10000 3.6 60 07:44 07.10.2021
5354 Clear 28 1012 36 10000 6.17 90 07:20 07.10.2021
5355 Clear 22 1016 64 10000 6.69 110 02:50 07.10.2021
5356 Clouds 18 1015 77 10000 3.6 110 00:29 07.10.2021
5357 Rain 16 1014 88 10000 3.6 70 22:51 06.10.2021
5358 Clouds 16 1013 88 10000 3.09 70 22:21 06.10.2021
5359 Clouds 16 1013 94 10000 5.14 80 20:40 06.10.2021
5360 Clouds 16 1013 88 6000 2.57 360 19:55 06.10.2021
5361 Clouds 16 1013 82 10000 6.17 90 18:41 06.10.2021
5362 Clouds 21 1013 56 10000 6.17 150 16:58 06.10.2021
5363 Clouds 23 1011 68 10000 3.09 170 15:30 06.10.2021
5364 Clouds 23 1010 68 10000 9.26 350 14:22 06.10.2021
5365 Clouds 24 1010 69 10000 7.72 10 12:59 06.10.2021
5366 Clouds 25 1010 61 10000 5.66 360 12:41 06.10.2021
5367 Clouds 25 1010 61 10000 5.66 360 12:21 06.10.2021
5368 Clouds 21 1010 88 6000 13.89 290 10:18 06.10.2021
5369 Clouds 33 1007 24 10000 3.6 40 09:39 06.10.2021
5370 Clouds 30 1007 37 10000 4.63 10 08:42 06.10.2021
5371 Clouds 36 1007 13 10000 9.77 340 07:44 06.10.2021
5372 Clouds 37 1009 12 10000 11.83 340 05:26 06.10.2021
5373 Clear 24 1011 17 10000 3.6 60 00:28 06.10.2021
5374 Clear 18 1011 29 10000 0 0 23:57 05.10.2021
5375 Clear 16 1011 31 10000 2.06 70 23:38 05.10.2021
5376 Clear 16 1010 31 10000 0 0 23:20 05.10.2021
5377 Clear 18 1010 27 10000 2.57 70 22:27 05.10.2021
5378 Clear 18 1010 27 10000 2.57 70 22:27 05.10.2021
5379 Clear 17 1010 29 10000 2.57 110 21:47 05.10.2021
5380 Clear 20 1010 24 10000 2.57 50 20:41 05.10.2021
5381 Clouds 20 1010 24 10000 2.57 50 20:23 05.10.2021
5382 Clouds 20 1010 24 10000 2.06 70 19:42 05.10.2021
5383 Clouds 20 1011 26 10000 2.06 80 18:49 05.10.2021
5384 Clouds 24 1012 20 10000 5.14 60 16:36 05.10.2021
5385 Clouds 27 1012 16 10000 7.72 90 14:34 05.10.2021
5386 Clouds 28 1012 15 10000 6.17 100 13:33 05.10.2021
5387 Clouds 29 1011 14 10000 7.2 100 12:38 05.10.2021
5388 Clouds 30 1010 13 10000 7.2 90 11:59 05.10.2021
5389 Clouds 33 1010 12 10000 3.09 120 10:39 05.10.2021
5390 Clear 33 1010 12 10000 1.54 40 08:56 05.10.2021
5391 Clear 28 1015 15 10000 6.69 70 03:56 05.10.2021
5392 Clear 16 1014 31 10000 3.6 90 23:53 04.10.2021
5393 Clear 16 1014 29 10000 5.14 100 21:59 04.10.2021
5394 Clear 16 1013 29 10000 3.6 80 19:34 04.10.2021
5395 Clear 17 1014 27 10000 3.09 90 18:26 04.10.2021
5396 Clear 18 1015 24 10000 3.6 80 16:23 04.10.2021
5397 Clear 19 1015 22 10000 4.12 90 15:31 04.10.2021
5398 Clear 22 1015 18 10000 5.14 110 14:42 04.10.2021
5399 Clear 22 1014 18 10000 3.6 120 13:48 04.10.2021
5400 Clear 22 1014 18 10000 3.6 120 13:24 04.10.2021
5401 Clear 26 1012 14 10000 4.63 130 11:35 04.10.2021
5402 Clear 27 1012 13 10000 5.14 140 10:48 04.10.2021
5403 Clear 28 1011 14 10000 4.12 100 09:51 04.10.2021
5404 Clear 30 1011 12 10000 4.63 100 08:39 04.10.2021
5405 Clear 28 1012 14 10000 4.12 130 06:56 04.10.2021
5406 Clear 17 1014 36 10000 0 0 00:28 04.10.2021
5407 Clear 12 1012 47 10000 0 0 22:33 03.10.2021
5408 Clear 12 1012 47 10000 0 0 21:37 03.10.2021
5409 Clear 13 1011 47 10000 0 0 20:54 03.10.2021
5410 Clear 14 1011 41 10000 0 0 19:56 03.10.2021
5411 Clear 15 1011 38 10000 0 0 18:33 03.10.2021
5412 Clear 16 1011 39 10000 0 0 17:41 03.10.2021
5413 Clear 19 1012 32 10000 2.06 150 15:45 03.10.2021
5414 Clear 22 1012 28 10000 4.12 170 14:42 03.10.2021
5415 Clear 23 1011 27 10000 3.6 170 13:40 03.10.2021
5416 Clear 23 1011 27 10000 3.6 170 13:20 03.10.2021
5417 Clear 26 1009 22 10000 5.14 160 11:49 03.10.2021
5418 Clear 28 1008 20 10000 5.14 160 10:33 03.10.2021
5419 Clear 28 1009 20 10000 3.6 180 07:39 03.10.2021
5420 Clear 19 1012 48 10000 5.66 150 00:26 03.10.2021
5421 Clear 20 1010 49 10000 5.14 160 22:23 02.10.2021
5422 Clear 22 1008 33 10000 4.63 220 20:50 02.10.2021
5423 Clear 24 1006 19 10000 5.14 250 18:58 02.10.2021
5424 Clear 23 1006 18 10000 3.6 270 18:28 02.10.2021
5425 Clear 25 1006 16 10000 2.57 290 17:38 02.10.2021
5426 Clear 26 1007 15 10000 2.57 310 16:40 02.10.2021
5427 Clear 28 1006 13 10000 4.12 310 14:36 02.10.2021
5428 Clear 19 1016 24 10000 1.03 250 15:38 30.09.2021
5429 Clear 20 1016 21 10000 2.06 190 14:42 30.09.2021
5430 Rain 24 1015 16 10000 2.57 160 12:20 30.09.2021
5431 Clear 27 1014 12 10000 4.63 190 11:25 30.09.2021
5432 Clear 29 1013 12 10000 6.69 200 10:26 30.09.2021
5433 Clear 30 1012 12 10000 6.17 240 08:32 30.09.2021
5434 Clear 30 1012 12 10000 6.17 210 07:48 30.09.2021
5435 Clear 28 1015 15 10000 3.09 270 05:25 30.09.2021
5436 Clear 23 1017 21 10000 5.66 140 02:33 30.09.2021
5437 Clear 18 1017 29 10000 2.57 260 00:35 30.09.2021
5438 Clear 13 1015 38 10000 2.57 310 22:48 29.09.2021
5439 Clear 13 1014 38 10000 3.09 250 21:52 29.09.2021
5440 Clear 16 1013 31 10000 2.57 320 20:38 29.09.2021
5441 Clear 16 1013 31 10000 2.57 320 20:19 29.09.2021
5442 Clear 15 1013 33 10000 3.09 300 19:22 29.09.2021
5443 Clear 15 1013 33 10000 2.06 270 18:18 29.09.2021
5444 Clear 18 1014 27 10000 2.06 280 16:55 29.09.2021
5445 Clear 17 1014 27 10000 1.54 330 16:25 29.09.2021
5446 Clear 18 1014 27 10000 0 0 15:24 29.09.2021
5447 Clear 19 1014 26 10000 0 0 14:36 29.09.2021
5448 Clear 23 1013 18 10000 3.09 170 13:33 29.09.2021
5449 Clear 25 1013 16 10000 3.09 170 12:38 29.09.2021
5450 Clear 28 1012 14 10000 3.6 160 11:18 29.09.2021
5451 Clear 30 1011 12 10000 3.6 150 10:27 29.09.2021
5452 Clear 30 1011 11 10000 2.06 160 09:40 29.09.2021
5453 Clear 30 1012 12 10000 2.57 310 07:48 29.09.2021
5454 Clear 28 1013 14 10000 3.09 220 06:27 29.09.2021
5455 Clear 16 1016 27 10000 2.57 240 23:59 28.09.2021
5456 Clear 15 1014 29 10000 2.57 270 22:25 28.09.2021
5457 Clear 16 1014 27 10000 2.57 270 21:46 28.09.2021
5458 Clear 15 1013 29 10000 3.6 260 20:48 28.09.2021
5459 Clear 17 1013 25 10000 3.09 270 19:48 28.09.2021
5460 Clear 18 1013 24 10000 2.57 300 19:25 28.09.2021
5461 Clear 18 1012 25 10000 3.09 270 18:40 28.09.2021
5462 Clear 22 1012 20 10000 2.06 270 16:43 28.09.2021
5463 Clear 23 1012 18 10000 3.6 270 14:53 28.09.2021
5464 Clouds 26 1011 15 10000 4.12 270 13:25 28.09.2021
5465 Clouds 30 1009 11 10000 6.69 260 12:24 28.09.2021
5466 Clouds 30 1009 12 10000 6.17 260 11:47 28.09.2021
5467 Clouds 32 1008 9 10000 8.23 260 11:25 28.09.2021
5468 Clouds 34 1007 10 10000 8.75 270 10:26 28.09.2021
5469 Clouds 35 1007 10 10000 7.72 270 09:25 28.09.2021
5470 Clouds 35 1007 10 10000 7.72 280 08:43 28.09.2021
5471 Clouds 34 1007 10 10000 7.2 280 07:49 28.09.2021
5472 Clouds 34 1009 10 10000 6.69 290 06:23 28.09.2021
5473 Clouds 27 1011 16 10000 3.09 230 01:29 28.09.2021
5474 Clouds 24 1011 20 10000 2.06 250 00:28 28.09.2021
5475 Clouds 22 1010 23 10000 2.06 260 23:44 27.09.2021
5476 Clouds 23 1010 21 10000 3.09 260 23:23 27.09.2021
5477 Clouds 24 1010 19 10000 4.12 290 22:20 27.09.2021
5478 Clouds 26 1007 14 10000 6.17 340 20:49 27.09.2021
5479 Clouds 27 1007 14 10000 4.12 340 20:23 27.09.2021
5480 Clouds 26 1008 17 10000 6.17 350 19:30 27.09.2021
5481 Clouds 26 1008 14 10000 4.63 350 18:52 27.09.2021
5482 Clouds 27 1010 14 10000 4.63 340 17:33 27.09.2021
5483 Clouds 27 1010 13 10000 4.63 330 16:51 27.09.2021
5484 Clouds 29 1010 12 10000 4.63 330 15:46 27.09.2021
5485 Clouds 28 1011 13 10000 4.12 350 15:27 27.09.2021
5486 Clouds 30 1010 12 10000 5.14 320 13:34 27.09.2021
5487 Clouds 31 1009 11 10000 5.14 320 12:20 27.09.2021
5488 Clouds 34 1008 10 10000 7.2 300 10:42 27.09.2021
5489 Clouds 35 1008 8 10000 8.23 320 09:31 27.09.2021
5490 Clouds 34 1010 8 10000 5.14 350 06:33 27.09.2021
5491 Clouds 31 1013 8 10000 6.17 360 03:29 27.09.2021
5492 Clouds 20 1013 17 10000 4.12 50 22:39 26.09.2021
5493 Clear 20 1013 17 10000 4.12 50 21:53 26.09.2021
5494 Clear 19 1013 19 10000 4.12 40 21:26 26.09.2021
5495 Clear 19 1013 18 10000 4.12 60 20:24 26.09.2021
5496 Clear 20 1014 17 10000 3.6 60 19:52 26.09.2021
5497 Clear 20 1014 17 10000 3.6 50 18:48 26.09.2021
5498 Clear 20 1014 17 10000 3.6 30 17:57 26.09.2021
5499 Clear 20 1014 17 10000 2.06 20 17:36 26.09.2021
5500 Clear 20 1014 17 10000 2.06 20 17:18 26.09.2021
5501 Clear 18 1015 17 10000 2.57 70 16:21 26.09.2021
5502 Clear 20 1015 15 10000 3.6 90 15:22 26.09.2021
5503 Clear 23 1015 13 10000 4.12 90 13:57 26.09.2021
5504 Clear 24 1014 12 10000 3.6 80 13:29 26.09.2021
5505 Clear 26 1014 11 10000 4.12 90 12:25 26.09.2021
5506 Clear 27 1013 11 10000 4.12 100 11:51 26.09.2021
5507 Clear 31 1012 8 10000 5.14 100 10:38 26.09.2021
5508 Clear 31 1012 8 10000 4.12 70 09:21 26.09.2021
5509 Clear 31 1013 8 10000 3.6 340 07:57 26.09.2021
5510 Clear 16 1018 29 10000 3.09 110 00:28 26.09.2021
5511 Clear 13 1018 28 10000 3.09 100 23:40 25.09.2021
5512 Clear 14 1017 28 10000 3.09 90 22:38 25.09.2021
5513 Clear 14 1017 26 10000 2.57 80 21:56 25.09.2021
5514 Clear 13 1017 28 10000 2.06 130 21:33 25.09.2021
5515 Clear 13 1017 28 10000 2.06 130 21:33 25.09.2021
5516 Clear 12 1017 30 10000 2.06 120 20:51 25.09.2021
5517 Clouds 16 1017 21 10000 3.09 90 19:32 25.09.2021
5518 Clouds 16 1018 20 10000 3.09 70 18:26 25.09.2021
5519 Clouds 16 1018 21 10000 0 0 16:51 25.09.2021
5520 Clouds 22 1018 13 10000 4.12 110 14:24 25.09.2021
5521 Clouds 22 1018 13 10000 4.12 110 13:46 25.09.2021
5522 Clouds 24 1017 12 10000 4.12 130 12:29 25.09.2021
5523 Clouds 28 1016 9 10000 6.17 120 10:36 25.09.2021
5524 Clouds 29 1015 8 10000 6.17 130 09:47 25.09.2021
5525 Clouds 29 1015 8 10000 3.6 110 08:38 25.09.2021
5526 Clouds 29 1016 8 10000 2.06 190 07:20 25.09.2021
5527 Clouds 19 1019 15 10000 0 0 00:49 25.09.2021
5528 Clouds 10 1017 34 10000 0 0 21:57 24.09.2021
5529 Clouds 10 1016 34 10000 0 0 20:50 24.09.2021
5530 Clouds 11 1016 30 10000 0 0 20:19 24.09.2021
5531 Clouds 13 1017 22 10000 0.51 30 18:35 24.09.2021
5532 Clouds 14 1017 23 10000 0 0 17:56 24.09.2021
5533 Clouds 13 1017 24 10000 0 0 17:37 24.09.2021
5534 Clouds 13 1017 24 10000 0 0 17:18 24.09.2021
5535 Clouds 19 1018 14 10000 0 0 14:48 24.09.2021
5536 Clear 19 1017 14 10000 3.6 170 13:19 24.09.2021
5537 Clear 21 1016 13 10000 3.6 140 12:41 24.09.2021
5538 Clear 21 1016 13 10000 3.6 140 12:23 24.09.2021
5539 Clear 27 1015 8 10000 2.57 80 10:28 24.09.2021
5540 Clear 28 1015 8 10000 2.06 290 08:57 24.09.2021
5541 Clear 27 1015 7 10000 3.09 150 07:39 24.09.2021
5542 Clear 26 1016 8 10000 2.06 200 06:50 24.09.2021
5543 Clear 27 1017 9 10000 2.57 230 05:21 24.09.2021
5544 Clear 14 1019 26 10000 0 0 00:44 24.09.2021
5545 Clouds 6 1018 45 10000 1.54 260 22:35 23.09.2021
5546 Clouds 7 1018 42 10000 2.06 270 21:56 23.09.2021
5547 Clear 9 1018 37 10000 2.57 300 20:36 23.09.2021
5548 Clear 9 1018 37 10000 2.57 300 20:18 23.09.2021
5549 Clear 10 1019 32 10000 2.57 280 18:25 23.09.2021
5550 Clear 13 1020 26 10000 2.06 160 15:37 23.09.2021
5551 Clear 13 1020 26 10000 2.06 160 15:18 23.09.2021
5552 Clear 17 1020 19 10000 3.6 110 13:49 23.09.2021
5553 Clouds 18 1020 16 10000 3.6 110 13:22 23.09.2021
5554 Clouds 19 1019 14 10000 3.6 110 12:53 23.09.2021
5555 Clouds 19 1019 15 10000 3.6 130 12:23 23.09.2021
5556 Clouds 20 1019 14 10000 3.6 140 11:55 23.09.2021
5557 Clouds 24 1018 10 10000 3.6 150 10:27 23.09.2021
5558 Clouds 24 1018 10 10000 3.6 150 09:53 23.09.2021
5559 Clear 25 1018 10 10000 4.12 120 08:31 23.09.2021
5560 Clouds 20 1023 15 10000 3.09 40 04:41 23.09.2021
5561 Clear 7 1023 39 10000 0 0 23:36 22.09.2021
5562 Clear 3 1023 56 10000 0 0 22:37 22.09.2021
5563 Clear 4 1023 56 10000 0 0 21:56 22.09.2021
5564 Clear 3 1023 60 10000 1.54 80 21:34 22.09.2021
5565 Clear 3 1023 60 10000 1.54 80 21:34 22.09.2021
5566 Clear 5 1023 52 10000 0 0 20:57 22.09.2021
5567 Clear 6 1024 42 10000 0 0 19:33 22.09.2021
5568 Clear 6 1024 45 10000 0 0 18:40 22.09.2021
5569 Clear 6 1024 45 10000 0 0 18:40 22.09.2021
5570 Clear 8 1024 34 10000 0 0 17:48 22.09.2021
5571 Clear 11 1025 26 10000 4.42 123 16:40 22.09.2021
5572 Clear 12 1026 26 10000 3.6 150 15:29 22.09.2021
5573 Clear 14 1025 23 10000 4.12 150 13:58 22.09.2021
5574 Clear 16 1025 17 10000 4.12 130 12:19 22.09.2021
5575 Clear 19 1024 14 10000 6.17 120 10:53 22.09.2021
5576 Clear 20 1023 14 10000 7.2 110 09:25 22.09.2021
5577 Clear 21 1023 13 10000 7.72 120 08:30 22.09.2021
5578 Clear 21 1023 13 10000 7.72 120 08:30 22.09.2021
5579 Clouds 20 1024 15 10000 7.72 140 07:21 22.09.2021
5580 Clouds 18 1026 19 10000 7.72 140 05:56 22.09.2021
5581 Clouds 17 1026 20 10000 7.72 110 05:34 22.09.2021
5582 Clouds 16 1028 23 10000 8.75 120 03:52 22.09.2021
5583 Clouds 8 1028 49 10000 3.6 90 00:22 22.09.2021
5584 Clouds 5 1027 60 10000 3.09 150 22:56 21.09.2021
5585 Clouds 8 1027 49 10000 3.09 130 21:36 21.09.2021
5586 Clouds 9 1028 39 10000 6.93 123 20:26 21.09.2021
5587 Clouds 10 1028 43 10000 4.12 120 19:22 21.09.2021
5588 Clouds 10 1028 36 10000 8 128 17:36 21.09.2021
5589 Clouds 10 1029 40 10000 3.09 150 16:35 21.09.2021
5590 Clouds 11 1029 35 10000 3.6 140 15:44 21.09.2021
5591 Clear 12 1029 32 10000 3.6 140 14:58 21.09.2021
5592 Clouds 14 1029 28 10000 4.63 130 13:56 21.09.2021
5593 Clouds 14 1028 28 10000 4.63 130 13:36 21.09.2021
5594 Clouds 15 1028 26 10000 6.17 130 12:35 21.09.2021
5595 Clouds 18 1027 20 10000 8.23 130 10:26 21.09.2021
5596 Clear 19 1027 22 10000 8.23 130 08:28 21.09.2021
5597 Clear 18 1028 25 10000 7.2 130 06:53 21.09.2021
5598 Clear 11 1030 40 10000 5.14 150 23:59 20.09.2021
5599 Clear 12 1029 37 10000 5.14 140 22:25 20.09.2021
5600 Clear 12 1028 40 10000 4.12 140 21:38 20.09.2021
5601 Clear 13 1028 38 10000 4.12 130 20:31 20.09.2021
5602 Clear 13 1028 38 10000 4.12 130 20:31 20.09.2021
5603 Clear 14 1028 35 10000 5.66 130 19:30 20.09.2021
5604 Clear 16 1027 44 10000 5.14 140 17:46 20.09.2021
5605 Clear 17 1027 45 10000 4.12 130 16:43 20.09.2021
5606 Clear 19 1027 39 10000 5.66 130 15:49 20.09.2021
5607 Clouds 19 1027 39 10000 6.17 140 15:24 20.09.2021
5608 Clouds 20 1026 34 10000 5.66 140 14:24 20.09.2021
5609 Clouds 21 1025 30 10000 4.63 130 12:35 20.09.2021
5610 Clouds 21 1025 30 10000 4.63 130 12:35 20.09.2021
5611 Clouds 22 1024 24 10000 8.75 150 11:25 20.09.2021
5612 Clouds 26 1022 21 10000 8.75 140 09:59 20.09.2021
5613 Clouds 27 1022 21 10000 8.75 130 09:36 20.09.2021
5614 Clouds 27 1022 21 10000 8.75 130 09:18 20.09.2021
5615 Clouds 25 1023 23 10000 4.63 90 06:55 20.09.2021
5616 Clouds 17 1022 72 10000 2.57 200 23:49 19.09.2021
5617 Clouds 17 1020 72 10000 0 0 22:26 19.09.2021
5618 Clouds 17 1020 72 10000 0 0 22:26 19.09.2021
5619 Clouds 17 1020 72 10000 0 0 21:40 19.09.2021
5620 Clouds 16 1020 77 10000 0 0 20:34 19.09.2021
5621 Clouds 16 1019 77 10000 0.51 100 19:22 19.09.2021
5622 Clouds 17 1020 67 10000 3.09 130 18:26 19.09.2021
5623 Clouds 17 1020 67 10000 2.57 110 17:22 19.09.2021
5624 Clouds 20 1021 45 10000 2.06 90 15:55 19.09.2021
5625 Clouds 20 1021 45 10000 2.06 90 15:55 19.09.2021
5626 Clouds 22 1021 43 10000 2.57 60 14:51 19.09.2021
5627 Clouds 23 1021 40 10000 0 0 14:30 19.09.2021
5628 Clouds 23 1020 38 10000 3.6 70 13:20 19.09.2021
5629 Clouds 24 1020 33 10000 2.06 90 12:47 19.09.2021
5630 Clouds 26 1019 27 10000 3.6 110 11:27 19.09.2021
5631 Clouds 28 1019 24 10000 5.14 110 10:35 19.09.2021
5632 Clouds 28 1019 24 10000 4.12 90 09:38 19.09.2021
5633 Clouds 27 1020 28 10000 3.6 100 07:31 19.09.2021
5634 Clouds 24 1023 31 10000 5.66 90 04:21 19.09.2021
5635 Clouds 12 1023 87 10000 2.57 140 23:36 18.09.2021
5636 Clouds 11 1022 87 10000 1.03 120 21:59 18.09.2021
5637 Clouds 11 1022 87 10000 0 0 20:48 18.09.2021
5638 Clouds 11 1022 87 10000 2.57 140 20:27 18.09.2021
5639 Clouds 12 1022 87 10000 2.57 140 19:39 18.09.2021
5640 Clouds 12 1022 87 10000 2.57 140 19:20 18.09.2021
5641 Clouds 13 1022 82 10000 0 0 18:31 18.09.2021
5642 Clear 14 1023 72 10000 2.06 360 17:25 18.09.2021
5643 Clear 15 1023 67 10000 2.57 110 15:48 18.09.2021
5644 Clear 17 1023 55 10000 3.6 130 13:46 18.09.2021
5645 Clear 17 1023 55 10000 3.6 130 13:27 18.09.2021
5646 Clear 18 1022 52 10000 4.12 120 12:48 18.09.2021
5647 Clear 20 1021 42 10000 5.14 120 11:36 18.09.2021
5648 Clear 21 1021 40 10000 5.66 130 10:31 18.09.2021
5649 Clear 21 1021 43 10000 5.66 130 09:25 18.09.2021
5650 Clouds 20 1021 42 10000 6.17 110 08:31 18.09.2021
5651 Clouds 20 1021 42 10000 6.17 110 08:30 18.09.2021
5652 Clouds 20 1021 42 10000 6.17 110 08:30 18.09.2021
5653 Clouds 20 1021 42 10000 6.17 110 08:30 18.09.2021
5654 Clouds 17 1022 44 10000 9.52 159 00:56 18.09.2021
5655 Clouds 17 1022 44 10000 9.52 159 00:35 18.09.2021
5656 Clouds 18 1021 63 10000 9.06 175 23:44 17.09.2021
5657 Clouds 18 1019 84 10000 5.95 193 22:32 17.09.2021
5658 Clouds 19 1018 94 10000 2.57 250 21:47 17.09.2021
5659 Clouds 19 1016 94 10000 3.6 330 20:18 17.09.2021
5660 Clouds 19 1017 94 10000 4.12 360 18:45 17.09.2021
5661 Clouds 20 1018 94 10000 4.63 270 16:47 17.09.2021
5662 Clouds 21 1018 78 10000 3.09 230 15:32 17.09.2021
5663 Clouds 25 1014 38 10000 2.06 110 12:32 17.09.2021
5664 Clouds 29 1013 30 10000 2.57 60 10:40 17.09.2021
5665 Clouds 29 1014 30 10000 4.12 190 07:50 17.09.2021
5666 Clouds 30 1014 17 10000 4.12 310 06:29 17.09.2021
5667 Clouds 28 1014 17 10000 7.2 330 00:34 17.09.2021
5668 Clouds 28 1012 17 10000 8.75 340 22:45 16.09.2021
5669 Clouds 28 1012 17 10000 7.2 340 22:24 16.09.2021
5670 Clouds 28 1011 18 10000 4.63 340 21:36 16.09.2021
5671 Clouds 27 1011 21 10000 4.63 340 20:36 16.09.2021
5672 Clouds 29 1011 18 10000 6.69 340 19:18 16.09.2021
5673 Clouds 29 1012 17 10000 7.2 350 18:19 16.09.2021
5674 Clouds 29 1012 17 10000 7.2 350 18:19 16.09.2021
5675 Clouds 30 1013 17 10000 7.2 350 17:19 16.09.2021
5676 Clouds 29 1013 15 10000 4.63 350 14:51 16.09.2021
5677 Clouds 30 1013 14 10000 4.12 350 13:47 16.09.2021
5678 Clouds 31 1012 13 10000 4.12 350 12:47 16.09.2021
5679 Clouds 31 1011 14 10000 3.09 350 11:55 16.09.2021
5680 Clouds 33 1011 13 10000 4.63 340 11:24 16.09.2021
5681 Clouds 35 1011 10 10000 5.14 330 10:29 16.09.2021
5682 Clouds 36 1010 11 10000 7.2 310 09:31 16.09.2021
5683 Clear 36 1011 11 10000 5.66 350 07:59 16.09.2021
5684 Clear 36 1012 11 10000 8.23 300 06:58 16.09.2021
5685 Clear 35 1013 10 10000 8.23 320 06:38 16.09.2021
5686 Clear 34 1014 12 10000 7.72 330 03:22 16.09.2021
5687 Clouds 21 1016 26 10000 0 0 00:53 16.09.2021
5688 Clouds 14 1016 44 10000 0 0 23:30 15.09.2021
5689 Clouds 15 1015 41 10000 0 0 22:39 15.09.2021
5690 Clouds 15 1015 41 10000 0 0 21:31 15.09.2021
5691 Clouds 17 1015 34 10000 0 0 20:42 15.09.2021
5692 Clouds 18 1015 32 10000 2.06 120 19:33 15.09.2021
5693 Clouds 21 1015 26 10000 3.6 60 18:45 15.09.2021
5694 Clouds 21 1016 26 10000 3.09 70 17:39 15.09.2021
5695 Clouds 23 1017 21 10000 4.12 90 16:30 15.09.2021
5696 Clouds 25 1017 20 10000 3.6 100 15:22 15.09.2021
5697 Clouds 26 1016 21 10000 4.12 150 14:41 15.09.2021
5698 Clouds 26 1016 21 10000 0 0 13:45 15.09.2021
5699 Clouds 27 1016 18 10000 0 0 13:27 15.09.2021
5700 Clouds 28 1015 16 10000 0.51 330 12:33 15.09.2021
5701 Clear 28 1015 16 10000 2.06 300 11:50 15.09.2021
5702 Clear 33 1014 11 10000 2.57 300 10:57 15.09.2021
5703 Clear 33 1014 12 10000 2.57 280 10:30 15.09.2021
5704 Clear 35 1014 12 10000 3.6 320 08:47 15.09.2021
5705 Clear 34 1015 11 10000 4.63 270 07:26 15.09.2021
5706 Clouds 20 1019 21 10000 1.03 100 00:55 15.09.2021
5707 Clouds 16 1017 27 10000 0.51 170 22:24 14.09.2021
5708 Clouds 14 1016 33 10000 0 0 21:21 14.09.2021
5709 Clouds 14 1016 33 10000 0 0 21:21 14.09.2021
5710 Clouds 14 1016 33 10000 2.57 80 20:18 14.09.2021
5711 Clouds 16 1017 27 10000 4.12 90 18:57 14.09.2021
5712 Clouds 18 1018 25 10000 3.6 90 17:33 14.09.2021
5713 Clouds 18 1018 25 10000 3.6 100 16:37 14.09.2021
5714 Clouds 22 1018 20 10000 4.12 70 14:32 14.09.2021
5715 Clouds 23 1018 18 10000 4.63 70 13:53 14.09.2021
5716 Clouds 27 1016 14 10000 7.72 90 11:41 14.09.2021
5717 Clouds 30 1016 17 10000 3.6 90 10:20 14.09.2021
5718 Clouds 30 1016 15 10000 5.66 90 09:45 14.09.2021
5719 Clouds 30 1016 16 10000 3.6 70 07:28 14.09.2021
5720 Clear 15 1021 26 10000 5.66 90 00:57 14.09.2021
5721 Clouds 12 1020 32 10000 3.6 70 23:18 13.09.2021
5722 Clear 12 1019 32 10000 4.63 80 22:27 13.09.2021
5723 Clear 13 1018 30 10000 5.14 90 21:54 13.09.2021
5724 Clouds 13 1018 33 10000 6.17 90 21:19 13.09.2021
5725 Clouds 14 1019 33 10000 4.63 90 19:34 13.09.2021
5726 Clouds 15 1019 31 10000 5.66 90 18:43 13.09.2021
5727 Clear 15 1020 31 10000 4.63 100 17:21 13.09.2021
5728 Clear 15 1020 31 10000 3.09 90 15:55 13.09.2021
5729 Clear 18 1020 27 10000 4.12 110 14:30 13.09.2021
5730 Clear 22 1018 20 10000 7.2 100 11:21 13.09.2021
5731 Clear 24 1017 17 10000 7.2 90 09:54 13.09.2021
5732 Clear 23 1017 20 10000 6.69 100 07:46 13.09.2021
5733 Clear 14 1021 38 10000 4.63 110 23:50 12.09.2021
5734 Clear 15 1020 38 10000 6.69 110 22:42 12.09.2021
5735 Clear 15 1020 38 10000 6.69 110 22:20 12.09.2021
5736 Clear 16 1018 48 10000 5.66 120 20:41 12.09.2021
5737 Clear 14 1018 58 10000 3.09 130 19:54 12.09.2021
5738 Clear 13 1018 58 10000 2.57 130 19:29 12.09.2021
5739 Clear 13 1018 58 10000 2.06 140 18:50 12.09.2021
5740 Clear 17 1018 45 10000 4.63 120 16:58 12.09.2021
5741 Clear 17 1018 42 10000 3.6 120 15:37 12.09.2021
5742 Clear 19 1018 34 10000 4.63 130 14:32 12.09.2021
5743 Clear 23 1016 25 10000 5.14 140 11:49 12.09.2021
5744 Clear 26 1014 18 10000 6.69 150 10:18 12.09.2021
5745 Clear 28 1014 17 10000 5.66 160 08:38 12.09.2021
5746 Clear 23 1017 13 10000 3.6 210 02:56 12.09.2021
5747 Clear 17 1015 22 10000 3.09 300 00:46 12.09.2021
5748 Clear 12 1013 37 10000 3.09 300 22:29 11.09.2021
5749 Clear 12 1012 37 10000 2.57 320 21:37 11.09.2021
5750 Clear 15 1013 31 10000 2.57 310 19:33 11.09.2021
5751 Clear 15 1014 31 10000 2.57 290 17:53 11.09.2021
5752 Clear 15 1014 31 10000 1.54 340 16:24 11.09.2021
5753 Clear 18 1014 25 10000 1.03 200 14:27 11.09.2021
5754 Clear 20 1014 21 10000 2.06 330 13:20 11.09.2021
5755 Clear 26 1012 12 10000 1.54 210 11:34 11.09.2021
5756 Haze 30 1012 8 1700 3.6 210 09:41 11.09.2021
5757 Clear 30 1013 9 10000 2.57 270 07:53 11.09.2021
5758 Clear 30 1013 9 10000 2.57 300 07:34 11.09.2021
5759 Clear 19 1018 27 10000 0 0 01:20 11.09.2021
5760 Clear 8 1017 53 10000 0 0 22:26 10.09.2021
5761 Clear 9 1017 43 10000 0 0 21:55 10.09.2021
5762 Clear 12 1017 32 10000 2.57 300 20:31 10.09.2021
5763 Clear 13 1018 33 10000 0 0 18:28 10.09.2021
5764 Clear 13 1019 33 10000 0 0 16:57 10.09.2021
5765 Clear 15 1019 26 10000 0.51 30 14:52 10.09.2021
5766 Clear 21 1019 14 10000 2.06 140 12:43 10.09.2021
5767 Clear 29 1018 9 10000 3.09 140 09:27 10.09.2021
5768 Clear 28 1019 9 10000 1.54 30 07:50 10.09.2021
5769 Clear 23 1024 14 10000 3.6 70 02:31 10.09.2021
5770 Clear 7 1022 49 10000 0.51 320 22:33 09.09.2021
5771 Clear 8 1022 42 10000 2.57 310 21:46 09.09.2021
5772 Clear 8 1023 42 10000 2.57 290 20:47 09.09.2021
5773 Clear 9 1023 34 10000 2.57 270 19:58 09.09.2021
5774 Clear 10 1024 32 10000 0 0 18:32 09.09.2021
5775 Clear 12 1024 28 10000 2.06 90 16:40 09.09.2021
5776 Clear 14 1024 21 10000 1.54 60 15:43 09.09.2021
5777 Clear 20 1023 12 10000 3.09 90 12:53 09.09.2021
5778 Clear 22 1023 10 10000 2.57 90 11:45 09.09.2021
5779 Clear 27 1022 7 10000 5.66 80 09:50 09.09.2021
5780 Clear 27 1022 7 10000 3.6 90 08:49 09.09.2021
5781 Clear 28 1024 9 10000 5.14 90 06:26 09.09.2021
5782 Clear 19 1028 19 10000 2.06 310 02:36 09.09.2021
5783 Clear 6 1026 52 10000 1.03 270 22:42 08.09.2021
5784 Clear 6 1026 52 10000 2.06 280 21:31 08.09.2021
5785 Clear 8 1026 42 10000 2.06 290 19:56 08.09.2021
5786 Clear 9 1026 40 10000 0 0 18:58 08.09.2021
5787 Clear 9 1026 43 10000 0 0 18:29 08.09.2021
5788 Clear 10 1026 43 10000 2.06 180 17:56 08.09.2021
5789 Clear 12 1027 28 10000 1.03 320 16:32 08.09.2021
5790 Clear 17 1026 17 10000 3.6 110 14:25 08.09.2021
5791 Clear 16 1026 23 10000 3.6 130 12:46 08.09.2021
5792 Clear 18 1025 19 10000 3.6 110 12:26 08.09.2021
5793 Clear 22 1025 12 10000 3.6 110 11:29 08.09.2021
5794 Clear 25 1025 10 10000 5.66 90 10:33 08.09.2021
5795 Clear 25 1025 9 10000 5.66 90 09:59 08.09.2021
5796 Clear 25 1025 10 10000 7.2 80 07:55 08.09.2021
5797 Clear 25 1025 12 10000 7.2 80 07:32 08.09.2021
5798 Clear 21 1029 21 10000 5.66 100 04:19 08.09.2021
5799 Clear 5 1028 70 10000 0 0 22:38 07.09.2021
5800 Clear 7 1028 65 10000 3.09 130 21:51 07.09.2021
5801 Clear 9 1028 57 10000 0.51 100 19:47 07.09.2021
5802 Clear 8 1028 61 10000 0 0 18:40 07.09.2021
5803 Clear 10 1028 50 10000 1.03 110 17:47 07.09.2021
5804 Clear 11 1028 50 10000 2.06 130 16:33 07.09.2021
5805 Clear 11 1028 50 10000 2.57 130 15:35 07.09.2021
5806 Clear 13 1028 41 10000 3.09 130 14:41 07.09.2021
5807 Clear 18 1027 25 10000 4.63 120 12:38 07.09.2021
5808 Clear 19 1027 24 10000 6.17 120 11:36 07.09.2021
5809 Clear 21 1026 19 10000 7.72 110 10:40 07.09.2021
5810 Clear 21 1026 19 10000 8.23 120 08:23 07.09.2021
5811 Clear 20 1028 22 10000 7.72 100 06:44 07.09.2021
5812 Clear 18 1029 27 10000 7.72 110 05:24 07.09.2021
5813 Clear 15 1031 41 10000 8.75 90 02:32 07.09.2021
5814 Clear 9 1030 61 10000 2.06 120 00:40 07.09.2021
5815 Clear 7 1029 65 10000 3.09 150 23:31 06.09.2021
5816 Clear 7 1029 65 10000 2.57 190 22:53 06.09.2021
5817 Clear 7 1029 61 10000 0 0 22:32 06.09.2021
5818 Clear 6 1028 70 10000 3.6 140 20:55 06.09.2021
5819 Clear 9 1028 57 10000 4.12 130 19:22 06.09.2021
5820 Clear 9 1028 57 10000 4.12 130 19:22 06.09.2021
5821 Clear 9 1028 57 10000 4.12 130 19:22 06.09.2021
5822 Clear 9 1028 57 10000 4.12 130 18:46 06.09.2021
5823 Clear 10 1029 50 10000 4.12 130 18:18 06.09.2021
5824 Clear 10 1029 50 10000 3.6 150 17:35 06.09.2021
5825 Clear 11 1029 43 10000 3.6 140 15:43 06.09.2021
5826 Clear 13 1029 35 10000 4.12 120 13:47 06.09.2021
5827 Clear 15 1028 29 10000 4.12 130 12:46 06.09.2021
5828 Clear 18 1027 24 10000 6.69 140 10:44 06.09.2021
5829 Clear 20 1026 21 10000 7.72 120 07:58 06.09.2021
5830 Clear 17 1030 29 10000 7.72 120 04:43 06.09.2021
5831 Clear 3 1030 75 10000 3.6 170 23:26 05.09.2021
5832 Clear 4 1029 70 10000 3.09 160 22:34 05.09.2021
5833 Clear 4 1029 75 10000 0 0 21:57 05.09.2021
5834 Clear 4 1028 75 10000 0 0 21:29 05.09.2021
5835 Clear 4 1028 75 10000 2.06 150 19:48 05.09.2021
5836 Clear 7 1028 61 10000 3.09 170 18:32 05.09.2021
5837 Clear 8 1029 57 10000 4.12 150 17:22 05.09.2021
5838 Clear 9 1029 53 10000 3.6 150 15:24 05.09.2021
5839 Clouds 12 1028 40 10000 3.6 120 13:40 05.09.2021
5840 Clouds 14 1027 30 10000 5.66 130 11:45 05.09.2021
5841 Clouds 16 1026 27 10000 7.72 130 10:47 05.09.2021
5842 Clouds 16 1026 27 10000 7.72 130 10:22 05.09.2021
5843 Clouds 17 1026 27 10000 7.72 120 08:37 05.09.2021
5844 Clouds 16 1027 27 10000 8.23 120 06:45 05.09.2021
5845 Clouds 9 1027 76 10000 0.51 180 00:42 05.09.2021
5846 Clouds 8 1027 81 10000 1.03 180 23:59 04.09.2021
5847 Clouds 8 1026 76 10000 0 0 23:26 04.09.2021
5848 Clouds 8 1026 76 10000 1.54 170 22:35 04.09.2021
5849 Clouds 8 1026 76 10000 1.54 170 22:35 04.09.2021
5850 Clouds 8 1025 76 10000 2.06 210 21:20 04.09.2021
5851 Clouds 10 1026 57 10000 2.57 150 19:40 04.09.2021
5852 Clouds 11 1027 50 10000 3.6 140 17:25 04.09.2021
5853 Clouds 12 1027 47 10000 5.66 150 15:41 04.09.2021
5854 Clouds 15 1024 38 10000 5.66 130 11:54 04.09.2021
5855 Clouds 16 1023 36 10000 7.2 130 10:55 04.09.2021
5856 Clouds 17 1022 34 10000 6.69 140 08:39 04.09.2021
5857 Clouds 13 1023 54 10000 4.63 140 00:50 04.09.2021
5858 Clouds 13 1022 67 10000 4.63 150 00:19 04.09.2021
5859 Clouds 13 1022 71 10000 4.12 140 23:22 03.09.2021
5860 Clouds 13 1020 88 10000 2.57 150 21:43 03.09.2021
5861 Clouds 13 1020 88 10000 2.06 180 21:23 03.09.2021
5862 Clouds 13 1020 88 10000 1.54 200 20:34 03.09.2021
5863 Clouds 13 1020 88 10000 1.54 180 19:44 03.09.2021
5864 Clouds 13 1020 82 10000 0 0 18:33 03.09.2021
5865 Clouds 13 1021 82 10000 0 0 17:32 03.09.2021
5866 Clouds 13 1021 82 10000 2.06 110 15:46 03.09.2021
5867 Clouds 13 1020 82 10000 3.6 110 14:47 03.09.2021
5868 Clouds 14 1017 82 10000 5.14 100 11:21 03.09.2021
5869 Clouds 14 1017 82 10000 5.14 100 11:21 03.09.2021
5870 Clouds 14 1017 82 6000 4.12 90 10:18 03.09.2021
5871 Clouds 22 1014 50 10000 3.61 138 08:22 03.09.2021
5872 Clouds 18 1018 68 10000 4.12 150 06:51 03.09.2021
5873 Clouds 24 1014 57 10000 7.72 340 23:58 02.09.2021
5874 Clouds 24 1013 50 10000 7.72 340 22:22 02.09.2021
5875 Clouds 25 1012 41 10000 7.2 340 20:59 02.09.2021
5876 Clouds 25 1013 36 10000 5.66 340 18:52 02.09.2021
5877 Clouds 26 1014 27 10000 5.14 350 16:57 02.09.2021
5878 Clouds 27 1014 26 10000 4.12 350 15:32 02.09.2021
5879 Clouds 28 1014 20 10000 3.09 360 13:42 02.09.2021
5880 Clouds 29 1013 17 10000 2.57 360 11:46 02.09.2021
5881 Clouds 30 1013 16 10000 2.57 350 11:24 02.09.2021
5882 Clouds 32 1012 12 10000 3.6 330 09:20 02.09.2021
5883 Clouds 32 1013 12 10000 5.66 310 07:36 02.09.2021
5884 Clouds 32 1014 12 10000 7.72 350 05:53 02.09.2021
5885 Clear 28 1017 15 10000 8.23 10 02:37 02.09.2021
5886 Clear 27 1017 17 10000 7.2 360 01:50 02.09.2021
5887 Rain 14 1017 23 10000 0 0 23:41 01.09.2021
5888 Clear 14 1017 23 10000 0 0 23:23 01.09.2021
5889 Clear 12 1016 22 10000 0 0 22:30 01.09.2021
5890 Clear 12 1016 22 10000 0 0 21:32 01.09.2021
5891 Clouds 16 1016 17 10000 0 0 19:37 01.09.2021
5892 Clouds 17 1016 16 10000 1.03 80 17:55 01.09.2021
5893 Clouds 17 1017 15 10000 4.12 70 16:59 01.09.2021
5894 Clouds 17 1017 15 10000 3.6 50 16:36 01.09.2021
5895 Clouds 19 1018 13 10000 2.57 70 14:59 01.09.2021
5896 Clouds 27 1016 9 10000 2.06 20 11:47 01.09.2021
5897 Clouds 31 1015 7 10000 3.6 360 10:23 01.09.2021
5898 Clear 32 1015 7 10000 3.6 120 08:27 01.09.2021
5899 Clear 32 1017 7 10000 3.09 120 06:42 01.09.2021
5900 Clear 9 1019 27 10000 0 0 23:32 31.08.2021
5901 Clouds 8 1019 27 10000 0 0 22:21 31.08.2021
5902 Clear 9 1019 25 10000 0 0 19:52 31.08.2021
5903 Clear 12 1019 22 10000 0 0 19:23 31.08.2021
5904 Clear 12 1020 20 10000 0 0 17:44 31.08.2021
5905 Clear 13 1020 19 10000 0 0 17:25 31.08.2021
5906 Clear 14 1020 19 10000 2.57 100 16:28 31.08.2021
5907 Clear 16 1020 16 10000 2.06 130 15:25 31.08.2021
5908 Clear 23 1018 11 10000 3.09 100 12:19 31.08.2021
5909 Clear 26 1017 9 10000 3.6 120 11:19 31.08.2021
5910 Clear 28 1017 8 10000 3.6 110 10:43 31.08.2021
5911 Clear 30 1016 8 10000 2.57 130 09:41 31.08.2021
5912 Clear 30 1016 8 10000 3.09 200 07:48 31.08.2021
5913 Clear 30 1018 8 10000 3.09 90 05:56 31.08.2021
5914 Clear 7 1019 31 10000 2.06 270 23:36 30.08.2021
5915 Clear 8 1018 29 10000 2.57 280 22:32 30.08.2021
5916 Clear 7 1017 26 10000 0 0 21:35 30.08.2021
5917 Clear 9 1017 25 10000 0 0 20:40 30.08.2021
5918 Clear 9 1017 25 10000 1.54 260 19:33 30.08.2021
5919 Clear 10 1018 23 10000 1.54 250 18:58 30.08.2021
5920 Clear 10 1018 23 10000 0 0 17:49 30.08.2021
5921 Clear 12 1018 20 10000 0 0 16:27 30.08.2021
5922 Clear 13 1018 19 10000 0 0 15:40 30.08.2021
5923 Clear 16 1018 14 10000 0 0 13:55 30.08.2021
5924 Clear 20 1017 13 10000 2.57 110 12:58 30.08.2021
5925 Clear 27 1015 8 10000 3.6 210 10:42 30.08.2021
5926 Clouds 20 1019 22 10000 3.09 90 03:24 30.08.2021
5927 Clouds 11 1015 37 10000 2.57 270 21:35 29.08.2021
5928 Clouds 10 1015 40 10000 2.57 300 20:46 29.08.2021
5929 Clouds 11 1015 37 10000 1.54 290 19:27 29.08.2021
5930 Clouds 12 1016 35 10000 1.03 270 17:58 29.08.2021
5931 Clouds 15 1016 29 10000 2.06 110 15:54 29.08.2021
5932 Clouds 18 1015 24 10000 5.14 100 14:27 29.08.2021
5933 Clouds 18 1015 24 10000 5.14 100 14:27 29.08.2021
5934 Clouds 18 1016 25 10000 0.51 140 13:47 29.08.2021
5935 Clouds 21 1015 19 10000 3.6 140 12:42 29.08.2021
5936 Clouds 21 1014 19 10000 3.6 130 11:53 29.08.2021
5937 Clouds 23 1014 18 10000 4.63 100 11:32 29.08.2021
5938 Clouds 25 1013 15 10000 5.66 100 10:46 29.08.2021
5939 Clouds 25 1013 15 10000 5.66 90 10:27 29.08.2021
5940 Clouds 26 1013 15 10000 6.69 110 09:21 29.08.2021
5941 Clear 19 1019 24 10000 6.17 100 02:37 29.08.2021
5942 Clear 9 1018 49 10000 2.06 290 22:25 28.08.2021
5943 Clear 12 1017 37 10000 3.09 350 20:30 28.08.2021
5944 Clouds 12 1017 37 10000 2.57 240 18:51 28.08.2021
5945 Clouds 12 1017 35 10000 1.03 270 18:21 28.08.2021
5946 Clouds 14 1017 30 10000 2.57 320 17:27 28.08.2021
5947 Clouds 15 1017 31 10000 2.57 260 16:21 28.08.2021
5948 Clouds 17 1016 27 10000 0 0 14:42 28.08.2021
5949 Clouds 19 1016 24 10000 0 0 13:46 28.08.2021
5950 Clouds 21 1015 21 10000 2.57 150 12:45 28.08.2021
5951 Clouds 24 1014 17 10000 3.6 180 11:57 28.08.2021
5952 Clouds 28 1013 10 10000 3.6 280 10:43 28.08.2021
5953 Clear 29 1012 10 10000 4.63 300 09:24 28.08.2021
5954 Clear 29 1013 10 10000 6.17 310 07:25 28.08.2021
5955 Clouds 19 1014 14 10000 9.26 350 22:42 27.08.2021
5956 Clouds 19 1014 14 10000 8.75 350 21:24 27.08.2021
5957 Clouds 19 1014 15 10000 9.26 350 20:33 27.08.2021
5958 Clouds 17 1014 20 10000 5.14 360 18:58 27.08.2021
5959 Clouds 17 1015 22 10000 3.6 30 18:37 27.08.2021
5960 Clouds 18 1015 22 10000 2.06 10 17:20 27.08.2021
5961 Clouds 14 1016 23 10000 2.57 90 15:55 27.08.2021
5962 Clouds 17 1016 22 10000 2.57 50 14:43 27.08.2021
5963 Clear 19 1016 19 10000 0 0 12:54 27.08.2021
5964 Clear 23 1014 14 10000 0 0 11:26 27.08.2021
5965 Clear 26 1014 11 10000 0 0 10:43 27.08.2021
5966 Clear 27 1014 11 10000 3.6 320 09:37 27.08.2021
5967 Clear 27 1014 11 10000 3.09 210 08:46 27.08.2021
5968 Clear 26 1015 11 10000 1.54 160 06:47 27.08.2021
5969 Clear 24 1017 12 10000 4.12 330 04:56 27.08.2021
5970 Clear 13 1018 28 10000 0 0 00:35 27.08.2021
5971 Clear 3 1017 38 10000 0 0 22:43 26.08.2021
5972 Clear 3 1017 38 10000 0 0 22:18 26.08.2021
5973 Clear 4 1017 38 10000 2.06 20 20:35 26.08.2021
5974 Clear 5 1017 36 10000 0 0 18:50 26.08.2021
5975 Clear 6 1018 31 10000 0 0 17:45 26.08.2021
5976 Clear 8 1018 27 10000 2.06 30 16:33 26.08.2021
5977 Clear 9 1018 31 10000 1.54 30 15:54 26.08.2021
5978 Clear 13 1017 24 10000 2.06 70 13:44 26.08.2021
5979 Clear 15 1017 21 10000 2.57 90 12:52 26.08.2021
5980 Clear 16 1017 20 10000 2.57 100 12:24 26.08.2021
5981 Clear 21 1016 13 10000 3.09 90 10:18 26.08.2021
5982 Clear 21 1016 14 10000 2.57 130 08:34 26.08.2021
5983 Clear 16 1022 23 10000 3.6 80 03:27 26.08.2021
5984 Clear 0 1020 47 10000 0 0 22:49 25.08.2021
5985 Clear 1 1020 44 10000 0 0 22:30 25.08.2021
5986 Clear 2 1020 48 10000 0 0 21:29 25.08.2021
5987 Clear 2 1020 44 10000 0 0 20:46 25.08.2021
5988 Clear 3 1020 41 10000 0 0 20:26 25.08.2021
5989 Clear 5 1021 38 10000 0 0 18:42 25.08.2021
5990 Clear 4 1021 38 10000 0 0 17:29 25.08.2021
5991 Clear 8 1022 34 10000 1.54 100 15:43 25.08.2021
5992 Clear 7 1022 31 10000 1.54 100 14:47 25.08.2021
5993 Clear 9 1022 29 10000 2.57 110 14:18 25.08.2021
5994 Clear 12 1021 24 10000 3.09 130 12:55 25.08.2021
5995 Clear 15 1020 20 10000 4.12 90 11:25 25.08.2021
5996 Clear 15 1020 20 10000 4.12 90 11:25 25.08.2021
5997 Clear 17 1019 17 10000 6.17 80 10:30 25.08.2021
5998 Clear 18 1019 17 10000 6.17 110 09:43 25.08.2021
5999 Clear 18 1019 17 10000 6.17 110 08:40 25.08.2021
6000 Clouds 17 1020 19 10000 4.63 90 07:44 25.08.2021
6001 Clouds 13 1024 28 10000 6.69 90 03:28 25.08.2021
6002 Clouds 1 1023 60 10000 1.54 80 23:40 24.08.2021
6003 Clouds 2 1023 60 10000 1.54 40 21:48 24.08.2021
6004 Clouds 3 1023 56 10000 0 0 20:38 24.08.2021
6005 Clouds 3 1023 56 10000 1.54 230 19:44 24.08.2021
6006 Clear 6 1024 52 10000 0 0 17:57 24.08.2021
6007 Clear 6 1024 49 10000 2.06 210 17:22 24.08.2021
6008 Clear 6 1024 49 10000 2.57 180 16:38 24.08.2021
6009 Clouds 9 1024 40 10000 3.6 140 14:24 24.08.2021
6010 Clouds 11 1024 35 10000 3.6 130 13:23 24.08.2021
6011 Clouds 14 1022 26 10000 4.63 130 11:25 24.08.2021
6012 Clouds 15 1022 25 10000 5.66 120 10:47 24.08.2021
6013 Clouds 16 1022 23 10000 6.69 130 10:25 24.08.2021
6014 Clear 17 1021 23 10000 7.72 130 08:46 24.08.2021
6015 Clouds 16 1023 27 10000 6.69 130 06:35 24.08.2021
6016 Clouds 14 1026 33 10000 8.75 120 03:59 24.08.2021
6017 Clouds 7 1024 42 10000 2.06 170 23:59 23.08.2021
6018 Clouds 6 1024 42 10000 2.06 140 22:51 23.08.2021
6019 Clouds 7 1024 42 10000 3.09 140 21:52 23.08.2021
6020 Clouds 6 1024 42 10000 2.06 150 20:27 23.08.2021
6021 Clouds 6 1024 42 10000 3.09 140 18:47 23.08.2021
6022 Clouds 7 1024 39 10000 3.6 160 16:29 23.08.2021
6023 Clear 11 1024 32 10000 2.57 170 13:58 23.08.2021
6024 Clear 14 1023 26 10000 3.6 160 12:34 23.08.2021
6025 Clear 15 1022 25 10000 4.63 160 11:48 23.08.2021
6026 Clear 18 1021 20 10000 6.17 170 10:36 23.08.2021
6027 Clear 19 1021 19 10000 6.17 160 09:24 23.08.2021
6028 Clear 19 1021 22 10000 6.17 170 07:54 23.08.2021
6029 Clear 19 1021 26 10000 7.2 170 06:47 23.08.2021
6030 Clear 18 1023 34 10000 6.69 160 04:46 23.08.2021
6031 Clouds 16 1022 41 10000 7.2 170 00:48 23.08.2021
6032 Clouds 17 1019 34 10000 4.63 190 22:43 22.08.2021
6033 Clouds 18 1017 27 10000 3.09 190 21:37 22.08.2021
6034 Clouds 19 1016 26 10000 3.6 180 20:20 22.08.2021
6035 Clouds 16 1015 23 10000 3.09 330 18:37 22.08.2021
6036 Clouds 17 1015 22 10000 3.09 300 16:22 22.08.2021
6037 Clouds 17 1015 22 10000 0 0 14:55 22.08.2021
6038 Clear 22 1015 16 10000 2.57 350 13:59 22.08.2021
6039 Clear 21 1015 16 10000 2.57 350 13:20 22.08.2021
6040 Clear 21 1015 16 10000 2.57 350 13:20 22.08.2021
6041 Clear 23 1015 14 10000 2.57 350 12:50 22.08.2021
6042 Clear 25 1014 12 10000 2.06 280 11:53 22.08.2021
6043 Clear 26 1014 11 10000 2.06 260 11:32 22.08.2021
6044 Clear 30 1013 9 10000 5.14 280 09:27 22.08.2021
6045 Clear 31 1014 8 10000 5.66 350 07:55 22.08.2021
6046 Clear 29 1017 9 10000 6.69 350 04:43 22.08.2021
6047 Clear 8 1016 39 10000 0 0 22:42 21.08.2021
6048 Clear 8 1016 39 10000 0 0 22:22 21.08.2021
6049 Clear 12 1017 30 10000 1.54 340 18:58 21.08.2021
6050 Clear 12 1017 28 10000 2.57 330 18:39 21.08.2021
6051 Clear 13 1017 26 10000 1.54 230 17:18 21.08.2021
6052 Clear 14 1017 24 10000 2.06 280 16:49 21.08.2021
6053 Clear 15 1017 23 10000 0 0 15:40 21.08.2021
6054 Clear 15 1017 23 10000 0 0 15:22 21.08.2021
6055 Clear 19 1017 19 10000 2.06 120 13:43 21.08.2021
6056 Clear 22 1016 15 10000 3.09 140 12:40 21.08.2021
6057 Clear 25 1015 11 10000 3.09 150 11:36 21.08.2021
6058 Clear 29 1015 10 10000 3.09 190 09:18 21.08.2021
6059 Clear 13 1019 28 10000 3.09 230 00:51 21.08.2021
6060 Clear 9 1017 34 10000 3.6 330 22:31 20.08.2021
6061 Clear 11 1017 30 10000 2.57 340 19:49 20.08.2021
6062 Clear 12 1018 30 10000 2.06 260 17:45 20.08.2021
6063 Clear 16 1018 25 10000 2.06 340 14:35 20.08.2021
6064 Clear 21 1017 16 10000 2.06 350 12:18 20.08.2021
6065 Clear 25 1016 13 10000 2.06 330 11:29 20.08.2021
6066 Clear 28 1016 11 10000 2.57 300 10:22 20.08.2021
6067 Clear 28 1016 11 10000 3.6 340 09:27 20.08.2021
6068 Clear 29 1016 10 10000 2.57 330 08:36 20.08.2021
6069 Clear 26 1019 14 10000 6.17 320 04:42 20.08.2021
6070 Clear 26 1019 14 10000 6.17 320 04:20 20.08.2021
6071 Clear 11 1019 37 10000 2.57 330 23:30 19.08.2021
6072 Clear 7 1018 33 10000 0 0 22:38 19.08.2021
6073 Clear 7 1018 33 10000 2.57 280 21:55 19.08.2021
6074 Clear 8 1018 34 10000 0 0 20:20 19.08.2021
6075 Clear 9 1019 34 10000 0 0 17:59 19.08.2021
6076 Clear 12 1019 28 10000 0 0 16:51 19.08.2021
6077 Clear 16 1019 23 10000 0.51 70 14:36 19.08.2021
6078 Clear 20 1018 17 10000 2.06 140 12:46 19.08.2021
6079 Clear 20 1017 18 10000 0 0 12:27 19.08.2021
6080 Clear 25 1016 12 10000 0.51 360 10:49 19.08.2021
6081 Clear 26 1016 12 10000 0.51 340 09:48 19.08.2021
6082 Clear 27 1016 12 10000 2.06 260 09:27 19.08.2021
6083 Clear 27 1016 12 10000 4.12 320 08:33 19.08.2021
6084 Clear 21 1020 18 10000 3.09 60 03:37 19.08.2021
6085 Clear 17 1021 22 10000 3.09 80 02:19 19.08.2021
6086 Clear 3 1020 56 10000 2.06 280 23:28 18.08.2021
6087 Clear 4 1019 52 10000 0 0 22:31 18.08.2021
6088 Clear 5 1019 52 10000 0 0 20:50 18.08.2021
6089 Clear 5 1019 48 10000 0 0 20:20 18.08.2021
6090 Clear 7 1019 49 10000 0 0 19:26 18.08.2021
6091 Clear 7 1020 42 10000 0 0 18:33 18.08.2021
6092 Clear 9 1020 43 10000 0 0 16:52 18.08.2021
6093 Clear 10 1020 40 10000 0 0 15:40 18.08.2021
6094 Clear 10 1020 40 10000 0 0 15:21 18.08.2021
6095 Clear 15 1019 29 10000 3.6 120 12:50 18.08.2021
6096 Clear 17 1019 25 10000 2.57 100 12:27 18.08.2021
6097 Clear 18 1018 24 10000 3.6 120 11:37 18.08.2021
6098 Clear 22 1018 20 10000 2.57 150 07:53 18.08.2021
6099 Clear 22 1018 20 10000 2.57 150 07:53 18.08.2021
6100 Clear 6 1024 36 10000 2.06 290 00:59 18.08.2021
6101 Clear 3 1022 41 10000 2.57 300 22:38 17.08.2021
6102 Clear 3 1022 41 10000 2.57 290 21:46 17.08.2021
6103 Clear 2 1022 38 10000 2.06 290 20:47 17.08.2021
6104 Clear 5 1023 33 10000 2.06 270 19:20 17.08.2021
6105 Clear 5 1024 33 10000 1.54 20 17:33 17.08.2021
6106 Clear 6 1024 31 10000 0.51 20 16:50 17.08.2021
6107 Clear 10 1024 25 10000 1.54 40 15:41 17.08.2021
6108 Clear 10 1024 23 10000 3.09 140 14:42 17.08.2021
6109 Clear 14 1023 19 10000 3.6 140 12:36 17.08.2021
6110 Clear 20 1022 13 10000 5.66 140 09:27 17.08.2021
6111 Clouds 20 1022 13 10000 6.17 120 08:21 17.08.2021
6112 Clouds 19 1023 13 10000 6.69 120 06:40 17.08.2021
6113 Clouds 1 1026 55 10000 2.06 250 23:18 16.08.2021
6114 Clouds 2 1026 48 10000 0 0 22:47 16.08.2021
6115 Clouds 2 1026 48 10000 0 0 22:28 16.08.2021
6116 Clouds 3 1026 44 10000 0 0 21:37 16.08.2021
6117 Clouds 4 1026 45 10000 0 0 20:50 16.08.2021
6118 Clouds 4 1026 38 10000 0 0 19:26 16.08.2021
6119 Clouds 6 1026 39 10000 0 0 18:25 16.08.2021
6120 Clouds 6 1027 36 10000 0 0 17:52 16.08.2021
6121 Clouds 8 1027 31 10000 3.6 170 15:53 16.08.2021
6122 Clouds 10 1028 27 10000 3.09 170 14:58 16.08.2021
6123 Clear 12 1027 24 10000 3.09 140 13:40 16.08.2021
6124 Clear 13 1027 22 10000 3.09 140 12:56 16.08.2021
6125 Clear 18 1026 16 10000 4.63 140 11:29 16.08.2021
6126 Clear 22 1026 13 10000 6.69 140 08:54 16.08.2021
6127 Clear 21 1026 12 10000 6.17 150 07:45 16.08.2021
6128 Clear 21 1026 13 10000 6.17 120 07:27 16.08.2021
6129 Clear 20 1028 14 10000 6.69 150 05:51 16.08.2021
6130 Clear 4 1028 52 10000 0 0 23:46 15.08.2021
6131 Clear 8 1027 42 10000 0 0 20:51 15.08.2021
6132 Clear 10 1027 37 10000 2.06 130 18:48 15.08.2021
6133 Clear 9 1027 37 10000 0 0 18:20 15.08.2021
6134 Clear 10 1027 37 10000 0 0 17:42 15.08.2021
6135 Clear 12 1027 32 10000 1.54 30 16:28 15.08.2021
6136 Clear 14 1027 30 10000 2.57 130 15:28 15.08.2021
6137 Clear 16 1027 25 10000 4.12 140 14:30 15.08.2021
6138 Clear 22 1025 20 10000 4.12 130 11:44 15.08.2021
6139 Clear 26 1024 15 10000 5.66 130 09:41 15.08.2021
6140 Clear 25 1025 15 10000 5.14 100 05:21 15.08.2021
6141 Clear 7 1025 49 10000 2.06 300 00:43 15.08.2021
6142 Clear 7 1024 49 10000 2.06 280 22:47 14.08.2021
6143 Clear 7 1023 49 10000 0 0 21:20 14.08.2021
6144 Clear 7 1024 45 10000 0 0 19:44 14.08.2021
6145 Clear 8 1024 46 10000 0 0 19:24 14.08.2021
6146 Clear 9 1024 43 10000 1.03 20 17:22 14.08.2021
6147 Clear 12 1024 35 10000 1.54 100 15:54 14.08.2021
6148 Clear 15 1024 31 10000 0 0 14:32 14.08.2021
6149 Clear 20 1022 22 10000 3.09 110 12:22 14.08.2021
6150 Clear 23 1021 18 10000 2.57 150 10:53 14.08.2021
6151 Clear 24 1021 17 10000 2.06 170 07:48 14.08.2021
6152 Clear 3 1024 44 10000 0 0 23:54 13.08.2021
6153 Clear 3 1024 44 10000 0 0 23:18 13.08.2021
6154 Clear 4 1024 45 10000 1.54 290 21:40 13.08.2021
6155 Clear 5 1024 42 10000 0.51 220 18:49 13.08.2021
6156 Clear 5 1024 36 10000 0.51 280 17:56 13.08.2021
6157 Clear 7 1025 33 10000 0 0 16:32 13.08.2021
6158 Clear 11 1025 28 10000 2.57 140 14:30 13.08.2021
6159 Clouds 17 1023 20 10000 4.12 130 11:20 13.08.2021
6160 Clouds 19 1023 19 10000 5.14 130 09:49 13.08.2021
6161 Clouds 19 1023 18 10000 4.63 140 08:36 13.08.2021
6162 Clouds 19 1024 19 10000 5.14 110 07:22 13.08.2021
6163 Clear 17 1026 23 10000 6.69 110 04:59 13.08.2021
6164 Clear 3 1027 56 10000 0 0 23:49 12.08.2021
6165 Clear 4 1026 56 10000 3.09 170 21:21 12.08.2021
6166 Clear 6 1026 52 10000 2.57 140 20:22 12.08.2021
6167 Clear 6 1026 52 10000 0.51 140 19:45 12.08.2021
6168 Clear 7 1027 57 10000 0 0 17:54 12.08.2021
6169 Clear 8 1028 53 10000 2.06 150 16:34 12.08.2021
6170 Clear 10 1028 50 10000 2.57 140 15:20 12.08.2021
6171 Clear 13 1027 41 10000 3.6 140 12:59 12.08.2021
6172 Clear 16 1026 33 10000 4.63 130 11:20 12.08.2021
6173 Clear 19 1026 27 10000 7.2 140 07:57 12.08.2021
6174 Clear 13 1030 47 10000 6.69 120 01:52 12.08.2021
6175 Clear 7 1028 57 10000 3.09 150 22:54 11.08.2021
6176 Clear 12 1027 43 10000 4.12 140 20:45 11.08.2021
6177 Clear 13 1027 47 10000 3.6 140 18:29 11.08.2021
6178 Clear 16 1027 41 10000 6.69 150 16:30 11.08.2021
6179 Clear 17 1026 45 10000 5.14 150 15:20 11.08.2021
6180 Clear 18 1026 45 10000 4.63 150 14:22 11.08.2021
6181 Clear 18 1026 45 10000 4.63 150 14:22 11.08.2021
6182 Clear 20 1024 42 10000 5.14 160 12:31 11.08.2021
6183 Clear 21 1023 40 10000 5.66 160 11:47 11.08.2021
6184 Clear 22 1022 37 10000 6.17 170 11:22 11.08.2021
6185 Clear 25 1021 25 10000 6.17 180 09:59 11.08.2021
6186 Clear 26 1020 21 10000 6.69 180 08:31 11.08.2021
6187 Clear 9 1019 40 10000 0 0 23:42 10.08.2021
6188 Clear 14 1018 33 10000 2.06 340 22:32 10.08.2021
6189 Clear 13 1018 35 10000 0 0 21:33 10.08.2021
6190 Clear 16 1018 29 10000 3.09 340 20:35 10.08.2021
6191 Clear 15 1018 29 10000 3.09 350 18:39 10.08.2021
6192 Clear 17 1019 25 10000 3.6 350 16:41 10.08.2021
6193 Clear 16 1018 25 10000 3.09 310 14:54 10.08.2021
6194 Clear 21 1017 18 10000 2.57 340 12:26 10.08.2021
6195 Clear 27 1016 12 10000 7.2 340 10:38 10.08.2021
6196 Clear 27 1017 12 10000 5.66 320 06:57 10.08.2021
6197 Clear 25 1019 13 10000 4.12 350 04:58 10.08.2021
6198 Clear 4 1020 48 10000 2.06 330 23:43 09.08.2021
6199 Clear 4 1020 45 10000 2.06 310 21:55 09.08.2021
6200 Clear 4 1020 45 10000 2.57 300 21:36 09.08.2021
6201 Clear 6 1020 39 10000 2.57 310 19:37 09.08.2021
6202 Clear 8 1021 34 10000 2.57 300 17:53 09.08.2021
6203 Clear 9 1021 31 7000 2.57 300 15:35 09.08.2021
6204 Clear 13 1021 24 10000 2.06 70 13:52 09.08.2021
6205 Clear 15 1020 25 10000 3.09 120 13:27 09.08.2021
6206 Clear 15 1020 25 10000 3.09 120 13:27 09.08.2021
6207 Clear 23 1019 13 10000 1.03 130 10:50 09.08.2021
6208 Clear 25 1019 11 10000 3.09 10 08:26 09.08.2021
6209 Clear 2 1022 55 10000 1.54 290 23:27 08.08.2021
6210 Clear 2 1022 48 10000 1.03 220 21:26 08.08.2021
6211 Clear 5 1022 45 10000 2.06 310 19:46 08.08.2021
6212 Clear 7 1024 42 10000 0 0 16:54 08.08.2021
6213 Clear 8 1024 36 10000 1.03 50 15:33 08.08.2021
6214 Clear 12 1023 28 10000 2.57 150 13:26 08.08.2021
6215 Clear 16 1022 23 10000 3.09 130 11:25 08.08.2021
6216 Clear 19 1023 20 10000 2.57 140 06:45 08.08.2021
6217 Clear 18 1025 24 10000 4.63 90 05:37 08.08.2021
6218 Clear 2 1026 60 10000 2.57 310 00:31 08.08.2021
6219 Clear 3 1026 60 10000 2.57 330 22:20 07.08.2021
6220 Clear 3 1026 56 10000 2.57 310 21:41 07.08.2021
6221 Clear 3 1026 56 10000 2.57 280 20:35 07.08.2021
6222 Clear 5 1026 48 10000 1.54 290 17:37 07.08.2021
6223 Clear 5 1027 48 10000 0 0 16:42 07.08.2021
6224 Clear 10 1026 37 10000 2.06 90 14:27 07.08.2021
6225 Clear 11 1026 32 10000 3.09 120 13:30 07.08.2021
6226 Clear 19 1024 20 10000 5.66 120 10:22 07.08.2021
6227 Clear 18 1026 27 10000 4.12 120 05:45 07.08.2021
6228 Clear 1 1028 69 10000 0 0 23:55 06.08.2021
6229 Clear 1 1027 69 10000 0 0 21:25 06.08.2021
6230 Clear 2 1027 64 10000 0 0 20:27 06.08.2021
6231 Clear 3 1027 65 10000 0 0 19:56 06.08.2021
6232 Clear 4 1027 60 10000 2.06 290 18:29 06.08.2021
6233 Clear 8 1028 49 10000 2.57 130 15:19 06.08.2021
6234 Clear 17 1025 29 10000 5.66 130 10:40 06.08.2021
6235 Clear 17 1025 31 10000 5.14 150 09:26 06.08.2021
6236 Clear 12 1030 54 10000 4.12 120 02:33 06.08.2021
6237 Clear 2 1028 80 10000 2.06 280 23:27 05.08.2021
6238 Clear 3 1028 75 10000 0.51 340 21:31 05.08.2021
6239 Clouds 4 1028 70 10000 0 0 19:57 05.08.2021
6240 Clouds 4 1028 65 10000 1.54 170 18:49 05.08.2021
6241 Clouds 7 1028 61 10000 2.57 150 16:20 05.08.2021
6242 Clear 10 1028 50 10000 3.6 160 13:57 05.08.2021
6243 Clear 16 1026 31 10000 6.17 140 10:50 05.08.2021
6244 Clear 17 1025 29 10000 6.69 110 08:20 05.08.2021
6245 Clear 14 1030 44 10000 7.72 120 03:37 05.08.2021
6246 Clouds 2 1028 75 10000 0 0 22:41 04.08.2021
6247 Clouds 2 1027 69 10000 0 0 21:27 04.08.2021
6248 Clear 3 1028 65 10000 1.54 180 20:23 04.08.2021
6249 Clear 5 1029 56 10000 2.06 170 17:24 04.08.2021
6250 Clear 7 1029 49 10000 3.6 150 14:48 04.08.2021
6251 Clear 12 1027 35 10000 3.6 130 12:23 04.08.2021
6252 Clear 17 1025 25 10000 6.17 120 08:53 04.08.2021
6253 Clear 2 1027 69 10000 2.57 290 21:46 03.08.2021
6254 Clear 3 1026 65 10000 0.51 180 20:29 03.08.2021
6255 Clear 3 1026 65 10000 0 0 18:58 03.08.2021
6256 Clear 5 1027 60 10000 2.06 140 17:30 03.08.2021
6257 Clear 9 1026 46 10000 3.6 160 13:58 03.08.2021
6258 Clear 16 1024 29 10000 4.12 140 10:58 03.08.2021
6259 Clear 16 1024 29 10000 4.12 120 10:38 03.08.2021
6260 Clear 5 1024 45 10000 2.57 230 22:58 02.08.2021
6261 Clear 10 1022 29 10000 2.06 300 16:45 02.08.2021
6262 Clear 10 1021 34 10000 1.54 290 15:35 02.08.2021
6263 Clear 16 1019 27 10000 4.12 200 12:40 02.08.2021
6264 Clear 17 1018 25 10000 3.09 190 11:57 02.08.2021
6265 Clear 19 1017 20 10000 4.63 190 10:58 02.08.2021
6266 Clouds 23 1024 21 10000 5.36 243 07:45 02.08.2021
6267 Clouds 19 1013 39 10000 4.63 340 19:33 01.08.2021
6268 Clouds 14 1014 58 10000 2.06 60 17:46 01.08.2021
6269 Clouds 20 1014 42 10000 3.6 90 11:39 01.08.2021
6270 Clouds 23 1024 21 10000 5.36 243 10:55 01.08.2021
6271 Clear 18 1019 48 10000 5.14 120 03:49 01.08.2021
6272 Clear 12 1018 82 10000 1.54 210 23:43 31.07.2021
6273 Clear 13 1017 76 10000 2.57 210 22:33 31.07.2021
6274 Clear 18 1014 32 10000 3.09 290 18:20 31.07.2021
6275 Clear 21 1014 26 10000 3.6 310 16:37 31.07.2021
6276 Clear 23 1024 21 10000 5.36 243 13:39 31.07.2021
6277 Clear 30 1011 13 10000 8.75 290 10:28 31.07.2021
6278 Clear 27 1015 21 10000 2.57 280 03:18 31.07.2021
6279 Clear 18 1013 29 10000 5.14 350 20:54 30.07.2021
6280 Clear 18 1013 29 10000 3.6 340 20:22 30.07.2021
6281 Clear 22 1014 21 10000 3.6 310 14:19 30.07.2021
6282 Clear 16 1012 48 10000 0.51 330 18:53 29.07.2021
6283 Clear 29 1013 20 10000 8.23 300 07:41 29.07.2021
6284 Clear 23 1024 21 10000 5.36 243 04:51 29.07.2021
6285 Clear 11 1015 82 10000 2.57 50 22:21 28.07.2021
6286 Clear 12 1016 62 10000 0 0 17:47 28.07.2021
6287 Clear 13 1016 58 10000 0 0 16:54 28.07.2021
6288 Clouds 23 1024 21 10000 5.36 243 09:29 28.07.2021
6289 Clouds 17 1012 42 10000 1.54 270 23:44 27.07.2021
6290 Clear 16 1012 44 10000 3.6 270 21:29 27.07.2021
6291 Clouds 24 1012 29 10000 4.12 310 14:53 27.07.2021
6292 Clear 26 1011 24 10000 7.2 300 12:58 27.07.2021
6293 Clear 29 1010 17 10000 9.26 310 10:20 27.07.2021
6294 Clear 17 1015 22 10000 4.63 10 20:43 26.07.2021
6295 Clouds 18 1016 20 10000 4.63 350 15:32 26.07.2021
6296 Clear 23 1024 21 10000 5.36 243 07:49 26.07.2021
6297 Clouds 12 1019 37 10000 2.06 90 20:57 25.07.2021
6298 Clouds 13 1020 35 10000 3.09 80 18:31 25.07.2021
6299 Clouds 10 1021 40 10000 0 0 15:47 25.07.2021
6300 Clouds 19 1019 22 10000 2.57 90 10:57 25.07.2021
6301 Clouds 20 1018 22 10000 5.14 110 08:20 25.07.2021
6302 Clouds 10 1023 43 10000 0.51 290 01:43 25.07.2021
6303 Clouds 4 1020 52 10000 2.06 280 20:19 24.07.2021
6304 Clouds 8 1020 42 10000 2.06 330 15:49 24.07.2021
6305 Clouds 17 1019 29 10000 5.14 210 04:20 24.07.2021
6306 Clear 13 1015 38 10000 2.57 320 14:40 23.07.2021
6307 Clear 15 1013 31 10000 0.51 250 12:42 23.07.2021
6308 Clear 20 1013 28 10000 3.6 230 06:18 23.07.2021
6309 Clear 13 1013 44 10000 3.09 210 20:33 22.07.2021
6310 Clouds 27 1007 18 10000 7.72 280 11:28 22.07.2021
6311 Clouds 29 1007 14 10000 11.83 290 09:23 22.07.2021
6312 Clear 22 1012 26 10000 13.38 330 03:42 22.07.2021
6313 Clouds 17 1013 36 10000 8.75 340 21:45 21.07.2021
6314 Clouds 17 1012 36 10000 10.8 350 21:27 21.07.2021
6315 Clear 17 1017 36 10000 4.12 70 13:23 21.07.2021
6316 Clear 23 1016 27 10000 4.63 110 09:49 21.07.2021
6317 Clear 24 1017 25 10000 3.6 90 07:59 21.07.2021
6318 Clear 5 1022 65 10000 1.54 300 23:46 20.07.2021
6319 Clear 11 1023 46 10000 0 0 16:37 20.07.2021
6320 Clear 12 1023 43 10000 0 0 16:00 20.07.2021
6321 Clear 13 1023 44 10000 0 0 15:24 20.07.2021
6322 Clouds 23 1024 21 10000 5.36 243 10:22 20.07.2021
6323 Clear 23 1024 21 10000 5.36 243 04:48 20.07.2021
6324 Clear 6 1020 65 10000 0 0 22:25 19.07.2021
6325 Clear 15 1020 38 10000 3.09 80 12:53 19.07.2021
6326 Clear 23 1024 21 10000 5.36 243 10:28 19.07.2021
6327 Clouds 6 1020 70 10000 0 0 19:25 18.07.2021
6328 Clear 12 1020 50 10000 2.57 120 13:49 18.07.2021
6329 Clear 19 1017 32 10000 2.06 100 10:18 18.07.2021
6330 Clear 3 1019 75 10000 0 0 22:24 17.07.2021
6331 Clear 5 1019 65 10000 0 0 21:44 17.07.2021
6332 Clear 5 1018 70 10000 0.51 310 20:49 17.07.2021
6333 Clouds 13 1019 44 10000 3.09 170 12:27 17.07.2021
6334 Clear 19 1018 30 10000 3.09 180 08:55 17.07.2021
6335 Clear 3 1018 52 10000 3.09 280 20:48 16.07.2021
6336 Clouds 9 1018 31 10000 0 0 13:22 16.07.2021
6337 Clouds 18 1017 20 10000 6.17 220 07:32 16.07.2021
6338 Clear 9 1018 57 10000 2.57 280 00:36 16.07.2021
6339 Clear 16 1012 29 10000 2.57 230 13:52 15.07.2021
6340 Clouds 23 1024 21 10000 5.36 243 10:31 15.07.2021
6341 Clouds 12 1012 94 10000 0 0 00:33 15.07.2021
6342 Clouds 14 1012 88 10000 2.57 360 19:22 14.07.2021
6343 Clouds 17 1012 72 10000 0 0 15:55 14.07.2021
6344 Clouds 17 1012 72 10000 0 0 15:55 14.07.2021
6345 Clear 30 1008 19 10000 9.77 290 07:48 14.07.2021
6346 Clear 20 1012 26 10000 4.63 320 21:44 13.07.2021
6347 Clouds 19 1012 27 10000 4.12 350 19:55 13.07.2021
6348 Clouds 19 1012 27 10000 4.63 360 19:28 13.07.2021
6349 Clouds 19 1012 27 10000 5.66 360 18:45 13.07.2021
6350 Clouds 19 1013 27 10000 3.6 360 18:27 13.07.2021
6351 Clouds 19 1013 27 10000 3.6 350 17:56 13.07.2021
6352 Clear 22 1013 24 10000 4.12 350 13:21 13.07.2021
6353 Clouds 28 1012 17 10000 6.69 320 08:49 13.07.2021
6354 Clouds 16 1016 31 10000 2.06 80 20:00 12.07.2021
6355 Clouds 11 1018 50 10000 1.03 210 16:45 12.07.2021
6356 Clouds 23 1024 21 10000 5.36 243 09:59 12.07.2021
6357 Clear 9 1018 53 10000 2.57 320 21:59 11.07.2021
6358 Clouds 10 1018 50 10000 1.54 260 19:48 11.07.2021
6359 Clouds 23 1024 21 10000 5.36 243 04:42 11.07.2021
6360 Clouds 14 1019 28 10000 2.57 350 22:30 10.07.2021
6361 Clear 18 1018 24 10000 4.63 90 11:37 10.07.2021
6362 Clouds 23 1024 21 10000 5.36 243 07:24 10.07.2021
6363 Clouds 4 1020 65 10000 3.09 50 22:39 09.07.2021
6364 Clear 3 1020 65 10000 3.09 80 18:20 09.07.2021
6365 Clear 9 1021 46 10000 0 0 14:48 09.07.2021
6366 Clear 17 1022 36 10000 4.12 110 03:58 09.07.2021
6367 Clear 4 1020 65 10000 2.06 270 23:48 08.07.2021
6368 Clear 7 1019 49 10000 3.6 280 21:39 08.07.2021
6369 Clear 7 1018 42 10000 3.09 250 18:55 08.07.2021
6370 Clear 10 1018 34 10000 2.57 310 15:45 08.07.2021
6371 Clear 13 1017 28 10000 2.06 330 13:31 08.07.2021
6372 Clear 14 1016 26 10000 1.54 350 12:39 08.07.2021
6373 Clear 17 1015 20 10000 2.57 190 11:27 08.07.2021
6374 Clear 23 1024 21 10000 5.36 243 07:45 08.07.2021
6375 Clear 23 1024 21 10000 5.36 243 04:41 08.07.2021
6376 Clear 2 1016 60 10000 2.06 300 23:45 07.07.2021
6377 Clear 2 1016 60 10000 2.06 300 23:45 07.07.2021
6378 Clear 1 1016 60 10000 2.57 310 22:20 07.07.2021
6379 Clear 3 1015 60 10000 2.06 290 21:46 07.07.2021
6380 Clear 3 1015 60 10000 2.06 290 21:26 07.07.2021
6381 Clouds 2 1016 60 10000 2.06 310 20:28 07.07.2021
6382 Clouds 4 1016 52 10000 0 0 19:42 07.07.2021
6383 Clouds 4 1016 52 10000 0 0 19:24 07.07.2021
6384 Clouds 9 1017 40 10000 0 0 16:30 07.07.2021
6385 Clouds 10 1016 37 10000 2.06 90 15:24 07.07.2021
6386 Clouds 13 1016 26 10000 3.09 120 12:24 07.07.2021
6387 Clouds 20 1015 18 10000 3.09 110 07:33 07.07.2021
6388 Clouds 20 1015 18 10000 3.09 110 07:33 07.07.2021
6389 Clouds 18 1017 22 10000 3.09 90 05:53 07.07.2021
6390 Clouds 12 1020 35 10000 3.09 120 02:58 07.07.2021
6391 Clear 0 1019 64 10000 2.57 310 20:54 06.07.2021
6392 Clear 1 1019 60 10000 1.54 310 19:18 06.07.2021
6393 Clear 3 1019 56 10000 2.57 300 18:44 06.07.2021
6394 Clear 3 1019 56 10000 2.57 300 18:19 06.07.2021
6395 Clear 8 1020 36 10000 2.06 60 13:37 06.07.2021
6396 Clear 17 1018 20 10000 3.6 130 09:45 06.07.2021
6397 Clear 18 1018 19 10000 3.6 140 08:50 06.07.2021
6398 Clear 17 1018 20 10000 3.6 180 08:24 06.07.2021
6399 Clear 15 1020 26 10000 2.57 80 04:49 06.07.2021
6400 Clear -1 1020 74 10000 0 0 23:58 05.07.2021
6401 Clear 0 1019 69 10000 0 0 21:59 05.07.2021
6402 Clear 3 1019 60 10000 0 0 17:22 05.07.2021
6403 Clouds 7 1020 45 10000 1.54 70 14:29 05.07.2021
6404 Clouds 14 1020 33 10000 3.6 80 05:59 05.07.2021
6405 Clouds 13 1021 38 10000 3.6 70 05:41 05.07.2021
6406 Clouds 2 1022 80 10000 0 0 00:58 05.07.2021
6407 Clouds 2 1022 75 10000 0 0 21:19 04.07.2021
6408 Clouds 3 1023 70 10000 0 0 18:25 04.07.2021
6409 Clouds 6 1024 61 10000 0 0 15:22 04.07.2021
6410 Clear 10 1022 43 10000 3.6 140 11:26 04.07.2021
6411 Clear 14 1022 33 10000 4.63 90 07:34 04.07.2021
6412 Clear 0 1024 93 10000 2.06 110 23:29 03.07.2021
6413 Clear 0 1024 93 10000 1.54 190 21:40 03.07.2021
6414 Clear 8 1024 66 10000 3.6 140 12:51 03.07.2021
6415 Clear 10 1023 62 10000 3.6 140 11:57 03.07.2021
6416 Clouds 14 1022 47 10000 4.63 140 09:28 03.07.2021
6417 Clouds 14 1022 47 10000 3.6 160 08:45 03.07.2021
6418 Clouds 3 1024 87 10000 0 0 23:47 02.07.2021
6419 Clear 20 1019 24 10000 4.12 170 10:25 02.07.2021
6420 Clear 21 1019 24 10000 3.09 120 07:28 02.07.2021
6421 Clear 13 1023 47 10000 0 0 02:28 02.07.2021
6422 Clear 5 1021 70 10000 2.57 310 22:31 01.07.2021
6423 Clear 4 1020 75 10000 0 0 21:37 01.07.2021
6424 Clear 5 1021 70 10000 0 0 20:22 01.07.2021
6425 Clear 5 1021 70 10000 2.06 280 19:20 01.07.2021
6426 Clear 5 1021 70 10000 1.54 270 18:47 01.07.2021
6427 Clear 6 1021 65 10000 0 0 17:41 01.07.2021
6428 Clear 7 1022 61 10000 0 0 16:28 01.07.2021
6429 Clear 8 1022 57 10000 0 0 15:24 01.07.2021
6430 Clear 10 1022 50 10000 2.06 50 14:19 01.07.2021
6431 Clear 21 1021 23 10000 3.09 130 09:55 01.07.2021
6432 Clear 21 1021 23 10000 3.09 130 09:55 01.07.2021
6433 Clear 19 1024 32 10000 0 0 03:21 01.07.2021
6434 Clear 4 1022 81 10000 2.57 310 23:18 30.06.2021
6435 Clear 4 1022 75 10000 3.09 290 21:58 30.06.2021
6436 Clear 5 1022 75 10000 3.09 320 21:20 30.06.2021
6437 Clear 5 1022 70 10000 2.57 280 20:24 30.06.2021
6438 Clear 8 1023 61 10000 0 0 16:50 30.06.2021
6439 Clear 10 1022 53 10000 0 0 14:21 30.06.2021
6440 Clear 20 1020 24 10000 4.63 180 10:43 30.06.2021
6441 Clear 5 1022 75 10000 2.57 300 00:54 30.06.2021
6442 Clear 5 1020 75 10000 2.57 310 20:30 29.06.2021
6443 Clear 6 1021 65 10000 2.06 280 17:48 29.06.2021
6444 Clear 6 1021 70 10000 2.06 240 17:28 29.06.2021
6445 Clear 7 1021 65 10000 0 0 15:51 29.06.2021
6446 Clouds 9 1021 57 10000 0 0 14:55 29.06.2021
6447 Clouds 13 1020 38 10000 2.57 110 13:26 29.06.2021
6448 Clear 19 1019 26 10000 2.06 200 06:25 29.06.2021
6449 Clouds 3 1020 81 10000 2.57 60 23:33 28.06.2021
6450 Clear 2 1021 80 10000 0 0 21:32 28.06.2021
6451 Clear 2 1021 80 10000 0 0 18:52 28.06.2021
6452 Clear 3 1021 81 10000 0 0 17:20 28.06.2021
6453 Clear 7 1021 61 10000 0 0 14:32 28.06.2021
6454 Clear 11 1020 46 10000 3.09 120 12:24 28.06.2021
6455 Clear -2 1023 100 10000 0 0 23:55 27.06.2021
6456 Clear -1 1023 93 10000 2.57 280 22:32 27.06.2021
6457 Clear 1 1023 86 10000 1.54 110 19:45 27.06.2021
6458 Clear 1 1023 86 10000 2.57 120 18:56 27.06.2021
6459 Clear 7 1025 65 10000 2.57 70 15:39 27.06.2021
6460 Clouds 11 1024 46 10000 3.6 90 11:23 27.06.2021
6461 Clear 3 1027 93 10000 0 0 01:38 27.06.2021
6462 Clear 0 1026 93 10000 0 0 22:30 26.06.2021
6463 Clear 1 1026 93 10000 0 0 20:54 26.06.2021
6464 Clear 1 1026 93 10000 0 0 20:35 26.06.2021
6465 Clear 4 1027 87 10000 3.09 140 16:22 26.06.2021
6466 Clear 6 1027 75 10000 3.09 150 14:37 26.06.2021
6467 Clear 8 1026 66 10000 3.09 140 12:24 26.06.2021
6468 Clear 14 1025 38 10000 4.12 90 07:25 26.06.2021
6469 Clear 3 1025 87 10000 3.09 170 22:49 25.06.2021
6470 Clouds 4 1025 87 10000 2.57 180 20:38 25.06.2021
6471 Clouds 5 1025 87 10000 2.06 150 18:59 25.06.2021
6472 Clear 5 1025 87 10000 2.57 180 17:31 25.06.2021
6473 Clouds 7 1025 81 10000 2.57 160 16:23 25.06.2021
6474 Clear 8 1024 76 10000 3.09 150 13:58 25.06.2021
6475 Clear 14 1022 51 10000 4.12 150 10:31 25.06.2021
6476 Clear 14 1022 51 10000 3.6 150 07:27 25.06.2021
6477 Clouds 14 1023 51 10000 5.66 170 06:32 25.06.2021
6478 Clear 7 1024 87 10000 0.51 210 01:40 25.06.2021
6479 Clouds 5 1022 100 10000 2.57 260 21:49 24.06.2021
6480 Clear 5 1022 100 10000 1.54 260 20:44 24.06.2021
6481 Clear 5 1022 100 10000 1.54 260 20:21 24.06.2021
6482 Clouds 6 1022 93 10000 0 0 18:35 24.06.2021
6483 Clouds 6 1022 93 10000 0 0 18:35 24.06.2021
6484 Clear 7 1022 87 10000 2.57 210 15:24 24.06.2021
6485 Clouds 7 1021 87 10000 2.06 210 14:54 24.06.2021
6486 Clear 9 1021 81 10000 3.09 180 13:34 24.06.2021
6487 Clear 14 1019 54 10000 2.57 190 10:23 24.06.2021
6488 Clear 15 1018 51 10000 3.6 190 08:33 24.06.2021
6489 Clear 15 1019 51 10000 3.6 180 07:34 24.06.2021
6490 Clear 5 1020 100 10000 1.54 300 00:46 24.06.2021
6491 Clear 5 1019 93 10000 3.09 270 22:29 23.06.2021
6492 Clear 6 1019 93 10000 3.6 270 21:24 23.06.2021
6493 Clear 6 1019 100 10000 2.57 270 20:20 23.06.2021
6494 Mist 6 1019 100 4200 3.09 290 18:31 23.06.2021
6495 Fog 6 1019 100 500 2.57 270 17:18 23.06.2021
6496 Rain 9 1018 100 6000 1.54 60 14:31 23.06.2021
6497 Rain 11 1017 93 10000 2.06 120 12:50 23.06.2021
6498 Rain 12 1017 94 10000 0 0 11:38 23.06.2021
6499 Clouds 14 1016 88 10000 3.09 200 09:41 23.06.2021
6500 Clouds 13 1016 94 10000 3.6 210 08:42 23.06.2021
6501 Clouds 13 1016 94 10000 4.63 220 07:50 23.06.2021
6502 Clouds 13 1016 94 10000 3.6 210 05:44 23.06.2021
6503 Clouds 12 1017 100 10000 2.57 90 02:19 23.06.2021
6504 Clouds 11 1016 100 10000 2.57 40 00:19 23.06.2021
6505 Clouds 12 1016 100 10000 0.51 110 23:46 22.06.2021
6506 Clouds 11 1016 100 10000 1.54 100 22:42 22.06.2021
6507 Clouds 12 1016 94 10000 0.51 160 21:46 22.06.2021
6508 Clouds 11 1016 100 10000 0.51 230 20:55 22.06.2021
6509 Clouds 12 1017 94 10000 2.57 260 19:19 22.06.2021
6510 Clouds 13 1017 94 10000 5.14 220 18:33 22.06.2021
6511 Clouds 15 1016 72 10000 4.63 190 17:29 22.06.2021
6512 Clouds 19 1016 48 10000 5.14 290 16:56 22.06.2021
6513 Clouds 20 1016 42 10000 5.66 340 15:21 22.06.2021
6514 Clouds 18 1015 48 10000 3.6 10 14:26 22.06.2021
6515 Clouds 18 1016 48 10000 2.57 290 13:38 22.06.2021
6516 Clouds 19 1015 45 10000 4.63 360 12:30 22.06.2021
6517 Clouds 19 1015 42 10000 5.66 350 10:49 22.06.2021
6518 Clouds 23 1024 21 10000 5.36 243 08:42 22.06.2021
6519 Clouds 14 1017 44 10000 5.66 40 00:54 22.06.2021
6520 Clouds 13 1017 44 10000 3.6 90 23:41 21.06.2021
6521 Clouds 13 1017 44 10000 2.57 140 22:52 21.06.2021
6522 Clouds 14 1017 41 10000 2.06 100 21:30 21.06.2021
6523 Clouds 12 1017 47 10000 3.6 90 20:49 21.06.2021
6524 Clouds 14 1017 41 10000 1.03 100 19:55 21.06.2021
6525 Clouds 14 1017 41 10000 1.03 100 19:55 21.06.2021
6526 Clouds 13 1017 44 10000 3.09 50 18:59 21.06.2021
6527 Clouds 12 1018 50 10000 2.06 80 17:47 21.06.2021
6528 Clouds 12 1018 47 10000 2.57 80 16:49 21.06.2021
6529 Clouds 13 1017 44 10000 4.63 80 16:26 21.06.2021
6530 Clouds 14 1018 41 10000 4.12 80 15:46 21.06.2021
6531 Clouds 15 1019 41 10000 5.66 90 14:24 21.06.2021
6532 Clouds 16 1019 39 10000 4.63 90 13:36 21.06.2021
6533 Clouds 16 1018 39 10000 5.14 90 12:50 21.06.2021
6534 Clouds 16 1018 36 10000 4.63 90 12:19 21.06.2021
6535 Clouds 19 1017 32 10000 4.63 100 10:32 21.06.2021
6536 Clouds 22 1017 23 10000 1.03 240 09:37 21.06.2021
6537 Clouds 23 1024 21 10000 5.36 243 08:24 21.06.2021
6538 Clouds 23 1024 21 10000 5.36 243 07:44 21.06.2021
6539 Snow 2 1021 80 10000 0 0 00:44 21.06.2021
6540 Clear 2 1021 80 10000 0 0 23:36 20.06.2021
6541 Snow 2 1021 87 10000 2.06 300 22:59 20.06.2021
6542 Clear 2 1021 87 10000 0.51 280 22:19 20.06.2021
6543 Clear 3 1020 75 10000 0 0 21:32 20.06.2021
6544 Clear 4 1021 75 10000 2.06 310 19:47 20.06.2021
6545 Clear 4 1021 75 10000 2.57 300 19:24 20.06.2021
6546 Clear 4 1021 70 10000 0 0 18:21 20.06.2021
6547 Clear 5 1022 75 10000 0 0 16:52 20.06.2021
6548 Clear 6 1022 65 10000 0 0 15:55 20.06.2021
6549 Clear 8 1022 66 10000 1.03 30 15:33 20.06.2021
6550 Clear 9 1022 61 10000 2.06 10 14:48 20.06.2021
6551 Clouds 10 1022 57 10000 2.57 130 13:51 20.06.2021
6552 Clouds 11 1021 54 10000 3.6 140 12:58 20.06.2021
6553 Clouds 13 1021 47 10000 2.57 130 11:46 20.06.2021
6554 Clouds 15 1020 41 10000 2.57 140 10:46 20.06.2021
6555 Clouds 17 1020 39 10000 3.09 110 09:47 20.06.2021
6556 Clouds 17 1020 39 10000 2.57 110 07:47 20.06.2021
6557 Clouds 6 1023 81 10000 0 0 23:57 19.06.2021
6558 Clouds 7 1023 76 10000 0 0 22:59 19.06.2021
6559 Clouds 6 1022 75 10000 2.57 180 21:59 19.06.2021
6560 Clouds 7 1022 76 10000 2.57 160 21:39 19.06.2021
6561 Clouds 11 1023 62 10000 2.57 150 18:56 19.06.2021
6562 Clouds 11 1023 62 10000 3.09 150 18:25 19.06.2021
6563 Clouds 11 1023 62 10000 3.6 130 17:27 19.06.2021
6564 Clouds 11 1023 62 10000 3.09 100 16:49 19.06.2021
6565 Clouds 12 1024 58 10000 3.6 120 15:42 19.06.2021
6566 Clouds 13 1024 50 10000 3.09 130 13:23 19.06.2021
6567 Clouds 13 1024 50 10000 2.57 140 11:59 19.06.2021
6568 Clouds 14 1024 51 10000 3.09 140 10:49 19.06.2021
6569 Clouds 14 1024 51 10000 3.09 140 10:49 19.06.2021
6570 Clouds 14 1024 51 10000 3.09 140 10:49 19.06.2021
6571 Clouds 14 1024 51 10000 3.09 140 10:49 19.06.2021
6572 Clouds 14 1023 47 10000 3.6 110 10:27 19.06.2021
6573 Clouds 14 1023 47 10000 3.6 110 09:59 19.06.2021
6574 Clouds 14 1022 47 10000 4.63 120 08:25 19.06.2021
6575 Clouds 14 1023 51 10000 7.2 90 06:36 19.06.2021
6576 Clouds 11 1027 58 10000 4.63 90 03:31 19.06.2021
6577 Clouds 4 1026 81 10000 2.57 190 00:23 19.06.2021
6578 Clouds 4 1025 75 10000 2.06 190 23:40 18.06.2021
6579 Clouds 4 1025 81 10000 0 0 22:55 18.06.2021
6580 Clouds 3 1025 81 10000 2.06 190 22:35 18.06.2021
6581 Clouds 3 1024 81 10000 2.06 190 21:49 18.06.2021
6582 Clouds 3 1024 81 10000 2.57 180 21:23 18.06.2021
6583 Clouds 3 1025 81 10000 2.57 180 20:23 18.06.2021
6584 Clouds 5 1025 70 10000 2.57 190 18:46 18.06.2021
6585 Clouds 6 1025 70 10000 2.57 160 17:50 18.06.2021
6586 Clouds 8 1026 61 10000 2.57 160 16:39 18.06.2021
6587 Clouds 8 1026 61 10000 3.09 150 15:46 18.06.2021
6588 Clouds 8 1026 61 10000 2.57 170 14:36 18.06.2021
6589 Clouds 10 1026 53 10000 3.09 160 13:43 18.06.2021
6590 Clouds 11 1026 50 10000 3.09 170 12:52 18.06.2021
6591 Clouds 12 1025 47 10000 3.6 160 12:33 18.06.2021
6592 Clouds 12 1024 47 10000 3.6 150 11:44 18.06.2021
6593 Clouds 13 1024 44 10000 4.63 150 10:57 18.06.2021
6594 Clouds 13 1024 44 10000 4.63 150 10:57 18.06.2021
6595 Clouds 13 1024 44 10000 4.12 160 10:23 18.06.2021
6596 Clouds 13 1024 41 10000 5.14 170 09:52 18.06.2021
6597 Clouds 14 1024 35 10000 5.14 150 09:19 18.06.2021
6598 Clouds 14 1025 38 10000 5.14 160 08:32 18.06.2021
6599 Clouds 14 1025 44 10000 5.14 170 07:36 18.06.2021
6600 Clouds 12 1026 54 10000 4.63 140 04:45 18.06.2021
6601 Clouds 9 1027 71 10000 4.12 170 00:34 18.06.2021
6602 Clouds 7 1025 70 10000 4.63 180 23:27 17.06.2021
6603 Clouds 7 1024 65 10000 1.54 300 22:26 17.06.2021
6604 Clouds 7 1024 65 10000 0.51 280 21:51 17.06.2021
6605 Clouds 8 1024 66 10000 2.06 240 20:59 17.06.2021
6606 Clouds 8 1025 61 10000 2.57 240 20:31 17.06.2021
6607 Clouds 7 1025 65 10000 2.06 250 19:53 17.06.2021
6608 Clouds 7 1024 65 10000 2.57 220 18:58 17.06.2021
6609 Clouds 8 1024 61 10000 2.57 250 17:50 17.06.2021
6610 Clouds 8 1024 61 10000 2.06 290 17:22 17.06.2021
6611 Clouds 8 1024 57 10000 2.06 260 16:28 17.06.2021
6612 Clouds 8 1024 57 10000 2.57 240 15:51 17.06.2021
6613 Clouds 10 1024 53 10000 1.54 180 14:29 17.06.2021
6614 Clouds 11 1024 50 10000 2.57 180 13:32 17.06.2021
6615 Clouds 13 1024 44 10000 2.57 190 12:31 17.06.2021
6616 Clouds 14 1023 41 10000 2.57 190 11:35 17.06.2021
6617 Clouds 15 1022 38 10000 3.6 180 10:43 17.06.2021
6618 Clouds 15 1022 38 10000 3.6 180 10:23 17.06.2021
6619 Clouds 16 1022 33 10000 4.12 180 09:40 17.06.2021
6620 Clouds 16 1022 33 10000 4.63 200 08:33 17.06.2021
6621 Clouds 17 1022 31 10000 3.6 160 07:51 17.06.2021
6622 Clouds 17 1023 29 10000 4.63 140 05:54 17.06.2021
6623 Clear 10 1023 43 10000 0.51 250 01:51 17.06.2021
6624 Clouds 9 1022 46 10000 0.51 210 23:39 16.06.2021
6625 Clouds 9 1022 46 10000 0.51 210 23:20 16.06.2021
6626 Clouds 9 1022 49 10000 0 0 22:23 16.06.2021
6627 Clouds 9 1021 46 10000 0 0 21:41 16.06.2021
6628 Clouds 9 1021 46 10000 0 0 21:18 16.06.2021
6629 Clouds 10 1021 43 10000 2.57 220 20:36 16.06.2021
6630 Clouds 10 1021 43 10000 2.57 250 19:50 16.06.2021
6631 Clouds 10 1021 43 10000 2.57 270 19:32 16.06.2021
6632 Clouds 10 1020 46 10000 2.06 260 18:51 16.06.2021
6633 Clouds 10 1021 46 10000 3.09 260 18:24 16.06.2021
6634 Clouds 10 1022 46 10000 2.57 200 17:36 16.06.2021
6635 Clouds 10 1022 46 10000 2.57 200 17:18 16.06.2021
6636 Clouds 10 1021 46 10000 0 0 16:42 16.06.2021
6637 Clouds 10 1022 46 10000 2.06 200 15:50 16.06.2021
6638 Clouds 12 1021 43 10000 1.54 200 15:28 16.06.2021
6639 Clouds 12 1021 40 10000 2.06 200 14:45 16.06.2021
6640 Clouds 11 1021 43 10000 1.03 200 14:26 16.06.2021
6641 Clouds 12 1021 40 10000 3.09 180 13:44 16.06.2021
6642 Clouds 13 1021 38 10000 3.09 170 13:22 16.06.2021
6643 Clouds 12 1020 40 10000 3.09 180 12:41 16.06.2021
6644 Clear 12 1020 40 10000 3.09 180 12:18 16.06.2021
6645 Clear 15 1019 33 10000 3.09 160 11:31 16.06.2021
6646 Clear 17 1018 29 10000 3.09 160 10:44 16.06.2021
6647 Clear 18 1018 27 10000 2.57 170 09:50 16.06.2021
6648 Clear 19 1018 26 10000 2.57 170 09:26 16.06.2021
6649 Clouds 19 1018 27 10000 3.09 130 08:19 16.06.2021
6650 Clouds 18 1018 29 10000 3.6 220 07:38 16.06.2021
6651 Clear 14 1021 38 10000 3.09 210 02:59 16.06.2021
6652 Clouds 7 1020 57 10000 1.54 210 00:48 16.06.2021
6653 Clouds 6 1018 61 10000 3.6 270 23:44 15.06.2021
6654 Clouds 6 1018 61 10000 3.6 270 23:44 15.06.2021
6655 Clouds 6 1018 61 10000 3.6 270 23:20 15.06.2021
6656 Clouds 5 1017 65 10000 2.57 270 22:40 15.06.2021
6657 Clouds 6 1017 61 10000 2.57 310 21:57 15.06.2021
6658 Clouds 6 1017 56 10000 2.57 300 20:54 15.06.2021
6659 Clouds 6 1017 61 10000 3.09 300 19:58 15.06.2021
6660 Clouds 7 1017 57 10000 3.09 310 19:22 15.06.2021
6661 Clouds 8 1017 53 10000 2.06 270 17:21 15.06.2021
6662 Clouds 8 1017 53 10000 2.57 310 16:42 15.06.2021
6663 Clouds 9 1016 53 10000 2.06 190 15:41 15.06.2021
6664 Clouds 12 1016 47 10000 0 0 14:53 15.06.2021
6665 Clouds 11 1016 50 10000 1.03 180 14:20 15.06.2021
6666 Clouds 14 1015 41 10000 0 0 13:35 15.06.2021
6667 Clouds 15 1015 38 10000 0 0 12:49 15.06.2021
6668 Clear 16 1014 33 10000 0 0 11:55 15.06.2021
6669 Clear 18 1014 32 10000 0 0 11:20 15.06.2021
6670 Clear 20 1013 28 10000 3.09 230 10:56 15.06.2021
6671 Clear 22 1013 24 10000 3.6 240 10:35 15.06.2021
6672 Clear 24 1013 23 10000 3.6 230 09:50 15.06.2021
6673 Clear 23 1024 21 10000 5.36 243 08:36 15.06.2021
6674 Clear 23 1024 21 10000 5.36 243 07:54 15.06.2021
6675 Clear 23 1024 21 10000 5.36 243 06:53 15.06.2021